<?xml version='1.0' encoding='UTF-8'?><gpx version="1.1" creator="JPX - https://github.com/jenetics/jpx" xmlns="http://www.topografix.com/GPX/1/1"><trk><trkseg><trkpt lat="45.46145245942422" lon="7.90733393825338"><ele>238.0</ele><time>2026-03-23T14:16:39.391Z</time></trkpt><trkpt lat="45.46158326723841" lon="7.907263633164518"><ele>238.0</ele><time>2026-03-23T14:21:17.975Z</time></trkpt><trkpt lat="45.46154896934975" lon="7.90716808694655"><ele>238.0</ele><time>2026-03-23T14:22:07.973Z</time></trkpt><trkpt lat="45.46153990768406" lon="7.907043426201279"><ele>238.0</ele><time>2026-03-23T14:22:09.973Z</time></trkpt><trkpt lat="45.46151277746468" lon="7.906881085492324"><ele>238.0</ele><time>2026-03-23T14:22:11.973Z</time></trkpt><trkpt lat="45.46148098583925" lon="7.906734859769268"><ele>238.16666666666666</ele><time>2026-03-23T14:22:13.973Z</time></trkpt><trkpt lat="45.46145889479536" lon="7.90660116114774"><ele>238.33333333333331</ele><time>2026-03-23T14:22:15.973Z</time></trkpt><trkpt lat="45.46141314240842" lon="7.906495239967319"><ele>238.5</ele><time>2026-03-23T14:22:17.973Z</time></trkpt><trkpt lat="45.46138224518475" lon="7.906413596279893"><ele>238.66666666666669</ele><time>2026-03-23T14:22:19.973Z</time></trkpt><trkpt lat="45.46130900592334" lon="7.906372161553425"><ele>238.83333333333334</ele><time>2026-03-23T14:22:22.973Z</time></trkpt><trkpt lat="45.46123750476845" lon="7.906422356895491"><ele>239.0</ele><time>2026-03-23T14:22:23.973Z</time></trkpt><trkpt lat="45.4611777883738" lon="7.906481708426243"><ele>238.33333333333334</ele><time>2026-03-23T14:22:24.973Z</time></trkpt><trkpt lat="45.46111091310262" lon="7.906535090794043"><ele>237.66666666666669</ele><time>2026-03-23T14:22:25.973Z</time></trkpt><trkpt lat="45.461044791773155" lon="7.906588279878916"><ele>237.0</ele><time>2026-03-23T14:22:26.973Z</time></trkpt><trkpt lat="45.46097653815676" lon="7.906637235907119"><ele>236.33333333333331</ele><time>2026-03-23T14:22:27.973Z</time></trkpt><trkpt lat="45.46090874604865" lon="7.906688232301235"><ele>235.66666666666666</ele><time>2026-03-23T14:22:28.973Z</time></trkpt><trkpt lat="45.46084102042658" lon="7.906745237690053"><ele>235.0</ele><time>2026-03-23T14:22:29.973Z</time></trkpt><trkpt lat="45.46076129186616" lon="7.906790422167473"><ele>234.99999999999997</ele><time>2026-03-23T14:22:30.973Z</time></trkpt><trkpt lat="45.460676291204265" lon="7.906824568256259"><ele>235.0</ele><time>2026-03-23T14:22:31.973Z</time></trkpt><trkpt lat="45.46059621014752" lon="7.906842835713202"><ele>235.0</ele><time>2026-03-23T14:22:32.973Z</time></trkpt><trkpt lat="45.4605175391335" lon="7.90687912509353"><ele>235.0</ele><time>2026-03-23T14:22:33.973Z</time></trkpt><trkpt lat="45.4604244587754" lon="7.906903893732056"><ele>234.99999999999997</ele><time>2026-03-23T14:22:34.973Z</time></trkpt><trkpt lat="45.4603416130852" lon="7.906924099644705"><ele>235.0</ele><time>2026-03-23T14:22:35.973Z</time></trkpt><trkpt lat="45.46026466330533" lon="7.906944293245398"><ele>234.85714285714283</ele><time>2026-03-23T14:22:36.973Z</time></trkpt><trkpt lat="45.46019198039289" lon="7.90697993344182"><ele>234.7142857142857</ele><time>2026-03-23T14:22:37.973Z</time></trkpt><trkpt lat="45.46012137707009" lon="7.907007175743417"><ele>234.57142857142856</ele><time>2026-03-23T14:22:38.973Z</time></trkpt><trkpt lat="45.460051077614736" lon="7.907013585022936"><ele>234.42857142857144</ele><time>2026-03-23T14:22:39.973Z</time></trkpt><trkpt lat="45.45998568136899" lon="7.906984369471938"><ele>234.2857142857143</ele><time>2026-03-23T14:22:40.973Z</time></trkpt><trkpt lat="45.45993114251086" lon="7.906898970694946"><ele>234.14285714285717</ele><time>2026-03-23T14:22:41.973Z</time></trkpt><trkpt lat="45.45989201170444" lon="7.906814593312971"><ele>234.0</ele><time>2026-03-23T14:22:42.973Z</time></trkpt><trkpt lat="45.45985203291531" lon="7.90671799307816"><ele>234.0</ele><time>2026-03-23T14:22:43.973Z</time></trkpt><trkpt lat="45.45979742930693" lon="7.9066388501986005"><ele>234.0</ele><time>2026-03-23T14:22:44.973Z</time></trkpt><trkpt lat="45.45974951061347" lon="7.906575154679125"><ele>234.0</ele><time>2026-03-23T14:22:45.973Z</time></trkpt><trkpt lat="45.45961950330597" lon="7.906576057814029"><ele>234.0</ele><time>2026-03-23T14:22:47.973Z</time></trkpt><trkpt lat="45.459559971627954" lon="7.906663159661749"><ele>234.0</ele><time>2026-03-23T14:22:48.973Z</time></trkpt><trkpt lat="45.45951508972215" lon="7.9067589742899695"><ele>234.0</ele><time>2026-03-23T14:22:49.973Z</time></trkpt><trkpt lat="45.45946285179244" lon="7.9068308731600885"><ele>233.71428571428572</ele><time>2026-03-23T14:22:50.973Z</time></trkpt><trkpt lat="45.45940090642948" lon="7.906896627830973"><ele>233.42857142857144</ele><time>2026-03-23T14:22:51.973Z</time></trkpt><trkpt lat="45.45933931143084" lon="7.9069639814863555"><ele>233.14285714285717</ele><time>2026-03-23T14:22:52.973Z</time></trkpt><trkpt lat="45.459292289996704" lon="7.907040263829778"><ele>232.8571428571429</ele><time>2026-03-23T14:22:53.973Z</time></trkpt><trkpt lat="45.459244269927346" lon="7.907110657053028"><ele>232.57142857142858</ele><time>2026-03-23T14:22:54.973Z</time></trkpt><trkpt lat="45.459198155516056" lon="7.907186513766894"><ele>232.28571428571433</ele><time>2026-03-23T14:22:55.973Z</time></trkpt><trkpt lat="45.459148820030464" lon="7.907262928217962"><ele>232.00000000000003</ele><time>2026-03-23T14:22:56.973Z</time></trkpt><trkpt lat="45.45908891969931" lon="7.9073353052589095"><ele>231.99999999999997</ele><time>2026-03-23T14:22:57.973Z</time></trkpt><trkpt lat="45.45903392931125" lon="7.907410428586486"><ele>232.0</ele><time>2026-03-23T14:22:58.973Z</time></trkpt><trkpt lat="45.458988210574134" lon="7.907502027994593"><ele>232.0</ele><time>2026-03-23T14:22:59.973Z</time></trkpt><trkpt lat="45.45894379461544" lon="7.9075767096411695"><ele>232.0</ele><time>2026-03-23T14:23:00.973Z</time></trkpt><trkpt lat="45.45885626748" lon="7.9077021998663595"><ele>231.99999999999997</ele><time>2026-03-23T14:23:02.973Z</time></trkpt><trkpt lat="45.458814628885605" lon="7.9077716597934264"><ele>232.0</ele><time>2026-03-23T14:23:03.973Z</time></trkpt><trkpt lat="45.4587659511153" lon="7.9078446679604975"><ele>232.16666666666666</ele><time>2026-03-23T14:23:04.973Z</time></trkpt><trkpt lat="45.4587209998326" lon="7.907911949761149"><ele>232.33333333333331</ele><time>2026-03-23T14:23:05.973Z</time></trkpt><trkpt lat="45.458673230246355" lon="7.907990501658806"><ele>232.5</ele><time>2026-03-23T14:23:06.973Z</time></trkpt><trkpt lat="45.45862367503024" lon="7.908081825798079"><ele>232.66666666666669</ele><time>2026-03-23T14:23:07.973Z</time></trkpt><trkpt lat="45.458565312787535" lon="7.908171199250536"><ele>232.83333333333334</ele><time>2026-03-23T14:23:08.973Z</time></trkpt><trkpt lat="45.45851765251857" lon="7.908260560279217"><ele>233.0</ele><time>2026-03-23T14:23:09.973Z</time></trkpt><trkpt lat="45.45847150967907" lon="7.908328478832152"><ele>233.00000000000003</ele><time>2026-03-23T14:23:10.973Z</time></trkpt><trkpt lat="45.458414728295594" lon="7.908405770460868"><ele>233.0</ele><time>2026-03-23T14:23:11.973Z</time></trkpt><trkpt lat="45.45835679505101" lon="7.908477968460534"><ele>233.0</ele><time>2026-03-23T14:23:12.973Z</time></trkpt><trkpt lat="45.45829648676316" lon="7.908566597957656"><ele>233.0</ele><time>2026-03-23T14:23:13.973Z</time></trkpt><trkpt lat="45.45822559669296" lon="7.908660760527302"><ele>233.00000000000003</ele><time>2026-03-23T14:23:14.973Z</time></trkpt><trkpt lat="45.458162776348914" lon="7.9087592365134345"><ele>233.0</ele><time>2026-03-23T14:23:15.973Z</time></trkpt><trkpt lat="45.458105298754795" lon="7.908860244914336"><ele>233.2</ele><time>2026-03-23T14:23:16.973Z</time></trkpt><trkpt lat="45.45804377146215" lon="7.908958701391737"><ele>233.4</ele><time>2026-03-23T14:23:17.973Z</time></trkpt><trkpt lat="45.457972424254834" lon="7.909077133140204"><ele>233.59999999999997</ele><time>2026-03-23T14:23:18.973Z</time></trkpt><trkpt lat="45.45789943603051" lon="7.909185583338288"><ele>233.79999999999998</ele><time>2026-03-23T14:23:19.973Z</time></trkpt><trkpt lat="45.45783151693015" lon="7.9093073174634085"><ele>234.0</ele><time>2026-03-23T14:23:20.973Z</time></trkpt><trkpt lat="45.45775845093304" lon="7.90941189124021"><ele>233.6</ele><time>2026-03-23T14:23:21.973Z</time></trkpt><trkpt lat="45.45768322367052" lon="7.909515857451458"><ele>233.2</ele><time>2026-03-23T14:23:22.973Z</time></trkpt><trkpt lat="45.45762217669274" lon="7.909630737308538"><ele>232.79999999999998</ele><time>2026-03-23T14:23:23.973Z</time></trkpt><trkpt lat="45.45754921547815" lon="7.909722982151758"><ele>232.39999999999998</ele><time>2026-03-23T14:23:24.973Z</time></trkpt><trkpt lat="45.457479932420625" lon="7.9098340254417465"><ele>232.0</ele><time>2026-03-23T14:23:25.973Z</time></trkpt><trkpt lat="45.457401740044354" lon="7.909928980241757"><ele>232.0</ele><time>2026-03-23T14:23:26.973Z</time></trkpt><trkpt lat="45.45735368174618" lon="7.910070107143273"><ele>232.0</ele><time>2026-03-23T14:23:27.973Z</time></trkpt><trkpt lat="45.457302864649385" lon="7.910198419673869"><ele>232.0</ele><time>2026-03-23T14:23:28.973Z</time></trkpt><trkpt lat="45.45729076675899" lon="7.910350434109112"><ele>232.0</ele><time>2026-03-23T14:23:29.973Z</time></trkpt><trkpt lat="45.457116903965364" lon="7.9104292068596305"><ele>232.0</ele><time>2026-03-23T14:23:30.973Z</time></trkpt><trkpt lat="45.45704239161793" lon="7.910541608458741"><ele>232.0</ele><time>2026-03-23T14:23:31.973Z</time></trkpt><trkpt lat="45.4569686765125" lon="7.910647798273179"><ele>232.0</ele><time>2026-03-23T14:23:32.973Z</time></trkpt><trkpt lat="45.45689596435963" lon="7.910773661686161"><ele>232.0</ele><time>2026-03-23T14:23:33.973Z</time></trkpt><trkpt lat="45.45681991873387" lon="7.910910286644127"><ele>232.0</ele><time>2026-03-23T14:23:34.973Z</time></trkpt><trkpt lat="45.45674205735234" lon="7.91104077082581"><ele>232.0</ele><time>2026-03-23T14:23:35.973Z</time></trkpt><trkpt lat="45.45665932987228" lon="7.911170787738847"><ele>232.0</ele><time>2026-03-23T14:23:36.973Z</time></trkpt><trkpt lat="45.45659547581648" lon="7.911303893548662"><ele>232.0</ele><time>2026-03-23T14:23:37.973Z</time></trkpt><trkpt lat="45.45651932150776" lon="7.911429722349084"><ele>232.0</ele><time>2026-03-23T14:23:38.973Z</time></trkpt><trkpt lat="45.456439517054655" lon="7.9115607900953"><ele>232.0</ele><time>2026-03-23T14:23:39.973Z</time></trkpt><trkpt lat="45.45635784853864" lon="7.911681426302697"><ele>232.0</ele><time>2026-03-23T14:23:40.973Z</time></trkpt><trkpt lat="45.45626894211906" lon="7.911816063120849"><ele>232.0</ele><time>2026-03-23T14:23:41.973Z</time></trkpt><trkpt lat="45.456183061391286" lon="7.911951607703492"><ele>231.5</ele><time>2026-03-23T14:23:42.973Z</time></trkpt><trkpt lat="45.456100299771265" lon="7.912088170651056"><ele>231.0</ele><time>2026-03-23T14:23:43.973Z</time></trkpt><trkpt lat="45.45602590406734" lon="7.912227244635773"><ele>230.5</ele><time>2026-03-23T14:23:44.973Z</time></trkpt><trkpt lat="45.45593334601553" lon="7.912356631942979"><ele>230.0</ele><time>2026-03-23T14:23:45.971Z</time></trkpt><trkpt lat="45.455843326628305" lon="7.912495116082124"><ele>230.0</ele><time>2026-03-23T14:23:46.97Z</time></trkpt><trkpt lat="45.455757360636994" lon="7.9126364135112714"><ele>230.0</ele><time>2026-03-23T14:23:47.97Z</time></trkpt><trkpt lat="45.45567056597151" lon="7.912759306637182"><ele>230.0</ele><time>2026-03-23T14:23:48.97Z</time></trkpt><trkpt lat="45.455592390147224" lon="7.912881166198312"><ele>230.0</ele><time>2026-03-23T14:23:49.97Z</time></trkpt><trkpt lat="45.455507536939535" lon="7.913000907761677"><ele>230.5</ele><time>2026-03-23T14:23:50.97Z</time></trkpt><trkpt lat="45.45542978549225" lon="7.913127481566244"><ele>231.0</ele><time>2026-03-23T14:23:51.97Z</time></trkpt><trkpt lat="45.455351886716834" lon="7.913255101426467"><ele>231.5</ele><time>2026-03-23T14:23:52.97Z</time></trkpt><trkpt lat="45.45526921354577" lon="7.913388975738112"><ele>232.0</ele><time>2026-03-23T14:23:53.97Z</time></trkpt><trkpt lat="45.45518972546083" lon="7.913517511632106"><ele>232.0</ele><time>2026-03-23T14:23:54.97Z</time></trkpt><trkpt lat="45.455109127012" lon="7.913644104307043"><ele>232.0</ele><time>2026-03-23T14:23:55.971Z</time></trkpt><trkpt lat="45.4550347408745" lon="7.913772495437534"><ele>232.0</ele><time>2026-03-23T14:23:56.971Z</time></trkpt><trkpt lat="45.4549670848371" lon="7.913898610136853"><ele>232.0</ele><time>2026-03-23T14:23:57.97Z</time></trkpt><trkpt lat="45.45490035106285" lon="7.914023505480884"><ele>232.0</ele><time>2026-03-23T14:23:58.97Z</time></trkpt><trkpt lat="45.45483664482061" lon="7.914135964791823"><ele>232.0</ele><time>2026-03-23T14:23:59.97Z</time></trkpt><trkpt lat="45.4547755795886" lon="7.914242881877615"><ele>232.0</ele><time>2026-03-23T14:24:00.97Z</time></trkpt><trkpt lat="45.45472484676705" lon="7.914334657280474"><ele>232.0</ele><time>2026-03-23T14:24:01.97Z</time></trkpt><trkpt lat="45.45469026241403" lon="7.914415978332249"><ele>232.0</ele><time>2026-03-23T14:24:02.97Z</time></trkpt><trkpt lat="45.454488525127104" lon="7.914329828945799"><ele>232.16666666666666</ele><time>2026-03-23T14:24:04.97Z</time></trkpt><trkpt lat="45.45441560250877" lon="7.914454390834141"><ele>232.33333333333331</ele><time>2026-03-23T14:24:10.97Z</time></trkpt><trkpt lat="45.4543661381805" lon="7.914539319583691"><ele>232.5</ele><time>2026-03-23T14:24:11.97Z</time></trkpt><trkpt lat="45.45431956476195" lon="7.91461928477011"><ele>232.66666666666669</ele><time>2026-03-23T14:24:12.97Z</time></trkpt><trkpt lat="45.454273495618565" lon="7.914697528782848"><ele>232.83333333333334</ele><time>2026-03-23T14:24:13.97Z</time></trkpt><trkpt lat="45.45422143592473" lon="7.914785667051819"><ele>233.0</ele><time>2026-03-23T14:24:14.97Z</time></trkpt><trkpt lat="45.454177274750606" lon="7.91485752053245"><ele>233.00000000000003</ele><time>2026-03-23T14:24:15.97Z</time></trkpt><trkpt lat="45.45413295284722" lon="7.91494630958931"><ele>233.0</ele><time>2026-03-23T14:24:16.97Z</time></trkpt><trkpt lat="45.4540919402704" lon="7.915027359776926"><ele>233.0</ele><time>2026-03-23T14:24:17.97Z</time></trkpt><trkpt lat="45.4540499737837" lon="7.915098444481957"><ele>233.0</ele><time>2026-03-23T14:24:18.97Z</time></trkpt><trkpt lat="45.45400423186367" lon="7.915170181593789"><ele>233.00000000000003</ele><time>2026-03-23T14:24:19.97Z</time></trkpt><trkpt lat="45.453919227322615" lon="7.915305539082206"><ele>233.0</ele><time>2026-03-23T14:24:21.97Z</time></trkpt><trkpt lat="45.45388072462647" lon="7.915379711394547"><ele>233.0</ele><time>2026-03-23T14:24:22.97Z</time></trkpt><trkpt lat="45.45379790508833" lon="7.915523700003493"><ele>233.0</ele><time>2026-03-23T14:24:24.97Z</time></trkpt><trkpt lat="45.453715916574595" lon="7.915641307567246"><ele>233.0</ele><time>2026-03-23T14:24:26.97Z</time></trkpt><trkpt lat="45.45363674649027" lon="7.915765500255777"><ele>233.0</ele><time>2026-03-23T14:24:28.97Z</time></trkpt><trkpt lat="45.453574398247255" lon="7.915879599240835"><ele>232.8</ele><time>2026-03-23T14:24:30.97Z</time></trkpt><trkpt lat="45.45351301180527" lon="7.915985080447353"><ele>232.60000000000002</ele><time>2026-03-23T14:24:32.97Z</time></trkpt><trkpt lat="45.45344430156567" lon="7.916104185289486"><ele>232.39999999999998</ele><time>2026-03-23T14:24:34.97Z</time></trkpt><trkpt lat="45.45335372640382" lon="7.916223526267583"><ele>232.2</ele><time>2026-03-23T14:24:36.97Z</time></trkpt><trkpt lat="45.45330495583878" lon="7.916298957498813"><ele>232.0</ele><time>2026-03-23T14:24:37.97Z</time></trkpt><trkpt lat="45.453253801369286" lon="7.916381141864722"><ele>232.0</ele><time>2026-03-23T14:24:38.97Z</time></trkpt><trkpt lat="45.45319476722209" lon="7.916472387273778"><ele>232.0</ele><time>2026-03-23T14:24:39.97Z</time></trkpt><trkpt lat="45.45313986178006" lon="7.916563306714359"><ele>232.0</ele><time>2026-03-23T14:24:40.97Z</time></trkpt><trkpt lat="45.45307471876887" lon="7.916668194900384"><ele>232.0</ele><time>2026-03-23T14:24:41.97Z</time></trkpt><trkpt lat="45.453014931823866" lon="7.916770930215061"><ele>232.0</ele><time>2026-03-23T14:24:42.97Z</time></trkpt><trkpt lat="45.45294428646191" lon="7.916886757964614"><ele>231.8</ele><time>2026-03-23T14:24:43.97Z</time></trkpt><trkpt lat="45.45287297570642" lon="7.917007982215326"><ele>231.6</ele><time>2026-03-23T14:24:44.97Z</time></trkpt><trkpt lat="45.452803888098934" lon="7.917110878064938"><ele>231.40000000000003</ele><time>2026-03-23T14:24:45.97Z</time></trkpt><trkpt lat="45.452748515336665" lon="7.917232134567539"><ele>231.20000000000002</ele><time>2026-03-23T14:24:46.97Z</time></trkpt><trkpt lat="45.452691354639285" lon="7.917347923189213"><ele>231.0</ele><time>2026-03-23T14:24:47.97Z</time></trkpt><trkpt lat="45.45262184066769" lon="7.917465314423846"><ele>230.8</ele><time>2026-03-23T14:24:48.97Z</time></trkpt><trkpt lat="45.45256064174281" lon="7.917577995528772"><ele>230.60000000000002</ele><time>2026-03-23T14:24:49.97Z</time></trkpt><trkpt lat="45.4524968609418" lon="7.917691658988102"><ele>230.4</ele><time>2026-03-23T14:24:50.97Z</time></trkpt><trkpt lat="45.45243090356948" lon="7.9178061240368045"><ele>230.2</ele><time>2026-03-23T14:24:51.97Z</time></trkpt><trkpt lat="45.452381939952986" lon="7.91791571962113"><ele>230.0</ele><time>2026-03-23T14:24:52.97Z</time></trkpt><trkpt lat="45.45230549124139" lon="7.918024044461248"><ele>230.0</ele><time>2026-03-23T14:24:53.97Z</time></trkpt><trkpt lat="45.45224248933685" lon="7.918148972797741"><ele>230.0</ele><time>2026-03-23T14:24:54.97Z</time></trkpt><trkpt lat="45.4521793078176" lon="7.918261156257788"><ele>230.0</ele><time>2026-03-23T14:24:55.97Z</time></trkpt><trkpt lat="45.45211783124289" lon="7.918373695912182"><ele>230.0</ele><time>2026-03-23T14:24:56.97Z</time></trkpt><trkpt lat="45.4520600476037" lon="7.918486843389035"><ele>230.0</ele><time>2026-03-23T14:24:57.97Z</time></trkpt><trkpt lat="45.45200396152222" lon="7.918596159001343"><ele>230.2</ele><time>2026-03-23T14:24:58.97Z</time></trkpt><trkpt lat="45.45193591059331" lon="7.9186896097458295"><ele>230.4</ele><time>2026-03-23T14:24:59.97Z</time></trkpt><trkpt lat="45.45188242684834" lon="7.9187955379062"><ele>230.60000000000002</ele><time>2026-03-23T14:25:00.97Z</time></trkpt><trkpt lat="45.45183214812142" lon="7.918907947220621"><ele>230.8</ele><time>2026-03-23T14:25:01.97Z</time></trkpt><trkpt lat="45.45178419921159" lon="7.919018978728689"><ele>231.0</ele><time>2026-03-23T14:25:02.97Z</time></trkpt><trkpt lat="45.451732662230405" lon="7.919119218044375"><ele>231.0</ele><time>2026-03-23T14:25:03.97Z</time></trkpt><trkpt lat="45.4516870911949" lon="7.919210689401634"><ele>231.0</ele><time>2026-03-23T14:25:04.97Z</time></trkpt><trkpt lat="45.45162255545875" lon="7.919283931060436"><ele>231.0</ele><time>2026-03-23T14:25:05.97Z</time></trkpt><trkpt lat="45.451578087317166" lon="7.919374242621729"><ele>231.0</ele><time>2026-03-23T14:25:06.97Z</time></trkpt><trkpt lat="45.451514858875214" lon="7.919442495580896"><ele>231.0</ele><time>2026-03-23T14:25:07.97Z</time></trkpt><trkpt lat="45.45142364583525" lon="7.919392616983628"><ele>231.0</ele><time>2026-03-23T14:25:08.97Z</time></trkpt><trkpt lat="45.451427445335106" lon="7.919659286313449"><ele>231.0</ele><time>2026-03-23T14:25:09.97Z</time></trkpt><trkpt lat="45.451371374092545" lon="7.919760014516526"><ele>231.0</ele><time>2026-03-23T14:25:10.97Z</time></trkpt><trkpt lat="45.451309031541875" lon="7.91985454966874"><ele>231.0</ele><time>2026-03-23T14:25:11.97Z</time></trkpt><trkpt lat="45.45125209856782" lon="7.919951964290888"><ele>231.0</ele><time>2026-03-23T14:25:12.97Z</time></trkpt><trkpt lat="45.451206557253165" lon="7.920035987801742"><ele>231.0</ele><time>2026-03-23T14:25:13.97Z</time></trkpt><trkpt lat="45.451136767613015" lon="7.920135130030451"><ele>231.0</ele><time>2026-03-23T14:25:14.97Z</time></trkpt><trkpt lat="45.45099222020243" lon="7.920157785228582"><ele>231.60000000000002</ele><time>2026-03-23T14:25:15.97Z</time></trkpt><trkpt lat="45.450924690100834" lon="7.920265697672692"><ele>232.20000000000002</ele><time>2026-03-23T14:25:16.97Z</time></trkpt><trkpt lat="45.450853353544176" lon="7.920336217327819"><ele>232.79999999999998</ele><time>2026-03-23T14:25:17.97Z</time></trkpt><trkpt lat="45.45077376980042" lon="7.920421302923817"><ele>233.39999999999998</ele><time>2026-03-23T14:25:18.97Z</time></trkpt><trkpt lat="45.4506975913659" lon="7.920431398337029"><ele>234.0</ele><time>2026-03-23T14:25:19.97Z</time></trkpt><trkpt lat="45.450731543443354" lon="7.920820569307733"><ele>233.6</ele><time>2026-03-23T14:25:20.97Z</time></trkpt><trkpt lat="45.45066517454021" lon="7.920952940330391"><ele>233.2</ele><time>2026-03-23T14:25:21.97Z</time></trkpt><trkpt lat="45.45059499008762" lon="7.921072572100293"><ele>232.79999999999998</ele><time>2026-03-23T14:25:22.97Z</time></trkpt><trkpt lat="45.450519141831705" lon="7.921184472127175"><ele>232.39999999999998</ele><time>2026-03-23T14:25:23.97Z</time></trkpt><trkpt lat="45.45045354123906" lon="7.9213093070705"><ele>232.0</ele><time>2026-03-23T14:25:24.97Z</time></trkpt><trkpt lat="45.45038227515453" lon="7.9214307727076685"><ele>232.0</ele><time>2026-03-23T14:25:25.97Z</time></trkpt><trkpt lat="45.45031309145283" lon="7.921551060787459"><ele>232.0</ele><time>2026-03-23T14:25:26.97Z</time></trkpt><trkpt lat="45.45024716446946" lon="7.921685297863754"><ele>232.0</ele><time>2026-03-23T14:25:27.97Z</time></trkpt><trkpt lat="45.45017541819094" lon="7.921809220963065"><ele>232.0</ele><time>2026-03-23T14:25:28.97Z</time></trkpt><trkpt lat="45.4500908802338" lon="7.921917837951277"><ele>232.0</ele><time>2026-03-23T14:25:29.97Z</time></trkpt><trkpt lat="45.449994464338964" lon="7.9220090116671225"><ele>232.0</ele><time>2026-03-23T14:25:30.97Z</time></trkpt><trkpt lat="45.449899863550044" lon="7.922097338881324"><ele>232.0</ele><time>2026-03-23T14:25:31.97Z</time></trkpt><trkpt lat="45.44980908776375" lon="7.922183489067183"><ele>232.0</ele><time>2026-03-23T14:25:32.97Z</time></trkpt><trkpt lat="45.449718418603105" lon="7.922267457555539"><ele>232.0</ele><time>2026-03-23T14:25:33.97Z</time></trkpt><trkpt lat="45.44962432786265" lon="7.9223521177372165"><ele>232.0</ele><time>2026-03-23T14:25:34.97Z</time></trkpt><trkpt lat="45.44952844510709" lon="7.922434357337226"><ele>232.0</ele><time>2026-03-23T14:25:35.97Z</time></trkpt><trkpt lat="45.44943515341276" lon="7.9225114495596065"><ele>232.0</ele><time>2026-03-23T14:25:36.97Z</time></trkpt><trkpt lat="45.44934032716999" lon="7.922583873515586"><ele>232.0</ele><time>2026-03-23T14:25:37.97Z</time></trkpt><trkpt lat="45.44925210484109" lon="7.922638518356944"><ele>232.0</ele><time>2026-03-23T14:25:38.97Z</time></trkpt><trkpt lat="45.44916062993483" lon="7.9226786038742745"><ele>232.0</ele><time>2026-03-23T14:25:39.97Z</time></trkpt><trkpt lat="45.449069576309725" lon="7.9227198022736784"><ele>232.0</ele><time>2026-03-23T14:25:40.97Z</time></trkpt><trkpt lat="45.44896727919174" lon="7.922768376521877"><ele>232.0</ele><time>2026-03-23T14:25:41.97Z</time></trkpt><trkpt lat="45.448868513007525" lon="7.922812763215148"><ele>232.0</ele><time>2026-03-23T14:25:42.97Z</time></trkpt><trkpt lat="45.44876412778589" lon="7.922863877721309"><ele>232.0</ele><time>2026-03-23T14:25:43.97Z</time></trkpt><trkpt lat="45.448662710679926" lon="7.922915077108423"><ele>232.0</ele><time>2026-03-23T14:25:44.97Z</time></trkpt><trkpt lat="45.44856259933237" lon="7.92295268844284"><ele>232.0</ele><time>2026-03-23T14:25:45.97Z</time></trkpt><trkpt lat="45.44846568619115" lon="7.922993791048246"><ele>232.0</ele><time>2026-03-23T14:25:46.97Z</time></trkpt><trkpt lat="45.44836697857254" lon="7.92303388559895"><ele>232.0</ele><time>2026-03-23T14:25:47.97Z</time></trkpt><trkpt lat="45.448272229362225" lon="7.923071933647121"><ele>232.0</ele><time>2026-03-23T14:25:48.97Z</time></trkpt><trkpt lat="45.44817510401104" lon="7.9231031632254005"><ele>232.0</ele><time>2026-03-23T14:25:49.97Z</time></trkpt><trkpt lat="45.448076176894666" lon="7.923134676823811"><ele>232.0</ele><time>2026-03-23T14:25:50.97Z</time></trkpt><trkpt lat="45.44798324464861" lon="7.9231574417548405"><ele>232.0</ele><time>2026-03-23T14:25:51.966Z</time></trkpt><trkpt lat="45.44789538369758" lon="7.923188334867676"><ele>232.0</ele><time>2026-03-23T14:25:52.966Z</time></trkpt><trkpt lat="45.44780994219706" lon="7.923234207139522"><ele>232.0</ele><time>2026-03-23T14:25:53.966Z</time></trkpt><trkpt lat="45.44772338156711" lon="7.923279093822518"><ele>231.8</ele><time>2026-03-23T14:25:54.966Z</time></trkpt><trkpt lat="45.44763387398254" lon="7.923323257599325"><ele>231.6</ele><time>2026-03-23T14:25:55.966Z</time></trkpt><trkpt lat="45.447543439470095" lon="7.9233587646160215"><ele>231.40000000000003</ele><time>2026-03-23T14:25:56.966Z</time></trkpt><trkpt lat="45.44745071126511" lon="7.9233911271700554"><ele>231.20000000000002</ele><time>2026-03-23T14:25:57.966Z</time></trkpt><trkpt lat="45.44735777279079" lon="7.923428192182529"><ele>231.0</ele><time>2026-03-23T14:25:58.966Z</time></trkpt><trkpt lat="45.44726457950189" lon="7.923467660241869"><ele>231.0</ele><time>2026-03-23T14:25:59.966Z</time></trkpt><trkpt lat="45.4471690538335" lon="7.923508042798435"><ele>231.00000000000003</ele><time>2026-03-23T14:26:00.966Z</time></trkpt><trkpt lat="45.447071361040734" lon="7.9235448487887"><ele>231.00000000000003</ele><time>2026-03-23T14:26:01.965Z</time></trkpt><trkpt lat="45.446974953871575" lon="7.923580483739288"><ele>231.0</ele><time>2026-03-23T14:26:02.965Z</time></trkpt><trkpt lat="45.446880394197436" lon="7.923618744757681"><ele>231.0</ele><time>2026-03-23T14:26:03.966Z</time></trkpt><trkpt lat="45.44679092337899" lon="7.923652271693964"><ele>231.0</ele><time>2026-03-23T14:26:04.966Z</time></trkpt><trkpt lat="45.44670238916706" lon="7.923687866136878"><ele>231.0</ele><time>2026-03-23T14:26:05.966Z</time></trkpt><trkpt lat="45.44661579475156" lon="7.9237189896733975"><ele>231.0</ele><time>2026-03-23T14:26:06.966Z</time></trkpt><trkpt lat="45.44653561385459" lon="7.923747049197374"><ele>231.0</ele><time>2026-03-23T14:26:07.966Z</time></trkpt><trkpt lat="45.44645629979086" lon="7.923778701417678"><ele>231.0</ele><time>2026-03-23T14:26:08.966Z</time></trkpt><trkpt lat="45.446375114028996" lon="7.923811588943289"><ele>231.0</ele><time>2026-03-23T14:26:09.966Z</time></trkpt><trkpt lat="45.44629464951864" lon="7.923843873667022"><ele>231.0</ele><time>2026-03-23T14:26:10.966Z</time></trkpt><trkpt lat="45.446207228279754" lon="7.923874093498747"><ele>231.0</ele><time>2026-03-23T14:26:11.966Z</time></trkpt><trkpt lat="45.44612662301867" lon="7.923910993594983"><ele>231.0</ele><time>2026-03-23T14:26:12.966Z</time></trkpt><trkpt lat="45.44603967165869" lon="7.923944081384288"><ele>231.0</ele><time>2026-03-23T14:26:13.966Z</time></trkpt><trkpt lat="45.44596572979972" lon="7.92397357751326"><ele>231.0</ele><time>2026-03-23T14:26:14.966Z</time></trkpt><trkpt lat="45.445885474975526" lon="7.924005883982852"><ele>231.0</ele><time>2026-03-23T14:26:15.966Z</time></trkpt><trkpt lat="45.44580713976466" lon="7.924037463428543"><ele>231.0</ele><time>2026-03-23T14:26:16.966Z</time></trkpt><trkpt lat="45.44572563656947" lon="7.924069983902205"><ele>231.0</ele><time>2026-03-23T14:26:17.966Z</time></trkpt><trkpt lat="45.44564639923995" lon="7.924099536270657"><ele>231.0</ele><time>2026-03-23T14:26:18.966Z</time></trkpt><trkpt lat="45.445563933926366" lon="7.924128909385818"><ele>231.0</ele><time>2026-03-23T14:26:19.966Z</time></trkpt><trkpt lat="45.4454816885275" lon="7.924155192796464"><ele>231.0</ele><time>2026-03-23T14:26:20.966Z</time></trkpt><trkpt lat="45.44539978080643" lon="7.9241880444589174"><ele>231.0</ele><time>2026-03-23T14:26:21.966Z</time></trkpt><trkpt lat="45.44531548240787" lon="7.924223354345982"><ele>231.20000000000002</ele><time>2026-03-23T14:26:22.966Z</time></trkpt><trkpt lat="45.445228199651" lon="7.924256056934297"><ele>231.40000000000003</ele><time>2026-03-23T14:26:23.966Z</time></trkpt><trkpt lat="45.44514505918748" lon="7.9242851262318155"><ele>231.6</ele><time>2026-03-23T14:26:24.966Z</time></trkpt><trkpt lat="45.44505274043" lon="7.924318603609779"><ele>231.8</ele><time>2026-03-23T14:26:25.966Z</time></trkpt><trkpt lat="45.44495334260735" lon="7.924345924022833"><ele>232.0</ele><time>2026-03-23T14:26:26.966Z</time></trkpt><trkpt lat="45.44486057592895" lon="7.924381802894505"><ele>232.0</ele><time>2026-03-23T14:26:27.966Z</time></trkpt><trkpt lat="45.44476757994689" lon="7.924419484509424"><ele>232.0</ele><time>2026-03-23T14:26:28.966Z</time></trkpt><trkpt lat="45.44467791761126" lon="7.924460504174635"><ele>232.0</ele><time>2026-03-23T14:26:29.966Z</time></trkpt><trkpt lat="45.444590603066835" lon="7.924485629708942"><ele>232.0</ele><time>2026-03-23T14:26:30.966Z</time></trkpt><trkpt lat="45.4445014214387" lon="7.9245093095754875"><ele>232.0</ele><time>2026-03-23T14:26:31.966Z</time></trkpt><trkpt lat="45.44441486510959" lon="7.9245443039450665"><ele>231.8</ele><time>2026-03-23T14:26:32.966Z</time></trkpt><trkpt lat="45.444330995835834" lon="7.924576024567404"><ele>231.6</ele><time>2026-03-23T14:26:33.966Z</time></trkpt><trkpt lat="45.44424783958614" lon="7.924612986565393"><ele>231.40000000000003</ele><time>2026-03-23T14:26:34.966Z</time></trkpt><trkpt lat="45.4441531798956" lon="7.924645270844936"><ele>231.20000000000002</ele><time>2026-03-23T14:26:35.966Z</time></trkpt><trkpt lat="45.44405685885213" lon="7.92468483044531"><ele>231.0</ele><time>2026-03-23T14:26:36.966Z</time></trkpt><trkpt lat="45.44396064017163" lon="7.924717582960734"><ele>231.0</ele><time>2026-03-23T14:26:37.967Z</time></trkpt><trkpt lat="45.4438609194985" lon="7.924756114769432"><ele>231.00000000000003</ele><time>2026-03-23T14:26:38.967Z</time></trkpt><trkpt lat="45.44376884425536" lon="7.924789905936587"><ele>231.00000000000003</ele><time>2026-03-23T14:26:39.968Z</time></trkpt><trkpt lat="45.44367350693516" lon="7.924828193101052"><ele>231.0</ele><time>2026-03-23T14:26:40.968Z</time></trkpt><trkpt lat="45.44358150446839" lon="7.9248613414218445"><ele>231.0</ele><time>2026-03-23T14:26:41.969Z</time></trkpt><trkpt lat="45.44349221223696" lon="7.924895478912164"><ele>231.0</ele><time>2026-03-23T14:26:42.969Z</time></trkpt><trkpt lat="45.44339868714407" lon="7.9249315668898905"><ele>231.00000000000003</ele><time>2026-03-23T14:26:43.969Z</time></trkpt><trkpt lat="45.443305901007754" lon="7.924964786699442"><ele>231.00000000000003</ele><time>2026-03-23T14:26:44.97Z</time></trkpt><trkpt lat="45.44321295666062" lon="7.925004159204419"><ele>231.0</ele><time>2026-03-23T14:26:45.97Z</time></trkpt><trkpt lat="45.44311947316125" lon="7.925034680534226"><ele>231.0</ele><time>2026-03-23T14:26:46.97Z</time></trkpt><trkpt lat="45.44302675784268" lon="7.925074756583061"><ele>231.0</ele><time>2026-03-23T14:26:47.971Z</time></trkpt><trkpt lat="45.44293512462689" lon="7.925112252438762"><ele>231.0</ele><time>2026-03-23T14:26:48.971Z</time></trkpt><trkpt lat="45.44284007342933" lon="7.925144690957538"><ele>231.0</ele><time>2026-03-23T14:26:49.971Z</time></trkpt><trkpt lat="45.442758765475716" lon="7.92517763589842"><ele>231.0</ele><time>2026-03-23T14:26:50.971Z</time></trkpt><trkpt lat="45.44267872532947" lon="7.925200513773436"><ele>231.0</ele><time>2026-03-23T14:26:51.971Z</time></trkpt><trkpt lat="45.44259915531633" lon="7.9252285361154495"><ele>231.0</ele><time>2026-03-23T14:26:52.972Z</time></trkpt><trkpt lat="45.44252943992825" lon="7.925260764928355"><ele>231.0</ele><time>2026-03-23T14:26:53.972Z</time></trkpt><trkpt lat="45.442462157002204" lon="7.925284964019442"><ele>231.0</ele><time>2026-03-23T14:26:54.972Z</time></trkpt><trkpt lat="45.442371325486285" lon="7.925259747131669"><ele>231.0</ele><time>2026-03-23T14:26:56.972Z</time></trkpt><trkpt lat="45.442409068985064" lon="7.925106567105936"><ele>231.0</ele><time>2026-03-23T14:26:58.973Z</time></trkpt><trkpt lat="45.442449097969764" lon="7.92501029536846"><ele>231.0</ele><time>2026-03-23T14:26:59.973Z</time></trkpt><trkpt lat="45.44249724703915" lon="7.924898961826783"><ele>231.0</ele><time>2026-03-23T14:27:00.973Z</time></trkpt><trkpt lat="45.44253474834154" lon="7.924761594968627"><ele>231.0</ele><time>2026-03-23T14:27:01.973Z</time></trkpt><trkpt lat="45.4425525079984" lon="7.924626359752698"><ele>231.0</ele><time>2026-03-23T14:27:02.973Z</time></trkpt><trkpt lat="45.442541873039794" lon="7.924523829594454"><ele>231.0</ele><time>2026-03-23T14:27:03.973Z</time></trkpt><trkpt lat="45.442495878934" lon="7.924450775535211"><ele>231.0</ele><time>2026-03-23T14:27:04.973Z</time></trkpt><trkpt lat="45.442387861397975" lon="7.924386152902538"><ele>231.0</ele><time>2026-03-23T14:27:06.973Z</time></trkpt><trkpt lat="45.44231335084827" lon="7.924334436579609"><ele>231.0</ele><time>2026-03-23T14:27:07.973Z</time></trkpt><trkpt lat="45.44222431767904" lon="7.924286329691589"><ele>231.0</ele><time>2026-03-23T14:27:08.974Z</time></trkpt><trkpt lat="45.442090540215474" lon="7.9243815567938025"><ele>231.0</ele><time>2026-03-23T14:27:09.974Z</time></trkpt><trkpt lat="45.44197590799788" lon="7.924428968682981"><ele>231.0</ele><time>2026-03-23T14:27:10.974Z</time></trkpt><trkpt lat="45.44185617048318" lon="7.924476042227963"><ele>231.0</ele><time>2026-03-23T14:27:11.974Z</time></trkpt><trkpt lat="45.44172271897506" lon="7.924515995789289"><ele>231.0</ele><time>2026-03-23T14:27:12.974Z</time></trkpt><trkpt lat="45.44159209148942" lon="7.924538801598753"><ele>231.0</ele><time>2026-03-23T14:27:13.974Z</time></trkpt><trkpt lat="45.44146086483253" lon="7.924577416328683"><ele>231.0</ele><time>2026-03-23T14:27:14.974Z</time></trkpt><trkpt lat="45.44132603042601" lon="7.924616004007638"><ele>231.0</ele><time>2026-03-23T14:27:15.974Z</time></trkpt><trkpt lat="45.44119531314893" lon="7.924649730185547"><ele>231.25</ele><time>2026-03-23T14:27:16.974Z</time></trkpt><trkpt lat="45.44106686310318" lon="7.924675841064596"><ele>231.5</ele><time>2026-03-23T14:27:17.974Z</time></trkpt><trkpt lat="45.44093396959028" lon="7.9247088147094775"><ele>231.75</ele><time>2026-03-23T14:27:18.974Z</time></trkpt><trkpt lat="45.44080302572228" lon="7.924741705446323"><ele>232.0</ele><time>2026-03-23T14:27:19.974Z</time></trkpt><trkpt lat="45.44068359739364" lon="7.924768697333571"><ele>232.0</ele><time>2026-03-23T14:27:20.974Z</time></trkpt><trkpt lat="45.440567875111086" lon="7.9248031078217105"><ele>232.0</ele><time>2026-03-23T14:27:21.974Z</time></trkpt><trkpt lat="45.44045929602427" lon="7.924817295158737"><ele>232.0</ele><time>2026-03-23T14:27:22.974Z</time></trkpt><trkpt lat="45.44035791803883" lon="7.924843620649081"><ele>232.0</ele><time>2026-03-23T14:27:23.974Z</time></trkpt><trkpt lat="45.44026630576689" lon="7.924864733443586"><ele>232.0</ele><time>2026-03-23T14:27:24.974Z</time></trkpt><trkpt lat="45.44017029467476" lon="7.924887230282938"><ele>231.8</ele><time>2026-03-23T14:27:25.974Z</time></trkpt><trkpt lat="45.44009680782743" lon="7.924904449401678"><ele>231.6</ele><time>2026-03-23T14:27:26.974Z</time></trkpt><trkpt lat="45.44010546902376" lon="7.925171670714542"><ele>231.40000000000003</ele><time>2026-03-23T14:27:27.974Z</time></trkpt><trkpt lat="45.440094012428254" lon="7.92529938888905"><ele>231.20000000000002</ele><time>2026-03-23T14:27:28.974Z</time></trkpt><trkpt lat="45.44007941683933" lon="7.925427693090057"><ele>231.0</ele><time>2026-03-23T14:27:29.974Z</time></trkpt><trkpt lat="45.44005984030344" lon="7.925566731388277"><ele>230.75</ele><time>2026-03-23T14:27:30.974Z</time></trkpt><trkpt lat="45.44002866994652" lon="7.92572601158985"><ele>230.5</ele><time>2026-03-23T14:27:31.974Z</time></trkpt><trkpt lat="45.43998027620461" lon="7.925888537738111"><ele>230.25</ele><time>2026-03-23T14:27:32.974Z</time></trkpt><trkpt lat="45.439944196482195" lon="7.926035340166698"><ele>230.0</ele><time>2026-03-23T14:27:33.974Z</time></trkpt><trkpt lat="45.43990885578456" lon="7.926196468349639"><ele>230.0</ele><time>2026-03-23T14:27:34.974Z</time></trkpt><trkpt lat="45.43987415551154" lon="7.926352202696619"><ele>230.0</ele><time>2026-03-23T14:27:35.974Z</time></trkpt><trkpt lat="45.43984592296832" lon="7.9265035019787256"><ele>230.0</ele><time>2026-03-23T14:27:36.974Z</time></trkpt><trkpt lat="45.43982156852426" lon="7.926670894315843"><ele>230.0</ele><time>2026-03-23T14:27:37.974Z</time></trkpt><trkpt lat="45.43978777020157" lon="7.926830246231602"><ele>230.0</ele><time>2026-03-23T14:27:38.974Z</time></trkpt><trkpt lat="45.43975389799423" lon="7.926977694981445"><ele>230.0</ele><time>2026-03-23T14:27:39.974Z</time></trkpt><trkpt lat="45.439720362385444" lon="7.927110238581721"><ele>230.0</ele><time>2026-03-23T14:27:40.974Z</time></trkpt><trkpt lat="45.439684799188825" lon="7.927220641448997"><ele>230.0</ele><time>2026-03-23T14:27:41.974Z</time></trkpt><trkpt lat="45.43970245115693" lon="7.9273341507410535"><ele>230.0</ele><time>2026-03-23T14:27:42.974Z</time></trkpt><trkpt lat="45.43971683719925" lon="7.927447543286142"><ele>230.0</ele><time>2026-03-23T14:27:43.975Z</time></trkpt><trkpt lat="45.4398191022154" lon="7.927486464394743"><ele>230.0</ele><time>2026-03-23T14:27:44.975Z</time></trkpt><trkpt lat="45.43987750328822" lon="7.92756711439915"><ele>230.0</ele><time>2026-03-23T14:27:45.975Z</time></trkpt><trkpt lat="45.439939428605825" lon="7.92761043459246"><ele>230.0</ele><time>2026-03-23T14:27:46.975Z</time></trkpt><trkpt lat="45.44002743120277" lon="7.927680907289057"><ele>230.0</ele><time>2026-03-23T14:27:48.975Z</time></trkpt><trkpt lat="45.43980363262873" lon="7.927695732876393"><ele>229.8</ele><time>2026-03-23T14:27:49.975Z</time></trkpt><trkpt lat="45.43976955654086" lon="7.927794452108318"><ele>229.6</ele><time>2026-03-23T14:27:50.975Z</time></trkpt><trkpt lat="45.43973260886064" lon="7.927901397813774"><ele>229.39999999999998</ele><time>2026-03-23T14:27:51.975Z</time></trkpt><trkpt lat="45.439691268161255" lon="7.928018934033846"><ele>229.2</ele><time>2026-03-23T14:27:52.975Z</time></trkpt><trkpt lat="45.439636730347964" lon="7.928155658348888"><ele>229.0</ele><time>2026-03-23T14:27:53.975Z</time></trkpt><trkpt lat="45.439585196523964" lon="7.9282761157767645"><ele>229.2</ele><time>2026-03-23T14:27:54.975Z</time></trkpt><trkpt lat="45.43952466548439" lon="7.928396060434972"><ele>229.39999999999998</ele><time>2026-03-23T14:27:55.975Z</time></trkpt><trkpt lat="45.43945676513485" lon="7.928503053758959"><ele>229.6</ele><time>2026-03-23T14:27:56.975Z</time></trkpt><trkpt lat="45.43938480218101" lon="7.928567234424007"><ele>229.8</ele><time>2026-03-23T14:27:57.971Z</time></trkpt><trkpt lat="45.43929673289519" lon="7.928663010317914"><ele>230.0</ele><time>2026-03-23T14:27:58.971Z</time></trkpt><trkpt lat="45.43920606339284" lon="7.928761613972204"><ele>230.0</ele><time>2026-03-23T14:27:59.971Z</time></trkpt><trkpt lat="45.43911079461158" lon="7.928865219355281"><ele>230.0</ele><time>2026-03-23T14:28:00.971Z</time></trkpt><trkpt lat="45.43903628457203" lon="7.928769194504655"><ele>230.0</ele><time>2026-03-23T14:28:01.971Z</time></trkpt><trkpt lat="45.438930983313234" lon="7.92885919111848"><ele>230.0</ele><time>2026-03-23T14:28:02.971Z</time></trkpt><trkpt lat="45.43906760316753" lon="7.929711000156931"><ele>230.0</ele><time>2026-03-23T14:28:03.971Z</time></trkpt><trkpt lat="45.43898314032819" lon="7.929875120020142"><ele>230.0</ele><time>2026-03-23T14:28:04.971Z</time></trkpt><trkpt lat="45.43890898036565" lon="7.930043048085722"><ele>230.0</ele><time>2026-03-23T14:28:05.971Z</time></trkpt><trkpt lat="45.43882562615117" lon="7.930223894865769"><ele>230.0</ele><time>2026-03-23T14:28:06.971Z</time></trkpt><trkpt lat="45.43874398598528" lon="7.930398130815125"><ele>230.33333333333334</ele><time>2026-03-23T14:28:07.971Z</time></trkpt><trkpt lat="45.43865363753833" lon="7.930582693156469"><ele>230.66666666666669</ele><time>2026-03-23T14:28:08.971Z</time></trkpt><trkpt lat="45.4385539509806" lon="7.930767581074212"><ele>231.0</ele><time>2026-03-23T14:28:09.97Z</time></trkpt><trkpt lat="45.43845605751491" lon="7.9309468299512265"><ele>231.0</ele><time>2026-03-23T14:28:10.971Z</time></trkpt><trkpt lat="45.438365180264505" lon="7.931124557107501"><ele>231.0</ele><time>2026-03-23T14:28:11.971Z</time></trkpt><trkpt lat="45.438283251852376" lon="7.9312812194316"><ele>231.0</ele><time>2026-03-23T14:28:12.971Z</time></trkpt><trkpt lat="45.43820530009761" lon="7.93143517719305"><ele>231.0</ele><time>2026-03-23T14:28:13.971Z</time></trkpt><trkpt lat="45.43812951226953" lon="7.931593572183573"><ele>230.75</ele><time>2026-03-23T14:28:14.971Z</time></trkpt><trkpt lat="45.43805980726686" lon="7.93176591566971"><ele>230.5</ele><time>2026-03-23T14:28:15.971Z</time></trkpt><trkpt lat="45.4379973867752" lon="7.9319290016120325"><ele>230.25</ele><time>2026-03-23T14:28:16.971Z</time></trkpt><trkpt lat="45.43793617119386" lon="7.932080472075014"><ele>230.0</ele><time>2026-03-23T14:28:17.971Z</time></trkpt><trkpt lat="45.4378636669832" lon="7.932235190271784"><ele>230.25</ele><time>2026-03-23T14:28:18.971Z</time></trkpt><trkpt lat="45.437783979351295" lon="7.9324180847562396"><ele>230.5</ele><time>2026-03-23T14:28:19.971Z</time></trkpt><trkpt lat="45.43771055496436" lon="7.932596070652403"><ele>230.75</ele><time>2026-03-23T14:28:20.971Z</time></trkpt><trkpt lat="45.43763090335902" lon="7.932753355874569"><ele>231.0</ele><time>2026-03-23T14:28:21.971Z</time></trkpt><trkpt lat="45.43756087374664" lon="7.932912043475363"><ele>231.0</ele><time>2026-03-23T14:28:22.971Z</time></trkpt><trkpt lat="45.437480140263894" lon="7.933094320177882"><ele>231.0</ele><time>2026-03-23T14:28:23.971Z</time></trkpt><trkpt lat="45.43739178320016" lon="7.933260875379714"><ele>231.0</ele><time>2026-03-23T14:28:24.971Z</time></trkpt><trkpt lat="45.43730815383563" lon="7.933424002341658"><ele>231.0</ele><time>2026-03-23T14:28:25.971Z</time></trkpt><trkpt lat="45.437226450512384" lon="7.933597063904565"><ele>231.0</ele><time>2026-03-23T14:28:26.971Z</time></trkpt><trkpt lat="45.43714590439553" lon="7.933783126808459"><ele>231.0</ele><time>2026-03-23T14:28:27.971Z</time></trkpt><trkpt lat="45.43706926132803" lon="7.933973110138742"><ele>231.0</ele><time>2026-03-23T14:28:28.971Z</time></trkpt><trkpt lat="45.436987400956966" lon="7.934154091246423"><ele>231.25</ele><time>2026-03-23T14:28:29.971Z</time></trkpt><trkpt lat="45.436912779116525" lon="7.934332027674482"><ele>231.5</ele><time>2026-03-23T14:28:30.971Z</time></trkpt><trkpt lat="45.43682799536802" lon="7.934506162408791"><ele>231.75</ele><time>2026-03-23T14:28:31.971Z</time></trkpt><trkpt lat="45.43674413389198" lon="7.934690241653907"><ele>232.0</ele><time>2026-03-23T14:28:32.971Z</time></trkpt><trkpt lat="45.43665972790161" lon="7.934877212965285"><ele>232.0</ele><time>2026-03-23T14:28:33.971Z</time></trkpt><trkpt lat="45.43658839545038" lon="7.93506327233035"><ele>232.0</ele><time>2026-03-23T14:28:34.971Z</time></trkpt><trkpt lat="45.43652140837822" lon="7.935252086428873"><ele>232.0</ele><time>2026-03-23T14:28:35.971Z</time></trkpt><trkpt lat="45.43645535605331" lon="7.935437722937766"><ele>232.0</ele><time>2026-03-23T14:28:36.971Z</time></trkpt><trkpt lat="45.436371311681" lon="7.935620365065261"><ele>231.66666666666666</ele><time>2026-03-23T14:28:37.971Z</time></trkpt><trkpt lat="45.436282266052366" lon="7.935792748437017"><ele>231.33333333333331</ele><time>2026-03-23T14:28:38.971Z</time></trkpt><trkpt lat="45.43619335936122" lon="7.935966657691511"><ele>231.0</ele><time>2026-03-23T14:28:39.971Z</time></trkpt><trkpt lat="45.4361144693681" lon="7.936146700861667"><ele>231.5</ele><time>2026-03-23T14:28:40.971Z</time></trkpt><trkpt lat="45.43604742350398" lon="7.93632668211977"><ele>232.0</ele><time>2026-03-23T14:28:41.971Z</time></trkpt><trkpt lat="45.43596613030824" lon="7.936495304876513"><ele>232.5</ele><time>2026-03-23T14:28:42.971Z</time></trkpt><trkpt lat="45.43587705862019" lon="7.936664161848739"><ele>233.0</ele><time>2026-03-23T14:28:43.971Z</time></trkpt><trkpt lat="45.4357959822541" lon="7.936848678664833"><ele>233.33333333333334</ele><time>2026-03-23T14:28:44.971Z</time></trkpt><trkpt lat="45.4357155166956" lon="7.937027354518108"><ele>233.66666666666669</ele><time>2026-03-23T14:28:45.971Z</time></trkpt><trkpt lat="45.435634458528554" lon="7.937206923161341"><ele>234.0</ele><time>2026-03-23T14:28:46.971Z</time></trkpt><trkpt lat="45.43556210528276" lon="7.937398091465992"><ele>234.0</ele><time>2026-03-23T14:28:47.971Z</time></trkpt><trkpt lat="45.43548697999956" lon="7.937557872126605"><ele>234.0</ele><time>2026-03-23T14:28:48.971Z</time></trkpt><trkpt lat="45.4354042122323" lon="7.937731427147546"><ele>234.0</ele><time>2026-03-23T14:28:49.971Z</time></trkpt><trkpt lat="45.43532354878213" lon="7.937911822927233"><ele>234.0</ele><time>2026-03-23T14:28:50.971Z</time></trkpt><trkpt lat="45.43524599456396" lon="7.938077139595262"><ele>234.0</ele><time>2026-03-23T14:28:51.971Z</time></trkpt><trkpt lat="45.43517252181846" lon="7.93823314239863"><ele>234.0</ele><time>2026-03-23T14:28:52.971Z</time></trkpt><trkpt lat="45.43509689670108" lon="7.938378206047581"><ele>234.0</ele><time>2026-03-23T14:28:53.971Z</time></trkpt><trkpt lat="45.43503057950635" lon="7.938513444451063"><ele>234.0</ele><time>2026-03-23T14:28:54.971Z</time></trkpt><trkpt lat="45.43496301931341" lon="7.9386513621392005"><ele>233.5</ele><time>2026-03-23T14:28:55.971Z</time></trkpt><trkpt lat="45.43489621300371" lon="7.938777753538816"><ele>233.0</ele><time>2026-03-23T14:28:56.971Z</time></trkpt><trkpt lat="45.434828525652605" lon="7.938914393777039"><ele>232.5</ele><time>2026-03-23T14:28:57.971Z</time></trkpt><trkpt lat="45.43476830871293" lon="7.93905310948795"><ele>232.0</ele><time>2026-03-23T14:28:58.971Z</time></trkpt><trkpt lat="45.43470965327457" lon="7.939214956923945"><ele>231.5</ele><time>2026-03-23T14:28:59.971Z</time></trkpt><trkpt lat="45.43463539746801" lon="7.939382682238115"><ele>231.0</ele><time>2026-03-23T14:29:00.971Z</time></trkpt><trkpt lat="45.4345571264794" lon="7.93954436628003"><ele>230.5</ele><time>2026-03-23T14:29:01.971Z</time></trkpt><trkpt lat="45.43447693307123" lon="7.939705070901267"><ele>230.0</ele><time>2026-03-23T14:29:02.971Z</time></trkpt><trkpt lat="45.43439388810854" lon="7.939870696640555"><ele>230.0</ele><time>2026-03-23T14:29:03.971Z</time></trkpt><trkpt lat="45.43431554548145" lon="7.940040412872142"><ele>230.0</ele><time>2026-03-23T14:29:04.971Z</time></trkpt><trkpt lat="45.43423868469522" lon="7.940209043253979"><ele>230.0</ele><time>2026-03-23T14:29:05.971Z</time></trkpt><trkpt lat="45.43416145950792" lon="7.940384879851919"><ele>230.0</ele><time>2026-03-23T14:29:06.971Z</time></trkpt><trkpt lat="45.434075243085516" lon="7.940569203105142"><ele>230.0</ele><time>2026-03-23T14:29:07.971Z</time></trkpt><trkpt lat="45.43399235775058" lon="7.940763721442496"><ele>230.0</ele><time>2026-03-23T14:29:08.971Z</time></trkpt><trkpt lat="45.43391381073388" lon="7.940935630571753"><ele>230.0</ele><time>2026-03-23T14:29:09.971Z</time></trkpt><trkpt lat="45.433833982780605" lon="7.941095221555741"><ele>230.0</ele><time>2026-03-23T14:29:10.971Z</time></trkpt><trkpt lat="45.43375259866649" lon="7.941256713173066"><ele>230.0</ele><time>2026-03-23T14:29:11.971Z</time></trkpt><trkpt lat="45.43368126467774" lon="7.941426467971874"><ele>230.0</ele><time>2026-03-23T14:29:12.971Z</time></trkpt><trkpt lat="45.433597478005865" lon="7.941571903272938"><ele>230.0</ele><time>2026-03-23T14:29:13.971Z</time></trkpt><trkpt lat="45.43351727049562" lon="7.941744935010542"><ele>230.0</ele><time>2026-03-23T14:29:14.971Z</time></trkpt><trkpt lat="45.43343095532841" lon="7.941936835191246"><ele>230.0</ele><time>2026-03-23T14:29:15.971Z</time></trkpt><trkpt lat="45.433337786727236" lon="7.942134906423431"><ele>230.0</ele><time>2026-03-23T14:29:16.971Z</time></trkpt><trkpt lat="45.43324275610895" lon="7.94232497027064"><ele>230.0</ele><time>2026-03-23T14:29:17.971Z</time></trkpt><trkpt lat="45.43316062830058" lon="7.942497400244473"><ele>230.25</ele><time>2026-03-23T14:29:18.971Z</time></trkpt><trkpt lat="45.43309474068021" lon="7.94265879239149"><ele>230.5</ele><time>2026-03-23T14:29:19.971Z</time></trkpt><trkpt lat="45.43302117623745" lon="7.942820618972428"><ele>230.75</ele><time>2026-03-23T14:29:20.971Z</time></trkpt><trkpt lat="45.43293846427362" lon="7.942997602319252"><ele>231.0</ele><time>2026-03-23T14:29:21.971Z</time></trkpt><trkpt lat="45.43285563244411" lon="7.943174487047693"><ele>230.5</ele><time>2026-03-23T14:29:22.971Z</time></trkpt><trkpt lat="45.432776952770546" lon="7.9433498219524115"><ele>230.0</ele><time>2026-03-23T14:29:23.971Z</time></trkpt><trkpt lat="45.43270080356991" lon="7.943519121857404"><ele>229.5</ele><time>2026-03-23T14:29:24.971Z</time></trkpt><trkpt lat="45.432621889404004" lon="7.943686244969262"><ele>229.0</ele><time>2026-03-23T14:29:25.971Z</time></trkpt><trkpt lat="45.432545999509045" lon="7.943861461109086"><ele>228.75</ele><time>2026-03-23T14:29:26.971Z</time></trkpt><trkpt lat="45.43247337153703" lon="7.944029895024164"><ele>228.5</ele><time>2026-03-23T14:29:27.971Z</time></trkpt><trkpt lat="45.4323937668666" lon="7.944190314121906"><ele>228.25</ele><time>2026-03-23T14:29:28.971Z</time></trkpt><trkpt lat="45.432315254437114" lon="7.944357183345042"><ele>228.0</ele><time>2026-03-23T14:29:29.971Z</time></trkpt><trkpt lat="45.43223208702961" lon="7.944531373668552"><ele>228.0</ele><time>2026-03-23T14:29:30.971Z</time></trkpt><trkpt lat="45.43215450879563" lon="7.944684021231394"><ele>228.0</ele><time>2026-03-23T14:29:31.971Z</time></trkpt><trkpt lat="45.43208329133176" lon="7.944836325599587"><ele>228.0</ele><time>2026-03-23T14:29:32.971Z</time></trkpt><trkpt lat="45.43202338529867" lon="7.944970627287516"><ele>228.0</ele><time>2026-03-23T14:29:33.971Z</time></trkpt><trkpt lat="45.43198129681834" lon="7.945098419301897"><ele>228.2</ele><time>2026-03-23T14:29:34.971Z</time></trkpt><trkpt lat="45.43193753899533" lon="7.9452344370534345"><ele>228.4</ele><time>2026-03-23T14:29:35.971Z</time></trkpt><trkpt lat="45.43187467242619" lon="7.945347161700232"><ele>228.59999999999997</ele><time>2026-03-23T14:29:36.971Z</time></trkpt><trkpt lat="45.431803365433154" lon="7.945425324707491"><ele>228.79999999999998</ele><time>2026-03-23T14:29:37.971Z</time></trkpt><trkpt lat="45.43174205141465" lon="7.94554108159714"><ele>229.0</ele><time>2026-03-23T14:29:38.971Z</time></trkpt><trkpt lat="45.431680460114514" lon="7.945679769117535"><ele>229.0</ele><time>2026-03-23T14:29:39.971Z</time></trkpt><trkpt lat="45.43162278284317" lon="7.945826601006615"><ele>228.99999999999997</ele><time>2026-03-23T14:29:40.971Z</time></trkpt><trkpt lat="45.43156226176356" lon="7.945946546436529"><ele>228.99999999999997</ele><time>2026-03-23T14:29:41.971Z</time></trkpt><trkpt lat="45.43149913906069" lon="7.946030299952"><ele>229.0</ele><time>2026-03-23T14:29:42.971Z</time></trkpt><trkpt lat="45.431421636309196" lon="7.946065138453984"><ele>229.0</ele><time>2026-03-23T14:29:43.971Z</time></trkpt><trkpt lat="45.43132790802313" lon="7.946060729134538"><ele>229.39999999999998</ele><time>2026-03-23T14:29:44.971Z</time></trkpt><trkpt lat="45.4312603739406" lon="7.946029032799007"><ele>229.79999999999998</ele><time>2026-03-23T14:29:45.971Z</time></trkpt><trkpt lat="45.43118674527188" lon="7.946075903666635"><ele>230.20000000000002</ele><time>2026-03-23T14:29:47.971Z</time></trkpt><trkpt lat="45.43120175071822" lon="7.9462429666354035"><ele>230.60000000000002</ele><time>2026-03-23T14:29:49.971Z</time></trkpt><trkpt lat="45.43121455625438" lon="7.946367531150678"><ele>231.0</ele><time>2026-03-23T14:29:50.971Z</time></trkpt><trkpt lat="45.4312287198302" lon="7.946523394912162"><ele>231.0</ele><time>2026-03-23T14:29:51.971Z</time></trkpt><trkpt lat="45.431232942625506" lon="7.946675384233535"><ele>231.00000000000003</ele><time>2026-03-23T14:29:52.971Z</time></trkpt><trkpt lat="45.43118501821712" lon="7.9467974021252985"><ele>231.00000000000003</ele><time>2026-03-23T14:29:53.971Z</time></trkpt><trkpt lat="45.4311141200662" lon="7.946881024957135"><ele>231.0</ele><time>2026-03-23T14:29:54.971Z</time></trkpt><trkpt lat="45.4310204186582" lon="7.946922407296444"><ele>231.0</ele><time>2026-03-23T14:29:55.971Z</time></trkpt><trkpt lat="45.43093618079349" lon="7.946956660417717"><ele>231.5</ele><time>2026-03-23T14:29:56.971Z</time></trkpt><trkpt lat="45.43091476890329" lon="7.947199022609652"><ele>232.0</ele><time>2026-03-23T14:29:57.971Z</time></trkpt><trkpt lat="45.4308093149465" lon="7.947178634456564"><ele>232.5</ele><time>2026-03-23T14:29:59.971Z</time></trkpt><trkpt lat="45.430732389705405" lon="7.947206436786909"><ele>233.0</ele><time>2026-03-23T14:30:00.971Z</time></trkpt><trkpt lat="45.430636987602206" lon="7.947164143582025"><ele>233.0</ele><time>2026-03-23T14:30:01.971Z</time></trkpt><trkpt lat="45.430529956808385" lon="7.9471202995647445"><ele>233.0</ele><time>2026-03-23T14:30:02.971Z</time></trkpt><trkpt lat="45.43041259524114" lon="7.947037870089506"><ele>233.0</ele><time>2026-03-23T14:30:03.967Z</time></trkpt><trkpt lat="45.43029545378188" lon="7.946993602474289"><ele>233.0</ele><time>2026-03-23T14:30:04.967Z</time></trkpt><trkpt lat="45.43017583663811" lon="7.9469383809071426"><ele>232.25</ele><time>2026-03-23T14:30:05.967Z</time></trkpt><trkpt lat="45.43003797581841" lon="7.9468887806313155"><ele>231.5</ele><time>2026-03-23T14:30:06.967Z</time></trkpt><trkpt lat="45.42992121570032" lon="7.946827043210969"><ele>230.75</ele><time>2026-03-23T14:30:07.966Z</time></trkpt><trkpt lat="45.429812109349044" lon="7.946720145303392"><ele>230.0</ele><time>2026-03-23T14:30:08.966Z</time></trkpt><trkpt lat="45.42970596370157" lon="7.94658343915137"><ele>230.0</ele><time>2026-03-23T14:30:09.967Z</time></trkpt><trkpt lat="45.42958387279685" lon="7.946459363314827"><ele>230.0</ele><time>2026-03-23T14:30:10.966Z</time></trkpt><trkpt lat="45.429458377574036" lon="7.946361258609735"><ele>230.0</ele><time>2026-03-23T14:30:11.966Z</time></trkpt><trkpt lat="45.429338643696944" lon="7.94624862956913"><ele>230.0</ele><time>2026-03-23T14:30:12.967Z</time></trkpt><trkpt lat="45.429226072093236" lon="7.946118956301745"><ele>230.0</ele><time>2026-03-23T14:30:13.966Z</time></trkpt><trkpt lat="45.4291120675155" lon="7.945982407924012"><ele>230.0</ele><time>2026-03-23T14:30:14.966Z</time></trkpt><trkpt lat="45.42900828243162" lon="7.945843731023739"><ele>230.0</ele><time>2026-03-23T14:30:15.966Z</time></trkpt><trkpt lat="45.428907898319785" lon="7.945692168711689"><ele>230.0</ele><time>2026-03-23T14:30:16.967Z</time></trkpt><trkpt lat="45.428805843506936" lon="7.945530919346724"><ele>229.66666666666669</ele><time>2026-03-23T14:30:17.967Z</time></trkpt><trkpt lat="45.4287038584539" lon="7.945369780064318"><ele>229.33333333333331</ele><time>2026-03-23T14:30:18.967Z</time></trkpt><trkpt lat="45.42860390021672" lon="7.945211843193879"><ele>229.0</ele><time>2026-03-23T14:30:19.967Z</time></trkpt><trkpt lat="45.428503712236456" lon="7.945053543373791"><ele>228.75</ele><time>2026-03-23T14:30:20.967Z</time></trkpt><trkpt lat="45.42840082308082" lon="7.944891115692682"><ele>228.5</ele><time>2026-03-23T14:30:21.967Z</time></trkpt><trkpt lat="45.42829995825169" lon="7.944731906010254"><ele>228.25</ele><time>2026-03-23T14:30:22.967Z</time></trkpt><trkpt lat="45.42820691282431" lon="7.9445861707761525"><ele>228.0</ele><time>2026-03-23T14:30:23.967Z</time></trkpt><trkpt lat="45.428116602120944" lon="7.94444879443755"><ele>228.0</ele><time>2026-03-23T14:30:24.967Z</time></trkpt><trkpt lat="45.42801325150079" lon="7.944303034748003"><ele>228.0</ele><time>2026-03-23T14:30:25.967Z</time></trkpt><trkpt lat="45.42790450679909" lon="7.944154530927954"><ele>228.0</ele><time>2026-03-23T14:30:26.967Z</time></trkpt><trkpt lat="45.42780025435726" lon="7.944017609508249"><ele>228.0</ele><time>2026-03-23T14:30:27.967Z</time></trkpt><trkpt lat="45.427702804786165" lon="7.943895889607395"><ele>227.5</ele><time>2026-03-23T14:30:28.967Z</time></trkpt><trkpt lat="45.4275951549693" lon="7.9437832125119625"><ele>227.0</ele><time>2026-03-23T14:30:29.967Z</time></trkpt><trkpt lat="45.42749322052789" lon="7.943677726598923"><ele>226.5</ele><time>2026-03-23T14:30:30.967Z</time></trkpt><trkpt lat="45.42738292535132" lon="7.943570240099342"><ele>226.0</ele><time>2026-03-23T14:30:31.967Z</time></trkpt><trkpt lat="45.42727458604616" lon="7.943457671235924"><ele>226.25</ele><time>2026-03-23T14:30:32.967Z</time></trkpt><trkpt lat="45.42717434347503" lon="7.9433152187482445"><ele>226.5</ele><time>2026-03-23T14:30:33.967Z</time></trkpt><trkpt lat="45.427050862611146" lon="7.943206363773572"><ele>226.75</ele><time>2026-03-23T14:30:34.967Z</time></trkpt><trkpt lat="45.42694734498317" lon="7.943086918213925"><ele>227.0</ele><time>2026-03-23T14:30:35.967Z</time></trkpt><trkpt lat="45.4268162358199" lon="7.942985264565806"><ele>227.0</ele><time>2026-03-23T14:30:36.967Z</time></trkpt><trkpt lat="45.426685222594" lon="7.942893272318703"><ele>227.0</ele><time>2026-03-23T14:30:37.967Z</time></trkpt><trkpt lat="45.426549709019085" lon="7.942824582550709"><ele>227.0</ele><time>2026-03-23T14:30:38.967Z</time></trkpt><trkpt lat="45.42640496893324" lon="7.942767782441747"><ele>227.0</ele><time>2026-03-23T14:30:39.967Z</time></trkpt><trkpt lat="45.42626813198038" lon="7.942720679107416"><ele>227.25</ele><time>2026-03-23T14:30:40.967Z</time></trkpt><trkpt lat="45.42612721412474" lon="7.942681982633427"><ele>227.5</ele><time>2026-03-23T14:30:41.967Z</time></trkpt><trkpt lat="45.42598596159227" lon="7.9426686465146465"><ele>227.75</ele><time>2026-03-23T14:30:42.967Z</time></trkpt><trkpt lat="45.425845015724484" lon="7.942670256430597"><ele>228.0</ele><time>2026-03-23T14:30:43.967Z</time></trkpt><trkpt lat="45.42569902399491" lon="7.942643913574182"><ele>228.0</ele><time>2026-03-23T14:30:44.967Z</time></trkpt><trkpt lat="45.4255539224289" lon="7.942640962092858"><ele>228.0</ele><time>2026-03-23T14:30:45.967Z</time></trkpt><trkpt lat="45.42541409071944" lon="7.942663276010973"><ele>228.0</ele><time>2026-03-23T14:30:46.967Z</time></trkpt><trkpt lat="45.425276060624654" lon="7.9426531796954665"><ele>228.0</ele><time>2026-03-23T14:30:47.967Z</time></trkpt><trkpt lat="45.42513137230189" lon="7.942678155542087"><ele>228.0</ele><time>2026-03-23T14:30:48.967Z</time></trkpt><trkpt lat="45.42499818632642" lon="7.942736100191556"><ele>228.0</ele><time>2026-03-23T14:30:49.967Z</time></trkpt><trkpt lat="45.42485997900667" lon="7.9427574938314685"><ele>228.0</ele><time>2026-03-23T14:30:50.967Z</time></trkpt><trkpt lat="45.42472468928089" lon="7.942809548514487"><ele>228.0</ele><time>2026-03-23T14:30:51.967Z</time></trkpt><trkpt lat="45.424591954611955" lon="7.942897698559636"><ele>228.0</ele><time>2026-03-23T14:30:52.967Z</time></trkpt><trkpt lat="45.424447529941006" lon="7.942969065395115"><ele>228.0</ele><time>2026-03-23T14:30:53.967Z</time></trkpt><trkpt lat="45.424312680744876" lon="7.943040342043509"><ele>228.0</ele><time>2026-03-23T14:30:54.967Z</time></trkpt><trkpt lat="45.424180407084165" lon="7.943116922426544"><ele>228.0</ele><time>2026-03-23T14:30:55.967Z</time></trkpt><trkpt lat="45.4240372811948" lon="7.943170984158776"><ele>228.0</ele><time>2026-03-23T14:30:56.967Z</time></trkpt><trkpt lat="45.42389974118312" lon="7.94324720881817"><ele>228.0</ele><time>2026-03-23T14:30:57.967Z</time></trkpt><trkpt lat="45.423763155895266" lon="7.943314338766126"><ele>228.0</ele><time>2026-03-23T14:30:58.967Z</time></trkpt><trkpt lat="45.42362198883254" lon="7.943374085760374"><ele>228.0</ele><time>2026-03-23T14:30:59.967Z</time></trkpt><trkpt lat="45.42349029614582" lon="7.943422418872479"><ele>228.0</ele><time>2026-03-23T14:31:00.967Z</time></trkpt><trkpt lat="45.4233514086061" lon="7.94344873029655"><ele>228.0</ele><time>2026-03-23T14:31:01.967Z</time></trkpt><trkpt lat="45.423206250405165" lon="7.943448635648272"><ele>228.0</ele><time>2026-03-23T14:31:02.967Z</time></trkpt><trkpt lat="45.42306045423652" lon="7.943443805311317"><ele>228.0</ele><time>2026-03-23T14:31:03.967Z</time></trkpt><trkpt lat="45.4229127491744" lon="7.943454410974976"><ele>227.75</ele><time>2026-03-23T14:31:04.967Z</time></trkpt><trkpt lat="45.42278105833946" lon="7.943505924929769"><ele>227.5</ele><time>2026-03-23T14:31:05.967Z</time></trkpt><trkpt lat="45.42266838533297" lon="7.943630421907374"><ele>227.25</ele><time>2026-03-23T14:31:06.967Z</time></trkpt><trkpt lat="45.42254062588103" lon="7.9437081319274965"><ele>227.0</ele><time>2026-03-23T14:31:07.967Z</time></trkpt><trkpt lat="45.42241555078166" lon="7.943771185533173"><ele>227.0</ele><time>2026-03-23T14:31:08.967Z</time></trkpt><trkpt lat="45.42227744048272" lon="7.943805429798393"><ele>227.0</ele><time>2026-03-23T14:31:09.967Z</time></trkpt><trkpt lat="45.422133488600096" lon="7.943816974764288"><ele>227.0</ele><time>2026-03-23T14:31:10.967Z</time></trkpt><trkpt lat="45.42197328505072" lon="7.943817039528311"><ele>227.0</ele><time>2026-03-23T14:31:11.967Z</time></trkpt><trkpt lat="45.42182628720161" lon="7.94381553348544"><ele>227.66666666666669</ele><time>2026-03-23T14:31:12.967Z</time></trkpt><trkpt lat="45.42167542472557" lon="7.943813207228809"><ele>228.33333333333331</ele><time>2026-03-23T14:31:13.967Z</time></trkpt><trkpt lat="45.421522601610114" lon="7.94381044984742"><ele>229.0</ele><time>2026-03-23T14:31:14.967Z</time></trkpt><trkpt lat="45.42137141080436" lon="7.943807196200701"><ele>228.5</ele><time>2026-03-23T14:31:15.967Z</time></trkpt><trkpt lat="45.42122953537553" lon="7.943804143020049"><ele>228.0</ele><time>2026-03-23T14:31:16.967Z</time></trkpt><trkpt lat="45.42108268185814" lon="7.943799953342892"><ele>227.5</ele><time>2026-03-23T14:31:17.967Z</time></trkpt><trkpt lat="45.42093550992159" lon="7.943794591218296"><ele>227.0</ele><time>2026-03-23T14:31:18.967Z</time></trkpt><trkpt lat="45.42078879675175" lon="7.943789243878766"><ele>227.0</ele><time>2026-03-23T14:31:19.967Z</time></trkpt><trkpt lat="45.420643057967276" lon="7.9437839320327415"><ele>227.0</ele><time>2026-03-23T14:31:20.967Z</time></trkpt><trkpt lat="45.42050414268725" lon="7.943778868887469"><ele>227.0</ele><time>2026-03-23T14:31:21.967Z</time></trkpt><trkpt lat="45.42037065160491" lon="7.94377380961771"><ele>227.0</ele><time>2026-03-23T14:31:22.967Z</time></trkpt><trkpt lat="45.42023417264289" lon="7.943768223456848"><ele>227.0</ele><time>2026-03-23T14:31:23.967Z</time></trkpt><trkpt lat="45.420100646553855" lon="7.9437625324548335"><ele>227.0</ele><time>2026-03-23T14:31:24.967Z</time></trkpt><trkpt lat="45.41997442067781" lon="7.943776529271025"><ele>227.0</ele><time>2026-03-23T14:31:25.967Z</time></trkpt><trkpt lat="45.41983903961233" lon="7.943782591870246"><ele>227.0</ele><time>2026-03-23T14:31:26.967Z</time></trkpt><trkpt lat="45.41969777400141" lon="7.943792458266309"><ele>227.25</ele><time>2026-03-23T14:31:27.967Z</time></trkpt><trkpt lat="45.41955423822736" lon="7.943801910961171"><ele>227.5</ele><time>2026-03-23T14:31:28.967Z</time></trkpt><trkpt lat="45.419419294924744" lon="7.9437850992697125"><ele>227.75</ele><time>2026-03-23T14:31:29.967Z</time></trkpt><trkpt lat="45.41927881011727" lon="7.943787870064738"><ele>228.0</ele><time>2026-03-23T14:31:30.967Z</time></trkpt><trkpt lat="45.419135613121306" lon="7.943790635669178"><ele>228.0</ele><time>2026-03-23T14:31:31.967Z</time></trkpt><trkpt lat="45.41899336881152" lon="7.943794421338768"><ele>228.0</ele><time>2026-03-23T14:31:32.967Z</time></trkpt><trkpt lat="45.418852775830125" lon="7.943798882406446"><ele>228.0</ele><time>2026-03-23T14:31:33.967Z</time></trkpt><trkpt lat="45.418709118621685" lon="7.943803440701395"><ele>228.0</ele><time>2026-03-23T14:31:34.967Z</time></trkpt><trkpt lat="45.41856774054268" lon="7.943807917619892"><ele>227.5</ele><time>2026-03-23T14:31:35.967Z</time></trkpt><trkpt lat="45.41842563328021" lon="7.94381171849537"><ele>227.0</ele><time>2026-03-23T14:31:36.967Z</time></trkpt><trkpt lat="45.41828777266415" lon="7.9438145640537074"><ele>226.5</ele><time>2026-03-23T14:31:37.967Z</time></trkpt><trkpt lat="45.41816300178511" lon="7.943825709786429"><ele>226.0</ele><time>2026-03-23T14:31:38.967Z</time></trkpt><trkpt lat="45.41804983425435" lon="7.9437814267317455"><ele>226.0</ele><time>2026-03-23T14:31:39.967Z</time></trkpt><trkpt lat="45.41795067358502" lon="7.943707644784345"><ele>226.00000000000003</ele><time>2026-03-23T14:31:40.967Z</time></trkpt><trkpt lat="45.417883493941495" lon="7.943608971224214"><ele>226.00000000000003</ele><time>2026-03-23T14:31:41.967Z</time></trkpt><trkpt lat="45.41779973969541" lon="7.943513932062163"><ele>226.0</ele><time>2026-03-23T14:31:42.967Z</time></trkpt><trkpt lat="45.4177257202882" lon="7.943413154230763"><ele>226.0</ele><time>2026-03-23T14:31:43.967Z</time></trkpt><trkpt lat="45.41764213078679" lon="7.943304897395078"><ele>226.20000000000002</ele><time>2026-03-23T14:31:44.967Z</time></trkpt><trkpt lat="45.41752882545128" lon="7.943242423210509"><ele>226.40000000000003</ele><time>2026-03-23T14:31:45.967Z</time></trkpt><trkpt lat="45.41742389948767" lon="7.943166398128072"><ele>226.6</ele><time>2026-03-23T14:31:46.967Z</time></trkpt><trkpt lat="45.417324835517135" lon="7.943125036537257"><ele>226.8</ele><time>2026-03-23T14:31:47.967Z</time></trkpt><trkpt lat="45.41722656164623" lon="7.943101612276197"><ele>227.0</ele><time>2026-03-23T14:31:48.967Z</time></trkpt><trkpt lat="45.41713605751034" lon="7.943128484914501"><ele>226.66666666666669</ele><time>2026-03-23T14:31:49.967Z</time></trkpt><trkpt lat="45.4170599868933" lon="7.9431553122070415"><ele>226.33333333333334</ele><time>2026-03-23T14:31:50.967Z</time></trkpt><trkpt lat="45.416967094534115" lon="7.943172558474886"><ele>226.0</ele><time>2026-03-23T14:31:51.967Z</time></trkpt><trkpt lat="45.41689696268853" lon="7.943179265966937"><ele>225.66666666666669</ele><time>2026-03-23T14:31:52.967Z</time></trkpt><trkpt lat="45.41682378357051" lon="7.94318697686812"><ele>225.33333333333334</ele><time>2026-03-23T14:31:53.967Z</time></trkpt><trkpt lat="45.41674799820041" lon="7.943223030366814"><ele>225.0</ele><time>2026-03-23T14:31:54.967Z</time></trkpt><trkpt lat="45.416661500942915" lon="7.943239683082595"><ele>225.0</ele><time>2026-03-23T14:31:55.967Z</time></trkpt><trkpt lat="45.416579431231256" lon="7.94328777284635"><ele>225.0</ele><time>2026-03-23T14:31:56.967Z</time></trkpt><trkpt lat="45.41649208963622" lon="7.9433366506552865"><ele>225.0</ele><time>2026-03-23T14:31:57.967Z</time></trkpt><trkpt lat="45.416418919480925" lon="7.943403565601912"><ele>225.0</ele><time>2026-03-23T14:31:58.967Z</time></trkpt><trkpt lat="45.41632692742981" lon="7.943435367295877"><ele>225.0</ele><time>2026-03-23T14:31:59.967Z</time></trkpt><trkpt lat="45.41624463486769" lon="7.943507349127161"><ele>224.8</ele><time>2026-03-23T14:32:00.967Z</time></trkpt><trkpt lat="45.41615354582518" lon="7.943564675268854"><ele>224.6</ele><time>2026-03-23T14:32:01.967Z</time></trkpt><trkpt lat="45.41606214791526" lon="7.943623572036117"><ele>224.39999999999998</ele><time>2026-03-23T14:32:02.967Z</time></trkpt><trkpt lat="45.41596807500927" lon="7.943681181192106"><ele>224.2</ele><time>2026-03-23T14:32:03.967Z</time></trkpt><trkpt lat="45.41587837474225" lon="7.9437365480209365"><ele>224.0</ele><time>2026-03-23T14:32:04.967Z</time></trkpt><trkpt lat="45.41581158430807" lon="7.943807364798682"><ele>224.00000000000003</ele><time>2026-03-23T14:32:05.967Z</time></trkpt><trkpt lat="45.41574870823866" lon="7.943869111526307"><ele>224.0</ele><time>2026-03-23T14:32:06.967Z</time></trkpt><trkpt lat="45.415678486529615" lon="7.943948460472924"><ele>224.0</ele><time>2026-03-23T14:32:07.967Z</time></trkpt><trkpt lat="45.41561475393247" lon="7.944028395346936"><ele>224.0</ele><time>2026-03-23T14:32:08.967Z</time></trkpt><trkpt lat="45.41554966711408" lon="7.944099855028662"><ele>224.00000000000003</ele><time>2026-03-23T14:32:09.963Z</time></trkpt><trkpt lat="45.415509059596296" lon="7.944205168394858"><ele>224.0</ele><time>2026-03-23T14:32:10.963Z</time></trkpt><trkpt lat="45.41546419062553" lon="7.944296854517524"><ele>224.33333333333334</ele><time>2026-03-23T14:32:11.963Z</time></trkpt><trkpt lat="45.41541990025763" lon="7.944374538175042"><ele>224.66666666666669</ele><time>2026-03-23T14:32:12.963Z</time></trkpt><trkpt lat="45.41542704107587" lon="7.944550370266608"><ele>225.0</ele><time>2026-03-23T14:32:14.963Z</time></trkpt><trkpt lat="45.41544897346414" lon="7.944656748026568"><ele>225.33333333333331</ele><time>2026-03-23T14:32:15.963Z</time></trkpt><trkpt lat="45.41547466635369" lon="7.944767469838437"><ele>225.66666666666666</ele><time>2026-03-23T14:32:16.963Z</time></trkpt><trkpt lat="45.41549318266715" lon="7.944877556457195"><ele>226.0</ele><time>2026-03-23T14:32:17.963Z</time></trkpt><trkpt lat="45.41550711552016" lon="7.944981793694553"><ele>226.20000000000002</ele><time>2026-03-23T14:32:18.963Z</time></trkpt><trkpt lat="45.415538558471646" lon="7.945101571811381"><ele>226.40000000000003</ele><time>2026-03-23T14:32:19.963Z</time></trkpt><trkpt lat="45.41553416715035" lon="7.945241809767473"><ele>226.6</ele><time>2026-03-23T14:32:20.963Z</time></trkpt><trkpt lat="45.41554606009748" lon="7.94537392843346"><ele>226.8</ele><time>2026-03-23T14:32:21.962Z</time></trkpt><trkpt lat="45.415570030499815" lon="7.945504375871653"><ele>227.0</ele><time>2026-03-23T14:32:22.962Z</time></trkpt><trkpt lat="45.41558600651838" lon="7.945643972321567"><ele>227.0</ele><time>2026-03-23T14:32:23.962Z</time></trkpt><trkpt lat="45.41560144989471" lon="7.945782478938123"><ele>227.0</ele><time>2026-03-23T14:32:24.962Z</time></trkpt><trkpt lat="45.415623903415685" lon="7.945920313731478"><ele>227.0</ele><time>2026-03-23T14:32:25.962Z</time></trkpt><trkpt lat="45.41564451239432" lon="7.9460577896584095"><ele>227.0</ele><time>2026-03-23T14:32:26.962Z</time></trkpt><trkpt lat="45.41566676392817" lon="7.946197896227327"><ele>227.0</ele><time>2026-03-23T14:32:27.962Z</time></trkpt><trkpt lat="45.415689093674956" lon="7.946334671543063"><ele>227.2</ele><time>2026-03-23T14:32:28.962Z</time></trkpt><trkpt lat="45.415712105880615" lon="7.9464826275789795"><ele>227.39999999999998</ele><time>2026-03-23T14:32:29.962Z</time></trkpt><trkpt lat="45.41573167140273" lon="7.946624346602381"><ele>227.60000000000002</ele><time>2026-03-23T14:32:30.962Z</time></trkpt><trkpt lat="45.41574838954002" lon="7.946752561139891"><ele>227.8</ele><time>2026-03-23T14:32:31.962Z</time></trkpt><trkpt lat="45.41577171937553" lon="7.946873979891866"><ele>228.0</ele><time>2026-03-23T14:32:32.962Z</time></trkpt><trkpt lat="45.41578933846307" lon="7.946977880487897"><ele>228.0</ele><time>2026-03-23T14:32:33.962Z</time></trkpt><trkpt lat="45.41579593509816" lon="7.9471559064"><ele>228.0</ele><time>2026-03-23T14:32:35.962Z</time></trkpt><trkpt lat="45.415568998151265" lon="7.9471221456494705"><ele>228.0</ele><time>2026-03-23T14:32:37.962Z</time></trkpt><trkpt lat="45.41547868921428" lon="7.947074315681055"><ele>228.0</ele><time>2026-03-23T14:32:38.962Z</time></trkpt><trkpt lat="45.41539408011254" lon="7.947004780631071"><ele>228.0</ele><time>2026-03-23T14:32:39.962Z</time></trkpt><trkpt lat="45.415321127304026" lon="7.94695665682467"><ele>228.0</ele><time>2026-03-23T14:32:40.962Z</time></trkpt><trkpt lat="45.41526370343189" lon="7.94689971381539"><ele>228.0</ele><time>2026-03-23T14:32:41.963Z</time></trkpt><trkpt lat="45.415176287623545" lon="7.94683484743711"><ele>228.0</ele><time>2026-03-23T14:32:42.963Z</time></trkpt><trkpt lat="45.41506234397592" lon="7.946750803696969"><ele>228.0</ele><time>2026-03-23T14:32:43.963Z</time></trkpt><trkpt lat="45.41494110456943" lon="7.946660348946128"><ele>228.0</ele><time>2026-03-23T14:32:44.963Z</time></trkpt><trkpt lat="45.414826526561896" lon="7.946559939889143"><ele>228.0</ele><time>2026-03-23T14:32:45.963Z</time></trkpt><trkpt lat="45.414702459989506" lon="7.9464669078924"><ele>228.0</ele><time>2026-03-23T14:32:46.963Z</time></trkpt><trkpt lat="45.41458835965814" lon="7.946369042323018"><ele>228.0</ele><time>2026-03-23T14:32:47.963Z</time></trkpt><trkpt lat="45.41449260437066" lon="7.946274360412422"><ele>228.0</ele><time>2026-03-23T14:32:48.963Z</time></trkpt><trkpt lat="45.41441785069914" lon="7.946155420137685"><ele>228.0</ele><time>2026-03-23T14:32:49.963Z</time></trkpt><trkpt lat="45.41433832118424" lon="7.946025373284534"><ele>228.0</ele><time>2026-03-23T14:32:50.963Z</time></trkpt><trkpt lat="45.414253482325215" lon="7.945903183379233"><ele>228.25</ele><time>2026-03-23T14:32:51.963Z</time></trkpt><trkpt lat="45.414146910859685" lon="7.945824892651432"><ele>228.5</ele><time>2026-03-23T14:32:52.963Z</time></trkpt><trkpt lat="45.414037282207715" lon="7.945763885168112"><ele>228.75</ele><time>2026-03-23T14:32:53.963Z</time></trkpt><trkpt lat="45.41391740422958" lon="7.945728540737627"><ele>229.0</ele><time>2026-03-23T14:32:54.963Z</time></trkpt><trkpt lat="45.41378881613813" lon="7.9457071761206794"><ele>228.5</ele><time>2026-03-23T14:32:55.963Z</time></trkpt><trkpt lat="45.413650712913174" lon="7.945728254314279"><ele>228.0</ele><time>2026-03-23T14:32:56.963Z</time></trkpt><trkpt lat="45.413523298566076" lon="7.945742774775292"><ele>227.5</ele><time>2026-03-23T14:32:57.963Z</time></trkpt><trkpt lat="45.41338711132591" lon="7.9457460203967365"><ele>227.0</ele><time>2026-03-23T14:32:58.963Z</time></trkpt><trkpt lat="45.41324781321896" lon="7.945731815829228"><ele>227.0</ele><time>2026-03-23T14:32:59.963Z</time></trkpt><trkpt lat="45.41311270497117" lon="7.945722040015405"><ele>227.0</ele><time>2026-03-23T14:33:00.963Z</time></trkpt><trkpt lat="45.412979642476984" lon="7.945712393812797"><ele>227.0</ele><time>2026-03-23T14:33:01.963Z</time></trkpt><trkpt lat="45.41285515629773" lon="7.945700165266805"><ele>227.0</ele><time>2026-03-23T14:33:02.963Z</time></trkpt><trkpt lat="45.41274159962996" lon="7.945695689028228"><ele>227.0</ele><time>2026-03-23T14:33:03.963Z</time></trkpt><trkpt lat="45.41263568414205" lon="7.945700488669886"><ele>227.0</ele><time>2026-03-23T14:33:04.963Z</time></trkpt><trkpt lat="45.412535957425" lon="7.945704887831052"><ele>227.0</ele><time>2026-03-23T14:33:05.963Z</time></trkpt><trkpt lat="45.41245112530399" lon="7.94574291067005"><ele>227.0</ele><time>2026-03-23T14:33:06.963Z</time></trkpt><trkpt lat="45.41238502252987" lon="7.945816769391021"><ele>227.0</ele><time>2026-03-23T14:33:07.963Z</time></trkpt><trkpt lat="45.41233542639304" lon="7.945910026144557"><ele>227.00000000000003</ele><time>2026-03-23T14:33:08.963Z</time></trkpt><trkpt lat="45.41231111098192" lon="7.946028681418897"><ele>227.0</ele><time>2026-03-23T14:33:09.963Z</time></trkpt><trkpt lat="45.41230452156096" lon="7.946166380634927"><ele>227.0</ele><time>2026-03-23T14:33:10.963Z</time></trkpt><trkpt lat="45.41232247900872" lon="7.9462825166858355"><ele>227.0</ele><time>2026-03-23T14:33:11.963Z</time></trkpt><trkpt lat="45.41236470166601" lon="7.946379012862222"><ele>227.00000000000003</ele><time>2026-03-23T14:33:12.963Z</time></trkpt><trkpt lat="45.41241051356423" lon="7.9464653321536804"><ele>227.0</ele><time>2026-03-23T14:33:14.963Z</time></trkpt><trkpt lat="45.412467017609224" lon="7.946543220617666"><ele>227.0</ele><time>2026-03-23T14:33:39.963Z</time></trkpt><trkpt lat="45.41251470767908" lon="7.946635659778924"><ele>227.0</ele><time>2026-03-23T14:33:41.963Z</time></trkpt><trkpt lat="45.41254377774265" lon="7.946748120936787"><ele>227.0</ele><time>2026-03-23T14:33:42.963Z</time></trkpt><trkpt lat="45.412571202700455" lon="7.946865464066121"><ele>227.0</ele><time>2026-03-23T14:33:43.963Z</time></trkpt><trkpt lat="45.4126075300213" lon="7.947000998913753"><ele>227.0</ele><time>2026-03-23T14:33:44.963Z</time></trkpt><trkpt lat="45.412629486634636" lon="7.947145301950386"><ele>227.25</ele><time>2026-03-23T14:33:45.963Z</time></trkpt><trkpt lat="45.412663396714905" lon="7.947316823669316"><ele>227.5</ele><time>2026-03-23T14:33:46.963Z</time></trkpt><trkpt lat="45.4126859812866" lon="7.947476917535327"><ele>227.75</ele><time>2026-03-23T14:33:47.963Z</time></trkpt><trkpt lat="45.412722938166276" lon="7.947627946892485"><ele>228.0</ele><time>2026-03-23T14:33:48.963Z</time></trkpt><trkpt lat="45.41276413833535" lon="7.947764466202963"><ele>228.60000000000002</ele><time>2026-03-23T14:33:49.963Z</time></trkpt><trkpt lat="45.41279520251307" lon="7.947894170775651"><ele>229.20000000000002</ele><time>2026-03-23T14:33:50.963Z</time></trkpt><trkpt lat="45.41282083530862" lon="7.948036992171029"><ele>229.8</ele><time>2026-03-23T14:33:51.963Z</time></trkpt><trkpt lat="45.4128597438886" lon="7.948190529508744"><ele>230.4</ele><time>2026-03-23T14:33:52.963Z</time></trkpt><trkpt lat="45.41289548341983" lon="7.9483408837317056"><ele>231.0</ele><time>2026-03-23T14:33:53.963Z</time></trkpt><trkpt lat="45.412919560122695" lon="7.9484908714004225"><ele>231.60000000000002</ele><time>2026-03-23T14:33:54.963Z</time></trkpt><trkpt lat="45.41296885211607" lon="7.948655592644588"><ele>232.20000000000002</ele><time>2026-03-23T14:33:55.963Z</time></trkpt><trkpt lat="45.413021316487125" lon="7.948799273863267"><ele>232.79999999999998</ele><time>2026-03-23T14:33:56.963Z</time></trkpt><trkpt lat="45.413062642606036" lon="7.94891750475082"><ele>233.39999999999998</ele><time>2026-03-23T14:33:57.963Z</time></trkpt><trkpt lat="45.41310026914449" lon="7.949020435339725"><ele>234.0</ele><time>2026-03-23T14:33:58.963Z</time></trkpt><trkpt lat="45.41311915140464" lon="7.949115428542187"><ele>232.6</ele><time>2026-03-23T14:33:59.963Z</time></trkpt><trkpt lat="45.41315217123524" lon="7.949292598918172"><ele>231.2</ele><time>2026-03-23T14:34:01.963Z</time></trkpt><trkpt lat="45.41319819694665" lon="7.949450103966359"><ele>229.79999999999998</ele><time>2026-03-23T14:34:03.963Z</time></trkpt><trkpt lat="45.413233164783954" lon="7.949617578873882"><ele>228.39999999999998</ele><time>2026-03-23T14:34:05.963Z</time></trkpt><trkpt lat="45.41324950091379" lon="7.949717808933837"><ele>227.0</ele><time>2026-03-23T14:34:06.963Z</time></trkpt><trkpt lat="45.41328367227519" lon="7.9498429814683735"><ele>227.0</ele><time>2026-03-23T14:34:07.963Z</time></trkpt><trkpt lat="45.41331091757146" lon="7.949964314395871"><ele>227.0</ele><time>2026-03-23T14:34:08.963Z</time></trkpt><trkpt lat="45.41334486876075" lon="7.95011957906495"><ele>227.0</ele><time>2026-03-23T14:34:09.963Z</time></trkpt><trkpt lat="45.41338482893352" lon="7.950280909770244"><ele>227.0</ele><time>2026-03-23T14:34:10.963Z</time></trkpt><trkpt lat="45.413434830901814" lon="7.950447324583925"><ele>227.2</ele><time>2026-03-23T14:34:11.963Z</time></trkpt><trkpt lat="45.41348553757056" lon="7.950598743280183"><ele>227.39999999999998</ele><time>2026-03-23T14:34:12.963Z</time></trkpt><trkpt lat="45.4135247604878" lon="7.950760876665648"><ele>227.60000000000002</ele><time>2026-03-23T14:34:13.963Z</time></trkpt><trkpt lat="45.41355288204019" lon="7.950866591218913"><ele>227.8</ele><time>2026-03-23T14:34:14.963Z</time></trkpt><trkpt lat="45.413537886497956" lon="7.95095716227809"><ele>228.0</ele><time>2026-03-23T14:34:16.959Z</time></trkpt><trkpt lat="45.41342929274014" lon="7.951001822442137"><ele>228.2</ele><time>2026-03-23T14:34:18.959Z</time></trkpt><trkpt lat="45.4133602828337" lon="7.950990020529524"><ele>228.4</ele><time>2026-03-23T14:34:19.958Z</time></trkpt><trkpt lat="45.41325756190781" lon="7.9510310133514"><ele>228.59999999999997</ele><time>2026-03-23T14:34:20.958Z</time></trkpt><trkpt lat="45.41314718108754" lon="7.95104405441351"><ele>228.79999999999998</ele><time>2026-03-23T14:34:21.958Z</time></trkpt><trkpt lat="45.41303246250287" lon="7.951109321351777"><ele>229.0</ele><time>2026-03-23T14:34:22.958Z</time></trkpt><trkpt lat="45.412910420498" lon="7.951149420135828"><ele>229.33333333333331</ele><time>2026-03-23T14:34:23.958Z</time></trkpt><trkpt lat="45.412811728948846" lon="7.951184222287791"><ele>229.66666666666666</ele><time>2026-03-23T14:34:24.959Z</time></trkpt><trkpt lat="45.41272389191578" lon="7.9512342283390645"><ele>230.0</ele><time>2026-03-23T14:34:25.959Z</time></trkpt><trkpt lat="45.41265220581132" lon="7.951292474824419"><ele>230.33333333333331</ele><time>2026-03-23T14:34:26.959Z</time></trkpt><trkpt lat="45.412626596312954" lon="7.951416149784757"><ele>230.66666666666666</ele><time>2026-03-23T14:34:28.959Z</time></trkpt><trkpt lat="45.412668333333826" lon="7.951502715285215"><ele>231.0</ele><time>2026-03-23T14:34:29.959Z</time></trkpt><trkpt lat="45.41270893473768" lon="7.9516120633553165"><ele>231.75</ele><time>2026-03-23T14:34:30.959Z</time></trkpt><trkpt lat="45.41275397037406" lon="7.95176017935229"><ele>232.5</ele><time>2026-03-23T14:34:31.959Z</time></trkpt><trkpt lat="45.412775549708336" lon="7.951953590445256"><ele>233.25</ele><time>2026-03-23T14:34:32.959Z</time></trkpt><trkpt lat="45.41278480021418" lon="7.952135227745387"><ele>234.0</ele><time>2026-03-23T14:34:33.959Z</time></trkpt><trkpt lat="45.412788146743964" lon="7.952330133253712"><ele>235.0</ele><time>2026-03-23T14:34:34.959Z</time></trkpt><trkpt lat="45.412785926193926" lon="7.9525409516091194"><ele>236.0</ele><time>2026-03-23T14:34:35.959Z</time></trkpt><trkpt lat="45.412778596683225" lon="7.952767186864895"><ele>237.0</ele><time>2026-03-23T14:34:36.959Z</time></trkpt><trkpt lat="45.412770512382274" lon="7.952985946781101"><ele>237.0</ele><time>2026-03-23T14:34:37.959Z</time></trkpt><trkpt lat="45.412759654800126" lon="7.953187485285578"><ele>237.0</ele><time>2026-03-23T14:34:38.959Z</time></trkpt><trkpt lat="45.41275762925335" lon="7.9534071049666535"><ele>237.0</ele><time>2026-03-23T14:34:39.959Z</time></trkpt><trkpt lat="45.41275744248721" lon="7.953627296619695"><ele>237.0</ele><time>2026-03-23T14:34:40.959Z</time></trkpt><trkpt lat="45.41275815410199" lon="7.9538370457881085"><ele>237.0</ele><time>2026-03-23T14:34:41.959Z</time></trkpt><trkpt lat="45.41275822852094" lon="7.954031377920678"><ele>237.0</ele><time>2026-03-23T14:34:42.959Z</time></trkpt><trkpt lat="45.41274612080064" lon="7.95422008353069"><ele>237.0</ele><time>2026-03-23T14:34:43.959Z</time></trkpt><trkpt lat="45.41274237629643" lon="7.95438719231471"><ele>236.6</ele><time>2026-03-23T14:34:44.959Z</time></trkpt><trkpt lat="45.41273895914887" lon="7.954550855455212"><ele>236.2</ele><time>2026-03-23T14:34:45.959Z</time></trkpt><trkpt lat="45.41274431717451" lon="7.954698503279504"><ele>235.8</ele><time>2026-03-23T14:34:46.959Z</time></trkpt><trkpt lat="45.41275660931994" lon="7.954815959360974"><ele>235.4</ele><time>2026-03-23T14:34:47.959Z</time></trkpt><trkpt lat="45.41265229474987" lon="7.954902369899631"><ele>235.0</ele><time>2026-03-23T14:34:50.959Z</time></trkpt><trkpt lat="45.412556597452415" lon="7.954942143367589"><ele>235.0</ele><time>2026-03-23T14:34:51.959Z</time></trkpt><trkpt lat="45.412475815869904" lon="7.955002847787734"><ele>235.0</ele><time>2026-03-23T14:34:52.959Z</time></trkpt><trkpt lat="45.41238927009934" lon="7.955075376577759"><ele>235.0</ele><time>2026-03-23T14:34:53.959Z</time></trkpt><trkpt lat="45.4122874442271" lon="7.9551740764894925"><ele>235.0</ele><time>2026-03-23T14:34:54.959Z</time></trkpt><trkpt lat="45.41218841869727" lon="7.95528451298316"><ele>235.0</ele><time>2026-03-23T14:34:55.959Z</time></trkpt><trkpt lat="45.41209234008039" lon="7.95539368949565"><ele>234.83333333333331</ele><time>2026-03-23T14:34:56.959Z</time></trkpt><trkpt lat="45.412007560644014" lon="7.955493561328586"><ele>234.66666666666666</ele><time>2026-03-23T14:34:57.959Z</time></trkpt><trkpt lat="45.41193504066642" lon="7.955556161941826"><ele>234.5</ele><time>2026-03-23T14:34:58.959Z</time></trkpt><trkpt lat="45.41185404029864" lon="7.955588320307194"><ele>234.33333333333331</ele><time>2026-03-23T14:34:59.959Z</time></trkpt><trkpt lat="45.411785984082044" lon="7.955614455487238"><ele>234.16666666666666</ele><time>2026-03-23T14:35:00.959Z</time></trkpt><trkpt lat="45.411708431510235" lon="7.9556797982106175"><ele>234.0</ele><time>2026-03-23T14:35:02.959Z</time></trkpt><trkpt lat="45.41163493638502" lon="7.955773188773744"><ele>233.39999999999998</ele><time>2026-03-23T14:35:05.959Z</time></trkpt><trkpt lat="45.41161965072049" lon="7.955956410303131"><ele>232.79999999999998</ele><time>2026-03-23T14:35:07.959Z</time></trkpt><trkpt lat="45.411585905140505" lon="7.956049125944379"><ele>232.20000000000002</ele><time>2026-03-23T14:35:08.959Z</time></trkpt><trkpt lat="45.411500932403314" lon="7.9561390001737"><ele>231.60000000000002</ele><time>2026-03-23T14:35:09.959Z</time></trkpt><trkpt lat="45.411411924953036" lon="7.956169385333792"><ele>231.0</ele><time>2026-03-23T14:35:10.959Z</time></trkpt><trkpt lat="45.41129956518931" lon="7.95619330345607"><ele>230.60000000000002</ele><time>2026-03-23T14:35:11.959Z</time></trkpt><trkpt lat="45.41119343244441" lon="7.956235772966694"><ele>230.20000000000002</ele><time>2026-03-23T14:35:12.959Z</time></trkpt><trkpt lat="45.41109282845276" lon="7.956296139564414"><ele>229.79999999999998</ele><time>2026-03-23T14:35:13.959Z</time></trkpt><trkpt lat="45.41100408557333" lon="7.9563390703327075"><ele>229.39999999999998</ele><time>2026-03-23T14:35:14.959Z</time></trkpt><trkpt lat="45.410929083884064" lon="7.956356261483067"><ele>229.0</ele><time>2026-03-23T14:35:15.959Z</time></trkpt><trkpt lat="45.410858462709555" lon="7.95641505926425"><ele>229.0</ele><time>2026-03-23T14:35:17.959Z</time></trkpt><trkpt lat="45.41086432002888" lon="7.956581511266894"><ele>228.99999999999997</ele><time>2026-03-23T14:35:19.959Z</time></trkpt><trkpt lat="45.41083533214649" lon="7.9566689162671915"><ele>228.99999999999997</ele><time>2026-03-23T14:35:20.959Z</time></trkpt><trkpt lat="45.41080107367906" lon="7.956802590086356"><ele>229.0</ele><time>2026-03-23T14:35:21.959Z</time></trkpt><trkpt lat="45.410735041555085" lon="7.956959823645794"><ele>229.0</ele><time>2026-03-23T14:35:22.959Z</time></trkpt><trkpt lat="45.41068082949863" lon="7.957115971517988"><ele>229.0</ele><time>2026-03-23T14:35:23.959Z</time></trkpt><trkpt lat="45.41061842912368" lon="7.957274113089483"><ele>229.0</ele><time>2026-03-23T14:35:24.959Z</time></trkpt><trkpt lat="45.41055235194246" lon="7.957451344100943"><ele>229.0</ele><time>2026-03-23T14:35:25.959Z</time></trkpt><trkpt lat="45.41049028997152" lon="7.9576326751981625"><ele>229.0</ele><time>2026-03-23T14:35:26.959Z</time></trkpt><trkpt lat="45.41041400414607" lon="7.957808340056099"><ele>229.25</ele><time>2026-03-23T14:35:27.959Z</time></trkpt><trkpt lat="45.41034041504624" lon="7.957990931765598"><ele>229.5</ele><time>2026-03-23T14:35:28.959Z</time></trkpt><trkpt lat="45.4102578083737" lon="7.958158731936091"><ele>229.75</ele><time>2026-03-23T14:35:29.959Z</time></trkpt><trkpt lat="45.41015880445356" lon="7.958312419665793"><ele>230.0</ele><time>2026-03-23T14:35:30.959Z</time></trkpt><trkpt lat="45.41006125749114" lon="7.958469652371403"><ele>230.25</ele><time>2026-03-23T14:35:31.959Z</time></trkpt><trkpt lat="45.40995284989791" lon="7.958623625903692"><ele>230.5</ele><time>2026-03-23T14:35:32.959Z</time></trkpt><trkpt lat="45.409849221558645" lon="7.958741236323403"><ele>230.75</ele><time>2026-03-23T14:35:33.959Z</time></trkpt><trkpt lat="45.409730699906284" lon="7.95884369411398"><ele>231.0</ele><time>2026-03-23T14:35:34.959Z</time></trkpt><trkpt lat="45.40959909007376" lon="7.958913589772799"><ele>231.0</ele><time>2026-03-23T14:35:35.959Z</time></trkpt><trkpt lat="45.40945856786321" lon="7.9589849787728415"><ele>231.0</ele><time>2026-03-23T14:35:36.959Z</time></trkpt><trkpt lat="45.40931059156824" lon="7.959045436289103"><ele>231.0</ele><time>2026-03-23T14:35:37.959Z</time></trkpt><trkpt lat="45.40915096108213" lon="7.959097154355602"><ele>231.0</ele><time>2026-03-23T14:35:38.959Z</time></trkpt><trkpt lat="45.40899969076613" lon="7.95911881973703"><ele>231.0</ele><time>2026-03-23T14:35:39.959Z</time></trkpt><trkpt lat="45.408835565802555" lon="7.959137912605675"><ele>231.0</ele><time>2026-03-23T14:35:40.959Z</time></trkpt><trkpt lat="45.40868239767592" lon="7.959168485560236"><ele>231.0</ele><time>2026-03-23T14:35:41.959Z</time></trkpt><trkpt lat="45.40853520774809" lon="7.959194628806041"><ele>231.0</ele><time>2026-03-23T14:35:42.959Z</time></trkpt><trkpt lat="45.408392821064645" lon="7.959220639014947"><ele>231.0</ele><time>2026-03-23T14:35:43.959Z</time></trkpt><trkpt lat="45.408241055076196" lon="7.959271248820263"><ele>231.0</ele><time>2026-03-23T14:35:44.959Z</time></trkpt><trkpt lat="45.408098064857384" lon="7.959315996358777"><ele>231.0</ele><time>2026-03-23T14:35:45.959Z</time></trkpt><trkpt lat="45.40795193109341" lon="7.959362511756534"><ele>231.0</ele><time>2026-03-23T14:35:46.959Z</time></trkpt><trkpt lat="45.40780016856426" lon="7.959404212910941"><ele>231.0</ele><time>2026-03-23T14:35:47.959Z</time></trkpt><trkpt lat="45.40765177589297" lon="7.9594330141195"><ele>231.0</ele><time>2026-03-23T14:35:48.959Z</time></trkpt><trkpt lat="45.407502436176124" lon="7.959462154747633"><ele>231.0</ele><time>2026-03-23T14:35:49.959Z</time></trkpt><trkpt lat="45.407358582291884" lon="7.959456889711861"><ele>231.0</ele><time>2026-03-23T14:35:50.959Z</time></trkpt><trkpt lat="45.40721264483983" lon="7.959459745316228"><ele>231.0</ele><time>2026-03-23T14:35:51.959Z</time></trkpt><trkpt lat="45.40706875963399" lon="7.95946644592258"><ele>231.25</ele><time>2026-03-23T14:35:52.959Z</time></trkpt><trkpt lat="45.406923404579146" lon="7.959455481734527"><ele>231.5</ele><time>2026-03-23T14:35:53.959Z</time></trkpt><trkpt lat="45.406781532257526" lon="7.959439948451504"><ele>231.75</ele><time>2026-03-23T14:35:54.959Z</time></trkpt><trkpt lat="45.4066433114723" lon="7.959414692772167"><ele>232.0</ele><time>2026-03-23T14:35:55.959Z</time></trkpt><trkpt lat="45.406512348995314" lon="7.959386266434816"><ele>232.0</ele><time>2026-03-23T14:35:56.959Z</time></trkpt><trkpt lat="45.406387877347164" lon="7.959365493297881"><ele>232.0</ele><time>2026-03-23T14:35:57.959Z</time></trkpt><trkpt lat="45.40628110459273" lon="7.959340509358046"><ele>232.0</ele><time>2026-03-23T14:35:58.959Z</time></trkpt><trkpt lat="45.406185761620414" lon="7.95932156909804"><ele>232.0</ele><time>2026-03-23T14:35:59.959Z</time></trkpt><trkpt lat="45.40611637408004" lon="7.959306013286387"><ele>232.0</ele><time>2026-03-23T14:36:00.959Z</time></trkpt><trkpt lat="45.40601936610062" lon="7.959273386119005"><ele>233.0</ele><time>2026-03-23T14:36:02.959Z</time></trkpt><trkpt lat="45.40598480908174" lon="7.959387033697472"><ele>234.0</ele><time>2026-03-23T14:36:04.959Z</time></trkpt><trkpt lat="45.40599681062048" lon="7.959490979303183"><ele>235.0</ele><time>2026-03-23T14:36:05.959Z</time></trkpt><trkpt lat="45.406002878242305" lon="7.959622865100175"><ele>236.0</ele><time>2026-03-23T14:36:06.959Z</time></trkpt><trkpt lat="45.405996024840825" lon="7.959759090693184"><ele>237.0</ele><time>2026-03-23T14:36:07.959Z</time></trkpt><trkpt lat="45.40596865743727" lon="7.959918801548331"><ele>238.0</ele><time>2026-03-23T14:36:08.959Z</time></trkpt><trkpt lat="45.40594314455638" lon="7.960067969643745"><ele>239.0</ele><time>2026-03-23T14:36:09.959Z</time></trkpt><trkpt lat="45.405944202428145" lon="7.960206081810473"><ele>240.0</ele><time>2026-03-23T14:36:10.959Z</time></trkpt><trkpt lat="45.40596785490419" lon="7.960347580983655"><ele>241.0</ele><time>2026-03-23T14:36:11.959Z</time></trkpt><trkpt lat="45.406031874912976" lon="7.960499926852521"><ele>242.0</ele><time>2026-03-23T14:36:12.959Z</time></trkpt><trkpt lat="45.40611373132834" lon="7.9606045895128625"><ele>242.0</ele><time>2026-03-23T14:36:13.959Z</time></trkpt><trkpt lat="45.40621831212469" lon="7.960699795158787"><ele>242.0</ele><time>2026-03-23T14:36:14.959Z</time></trkpt><trkpt lat="45.40635356936591" lon="7.960812227911921"><ele>242.0</ele><time>2026-03-23T14:36:15.959Z</time></trkpt><trkpt lat="45.406428304456085" lon="7.960958425195407"><ele>242.0</ele><time>2026-03-23T14:36:16.959Z</time></trkpt><trkpt lat="45.40647715338958" lon="7.961122887503792"><ele>240.2</ele><time>2026-03-23T14:36:17.959Z</time></trkpt><trkpt lat="45.40651989741969" lon="7.961305873072775"><ele>238.39999999999998</ele><time>2026-03-23T14:36:18.959Z</time></trkpt><trkpt lat="45.40656581496869" lon="7.96145337277347"><ele>236.60000000000002</ele><time>2026-03-23T14:36:19.959Z</time></trkpt><trkpt lat="45.4066061751384" lon="7.9615659969247154"><ele>234.8</ele><time>2026-03-23T14:36:20.959Z</time></trkpt><trkpt lat="45.40664648853255" lon="7.961667526236289"><ele>233.0</ele><time>2026-03-23T14:36:21.954Z</time></trkpt><trkpt lat="45.40669893688703" lon="7.961753731943978"><ele>233.0</ele><time>2026-03-23T14:36:22.955Z</time></trkpt><trkpt lat="45.40674010738937" lon="7.9618426791343735"><ele>233.0</ele><time>2026-03-23T14:36:23.955Z</time></trkpt><trkpt lat="45.4067846867553" lon="7.961979864455183"><ele>233.0</ele><time>2026-03-23T14:36:24.954Z</time></trkpt><trkpt lat="45.40683814075701" lon="7.962126466571474"><ele>233.0</ele><time>2026-03-23T14:36:25.954Z</time></trkpt><trkpt lat="45.406893005322125" lon="7.9622681362090315"><ele>233.0</ele><time>2026-03-23T14:36:26.954Z</time></trkpt><trkpt lat="45.406954749220525" lon="7.962412057415217"><ele>232.75</ele><time>2026-03-23T14:36:27.954Z</time></trkpt><trkpt lat="45.4070301144303" lon="7.9625672127060145"><ele>232.5</ele><time>2026-03-23T14:36:28.954Z</time></trkpt><trkpt lat="45.407103962405046" lon="7.96272245102663"><ele>232.25</ele><time>2026-03-23T14:36:29.954Z</time></trkpt><trkpt lat="45.407176151087654" lon="7.962837870658184"><ele>232.0</ele><time>2026-03-23T14:36:30.954Z</time></trkpt><trkpt lat="45.407246737767785" lon="7.962923129553371"><ele>232.0</ele><time>2026-03-23T14:36:31.954Z</time></trkpt><trkpt lat="45.40731639758708" lon="7.962947720525529"><ele>232.0</ele><time>2026-03-23T14:36:32.954Z</time></trkpt><trkpt lat="45.40737683870258" lon="7.962985734331653"><ele>232.0</ele><time>2026-03-23T14:36:33.954Z</time></trkpt><trkpt lat="45.40737538263438" lon="7.963176466040901"><ele>232.0</ele><time>2026-03-23T14:36:35.954Z</time></trkpt><trkpt lat="45.4073274900854" lon="7.96328379189497"><ele>232.0</ele><time>2026-03-23T14:36:36.954Z</time></trkpt><trkpt lat="45.40728298038549" lon="7.96342733726462"><ele>232.25</ele><time>2026-03-23T14:36:37.954Z</time></trkpt><trkpt lat="45.40722811286235" lon="7.96359957577145"><ele>232.5</ele><time>2026-03-23T14:36:38.954Z</time></trkpt><trkpt lat="45.407158337406415" lon="7.96378842301845"><ele>232.75</ele><time>2026-03-23T14:36:39.954Z</time></trkpt><trkpt lat="45.40708114334982" lon="7.963954472900157"><ele>233.0</ele><time>2026-03-23T14:36:40.954Z</time></trkpt><trkpt lat="45.40697441758266" lon="7.964076535425139"><ele>233.0</ele><time>2026-03-23T14:36:41.954Z</time></trkpt><trkpt lat="45.40684909451426" lon="7.964177100545818"><ele>233.0</ele><time>2026-03-23T14:36:42.954Z</time></trkpt><trkpt lat="45.406708497040356" lon="7.964254131858438"><ele>233.0</ele><time>2026-03-23T14:36:43.954Z</time></trkpt><trkpt lat="45.406553790615284" lon="7.9643368058509285"><ele>233.0</ele><time>2026-03-23T14:36:44.954Z</time></trkpt><trkpt lat="45.40641116423193" lon="7.964432288691298"><ele>233.0</ele><time>2026-03-23T14:36:45.954Z</time></trkpt><trkpt lat="45.40628134916798" lon="7.964524192519746"><ele>233.0</ele><time>2026-03-23T14:36:46.954Z</time></trkpt><trkpt lat="45.40616119596913" lon="7.964610038104483"><ele>233.0</ele><time>2026-03-23T14:36:47.954Z</time></trkpt><trkpt lat="45.406052914513864" lon="7.964692379225012"><ele>233.4</ele><time>2026-03-23T14:36:48.954Z</time></trkpt><trkpt lat="45.40595540610711" lon="7.964779558277442"><ele>233.8</ele><time>2026-03-23T14:36:49.954Z</time></trkpt><trkpt lat="45.405872046289836" lon="7.964860414999979"><ele>234.2</ele><time>2026-03-23T14:36:50.954Z</time></trkpt><trkpt lat="45.40580250092893" lon="7.964951384165636"><ele>234.6</ele><time>2026-03-23T14:36:51.954Z</time></trkpt><trkpt lat="45.405756567668575" lon="7.965057774693804"><ele>235.0</ele><time>2026-03-23T14:36:52.954Z</time></trkpt><trkpt lat="45.40571705380888" lon="7.965174274445331"><ele>234.33333333333331</ele><time>2026-03-23T14:36:53.954Z</time></trkpt><trkpt lat="45.40568781138118" lon="7.965280020129808"><ele>233.66666666666666</ele><time>2026-03-23T14:36:54.954Z</time></trkpt><trkpt lat="45.40565238362938" lon="7.965386907617387"><ele>233.0</ele><time>2026-03-23T14:36:55.954Z</time></trkpt><trkpt lat="45.40561154413784" lon="7.965483621862176"><ele>232.33333333333331</ele><time>2026-03-23T14:36:56.954Z</time></trkpt><trkpt lat="45.405569573516004" lon="7.965594075419864"><ele>231.66666666666666</ele><time>2026-03-23T14:36:57.954Z</time></trkpt><trkpt lat="45.40551120641257" lon="7.9656797932597065"><ele>231.0</ele><time>2026-03-23T14:36:58.954Z</time></trkpt><trkpt lat="45.405443552923586" lon="7.965706494830543"><ele>231.4</ele><time>2026-03-23T14:36:59.954Z</time></trkpt><trkpt lat="45.40536431539939" lon="7.96571219130305"><ele>231.8</ele><time>2026-03-23T14:37:00.954Z</time></trkpt><trkpt lat="45.40527112693441" lon="7.965721903077729"><ele>232.20000000000002</ele><time>2026-03-23T14:37:01.954Z</time></trkpt><trkpt lat="45.40517322446884" lon="7.9657484366963685"><ele>232.60000000000002</ele><time>2026-03-23T14:37:02.954Z</time></trkpt><trkpt lat="45.405078243459045" lon="7.9657970172981685"><ele>233.0</ele><time>2026-03-23T14:37:03.954Z</time></trkpt><trkpt lat="45.40499347230698" lon="7.965866742031872"><ele>233.0</ele><time>2026-03-23T14:37:04.954Z</time></trkpt><trkpt lat="45.404904237217124" lon="7.965935640466994"><ele>233.0</ele><time>2026-03-23T14:37:05.954Z</time></trkpt><trkpt lat="45.40481452537845" lon="7.966027968195695"><ele>233.0</ele><time>2026-03-23T14:37:06.954Z</time></trkpt><trkpt lat="45.404709257003425" lon="7.966113142690131"><ele>233.0</ele><time>2026-03-23T14:37:07.954Z</time></trkpt><trkpt lat="45.40459446804195" lon="7.966206793951351"><ele>234.75</ele><time>2026-03-23T14:37:08.954Z</time></trkpt><trkpt lat="45.40447625900474" lon="7.966331215387325"><ele>236.5</ele><time>2026-03-23T14:37:09.954Z</time></trkpt><trkpt lat="45.404372318391225" lon="7.966438122959097"><ele>238.25</ele><time>2026-03-23T14:37:10.954Z</time></trkpt><trkpt lat="45.404265637775495" lon="7.966545194177302"><ele>240.0</ele><time>2026-03-23T14:37:11.954Z</time></trkpt><trkpt lat="45.404137596572234" lon="7.966635767817312"><ele>239.25</ele><time>2026-03-23T14:37:12.954Z</time></trkpt><trkpt lat="45.40399524109551" lon="7.966706947290344"><ele>238.5</ele><time>2026-03-23T14:37:13.954Z</time></trkpt><trkpt lat="45.403856608410905" lon="7.966779108767316"><ele>237.75</ele><time>2026-03-23T14:37:14.954Z</time></trkpt><trkpt lat="45.40372481435129" lon="7.966859766853218"><ele>237.0</ele><time>2026-03-23T14:37:15.954Z</time></trkpt><trkpt lat="45.40359721904146" lon="7.966943756263305"><ele>237.0</ele><time>2026-03-23T14:37:16.954Z</time></trkpt><trkpt lat="45.40346867197536" lon="7.967034737350377"><ele>237.0</ele><time>2026-03-23T14:37:17.954Z</time></trkpt><trkpt lat="45.40334151338106" lon="7.967123634971003"><ele>237.0</ele><time>2026-03-23T14:37:18.954Z</time></trkpt><trkpt lat="45.403203530353224" lon="7.9672095181968094"><ele>237.0</ele><time>2026-03-23T14:37:19.954Z</time></trkpt><trkpt lat="45.403069758237386" lon="7.967283854994088"><ele>237.75</ele><time>2026-03-23T14:37:20.954Z</time></trkpt><trkpt lat="45.40295631648783" lon="7.967338330835844"><ele>238.5</ele><time>2026-03-23T14:37:21.954Z</time></trkpt><trkpt lat="45.40284767936035" lon="7.9674068522354515"><ele>239.25</ele><time>2026-03-23T14:37:22.954Z</time></trkpt><trkpt lat="45.402749494910466" lon="7.9674654245533905"><ele>240.0</ele><time>2026-03-23T14:37:23.954Z</time></trkpt><trkpt lat="45.402653530723846" lon="7.967526284440559"><ele>238.2</ele><time>2026-03-23T14:37:24.954Z</time></trkpt><trkpt lat="45.40256926030835" lon="7.967579131787762"><ele>236.4</ele><time>2026-03-23T14:37:25.954Z</time></trkpt><trkpt lat="45.40249762020271" lon="7.967628342588014"><ele>234.60000000000002</ele><time>2026-03-23T14:37:26.954Z</time></trkpt><trkpt lat="45.40244431899342" lon="7.967689457273711"><ele>232.8</ele><time>2026-03-23T14:37:33.954Z</time></trkpt><trkpt lat="45.40237145034417" lon="7.967793961933656"><ele>231.0</ele><time>2026-03-23T14:37:35.954Z</time></trkpt><trkpt lat="45.402404241350695" lon="7.96802481755213"><ele>231.0</ele><time>2026-03-23T14:37:37.954Z</time></trkpt><trkpt lat="45.402423878749524" lon="7.9681490324269015"><ele>231.00000000000003</ele><time>2026-03-23T14:37:38.954Z</time></trkpt><trkpt lat="45.40242263449308" lon="7.968260945279167"><ele>231.00000000000003</ele><time>2026-03-23T14:37:39.954Z</time></trkpt><trkpt lat="45.40242963228345" lon="7.968377810490924"><ele>231.0</ele><time>2026-03-23T14:37:41.954Z</time></trkpt><trkpt lat="45.402283788345514" lon="7.968404013121386"><ele>231.0</ele><time>2026-03-23T14:37:42.954Z</time></trkpt><trkpt lat="45.402169955851946" lon="7.968408049808684"><ele>230.5</ele><time>2026-03-23T14:37:43.954Z</time></trkpt><trkpt lat="45.40205658188291" lon="7.968404115634289"><ele>230.0</ele><time>2026-03-23T14:37:44.954Z</time></trkpt><trkpt lat="45.40194820079682" lon="7.968402356320198"><ele>229.5</ele><time>2026-03-23T14:37:45.954Z</time></trkpt><trkpt lat="45.40183218743589" lon="7.968395516936698"><ele>229.0</ele><time>2026-03-23T14:37:46.954Z</time></trkpt><trkpt lat="45.40169922640717" lon="7.968402393175311"><ele>229.0</ele><time>2026-03-23T14:37:47.954Z</time></trkpt><trkpt lat="45.40159509262101" lon="7.968385787304487"><ele>228.99999999999997</ele><time>2026-03-23T14:37:48.954Z</time></trkpt><trkpt lat="45.401491082091475" lon="7.968376656834601"><ele>228.99999999999997</ele><time>2026-03-23T14:37:49.954Z</time></trkpt><trkpt lat="45.4013848725554" lon="7.968377033683375"><ele>229.0</ele><time>2026-03-23T14:37:50.954Z</time></trkpt><trkpt lat="45.40129540921435" lon="7.9683835772736495"><ele>229.0</ele><time>2026-03-23T14:37:51.954Z</time></trkpt><trkpt lat="45.401211453227816" lon="7.968385829885131"><ele>229.2</ele><time>2026-03-23T14:37:52.954Z</time></trkpt><trkpt lat="45.401121273091256" lon="7.9683727396224855"><ele>229.39999999999998</ele><time>2026-03-23T14:37:53.954Z</time></trkpt><trkpt lat="45.401026975336165" lon="7.96836294703637"><ele>229.6</ele><time>2026-03-23T14:37:54.954Z</time></trkpt><trkpt lat="45.40093265774383" lon="7.968349081522808"><ele>229.8</ele><time>2026-03-23T14:37:55.954Z</time></trkpt><trkpt lat="45.40083292788783" lon="7.968332944204578"><ele>230.0</ele><time>2026-03-23T14:37:56.954Z</time></trkpt><trkpt lat="45.40075815457966" lon="7.968298107030765"><ele>230.2</ele><time>2026-03-23T14:37:57.954Z</time></trkpt><trkpt lat="45.40067799781033" lon="7.968251863116737"><ele>230.4</ele><time>2026-03-23T14:37:58.954Z</time></trkpt><trkpt lat="45.40057707058533" lon="7.968176360029668"><ele>230.60000000000002</ele><time>2026-03-23T14:37:59.954Z</time></trkpt><trkpt lat="45.40047812139876" lon="7.968119619080355"><ele>230.8</ele><time>2026-03-23T14:38:00.954Z</time></trkpt><trkpt lat="45.40036500248116" lon="7.968076489386394"><ele>231.0</ele><time>2026-03-23T14:38:01.954Z</time></trkpt><trkpt lat="45.40023137986406" lon="7.968056249904198"><ele>231.0</ele><time>2026-03-23T14:38:02.954Z</time></trkpt><trkpt lat="45.4000951414835" lon="7.968031171885562"><ele>231.0</ele><time>2026-03-23T14:38:03.954Z</time></trkpt><trkpt lat="45.39997553121584" lon="7.967957472104369"><ele>231.0</ele><time>2026-03-23T14:38:04.954Z</time></trkpt><trkpt lat="45.39985283672341" lon="7.967850728413664"><ele>231.0</ele><time>2026-03-23T14:38:05.954Z</time></trkpt><trkpt lat="45.39972450859164" lon="7.967775000019394"><ele>231.5</ele><time>2026-03-23T14:38:06.954Z</time></trkpt><trkpt lat="45.39960443370202" lon="7.967712992800201"><ele>232.0</ele><time>2026-03-23T14:38:07.954Z</time></trkpt><trkpt lat="45.39949813582761" lon="7.967643139439388"><ele>232.5</ele><time>2026-03-23T14:38:08.954Z</time></trkpt><trkpt lat="45.39938562972316" lon="7.967576097495838"><ele>233.0</ele><time>2026-03-23T14:38:09.954Z</time></trkpt><trkpt lat="45.399267361832" lon="7.967523990681546"><ele>234.25</ele><time>2026-03-23T14:38:10.954Z</time></trkpt><trkpt lat="45.39914901795331" lon="7.96747327291107"><ele>235.5</ele><time>2026-03-23T14:38:11.954Z</time></trkpt><trkpt lat="45.39903343269162" lon="7.967415175308417"><ele>236.75</ele><time>2026-03-23T14:38:12.954Z</time></trkpt><trkpt lat="45.39893124157398" lon="7.967372495728786"><ele>238.0</ele><time>2026-03-23T14:38:13.954Z</time></trkpt><trkpt lat="45.398826734871" lon="7.967336206465853"><ele>238.4</ele><time>2026-03-23T14:38:14.954Z</time></trkpt><trkpt lat="45.39873472049071" lon="7.967314338791743"><ele>238.8</ele><time>2026-03-23T14:38:15.954Z</time></trkpt><trkpt lat="45.39864983350723" lon="7.967314148716474"><ele>239.2</ele><time>2026-03-23T14:38:16.954Z</time></trkpt><trkpt lat="45.39856806310001" lon="7.967342649681397"><ele>239.6</ele><time>2026-03-23T14:38:17.954Z</time></trkpt><trkpt lat="45.3984792496461" lon="7.967388319036655"><ele>240.0</ele><time>2026-03-23T14:38:18.954Z</time></trkpt><trkpt lat="45.39839750874679" lon="7.967464767764494"><ele>239.5</ele><time>2026-03-23T14:38:19.954Z</time></trkpt><trkpt lat="45.398305829208255" lon="7.967547104442734"><ele>239.0</ele><time>2026-03-23T14:38:20.954Z</time></trkpt><trkpt lat="45.398204590154585" lon="7.96760890931107"><ele>238.5</ele><time>2026-03-23T14:38:21.954Z</time></trkpt><trkpt lat="45.39809685881722" lon="7.967701911161352"><ele>238.0</ele><time>2026-03-23T14:38:22.954Z</time></trkpt><trkpt lat="45.397993399012684" lon="7.96778830608031"><ele>239.25</ele><time>2026-03-23T14:38:23.954Z</time></trkpt><trkpt lat="45.3978821849299" lon="7.9678705335631905"><ele>240.5</ele><time>2026-03-23T14:38:24.954Z</time></trkpt><trkpt lat="45.397777537557985" lon="7.967950558339999"><ele>241.75</ele><time>2026-03-23T14:38:25.954Z</time></trkpt><trkpt lat="45.39768667507287" lon="7.968025824342002"><ele>243.0</ele><time>2026-03-23T14:38:26.954Z</time></trkpt><trkpt lat="45.39758836466308" lon="7.968123044356961"><ele>243.0</ele><time>2026-03-23T14:38:27.95Z</time></trkpt><trkpt lat="45.397485278699655" lon="7.9682286887054605"><ele>243.0</ele><time>2026-03-23T14:38:28.949Z</time></trkpt><trkpt lat="45.397388982091044" lon="7.968322971677773"><ele>243.0</ele><time>2026-03-23T14:38:29.949Z</time></trkpt><trkpt lat="45.397303488010074" lon="7.968430841553568"><ele>243.0</ele><time>2026-03-23T14:38:30.949Z</time></trkpt><trkpt lat="45.39721467177077" lon="7.968562416691067"><ele>244.2</ele><time>2026-03-23T14:38:31.95Z</time></trkpt><trkpt lat="45.39712897691176" lon="7.968700815891472"><ele>245.4</ele><time>2026-03-23T14:38:32.95Z</time></trkpt><trkpt lat="45.39705752020684" lon="7.968821955682493"><ele>246.59999999999997</ele><time>2026-03-23T14:38:33.95Z</time></trkpt><trkpt lat="45.3970020520665" lon="7.9689059549894905"><ele>247.79999999999998</ele><time>2026-03-23T14:38:34.949Z</time></trkpt><trkpt lat="45.39695244352438" lon="7.968981555276609"><ele>249.0</ele><time>2026-03-23T14:38:36.95Z</time></trkpt><trkpt lat="45.39692449630175" lon="7.969119619861474"><ele>249.6</ele><time>2026-03-23T14:38:38.95Z</time></trkpt><trkpt lat="45.39692555821649" lon="7.96923186799988"><ele>250.2</ele><time>2026-03-23T14:38:39.95Z</time></trkpt><trkpt lat="45.39692615516644" lon="7.969382375302438"><ele>250.79999999999998</ele><time>2026-03-23T14:38:40.949Z</time></trkpt><trkpt lat="45.39693202583749" lon="7.969548802792288"><ele>251.39999999999998</ele><time>2026-03-23T14:38:41.949Z</time></trkpt><trkpt lat="45.39695219491541" lon="7.969733211845086"><ele>252.0</ele><time>2026-03-23T14:38:42.949Z</time></trkpt><trkpt lat="45.39696267849302" lon="7.969919390397851"><ele>251.25</ele><time>2026-03-23T14:38:43.949Z</time></trkpt><trkpt lat="45.39698350462259" lon="7.970108905119776"><ele>250.5</ele><time>2026-03-23T14:38:44.949Z</time></trkpt><trkpt lat="45.39701470052824" lon="7.970276078957127"><ele>249.75</ele><time>2026-03-23T14:38:45.949Z</time></trkpt><trkpt lat="45.397047720323435" lon="7.970428535784209"><ele>249.0</ele><time>2026-03-23T14:38:46.949Z</time></trkpt><trkpt lat="45.39706994336397" lon="7.970573484575003"><ele>249.0</ele><time>2026-03-23T14:38:47.949Z</time></trkpt><trkpt lat="45.39709458866163" lon="7.9707147536050575"><ele>249.0</ele><time>2026-03-23T14:38:48.949Z</time></trkpt><trkpt lat="45.39712834810178" lon="7.970869255439293"><ele>249.0</ele><time>2026-03-23T14:38:49.949Z</time></trkpt><trkpt lat="45.39715436155863" lon="7.971036778668839"><ele>249.0</ele><time>2026-03-23T14:38:50.949Z</time></trkpt><trkpt lat="45.397156461528006" lon="7.9712024593343775"><ele>247.75</ele><time>2026-03-23T14:38:51.949Z</time></trkpt><trkpt lat="45.39713383166383" lon="7.971367260057747"><ele>246.5</ele><time>2026-03-23T14:38:52.949Z</time></trkpt><trkpt lat="45.39709265739083" lon="7.971524466596597"><ele>245.25</ele><time>2026-03-23T14:38:53.949Z</time></trkpt><trkpt lat="45.3970504519736" lon="7.971676506550271"><ele>244.0</ele><time>2026-03-23T14:38:54.949Z</time></trkpt><trkpt lat="45.39701065387922" lon="7.971811991125951"><ele>242.75</ele><time>2026-03-23T14:38:55.949Z</time></trkpt><trkpt lat="45.396955944142896" lon="7.971938507847976"><ele>241.5</ele><time>2026-03-23T14:38:56.949Z</time></trkpt><trkpt lat="45.39687028220594" lon="7.972070907286089"><ele>240.25</ele><time>2026-03-23T14:38:57.949Z</time></trkpt><trkpt lat="45.396791479797116" lon="7.972188211915009"><ele>239.0</ele><time>2026-03-23T14:38:58.949Z</time></trkpt><trkpt lat="45.39669810634324" lon="7.972297679869185"><ele>239.0</ele><time>2026-03-23T14:38:59.949Z</time></trkpt><trkpt lat="45.39660546763027" lon="7.972408903364477"><ele>239.0</ele><time>2026-03-23T14:39:00.949Z</time></trkpt><trkpt lat="45.39651484494618" lon="7.972516907706455"><ele>239.0</ele><time>2026-03-23T14:39:01.949Z</time></trkpt><trkpt lat="45.396413235163294" lon="7.972632413249103"><ele>239.0</ele><time>2026-03-23T14:39:02.949Z</time></trkpt><trkpt lat="45.396319883070184" lon="7.972769738071628"><ele>239.75</ele><time>2026-03-23T14:39:03.949Z</time></trkpt><trkpt lat="45.39623618289612" lon="7.972897919856995"><ele>240.5</ele><time>2026-03-23T14:39:04.949Z</time></trkpt><trkpt lat="45.39616077209191" lon="7.973034546595312"><ele>241.25</ele><time>2026-03-23T14:39:05.949Z</time></trkpt><trkpt lat="45.396097954282354" lon="7.973181130009406"><ele>242.0</ele><time>2026-03-23T14:39:06.949Z</time></trkpt><trkpt lat="45.39603988588233" lon="7.9733336586818195"><ele>241.5</ele><time>2026-03-23T14:39:07.949Z</time></trkpt><trkpt lat="45.395968601027676" lon="7.973493203162455"><ele>241.0</ele><time>2026-03-23T14:39:08.949Z</time></trkpt><trkpt lat="45.39589540367155" lon="7.973649489506449"><ele>240.5</ele><time>2026-03-23T14:39:09.949Z</time></trkpt><trkpt lat="45.395830287860825" lon="7.973795477863235"><ele>240.0</ele><time>2026-03-23T14:39:10.949Z</time></trkpt><trkpt lat="45.39577730084237" lon="7.973928097853567"><ele>240.0</ele><time>2026-03-23T14:39:11.949Z</time></trkpt><trkpt lat="45.39572447008457" lon="7.974074690385131"><ele>240.0</ele><time>2026-03-23T14:39:12.949Z</time></trkpt><trkpt lat="45.39566945558322" lon="7.974196619480971"><ele>240.0</ele><time>2026-03-23T14:39:13.949Z</time></trkpt><trkpt lat="45.395627638031605" lon="7.974330409295673"><ele>240.0</ele><time>2026-03-23T14:39:14.949Z</time></trkpt><trkpt lat="45.395597492163" lon="7.974471211772687"><ele>240.0</ele><time>2026-03-23T14:39:15.949Z</time></trkpt><trkpt lat="45.3955467201585" lon="7.974621441413822"><ele>241.0</ele><time>2026-03-23T14:39:16.949Z</time></trkpt><trkpt lat="45.39548839531531" lon="7.974766303957698"><ele>242.0</ele><time>2026-03-23T14:39:17.949Z</time></trkpt><trkpt lat="45.39542802299602" lon="7.974913591003724"><ele>243.0</ele><time>2026-03-23T14:39:18.949Z</time></trkpt><trkpt lat="45.39536842772732" lon="7.975065179341844"><ele>244.0</ele><time>2026-03-23T14:39:19.949Z</time></trkpt><trkpt lat="45.39531789470773" lon="7.975213886481993"><ele>244.0</ele><time>2026-03-23T14:39:20.949Z</time></trkpt><trkpt lat="45.39526365198665" lon="7.975360122668047"><ele>244.0</ele><time>2026-03-23T14:39:21.949Z</time></trkpt><trkpt lat="45.39520555650238" lon="7.975506637678964"><ele>244.0</ele><time>2026-03-23T14:39:22.949Z</time></trkpt><trkpt lat="45.39513189846377" lon="7.975659884390544"><ele>244.0</ele><time>2026-03-23T14:39:23.949Z</time></trkpt><trkpt lat="45.39507078296655" lon="7.975797187019296"><ele>243.2</ele><time>2026-03-23T14:39:24.949Z</time></trkpt><trkpt lat="45.39501166288224" lon="7.975931351973867"><ele>242.39999999999998</ele><time>2026-03-23T14:39:25.949Z</time></trkpt><trkpt lat="45.39495386043315" lon="7.976052297092807"><ele>241.6</ele><time>2026-03-23T14:39:26.949Z</time></trkpt><trkpt lat="45.394886155245906" lon="7.976177979561698"><ele>240.8</ele><time>2026-03-23T14:39:27.949Z</time></trkpt><trkpt lat="45.394814792800155" lon="7.976304632101665"><ele>240.0</ele><time>2026-03-23T14:39:28.949Z</time></trkpt><trkpt lat="45.39472208997463" lon="7.976415725186046"><ele>242.0</ele><time>2026-03-23T14:39:29.949Z</time></trkpt><trkpt lat="45.39462560006423" lon="7.976511995282997"><ele>244.0</ele><time>2026-03-23T14:39:30.949Z</time></trkpt><trkpt lat="45.394519370903886" lon="7.976594294194443"><ele>246.0</ele><time>2026-03-23T14:39:31.949Z</time></trkpt><trkpt lat="45.39443102822064" lon="7.9767146080056985"><ele>248.0</ele><time>2026-03-23T14:39:32.949Z</time></trkpt><trkpt lat="45.3943470401525" lon="7.976841191449843"><ele>248.0</ele><time>2026-03-23T14:39:33.949Z</time></trkpt><trkpt lat="45.39427557402857" lon="7.97698209073705"><ele>248.0</ele><time>2026-03-23T14:39:34.949Z</time></trkpt><trkpt lat="45.394221432313124" lon="7.977147352645761"><ele>248.0</ele><time>2026-03-23T14:39:35.949Z</time></trkpt><trkpt lat="45.394195516097156" lon="7.977322631042343"><ele>248.0</ele><time>2026-03-23T14:39:36.949Z</time></trkpt><trkpt lat="45.394169477046404" lon="7.977472782669114"><ele>247.4</ele><time>2026-03-23T14:39:37.949Z</time></trkpt><trkpt lat="45.39413191459331" lon="7.977608190566966"><ele>246.8</ele><time>2026-03-23T14:39:38.949Z</time></trkpt><trkpt lat="45.394080034191305" lon="7.977711154037663"><ele>246.2</ele><time>2026-03-23T14:39:39.949Z</time></trkpt><trkpt lat="45.39402737127599" lon="7.9777942934183"><ele>245.6</ele><time>2026-03-23T14:39:40.949Z</time></trkpt><trkpt lat="45.39395022884703" lon="7.977911108445523"><ele>245.0</ele><time>2026-03-23T14:39:42.949Z</time></trkpt><trkpt lat="45.39393543097007" lon="7.978006014824777"><ele>245.0</ele><time>2026-03-23T14:39:45.949Z</time></trkpt><trkpt lat="45.39392195670419" lon="7.978143426873811"><ele>245.0</ele><time>2026-03-23T14:39:47.949Z</time></trkpt><trkpt lat="45.39394715166311" lon="7.9782785299573495"><ele>245.0</ele><time>2026-03-23T14:39:50.949Z</time></trkpt><trkpt lat="45.393971015860075" lon="7.9784514123823005"><ele>245.0</ele><time>2026-03-23T14:39:52.949Z</time></trkpt><trkpt lat="45.39397297249864" lon="7.978584908762453"><ele>245.0</ele><time>2026-03-23T14:39:53.949Z</time></trkpt><trkpt lat="45.39397391615325" lon="7.978744784957459"><ele>244.83333333333334</ele><time>2026-03-23T14:39:54.949Z</time></trkpt><trkpt lat="45.39397731557753" lon="7.978892768579275"><ele>244.66666666666669</ele><time>2026-03-23T14:39:55.949Z</time></trkpt><trkpt lat="45.39398642446863" lon="7.979020669814901"><ele>244.5</ele><time>2026-03-23T14:39:56.949Z</time></trkpt><trkpt lat="45.39398750558658" lon="7.97912424501125"><ele>244.33333333333331</ele><time>2026-03-23T14:39:57.949Z</time></trkpt><trkpt lat="45.39398510769672" lon="7.979224130762045"><ele>244.16666666666666</ele><time>2026-03-23T14:39:58.949Z</time></trkpt><trkpt lat="45.39398927147449" lon="7.979320699211136"><ele>244.0</ele><time>2026-03-23T14:39:59.949Z</time></trkpt><trkpt lat="45.39398433131161" lon="7.979491474426082"><ele>243.75</ele><time>2026-03-23T14:40:01.949Z</time></trkpt><trkpt lat="45.3939943030344" lon="7.979688964422222"><ele>243.5</ele><time>2026-03-23T14:40:03.949Z</time></trkpt><trkpt lat="45.39399601117889" lon="7.979809296029666"><ele>243.25</ele><time>2026-03-23T14:40:04.949Z</time></trkpt><trkpt lat="45.39402553224175" lon="7.979972162272007"><ele>243.0</ele><time>2026-03-23T14:40:05.949Z</time></trkpt><trkpt lat="45.39404797543482" lon="7.9801389102875895"><ele>243.0</ele><time>2026-03-23T14:40:06.949Z</time></trkpt><trkpt lat="45.39406273087475" lon="7.980315604899565"><ele>243.0</ele><time>2026-03-23T14:40:07.949Z</time></trkpt><trkpt lat="45.3940612966748" lon="7.9804899019209"><ele>243.0</ele><time>2026-03-23T14:40:08.949Z</time></trkpt><trkpt lat="45.39406521900422" lon="7.980656515320908"><ele>243.0</ele><time>2026-03-23T14:40:09.949Z</time></trkpt><trkpt lat="45.394075099551856" lon="7.980798316947946"><ele>243.0</ele><time>2026-03-23T14:40:10.949Z</time></trkpt><trkpt lat="45.39408474001211" lon="7.980911263689405"><ele>243.0</ele><time>2026-03-23T14:40:11.949Z</time></trkpt><trkpt lat="45.39408942828674" lon="7.981008176402618"><ele>243.0</ele><time>2026-03-23T14:40:12.949Z</time></trkpt><trkpt lat="45.394092362145216" lon="7.9811690295503785"><ele>243.0</ele><time>2026-03-23T14:40:14.949Z</time></trkpt><trkpt lat="45.39409013817415" lon="7.981282001964109"><ele>243.0</ele><time>2026-03-23T14:40:15.949Z</time></trkpt><trkpt lat="45.394096349653935" lon="7.981405445444105"><ele>243.0</ele><time>2026-03-23T14:40:16.949Z</time></trkpt><trkpt lat="45.394102477426145" lon="7.9815271452958285"><ele>243.25</ele><time>2026-03-23T14:40:17.949Z</time></trkpt><trkpt lat="45.39409820875812" lon="7.981687865288993"><ele>243.5</ele><time>2026-03-23T14:40:18.949Z</time></trkpt><trkpt lat="45.394090154705005" lon="7.981847771933587"><ele>243.75</ele><time>2026-03-23T14:40:19.949Z</time></trkpt><trkpt lat="45.394090336380145" lon="7.982031400448635"><ele>244.0</ele><time>2026-03-23T14:40:20.949Z</time></trkpt><trkpt lat="45.39409443876368" lon="7.982184729825635"><ele>244.0</ele><time>2026-03-23T14:40:21.949Z</time></trkpt><trkpt lat="45.39409048164545" lon="7.982299321772891"><ele>243.99999999999997</ele><time>2026-03-23T14:40:22.949Z</time></trkpt><trkpt lat="45.394102583163146" lon="7.982402199534452"><ele>243.99999999999997</ele><time>2026-03-23T14:40:23.949Z</time></trkpt><trkpt lat="45.39411394013839" lon="7.98256419595812"><ele>244.0</ele><time>2026-03-23T14:40:25.949Z</time></trkpt><trkpt lat="45.39410641787458" lon="7.982773813254608"><ele>244.0</ele><time>2026-03-23T14:40:27.949Z</time></trkpt><trkpt lat="45.39409560466296" lon="7.982929428473247"><ele>244.0</ele><time>2026-03-23T14:40:28.949Z</time></trkpt><trkpt lat="45.394103425679894" lon="7.983118127905918"><ele>243.99999999999997</ele><time>2026-03-23T14:40:29.949Z</time></trkpt><trkpt lat="45.39410342847543" lon="7.983273414981864"><ele>243.99999999999997</ele><time>2026-03-23T14:40:30.949Z</time></trkpt><trkpt lat="45.394104504440634" lon="7.983373685340106"><ele>244.0</ele><time>2026-03-23T14:40:32.949Z</time></trkpt><trkpt lat="45.39401730782159" lon="7.983495315821102"><ele>244.0</ele><time>2026-03-23T14:40:35.944Z</time></trkpt><trkpt lat="45.39394309902477" lon="7.983549308337789"><ele>244.16666666666666</ele><time>2026-03-23T14:40:36.945Z</time></trkpt><trkpt lat="45.393841562502786" lon="7.983587942015752"><ele>244.33333333333331</ele><time>2026-03-23T14:40:37.945Z</time></trkpt><trkpt lat="45.39374550257513" lon="7.983623354341254"><ele>244.5</ele><time>2026-03-23T14:40:38.945Z</time></trkpt><trkpt lat="45.393655173316695" lon="7.983642442558778"><ele>244.66666666666669</ele><time>2026-03-23T14:40:39.945Z</time></trkpt><trkpt lat="45.39357349623442" lon="7.983670033323119"><ele>244.83333333333334</ele><time>2026-03-23T14:40:40.945Z</time></trkpt><trkpt lat="45.393511309914366" lon="7.9836840128215165"><ele>245.0</ele><time>2026-03-23T14:40:41.945Z</time></trkpt><trkpt lat="45.39341009282895" lon="7.983794816958728"><ele>246.83333333333334</ele><time>2026-03-23T14:40:43.945Z</time></trkpt><trkpt lat="45.393367447620555" lon="7.983882581044032"><ele>248.66666666666669</ele><time>2026-03-23T14:40:44.945Z</time></trkpt><trkpt lat="45.39331303020093" lon="7.983949195739741"><ele>250.5</ele><time>2026-03-23T14:40:45.944Z</time></trkpt><trkpt lat="45.393249181243796" lon="7.9839992536829465"><ele>252.33333333333331</ele><time>2026-03-23T14:40:46.944Z</time></trkpt><trkpt lat="45.39319654391593" lon="7.984053481837742"><ele>254.16666666666666</ele><time>2026-03-23T14:40:47.944Z</time></trkpt><trkpt lat="45.393103916824" lon="7.984101726224749"><ele>256.0</ele><time>2026-03-23T14:40:49.944Z</time></trkpt><trkpt lat="45.39306203766485" lon="7.984189396451013"><ele>256.3333333333333</ele><time>2026-03-23T14:40:53.944Z</time></trkpt><trkpt lat="45.393052765890815" lon="7.984299377000112"><ele>256.66666666666663</ele><time>2026-03-23T14:40:55.944Z</time></trkpt><trkpt lat="45.39305826377102" lon="7.984477121084589"><ele>257.0</ele><time>2026-03-23T14:40:57.944Z</time></trkpt><trkpt lat="45.39305781985519" lon="7.984580310925809"><ele>257.3333333333333</ele><time>2026-03-23T14:40:58.944Z</time></trkpt><trkpt lat="45.39307399394143" lon="7.984672239330486"><ele>257.6666666666667</ele><time>2026-03-23T14:40:59.944Z</time></trkpt><trkpt lat="45.393089447615644" lon="7.984793817854333"><ele>258.0</ele><time>2026-03-23T14:41:01.944Z</time></trkpt><trkpt lat="45.39309047224576" lon="7.984889987907983"><ele>258.0</ele><time>2026-03-23T14:41:04.944Z</time></trkpt><trkpt lat="45.39310936494681" lon="7.984756515115752"><ele>258.0</ele><time>2026-03-23T14:41:16.944Z</time></trkpt><trkpt lat="45.39308983526128" lon="7.98467090534295"><ele>258.0</ele><time>2026-03-23T14:41:17.944Z</time></trkpt><trkpt lat="45.39306250540384" lon="7.984563525757821"><ele>258.0</ele><time>2026-03-23T14:41:18.944Z</time></trkpt><trkpt lat="45.39302910936969" lon="7.9844061426011965"><ele>258.0</ele><time>2026-03-23T14:41:20.944Z</time></trkpt><trkpt lat="45.39299766038858" lon="7.984261416766834"><ele>259.5</ele><time>2026-03-23T14:41:22.944Z</time></trkpt><trkpt lat="45.392911769764886" lon="7.984291562471441"><ele>261.0</ele><time>2026-03-23T14:41:27.944Z</time></trkpt><trkpt lat="45.39284693687219" lon="7.984266055832455"><ele>262.5</ele><time>2026-03-23T14:41:33.944Z</time></trkpt><trkpt lat="45.392771937421976" lon="7.98431791666821"><ele>264.0</ele><time>2026-03-23T14:41:45.944Z</time></trkpt><trkpt lat="45.392734066167556" lon="7.984395124464"><ele>265.5</ele><time>2026-03-23T14:41:48.944Z</time></trkpt><trkpt lat="45.39269127732057" lon="7.984513553087369"><ele>267.0</ele><time>2026-03-23T14:41:50.944Z</time></trkpt><trkpt lat="45.392649412163976" lon="7.984684981870697"><ele>267.0</ele><time>2026-03-23T14:41:52.944Z</time></trkpt><trkpt lat="45.39263113545288" lon="7.9847952886910685"><ele>267.0</ele><time>2026-03-23T14:41:53.944Z</time></trkpt><trkpt lat="45.392610824328166" lon="7.9849078719190025"><ele>267.0</ele><time>2026-03-23T14:41:54.944Z</time></trkpt><trkpt lat="45.39256243337022" lon="7.985046723675548"><ele>267.0</ele><time>2026-03-23T14:41:56.944Z</time></trkpt><trkpt lat="45.392548869235426" lon="7.9851955524795715"><ele>267.0</ele><time>2026-03-23T14:41:58.944Z</time></trkpt><trkpt lat="45.392541409937756" lon="7.985322047003177"><ele>267.0</ele><time>2026-03-23T14:41:59.944Z</time></trkpt><trkpt lat="45.39253809321071" lon="7.985439899612982"><ele>267.0</ele><time>2026-03-23T14:42:00.944Z</time></trkpt><trkpt lat="45.39253254708015" lon="7.985531070630657"><ele>267.0</ele><time>2026-03-23T14:42:01.944Z</time></trkpt><trkpt lat="45.39253217087868" lon="7.985621356800085"><ele>267.0</ele><time>2026-03-23T14:42:02.944Z</time></trkpt><trkpt lat="45.39251864445329" lon="7.9857555809953835"><ele>267.0</ele><time>2026-03-23T14:42:03.944Z</time></trkpt><trkpt lat="45.39249973747989" lon="7.985889965947757"><ele>267.0</ele><time>2026-03-23T14:42:04.944Z</time></trkpt><trkpt lat="45.392481097799084" lon="7.985991033218956"><ele>267.0</ele><time>2026-03-23T14:42:05.944Z</time></trkpt><trkpt lat="45.39244481662793" lon="7.986101733263581"><ele>267.0</ele><time>2026-03-23T14:42:07.944Z</time></trkpt><trkpt lat="45.39238576429389" lon="7.986188260380702"><ele>267.0</ele><time>2026-03-23T14:42:10.944Z</time></trkpt><trkpt lat="45.39233134818647" lon="7.986250980810963"><ele>267.0</ele><time>2026-03-23T14:42:20.944Z</time></trkpt><trkpt lat="45.39228189366347" lon="7.9863397638333735"><ele>267.0</ele><time>2026-03-23T14:42:23.944Z</time></trkpt><trkpt lat="45.39220073962013" lon="7.986410662289628"><ele>267.0</ele><time>2026-03-23T14:42:25.944Z</time></trkpt><trkpt lat="45.392143051051285" lon="7.986457916180829"><ele>269.6</ele><time>2026-03-23T14:42:27.944Z</time></trkpt><trkpt lat="45.39208194233256" lon="7.986535798387841"><ele>272.2</ele><time>2026-03-23T14:42:29.944Z</time></trkpt><trkpt lat="45.39203905105708" lon="7.98671812156312"><ele>274.8</ele><time>2026-03-23T14:42:31.944Z</time></trkpt><trkpt lat="45.39201820156112" lon="7.986846558153396"><ele>277.4</ele><time>2026-03-23T14:42:32.944Z</time></trkpt><trkpt lat="45.39198372910753" lon="7.986948357661214"><ele>280.0</ele><time>2026-03-23T14:42:33.944Z</time></trkpt><trkpt lat="45.39190753272222" lon="7.987030803882992"><ele>280.6</ele><time>2026-03-23T14:42:35.944Z</time></trkpt><trkpt lat="45.39184246743726" lon="7.9870360416822965"><ele>281.2</ele><time>2026-03-23T14:42:36.944Z</time></trkpt><trkpt lat="45.391730579875706" lon="7.987047676091474"><ele>281.8</ele><time>2026-03-23T14:42:38.944Z</time></trkpt><trkpt lat="45.39162138161412" lon="7.987045554776538"><ele>282.4</ele><time>2026-03-23T14:42:40.94Z</time></trkpt><trkpt lat="45.391540399304795" lon="7.987017774654694"><ele>283.0</ele><time>2026-03-23T14:42:42.94Z</time></trkpt><trkpt lat="45.39143219603007" lon="7.986988560535265"><ele>283.0</ele><time>2026-03-23T14:42:44.94Z</time></trkpt><trkpt lat="45.391365965531854" lon="7.9869646303231105"><ele>283.0</ele><time>2026-03-23T14:42:45.94Z</time></trkpt><trkpt lat="45.39124564824287" lon="7.9868997491847935"><ele>283.0</ele><time>2026-03-23T14:42:47.94Z</time></trkpt><trkpt lat="45.3911785086433" lon="7.9868702447779585"><ele>283.0</ele><time>2026-03-23T14:42:48.94Z</time></trkpt><trkpt lat="45.39109873872993" lon="7.986857760708824"><ele>283.0</ele><time>2026-03-23T14:42:49.94Z</time></trkpt><trkpt lat="45.39101942372384" lon="7.986866688820843"><ele>283.0</ele><time>2026-03-23T14:42:51.94Z</time></trkpt><trkpt lat="45.39095465702526" lon="7.986926569641054"><ele>286.0</ele><time>2026-03-23T14:42:53.94Z</time></trkpt><trkpt lat="45.39086966865845" lon="7.98702005840722"><ele>289.0</ele><time>2026-03-23T14:42:55.94Z</time></trkpt><trkpt lat="45.39081377534417" lon="7.987126022817943"><ele>292.0</ele><time>2026-03-23T14:42:57.94Z</time></trkpt><trkpt lat="45.390751044179076" lon="7.987219011227272"><ele>295.0</ele><time>2026-03-23T14:43:00.94Z</time></trkpt><trkpt lat="45.39067736632416" lon="7.987287965851712"><ele>298.0</ele><time>2026-03-23T14:43:02.94Z</time></trkpt><trkpt lat="45.390669041338306" lon="7.987571793489151"><ele>298.3333333333333</ele><time>2026-03-23T14:43:19.94Z</time></trkpt><trkpt lat="45.39070034906423" lon="7.987723898147859"><ele>298.66666666666663</ele><time>2026-03-23T14:43:21.94Z</time></trkpt><trkpt lat="45.390687169052" lon="7.9878296118885785"><ele>299.0</ele><time>2026-03-23T14:43:23.94Z</time></trkpt><trkpt lat="45.39070323545792" lon="7.987920330610537"><ele>299.3333333333333</ele><time>2026-03-23T14:43:25.94Z</time></trkpt><trkpt lat="45.390704699029364" lon="7.988015227605148"><ele>299.6666666666667</ele><time>2026-03-23T14:43:28.94Z</time></trkpt><trkpt lat="45.39074841861981" lon="7.988084445895733"><ele>300.0</ele><time>2026-03-23T14:43:36.94Z</time></trkpt><trkpt lat="45.3908161378062" lon="7.98810465329101"><ele>300.0</ele><time>2026-03-23T14:43:54.94Z</time></trkpt><trkpt lat="45.39093358961735" lon="7.988105651154625"><ele>300.0</ele><time>2026-03-23T14:44:16.956Z</time></trkpt><trkpt lat="45.39094066255909" lon="7.9882039741558435"><ele>300.0</ele><time>2026-03-23T14:44:43.964Z</time></trkpt><trkpt lat="45.39086773523337" lon="7.988137650622153"><ele>300.0</ele><time>2026-03-23T14:44:48.96Z</time></trkpt><trkpt lat="45.39078520925837" lon="7.988135061515039"><ele>300.0</ele><time>2026-03-23T14:44:51.961Z</time></trkpt><trkpt lat="45.39072025906142" lon="7.988097043268142"><ele>300.0</ele><time>2026-03-23T14:44:58.96Z</time></trkpt><trkpt lat="45.390662620982184" lon="7.988145345047379"><ele>300.0</ele><time>2026-03-23T14:45:06.96Z</time></trkpt><trkpt lat="45.39058445338584" lon="7.988206384957486"><ele>300.0</ele><time>2026-03-23T14:45:09.96Z</time></trkpt><trkpt lat="45.390521340282454" lon="7.988268519170869"><ele>300.0</ele><time>2026-03-23T14:45:11.96Z</time></trkpt><trkpt lat="45.39049390186204" lon="7.988462171789637"><ele>300.0</ele><time>2026-03-23T14:45:41.961Z</time></trkpt><trkpt lat="45.390437953208874" lon="7.9885133478820665"><ele>300.0</ele><time>2026-03-23T14:47:01.958Z</time></trkpt><trkpt lat="45.390346781952445" lon="7.988507284443351"><ele>304.3333333333333</ele><time>2026-03-23T14:47:04.958Z</time></trkpt><trkpt lat="45.39029787076896" lon="7.988577566024291"><ele>308.6666666666667</ele><time>2026-03-23T14:47:10.958Z</time></trkpt><trkpt lat="45.39026631935859" lon="7.988685239192522"><ele>313.0</ele><time>2026-03-23T14:47:12.958Z</time></trkpt><trkpt lat="45.39022126887253" lon="7.9887827426541005"><ele>317.33333333333337</ele><time>2026-03-23T14:47:14.958Z</time></trkpt><trkpt lat="45.39020258738308" lon="7.988915130924765"><ele>321.6666666666667</ele><time>2026-03-23T14:47:16.958Z</time></trkpt><trkpt lat="45.39021072476112" lon="7.989007800450177"><ele>326.0</ele><time>2026-03-23T14:47:18.958Z</time></trkpt><trkpt lat="45.390229790607705" lon="7.989121726915492"><ele>326.33333333333337</ele><time>2026-03-23T14:47:21.958Z</time></trkpt><trkpt lat="45.390194570833295" lon="7.989201072116883"><ele>326.6666666666667</ele><time>2026-03-23T14:47:23.958Z</time></trkpt><trkpt lat="45.39013483315929" lon="7.989275240287529"><ele>327.0</ele><time>2026-03-23T14:47:25.958Z</time></trkpt><trkpt lat="45.390111424906465" lon="7.989399721536152"><ele>327.3333333333333</ele><time>2026-03-23T14:47:27.958Z</time></trkpt><trkpt lat="45.39013223243965" lon="7.989507940660953"><ele>327.66666666666663</ele><time>2026-03-23T14:47:29.958Z</time></trkpt><trkpt lat="45.390181004850646" lon="7.989608980655199"><ele>328.0</ele><time>2026-03-23T14:47:31.958Z</time></trkpt><trkpt lat="45.390202434727314" lon="7.989712355842936"><ele>328.0</ele><time>2026-03-23T14:47:33.958Z</time></trkpt><trkpt lat="45.390210036839" lon="7.989837991457988"><ele>328.0</ele><time>2026-03-23T14:47:35.958Z</time></trkpt><trkpt lat="45.39022280486373" lon="7.989981087451328"><ele>328.0</ele><time>2026-03-23T14:47:37.958Z</time></trkpt><trkpt lat="45.390234213712105" lon="7.990157400545887"><ele>328.0</ele><time>2026-03-23T14:47:38.958Z</time></trkpt><trkpt lat="45.3902493540922" lon="7.990271804851728"><ele>328.0</ele><time>2026-03-23T14:47:39.958Z</time></trkpt><trkpt lat="45.39032856012263" lon="7.99044728835224"><ele>328.0</ele><time>2026-03-23T14:47:41.958Z</time></trkpt><trkpt lat="45.39037631807328" lon="7.990556713902154"><ele>328.0</ele><time>2026-03-23T14:47:42.958Z</time></trkpt><trkpt lat="45.39041557110644" lon="7.990644130329202"><ele>328.0</ele><time>2026-03-23T14:47:43.958Z</time></trkpt><trkpt lat="45.390473795697716" lon="7.990772719760086"><ele>328.0</ele><time>2026-03-23T14:47:45.958Z</time></trkpt><trkpt lat="45.390556980946734" lon="7.9908791143863445"><ele>328.0</ele><time>2026-03-23T14:47:48.959Z</time></trkpt><trkpt lat="45.39061769380857" lon="7.991065914706914"><ele>328.0</ele><time>2026-03-23T14:47:50.959Z</time></trkpt><trkpt lat="45.39064507787414" lon="7.9911689559827295"><ele>328.0</ele><time>2026-03-23T14:47:51.959Z</time></trkpt><trkpt lat="45.39065719069477" lon="7.99126891423487"><ele>328.0</ele><time>2026-03-23T14:47:52.959Z</time></trkpt><trkpt lat="45.39064006873294" lon="7.99143622529867"><ele>328.0</ele><time>2026-03-23T14:47:54.959Z</time></trkpt><trkpt lat="45.39064527767999" lon="7.99164042708697"><ele>328.0</ele><time>2026-03-23T14:47:56.959Z</time></trkpt><trkpt lat="45.39066617192744" lon="7.991750003508589"><ele>329.0</ele><time>2026-03-23T14:47:57.959Z</time></trkpt><trkpt lat="45.39067081847758" lon="7.99189398325617"><ele>330.0</ele><time>2026-03-23T14:47:59.959Z</time></trkpt><trkpt lat="45.39070806419721" lon="7.9920203767265905"><ele>331.0</ele><time>2026-03-23T14:48:02.959Z</time></trkpt><trkpt lat="45.390730655338984" lon="7.992117005936766"><ele>332.0</ele><time>2026-03-23T14:48:04.959Z</time></trkpt><trkpt lat="45.39072503442923" lon="7.992215747895485"><ele>333.0</ele><time>2026-03-23T14:48:06.959Z</time></trkpt><trkpt lat="45.39076003104132" lon="7.992338304945545"><ele>334.0</ele><time>2026-03-23T14:48:08.959Z</time></trkpt><trkpt lat="45.390808214237005" lon="7.992433295680361"><ele>334.66666666666663</ele><time>2026-03-23T14:48:10.959Z</time></trkpt><trkpt lat="45.390852878708756" lon="7.992553708401786"><ele>335.3333333333333</ele><time>2026-03-23T14:48:12.959Z</time></trkpt><trkpt lat="45.3909053281948" lon="7.9926421501889395"><ele>336.0</ele><time>2026-03-23T14:48:13.959Z</time></trkpt><trkpt lat="45.3909551913641" lon="7.992742363103673"><ele>336.6666666666667</ele><time>2026-03-23T14:48:14.959Z</time></trkpt><trkpt lat="45.39099307230831" lon="7.992869029767878"><ele>337.33333333333337</ele><time>2026-03-23T14:48:15.959Z</time></trkpt><trkpt lat="45.39102449879666" lon="7.992959787222497"><ele>338.0</ele><time>2026-03-23T14:48:16.959Z</time></trkpt><trkpt lat="45.39106348808475" lon="7.993121510289485"><ele>338.0</ele><time>2026-03-23T14:48:18.959Z</time></trkpt><trkpt lat="45.39107008150934" lon="7.993229349759376"><ele>338.0</ele><time>2026-03-23T14:48:19.959Z</time></trkpt><trkpt lat="45.391056469674744" lon="7.993345225359389"><ele>338.0</ele><time>2026-03-23T14:48:20.959Z</time></trkpt><trkpt lat="45.3910594996893" lon="7.993521622768766"><ele>338.0</ele><time>2026-03-23T14:48:22.959Z</time></trkpt><trkpt lat="45.39103515779702" lon="7.993627405902846"><ele>338.0</ele><time>2026-03-23T14:48:23.959Z</time></trkpt><trkpt lat="45.390965629239886" lon="7.993797944602493"><ele>337.6666666666667</ele><time>2026-03-23T14:48:25.959Z</time></trkpt><trkpt lat="45.39091771967087" lon="7.993896968481816"><ele>337.33333333333337</ele><time>2026-03-23T14:48:26.959Z</time></trkpt><trkpt lat="45.39087485658499" lon="7.993983105245581"><ele>337.0</ele><time>2026-03-23T14:48:27.959Z</time></trkpt><trkpt lat="45.390823566199835" lon="7.9940390228306715"><ele>336.6666666666667</ele><time>2026-03-23T14:48:28.959Z</time></trkpt><trkpt lat="45.3907657958106" lon="7.994116177436742"><ele>336.3333333333333</ele><time>2026-03-23T14:48:29.959Z</time></trkpt><trkpt lat="45.39071255681193" lon="7.994201558142672"><ele>336.0</ele><time>2026-03-23T14:48:30.959Z</time></trkpt><trkpt lat="45.39064810943238" lon="7.9943123023050475"><ele>336.3333333333333</ele><time>2026-03-23T14:48:31.959Z</time></trkpt><trkpt lat="45.390579272855206" lon="7.994387755706851"><ele>336.6666666666667</ele><time>2026-03-23T14:48:32.959Z</time></trkpt><trkpt lat="45.39050731177294" lon="7.994467248138908"><ele>337.0</ele><time>2026-03-23T14:48:33.959Z</time></trkpt><trkpt lat="45.39044181146766" lon="7.994564539985457"><ele>337.33333333333337</ele><time>2026-03-23T14:48:34.959Z</time></trkpt><trkpt lat="45.39037982611519" lon="7.994658455457717"><ele>337.6666666666667</ele><time>2026-03-23T14:48:35.959Z</time></trkpt><trkpt lat="45.39032463997932" lon="7.9947307115494315"><ele>338.0</ele><time>2026-03-23T14:48:36.959Z</time></trkpt><trkpt lat="45.39027389678786" lon="7.994794585435138"><ele>338.0</ele><time>2026-03-23T14:48:37.959Z</time></trkpt><trkpt lat="45.390227538535214" lon="7.994860136051878"><ele>338.0</ele><time>2026-03-23T14:48:38.959Z</time></trkpt><trkpt lat="45.390170050976806" lon="7.994936368932782"><ele>338.0</ele><time>2026-03-23T14:48:39.959Z</time></trkpt><trkpt lat="45.39009473319248" lon="7.995058304359684"><ele>338.0</ele><time>2026-03-23T14:48:41.959Z</time></trkpt><trkpt lat="45.39004455182011" lon="7.9951316246252855"><ele>338.0</ele><time>2026-03-23T14:48:42.959Z</time></trkpt><trkpt lat="45.38999997037801" lon="7.995233124435871"><ele>338.0</ele><time>2026-03-23T14:48:43.959Z</time></trkpt><trkpt lat="45.38995417969341" lon="7.995318501705166"><ele>336.5</ele><time>2026-03-23T14:48:44.959Z</time></trkpt><trkpt lat="45.38990705428262" lon="7.995402155889916"><ele>335.0</ele><time>2026-03-23T14:48:45.959Z</time></trkpt><trkpt lat="45.38987454443911" lon="7.995481524079451"><ele>333.5</ele><time>2026-03-23T14:48:46.959Z</time></trkpt><trkpt lat="45.38982854340711" lon="7.9955832750862905"><ele>332.0</ele><time>2026-03-23T14:48:48.959Z</time></trkpt><trkpt lat="45.389817606654454" lon="7.995679330490971"><ele>330.5</ele><time>2026-03-23T14:48:50.959Z</time></trkpt><trkpt lat="45.3898499456547" lon="7.995824720114535"><ele>329.0</ele><time>2026-03-23T14:48:52.959Z</time></trkpt><trkpt lat="45.38990882445648" lon="7.9958686743663"><ele>328.6666666666667</ele><time>2026-03-23T14:48:54.959Z</time></trkpt><trkpt lat="45.39000703717973" lon="7.995940033351259"><ele>328.33333333333337</ele><time>2026-03-23T14:48:56.959Z</time></trkpt><trkpt lat="45.39009676741125" lon="7.996013627248479"><ele>328.0</ele><time>2026-03-23T14:48:58.954Z</time></trkpt><trkpt lat="45.390151175877584" lon="7.996067769788053"><ele>327.6666666666667</ele><time>2026-03-23T14:48:59.954Z</time></trkpt><trkpt lat="45.390201290979455" lon="7.996122587155691"><ele>327.3333333333333</ele><time>2026-03-23T14:49:00.955Z</time></trkpt><trkpt lat="45.390257208271514" lon="7.996174159383793"><ele>327.0</ele><time>2026-03-23T14:49:01.955Z</time></trkpt><trkpt lat="45.39035931047965" lon="7.996240699320954"><ele>327.0</ele><time>2026-03-23T14:49:03.955Z</time></trkpt><trkpt lat="45.39046179034691" lon="7.996338906124193"><ele>327.0</ele><time>2026-03-23T14:49:05.954Z</time></trkpt><trkpt lat="45.390530900967455" lon="7.996370980878171"><ele>327.0</ele><time>2026-03-23T14:49:06.955Z</time></trkpt><trkpt lat="45.390594162724355" lon="7.996398265079724"><ele>327.0</ele><time>2026-03-23T14:49:07.955Z</time></trkpt><trkpt lat="45.39065887090633" lon="7.996439157701736"><ele>327.0</ele><time>2026-03-23T14:49:08.955Z</time></trkpt><trkpt lat="45.390772646485914" lon="7.996517869722545"><ele>324.20000000000005</ele><time>2026-03-23T14:49:10.955Z</time></trkpt><trkpt lat="45.390876237219615" lon="7.9965790944630974"><ele>321.40000000000003</ele><time>2026-03-23T14:49:12.955Z</time></trkpt><trkpt lat="45.39098513376608" lon="7.9965887785695005"><ele>318.6</ele><time>2026-03-23T14:49:14.955Z</time></trkpt><trkpt lat="45.39106664256804" lon="7.996585360944256"><ele>315.8</ele><time>2026-03-23T14:49:15.955Z</time></trkpt><trkpt lat="45.39114115881339" lon="7.99657173258845"><ele>313.0</ele><time>2026-03-23T14:49:16.955Z</time></trkpt><trkpt lat="45.3912232516883" lon="7.9965629636155"><ele>313.0</ele><time>2026-03-23T14:49:17.955Z</time></trkpt><trkpt lat="45.391306542015116" lon="7.996553940512543"><ele>313.0</ele><time>2026-03-23T14:49:18.955Z</time></trkpt><trkpt lat="45.391385758993025" lon="7.996538490102477"><ele>313.0</ele><time>2026-03-23T14:49:19.955Z</time></trkpt><trkpt lat="45.39145667779455" lon="7.996535099359044"><ele>313.0</ele><time>2026-03-23T14:49:20.955Z</time></trkpt><trkpt lat="45.391586936149054" lon="7.996502516747839"><ele>313.0</ele><time>2026-03-23T14:49:22.955Z</time></trkpt><trkpt lat="45.391655546266115" lon="7.996464409111795"><ele>313.0</ele><time>2026-03-23T14:49:23.955Z</time></trkpt><trkpt lat="45.391733047923715" lon="7.996452628693459"><ele>311.8333333333333</ele><time>2026-03-23T14:49:24.955Z</time></trkpt><trkpt lat="45.39179646963701" lon="7.9964437958947014"><ele>310.66666666666663</ele><time>2026-03-23T14:49:25.955Z</time></trkpt><trkpt lat="45.39186100866094" lon="7.996473829917555"><ele>309.5</ele><time>2026-03-23T14:49:27.955Z</time></trkpt><trkpt lat="45.39193735970738" lon="7.9965931357243045"><ele>308.3333333333333</ele><time>2026-03-23T14:49:29.955Z</time></trkpt><trkpt lat="45.39203044366784" lon="7.9967204624399555"><ele>307.1666666666667</ele><time>2026-03-23T14:49:31.955Z</time></trkpt><trkpt lat="45.3920599159662" lon="7.996799844875236"><ele>306.0</ele><time>2026-03-23T14:49:32.955Z</time></trkpt><trkpt lat="45.3920760590745" lon="7.9969561719242"><ele>305.75</ele><time>2026-03-23T14:49:34.955Z</time></trkpt><trkpt lat="45.39209654748087" lon="7.9970734494007445"><ele>305.5</ele><time>2026-03-23T14:49:36.955Z</time></trkpt><trkpt lat="45.392307117847544" lon="7.997121014768891"><ele>305.25</ele><time>2026-03-23T14:49:44.955Z</time></trkpt><trkpt lat="45.392441911357" lon="7.997155332989013"><ele>305.0</ele><time>2026-03-23T14:49:46.955Z</time></trkpt><trkpt lat="45.3925124892786" lon="7.997213920912051"><ele>304.5</ele><time>2026-03-23T14:49:47.955Z</time></trkpt><trkpt lat="45.3925898925809" lon="7.997285923138988"><ele>304.0</ele><time>2026-03-23T14:49:48.955Z</time></trkpt><trkpt lat="45.39266995224808" lon="7.997356190354706"><ele>303.5</ele><time>2026-03-23T14:49:49.955Z</time></trkpt><trkpt lat="45.39274353522073" lon="7.99741988856209"><ele>303.0</ele><time>2026-03-23T14:49:50.955Z</time></trkpt><trkpt lat="45.39281499323678" lon="7.997463934952135"><ele>302.5</ele><time>2026-03-23T14:49:51.955Z</time></trkpt><trkpt lat="45.392874437992646" lon="7.997502460218929"><ele>302.0</ele><time>2026-03-23T14:49:52.955Z</time></trkpt><trkpt lat="45.39293953237922" lon="7.997530850160469"><ele>301.6</ele><time>2026-03-23T14:49:53.955Z</time></trkpt><trkpt lat="45.392981791388394" lon="7.997600148575064"><ele>301.2</ele><time>2026-03-23T14:49:55.955Z</time></trkpt><trkpt lat="45.39310444300866" lon="7.997713254549493"><ele>300.8</ele><time>2026-03-23T14:49:57.955Z</time></trkpt><trkpt lat="45.39317047877152" lon="7.997776629706574"><ele>300.4</ele><time>2026-03-23T14:49:58.955Z</time></trkpt><trkpt lat="45.393243972068525" lon="7.997823005533388"><ele>300.0</ele><time>2026-03-23T14:49:59.955Z</time></trkpt><trkpt lat="45.39332276669866" lon="7.997878842450619"><ele>300.0</ele><time>2026-03-23T14:50:00.955Z</time></trkpt><trkpt lat="45.39338976533175" lon="7.9979318278317475"><ele>300.0</ele><time>2026-03-23T14:50:01.955Z</time></trkpt><trkpt lat="45.39345234804745" lon="7.997998486273517"><ele>300.0</ele><time>2026-03-23T14:50:02.955Z</time></trkpt><trkpt lat="45.39351925190173" lon="7.9980389015881554"><ele>300.0</ele><time>2026-03-23T14:50:03.955Z</time></trkpt><trkpt lat="45.39359023262817" lon="7.998063224658286"><ele>300.0</ele><time>2026-03-23T14:50:04.955Z</time></trkpt><trkpt lat="45.393670210610985" lon="7.998099863423619"><ele>300.0</ele><time>2026-03-23T14:50:05.955Z</time></trkpt><trkpt lat="45.39376654681164" lon="7.998131932448267"><ele>297.6666666666667</ele><time>2026-03-23T14:50:06.955Z</time></trkpt><trkpt lat="45.3938503288198" lon="7.99819979747943"><ele>295.3333333333333</ele><time>2026-03-23T14:50:07.955Z</time></trkpt><trkpt lat="45.393916571060764" lon="7.998307206833006"><ele>293.0</ele><time>2026-03-23T14:50:08.955Z</time></trkpt><trkpt lat="45.393985751965104" lon="7.998377764032222"><ele>290.66666666666663</ele><time>2026-03-23T14:50:09.955Z</time></trkpt><trkpt lat="45.39403686617246" lon="7.998449116231107"><ele>288.3333333333333</ele><time>2026-03-23T14:50:10.955Z</time></trkpt><trkpt lat="45.394074559882704" lon="7.998533667931619"><ele>286.0</ele><time>2026-03-23T14:50:11.955Z</time></trkpt><trkpt lat="45.39412387288143" lon="7.99861032430884"><ele>286.0</ele><time>2026-03-23T14:50:12.955Z</time></trkpt><trkpt lat="45.39419940504835" lon="7.998699826950951"><ele>286.0</ele><time>2026-03-23T14:50:13.955Z</time></trkpt><trkpt lat="45.394272137139914" lon="7.99875364821561"><ele>286.0</ele><time>2026-03-23T14:50:14.955Z</time></trkpt><trkpt lat="45.3943405742913" lon="7.998800466983897"><ele>286.0</ele><time>2026-03-23T14:50:15.955Z</time></trkpt><trkpt lat="45.3944046449981" lon="7.998855734281271"><ele>286.0</ele><time>2026-03-23T14:50:16.955Z</time></trkpt><trkpt lat="45.3944818129169" lon="7.998911049403582"><ele>286.0</ele><time>2026-03-23T14:50:17.955Z</time></trkpt><trkpt lat="45.394570083678424" lon="7.998976086754136"><ele>286.0</ele><time>2026-03-23T14:50:18.955Z</time></trkpt><trkpt lat="45.39464920906191" lon="7.999024678963113"><ele>286.0</ele><time>2026-03-23T14:50:19.955Z</time></trkpt><trkpt lat="45.39471004321079" lon="7.999057551522342"><ele>286.0</ele><time>2026-03-23T14:50:20.955Z</time></trkpt><trkpt lat="45.39478014998929" lon="7.999084661767235"><ele>286.0</ele><time>2026-03-23T14:50:21.955Z</time></trkpt><trkpt lat="45.394859505808256" lon="7.999070806275766"><ele>286.0</ele><time>2026-03-23T14:50:22.955Z</time></trkpt><trkpt lat="45.394988116499825" lon="7.999036531612588"><ele>286.0</ele><time>2026-03-23T14:50:24.955Z</time></trkpt><trkpt lat="45.39505053779987" lon="7.9990184459366365"><ele>282.0</ele><time>2026-03-23T14:50:25.955Z</time></trkpt><trkpt lat="45.3951946094058" lon="7.999007757788777"><ele>278.0</ele><time>2026-03-23T14:50:27.955Z</time></trkpt><trkpt lat="45.39530566207361" lon="7.999009756661292"><ele>274.0</ele><time>2026-03-23T14:50:29.955Z</time></trkpt><trkpt lat="45.39538339202032" lon="7.9990014264489435"><ele>270.0</ele><time>2026-03-23T14:50:30.955Z</time></trkpt><trkpt lat="45.3954610702454" lon="7.9989922246420395"><ele>266.0</ele><time>2026-03-23T14:50:31.955Z</time></trkpt><trkpt lat="45.39554707870415" lon="7.998980198537139"><ele>265.6666666666667</ele><time>2026-03-23T14:50:32.955Z</time></trkpt><trkpt lat="45.39562279679274" lon="7.998976637858343"><ele>265.33333333333337</ele><time>2026-03-23T14:50:33.955Z</time></trkpt><trkpt lat="45.395694950718" lon="7.998961702271745"><ele>265.0</ele><time>2026-03-23T14:50:35.955Z</time></trkpt><trkpt lat="45.395782547663856" lon="7.998969841023227"><ele>264.6666666666667</ele><time>2026-03-23T14:50:38.955Z</time></trkpt><trkpt lat="45.395854556864684" lon="7.999047998744414"><ele>264.3333333333333</ele><time>2026-03-23T14:50:40.955Z</time></trkpt><trkpt lat="45.39592111594658" lon="7.999159917845384"><ele>264.0</ele><time>2026-03-23T14:50:42.955Z</time></trkpt><trkpt lat="45.395990231511156" lon="7.99928144274558"><ele>264.0</ele><time>2026-03-23T14:50:44.955Z</time></trkpt><trkpt lat="45.39598636647691" lon="7.9994064751863405"><ele>264.0</ele><time>2026-03-23T14:50:46.956Z</time></trkpt><trkpt lat="45.39596332185742" lon="7.999551197368961"><ele>264.0</ele><time>2026-03-23T14:50:48.956Z</time></trkpt><trkpt lat="45.39595849802184" lon="7.9996554142095775"><ele>264.0</ele><time>2026-03-23T14:50:49.956Z</time></trkpt><trkpt lat="45.395964566526374" lon="7.999752020368392"><ele>264.0</ele><time>2026-03-23T14:50:50.956Z</time></trkpt><trkpt lat="45.396002567172836" lon="7.999882155569016"><ele>264.0</ele><time>2026-03-23T14:50:51.956Z</time></trkpt><trkpt lat="45.396075881802496" lon="7.99995893063545"><ele>264.0</ele><time>2026-03-23T14:50:52.956Z</time></trkpt><trkpt lat="45.39611922081418" lon="8.000057372469078"><ele>264.0</ele><time>2026-03-23T14:50:53.956Z</time></trkpt><trkpt lat="45.39615353344472" lon="8.000176002392777"><ele>264.0</ele><time>2026-03-23T14:50:54.956Z</time></trkpt><trkpt lat="45.39620463038235" lon="8.000282833690228"><ele>264.0</ele><time>2026-03-23T14:50:55.956Z</time></trkpt><trkpt lat="45.39617364540695" lon="8.000390383544087"><ele>264.0</ele><time>2026-03-23T14:50:56.956Z</time></trkpt><trkpt lat="45.39613792430894" lon="8.000493570743533"><ele>264.0</ele><time>2026-03-23T14:50:57.956Z</time></trkpt><trkpt lat="45.39608836704968" lon="8.000566463003873"><ele>264.0</ele><time>2026-03-23T14:50:58.956Z</time></trkpt><trkpt lat="45.39602591352176" lon="8.000608054309316"><ele>264.0</ele><time>2026-03-23T14:50:59.956Z</time></trkpt><trkpt lat="45.39592096650785" lon="8.000727264387649"><ele>264.0</ele><time>2026-03-23T14:51:01.956Z</time></trkpt><trkpt lat="45.39586513515565" lon="8.000812658515326"><ele>264.0</ele><time>2026-03-23T14:51:02.956Z</time></trkpt><trkpt lat="45.395779030370825" lon="8.000846926163677"><ele>264.0</ele><time>2026-03-23T14:51:04.951Z</time></trkpt><trkpt lat="45.39566762252647" lon="8.000785486410214"><ele>264.0</ele><time>2026-03-23T14:51:06.951Z</time></trkpt><trkpt lat="45.395602092800885" lon="8.000753849306253"><ele>264.0</ele><time>2026-03-23T14:51:07.951Z</time></trkpt><trkpt lat="45.395526243836606" lon="8.000717390800245"><ele>264.0</ele><time>2026-03-23T14:51:08.951Z</time></trkpt><trkpt lat="45.39542105300547" lon="8.00067996974458"><ele>264.0</ele><time>2026-03-23T14:51:09.951Z</time></trkpt><trkpt lat="45.39532512660885" lon="8.000665780732112"><ele>264.0</ele><time>2026-03-23T14:51:10.951Z</time></trkpt><trkpt lat="45.39524860730658" lon="8.000672015343133"><ele>264.0</ele><time>2026-03-23T14:51:11.951Z</time></trkpt><trkpt lat="45.39517578565863" lon="8.000676841418358"><ele>265.8333333333333</ele><time>2026-03-23T14:51:12.951Z</time></trkpt><trkpt lat="45.39505568129956" lon="8.000722905064842"><ele>267.6666666666667</ele><time>2026-03-23T14:51:14.95Z</time></trkpt><trkpt lat="45.39500476671267" lon="8.00078479983968"><ele>269.5</ele><time>2026-03-23T14:51:15.95Z</time></trkpt><trkpt lat="45.39494671225309" lon="8.00085130929846"><ele>271.33333333333337</ele><time>2026-03-23T14:51:16.95Z</time></trkpt><trkpt lat="45.39488732392331" lon="8.000901624308224"><ele>273.1666666666667</ele><time>2026-03-23T14:51:17.95Z</time></trkpt><trkpt lat="45.39479236258515" lon="8.00096726367738"><ele>275.0</ele><time>2026-03-23T14:51:19.95Z</time></trkpt><trkpt lat="45.39473080765175" lon="8.000998854635478"><ele>280.6666666666667</ele><time>2026-03-23T14:51:28.95Z</time></trkpt><trkpt lat="45.394668170874425" lon="8.00103158812563"><ele>286.33333333333337</ele><time>2026-03-23T14:51:30.95Z</time></trkpt><trkpt lat="45.39457633914585" lon="8.001096758878226"><ele>292.0</ele><time>2026-03-23T14:51:32.95Z</time></trkpt><trkpt lat="45.39447875571568" lon="8.001145141302766"><ele>297.6666666666667</ele><time>2026-03-23T14:51:34.95Z</time></trkpt><trkpt lat="45.39438300901068" lon="8.001175569572712"><ele>303.3333333333333</ele><time>2026-03-23T14:51:36.95Z</time></trkpt><trkpt lat="45.39431061170181" lon="8.00120083354837"><ele>309.0</ele><time>2026-03-23T14:51:38.95Z</time></trkpt><trkpt lat="45.394238834557726" lon="8.001261478369184"><ele>309.0</ele><time>2026-03-23T14:51:40.95Z</time></trkpt><trkpt lat="45.39415511726571" lon="8.001341011496114"><ele>309.0</ele><time>2026-03-23T14:51:42.95Z</time></trkpt><trkpt lat="45.39407982991257" lon="8.001401675917247"><ele>309.0</ele><time>2026-03-23T14:51:44.95Z</time></trkpt><trkpt lat="45.394017194113665" lon="8.001482486791074"><ele>309.0</ele><time>2026-03-23T14:51:47.95Z</time></trkpt><trkpt lat="45.39395221152804" lon="8.001540901011523"><ele>309.0</ele><time>2026-03-23T14:51:52.95Z</time></trkpt><trkpt lat="45.39390486616967" lon="8.001641226973183"><ele>309.0</ele><time>2026-03-23T14:52:04.951Z</time></trkpt><trkpt lat="45.393845769931346" lon="8.001701935562668"><ele>310.3333333333333</ele><time>2026-03-23T14:52:19.951Z</time></trkpt><trkpt lat="45.39377676644596" lon="8.001702583786056"><ele>311.6666666666667</ele><time>2026-03-23T14:52:23.951Z</time></trkpt><trkpt lat="45.39370579537064" lon="8.00179029056914"><ele>313.0</ele><time>2026-03-23T14:52:25.951Z</time></trkpt><trkpt lat="45.39362465464279" lon="8.001859651417304"><ele>314.33333333333337</ele><time>2026-03-23T14:52:27.951Z</time></trkpt><trkpt lat="45.39356691264066" lon="8.001905744386093"><ele>315.6666666666667</ele><time>2026-03-23T14:52:29.951Z</time></trkpt><trkpt lat="45.393462560698595" lon="8.001971611153326"><ele>317.0</ele><time>2026-03-23T14:52:31.951Z</time></trkpt><trkpt lat="45.3933861404501" lon="8.002040461602835"><ele>317.0</ele><time>2026-03-23T14:52:33.951Z</time></trkpt><trkpt lat="45.39329818822594" lon="8.002074928924907"><ele>317.0</ele><time>2026-03-23T14:52:37.951Z</time></trkpt><trkpt lat="45.39328135112532" lon="8.002195041698336"><ele>317.0</ele><time>2026-03-23T14:52:40.951Z</time></trkpt><trkpt lat="45.39325456889288" lon="8.002336255288741"><ele>317.0</ele><time>2026-03-23T14:52:42.951Z</time></trkpt><trkpt lat="45.3932244933408" lon="8.002463494886282"><ele>317.0</ele><time>2026-03-23T14:52:45.951Z</time></trkpt><trkpt lat="45.393178253401615" lon="8.002541140876279"><ele>317.0</ele><time>2026-03-23T14:52:47.951Z</time></trkpt><trkpt lat="45.393116698693404" lon="8.002657752185671"><ele>317.0</ele><time>2026-03-23T14:52:49.951Z</time></trkpt><trkpt lat="45.39303309697661" lon="8.002720524758194"><ele>317.0</ele><time>2026-03-23T14:52:52.951Z</time></trkpt><trkpt lat="45.392960666919834" lon="8.00272263587891"><ele>317.0</ele><time>2026-03-23T14:52:54.951Z</time></trkpt><trkpt lat="45.39288786192295" lon="8.00274490915314"><ele>317.0</ele><time>2026-03-23T14:52:57.951Z</time></trkpt><trkpt lat="45.392826932334536" lon="8.00276937329254"><ele>317.0</ele><time>2026-03-23T14:53:04.951Z</time></trkpt><trkpt lat="45.39288961039566" lon="8.002752603877479"><ele>317.0</ele><time>2026-03-23T14:53:10.947Z</time></trkpt><trkpt lat="45.39297249767072" lon="8.002779723494447"><ele>317.0</ele><time>2026-03-23T14:53:13.947Z</time></trkpt><trkpt lat="45.39302436025931" lon="8.002724454301474"><ele>317.0</ele><time>2026-03-23T14:53:16.948Z</time></trkpt><trkpt lat="45.39308465554267" lon="8.002633074943452"><ele>317.0</ele><time>2026-03-23T14:53:19.948Z</time></trkpt><trkpt lat="45.39314880836734" lon="8.002514115616261"><ele>317.0</ele><time>2026-03-23T14:53:22.947Z</time></trkpt><trkpt lat="45.39312268656601" lon="8.002407143086748"><ele>317.0</ele><time>2026-03-23T14:53:24.947Z</time></trkpt><trkpt lat="45.393115124985684" lon="8.002261319669314"><ele>317.0</ele><time>2026-03-23T14:53:26.947Z</time></trkpt><trkpt lat="45.393157189501736" lon="8.00218058565165"><ele>317.0</ele><time>2026-03-23T14:53:28.947Z</time></trkpt><trkpt lat="45.39323337384878" lon="8.002156935650596"><ele>317.0</ele><time>2026-03-23T14:53:31.947Z</time></trkpt><trkpt lat="45.3933109693521" lon="8.00205788594144"><ele>317.0</ele><time>2026-03-23T14:53:35.947Z</time></trkpt><trkpt lat="45.39340079386321" lon="8.00197611413163"><ele>317.0</ele><time>2026-03-23T14:53:37.947Z</time></trkpt><trkpt lat="45.39348650891314" lon="8.001902285009615"><ele>317.0</ele><time>2026-03-23T14:53:39.947Z</time></trkpt><trkpt lat="45.393541588972646" lon="8.001852694026018"><ele>317.0</ele><time>2026-03-23T14:53:41.947Z</time></trkpt><trkpt lat="45.39359499000467" lon="8.001802466973913"><ele>317.0</ele><time>2026-03-23T14:53:42.947Z</time></trkpt><trkpt lat="45.39367919893202" lon="8.001748957957313"><ele>317.0</ele><time>2026-03-23T14:53:44.947Z</time></trkpt><trkpt lat="45.393734303952286" lon="8.001697117028112"><ele>317.0</ele><time>2026-03-23T14:53:46.947Z</time></trkpt><trkpt lat="45.3938037091505" lon="8.001625022332137"><ele>317.0</ele><time>2026-03-23T14:53:49.947Z</time></trkpt><trkpt lat="45.39387330566999" lon="8.001558936394906"><ele>317.0</ele><time>2026-03-23T14:53:52.947Z</time></trkpt><trkpt lat="45.3939190450634" lon="8.001490658557023"><ele>315.6666666666667</ele><time>2026-03-23T14:53:54.947Z</time></trkpt><trkpt lat="45.393970311497924" lon="8.001419747714886"><ele>314.33333333333337</ele><time>2026-03-23T14:53:57.947Z</time></trkpt><trkpt lat="45.394036899981536" lon="8.001344736828853"><ele>313.0</ele><time>2026-03-23T14:54:00.947Z</time></trkpt><trkpt lat="45.39411331319421" lon="8.001327196708278"><ele>311.6666666666667</ele><time>2026-03-23T14:54:03.947Z</time></trkpt><trkpt lat="45.39418516673778" lon="8.001264838788563"><ele>310.3333333333333</ele><time>2026-03-23T14:54:07.947Z</time></trkpt><trkpt lat="45.39424397287876" lon="8.001228846781931"><ele>309.0</ele><time>2026-03-23T14:54:09.947Z</time></trkpt><trkpt lat="45.3943039163443" lon="8.001183588365462"><ele>309.0</ele><time>2026-03-23T14:54:11.947Z</time></trkpt><trkpt lat="45.39438137997576" lon="8.001123561330955"><ele>309.0</ele><time>2026-03-23T14:54:14.947Z</time></trkpt><trkpt lat="45.3944444468014" lon="8.001075546433233"><ele>309.0</ele><time>2026-03-23T14:54:16.947Z</time></trkpt><trkpt lat="45.39451366849032" lon="8.001067517429174"><ele>309.0</ele><time>2026-03-23T14:54:18.947Z</time></trkpt><trkpt lat="45.39459966526114" lon="8.00115217827817"><ele>309.0</ele><time>2026-03-23T14:54:20.947Z</time></trkpt><trkpt lat="45.394702126537425" lon="8.001277626912913"><ele>306.3333333333333</ele><time>2026-03-23T14:54:22.947Z</time></trkpt><trkpt lat="45.39476972061145" lon="8.00132618851255"><ele>303.6666666666667</ele><time>2026-03-23T14:54:23.947Z</time></trkpt><trkpt lat="45.39482721021942" lon="8.001366546432962"><ele>301.0</ele><time>2026-03-23T14:54:24.947Z</time></trkpt><trkpt lat="45.39488821146377" lon="8.001436269803238"><ele>298.33333333333337</ele><time>2026-03-23T14:54:25.947Z</time></trkpt><trkpt lat="45.394939708000656" lon="8.001510944455859"><ele>295.6666666666667</ele><time>2026-03-23T14:54:26.947Z</time></trkpt><trkpt lat="45.395003090101476" lon="8.001601911202872"><ele>293.0</ele><time>2026-03-23T14:54:27.947Z</time></trkpt><trkpt lat="45.39505517811173" lon="8.001692803399964"><ele>293.0</ele><time>2026-03-23T14:54:28.947Z</time></trkpt><trkpt lat="45.3951042017855" lon="8.001764902167151"><ele>293.0</ele><time>2026-03-23T14:54:29.947Z</time></trkpt><trkpt lat="45.395173217371216" lon="8.001866073096588"><ele>293.0</ele><time>2026-03-23T14:54:31.948Z</time></trkpt><trkpt lat="45.39524132431447" lon="8.001966401142054"><ele>293.0</ele><time>2026-03-23T14:54:33.948Z</time></trkpt><trkpt lat="45.39528441419247" lon="8.002111590018883"><ele>293.0</ele><time>2026-03-23T14:54:35.948Z</time></trkpt><trkpt lat="45.395295251595755" lon="8.002269570482753"><ele>293.0</ele><time>2026-03-23T14:54:37.948Z</time></trkpt><trkpt lat="45.395294125042355" lon="8.002404660567088"><ele>293.0</ele><time>2026-03-23T14:54:39.948Z</time></trkpt><trkpt lat="45.39531267998622" lon="8.00255146531242"><ele>293.0</ele><time>2026-03-23T14:54:41.948Z</time></trkpt><trkpt lat="45.3953225447589" lon="8.002649961472953"><ele>293.0</ele><time>2026-03-23T14:54:43.948Z</time></trkpt><trkpt lat="45.395356046082235" lon="8.002732042524197"><ele>293.0</ele><time>2026-03-23T14:54:47.948Z</time></trkpt><trkpt lat="45.39541468309762" lon="8.002853512628814"><ele>293.0</ele><time>2026-03-23T15:01:08.94Z</time></trkpt><trkpt lat="45.39539503462049" lon="8.002995335390901"><ele>294.6666666666667</ele><time>2026-03-23T15:01:10.94Z</time></trkpt><trkpt lat="45.395318034065305" lon="8.003020954366578"><ele>296.33333333333337</ele><time>2026-03-23T15:01:15.94Z</time></trkpt><trkpt lat="45.395245445676046" lon="8.00305272950548"><ele>298.0</ele><time>2026-03-23T15:01:22.94Z</time></trkpt><trkpt lat="45.39518031328468" lon="8.00311183599407"><ele>299.6666666666667</ele><time>2026-03-23T15:01:33.937Z</time></trkpt><trkpt lat="45.395160636002956" lon="8.003198038734173"><ele>301.3333333333333</ele><time>2026-03-23T15:02:11.937Z</time></trkpt><trkpt lat="45.395119044444236" lon="8.003274970551454"><ele>303.0</ele><time>2026-03-23T15:02:25.937Z</time></trkpt><trkpt lat="45.39506593348846" lon="8.00337701286346"><ele>303.8571428571429</ele><time>2026-03-23T15:02:32.937Z</time></trkpt><trkpt lat="45.39501880298304" lon="8.003443044044234"><ele>304.7142857142857</ele><time>2026-03-23T15:02:48.937Z</time></trkpt><trkpt lat="45.39495626028125" lon="8.003476732295113"><ele>305.57142857142856</ele><time>2026-03-23T15:02:52.937Z</time></trkpt><trkpt lat="45.39487792062619" lon="8.003492497359582"><ele>306.42857142857144</ele><time>2026-03-23T15:02:57.938Z</time></trkpt><trkpt lat="45.394825661083416" lon="8.003547576598953"><ele>307.2857142857143</ele><time>2026-03-23T15:03:04.938Z</time></trkpt><trkpt lat="45.394751261334505" lon="8.003534878727958"><ele>308.14285714285717</ele><time>2026-03-23T15:03:13.938Z</time></trkpt><trkpt lat="45.39467730600273" lon="8.00351064699379"><ele>309.0</ele><time>2026-03-23T15:03:23.938Z</time></trkpt><trkpt lat="45.39459745356075" lon="8.00350600507876"><ele>309.28571428571433</ele><time>2026-03-23T15:03:26.938Z</time></trkpt><trkpt lat="45.394532888213945" lon="8.003527042240265"><ele>309.57142857142856</ele><time>2026-03-23T15:03:29.938Z</time></trkpt><trkpt lat="45.394462709414526" lon="8.003540034683242"><ele>309.8571428571429</ele><time>2026-03-23T15:03:36.938Z</time></trkpt><trkpt lat="45.394379023553185" lon="8.00358849737494"><ele>310.14285714285717</ele><time>2026-03-23T15:03:40.934Z</time></trkpt><trkpt lat="45.394319057890506" lon="8.003656524350877"><ele>310.42857142857144</ele><time>2026-03-23T15:03:44.933Z</time></trkpt><trkpt lat="45.39425150702649" lon="8.00368385554892"><ele>310.7142857142857</ele><time>2026-03-23T15:04:58.944Z</time></trkpt><trkpt lat="45.3941792496136" lon="8.003682595225932"><ele>311.0</ele><time>2026-03-23T15:05:33.952Z</time></trkpt><trkpt lat="45.39410945435715" lon="8.003633971944407"><ele>311.0</ele><time>2026-03-23T15:05:52.95Z</time></trkpt><trkpt lat="45.39412185116711" lon="8.003531802582547"><ele>311.0</ele><time>2026-03-23T15:06:08.949Z</time></trkpt><trkpt lat="45.39408899044864" lon="8.003440756455085"><ele>311.0</ele><time>2026-03-23T15:06:13.949Z</time></trkpt><trkpt lat="45.3940763513326" lon="8.003545693865107"><ele>311.0</ele><time>2026-03-23T15:06:39.949Z</time></trkpt><trkpt lat="45.394122635046756" lon="8.003618001554111"><ele>311.0</ele><time>2026-03-23T15:06:49.95Z</time></trkpt><trkpt lat="45.394195909048186" lon="8.00365063951148"><ele>311.0</ele><time>2026-03-23T15:06:55.95Z</time></trkpt><trkpt lat="45.394250607214566" lon="8.003582243474725"><ele>311.0</ele><time>2026-03-23T15:07:24.95Z</time></trkpt><trkpt lat="45.39428385816202" lon="8.003662707806864"><ele>311.0</ele><time>2026-03-23T15:15:42.942Z</time></trkpt><trkpt lat="45.39433193875539" lon="8.00359623039239"><ele>311.0</ele><time>2026-03-23T15:17:47.94Z</time></trkpt><trkpt lat="45.39438613810856" lon="8.003531674784359"><ele>311.0</ele><time>2026-03-23T15:23:57.938Z</time></trkpt><trkpt lat="45.39443124573411" lon="8.00360794037448"><ele>311.0</ele><time>2026-03-23T15:24:39.954Z</time></trkpt><trkpt lat="45.39438999253146" lon="8.0036932616029"><ele>311.0</ele><time>2026-03-23T15:24:51.957Z</time></trkpt><trkpt lat="45.394423760288404" lon="8.003776352960834"><ele>311.0</ele><time>2026-03-23T15:25:36.959Z</time></trkpt><trkpt lat="45.39449187928735" lon="8.003740000298318"><ele>311.0</ele><time>2026-03-23T15:26:01.96Z</time></trkpt><trkpt lat="45.39452751180321" lon="8.003831307333293"><ele>311.0</ele><time>2026-03-23T15:26:05.96Z</time></trkpt><trkpt lat="45.39453441383013" lon="8.003921089859444"><ele>311.0</ele><time>2026-03-23T15:26:08.96Z</time></trkpt><trkpt lat="45.3945959606824" lon="8.003949386826546"><ele>311.0</ele><time>2026-03-23T15:26:16.96Z</time></trkpt><trkpt lat="45.39465993231316" lon="8.003880123776009"><ele>311.0</ele><time>2026-03-23T15:26:22.96Z</time></trkpt><trkpt lat="45.39459343892696" lon="8.0038376038163"><ele>311.0</ele><time>2026-03-23T15:26:32.96Z</time></trkpt><trkpt lat="45.39454048556697" lon="8.003788112102296"><ele>311.0</ele><time>2026-03-23T15:26:36.96Z</time></trkpt><trkpt lat="45.39446479465341" lon="8.00379083895148"><ele>311.0</ele><time>2026-03-23T15:26:41.96Z</time></trkpt><trkpt lat="45.39444217274833" lon="8.003891096842233"><ele>311.0</ele><time>2026-03-23T15:26:53.958Z</time></trkpt><trkpt lat="45.39438986276139" lon="8.003956869021595"><ele>311.0</ele><time>2026-03-23T15:26:58.958Z</time></trkpt><trkpt lat="45.394346224256566" lon="8.004023420672047"><ele>311.0</ele><time>2026-03-23T15:27:03.958Z</time></trkpt><trkpt lat="45.39428640727119" lon="8.004068491835948"><ele>311.0</ele><time>2026-03-23T15:27:14.958Z</time></trkpt><trkpt lat="45.39422351436546" lon="8.004093666522163"><ele>311.0</ele><time>2026-03-23T15:27:16.958Z</time></trkpt><trkpt lat="45.3942607080533" lon="8.004221527296133"><ele>311.0</ele><time>2026-03-23T15:27:22.958Z</time></trkpt><trkpt lat="45.394306885960106" lon="8.004307822659376"><ele>311.0</ele><time>2026-03-23T15:27:24.958Z</time></trkpt><trkpt lat="45.394335225841004" lon="8.00442842376984"><ele>311.0</ele><time>2026-03-23T15:27:26.958Z</time></trkpt><trkpt lat="45.39436074481685" lon="8.004536823356052"><ele>311.0</ele><time>2026-03-23T15:27:28.959Z</time></trkpt><trkpt lat="45.39442011028147" lon="8.004595344845107"><ele>311.0</ele><time>2026-03-23T15:27:32.959Z</time></trkpt><trkpt lat="45.394487146419365" lon="8.004537003593873"><ele>311.0</ele><time>2026-03-23T15:27:34.959Z</time></trkpt><trkpt lat="45.39452971138526" lon="8.004464775735226"><ele>311.0</ele><time>2026-03-23T15:27:35.959Z</time></trkpt><trkpt lat="45.3946201255921" lon="8.004346772024432"><ele>311.0</ele><time>2026-03-23T15:27:37.959Z</time></trkpt><trkpt lat="45.394722087350836" lon="8.004252889883247"><ele>310.7142857142857</ele><time>2026-03-23T15:27:39.959Z</time></trkpt><trkpt lat="45.39477980114145" lon="8.00420188259001"><ele>310.42857142857144</ele><time>2026-03-23T15:27:40.959Z</time></trkpt><trkpt lat="45.3948349401297" lon="8.004148153425392"><ele>310.14285714285717</ele><time>2026-03-23T15:27:41.959Z</time></trkpt><trkpt lat="45.394893306711296" lon="8.004108473676014"><ele>309.8571428571429</ele><time>2026-03-23T15:27:42.959Z</time></trkpt><trkpt lat="45.39494486991239" lon="8.004050549756212"><ele>309.57142857142856</ele><time>2026-03-23T15:27:43.959Z</time></trkpt><trkpt lat="45.395012639684985" lon="8.003926633516793"><ele>309.28571428571433</ele><time>2026-03-23T15:27:45.959Z</time></trkpt><trkpt lat="45.395067477746714" lon="8.003866670683935"><ele>309.0</ele><time>2026-03-23T15:27:46.959Z</time></trkpt><trkpt lat="45.395116077306085" lon="8.00379199571151"><ele>309.0</ele><time>2026-03-23T15:27:47.959Z</time></trkpt><trkpt lat="45.39521509476691" lon="8.003681940168406"><ele>309.0</ele><time>2026-03-23T15:27:49.959Z</time></trkpt><trkpt lat="45.39528769517428" lon="8.003649069581579"><ele>309.0</ele><time>2026-03-23T15:27:50.959Z</time></trkpt><trkpt lat="45.395394772500566" lon="8.003634859977295"><ele>309.0</ele><time>2026-03-23T15:27:52.959Z</time></trkpt><trkpt lat="45.395460875759824" lon="8.003622544176288"><ele>309.0</ele><time>2026-03-23T15:27:53.959Z</time></trkpt><trkpt lat="45.39556992767137" lon="8.00363391461569"><ele>307.2</ele><time>2026-03-23T15:27:55.959Z</time></trkpt><trkpt lat="45.39569106737591" lon="8.003666170170348"><ele>305.4</ele><time>2026-03-23T15:27:57.959Z</time></trkpt><trkpt lat="45.39575982383603" lon="8.003668464615508"><ele>303.6</ele><time>2026-03-23T15:27:58.959Z</time></trkpt><trkpt lat="45.3958303243826" lon="8.003667906427232"><ele>301.8</ele><time>2026-03-23T15:27:59.959Z</time></trkpt><trkpt lat="45.39594933339041" lon="8.003638060809536"><ele>300.0</ele><time>2026-03-23T15:28:01.959Z</time></trkpt><trkpt lat="45.39603095374096" lon="8.003617710620853"><ele>300.0</ele><time>2026-03-23T15:28:02.959Z</time></trkpt><trkpt lat="45.39611085094175" lon="8.00363594159873"><ele>300.0</ele><time>2026-03-23T15:28:03.959Z</time></trkpt><trkpt lat="45.39619671976533" lon="8.003654846442574"><ele>300.0</ele><time>2026-03-23T15:28:04.959Z</time></trkpt><trkpt lat="45.396263155702336" lon="8.003673406430615"><ele>300.0</ele><time>2026-03-23T15:28:05.959Z</time></trkpt><trkpt lat="45.39634869303383" lon="8.003694362507558"><ele>300.0</ele><time>2026-03-23T15:28:06.959Z</time></trkpt><trkpt lat="45.396442932521445" lon="8.003717652262784"><ele>300.0</ele><time>2026-03-23T15:28:07.959Z</time></trkpt><trkpt lat="45.3965287719792" lon="8.003724838238911"><ele>298.1666666666667</ele><time>2026-03-23T15:28:08.959Z</time></trkpt><trkpt lat="45.39662498166049" lon="8.003729803416507"><ele>296.3333333333333</ele><time>2026-03-23T15:28:09.959Z</time></trkpt><trkpt lat="45.39669042086974" lon="8.003741891319967"><ele>294.5</ele><time>2026-03-23T15:28:10.959Z</time></trkpt><trkpt lat="45.396820742223774" lon="8.003745948304687"><ele>292.66666666666663</ele><time>2026-03-23T15:28:12.959Z</time></trkpt><trkpt lat="45.396884530736976" lon="8.003737086278393"><ele>290.8333333333333</ele><time>2026-03-23T15:28:13.959Z</time></trkpt><trkpt lat="45.396949784378805" lon="8.003696091100524"><ele>289.0</ele><time>2026-03-23T15:28:16.959Z</time></trkpt><trkpt lat="45.396896977640026" lon="8.003751177957394"><ele>289.0</ele><time>2026-03-23T15:28:22.959Z</time></trkpt><trkpt lat="45.396825425635605" lon="8.003749041235306"><ele>289.0</ele><time>2026-03-23T15:28:24.96Z</time></trkpt><trkpt lat="45.396728561309914" lon="8.003757608738386"><ele>289.0</ele><time>2026-03-23T15:28:26.96Z</time></trkpt><trkpt lat="45.39666540215885" lon="8.003707666343441"><ele>289.0</ele><time>2026-03-23T15:28:28.96Z</time></trkpt><trkpt lat="45.39669337527374" lon="8.003624892333308"><ele>289.0</ele><time>2026-03-23T15:28:31.96Z</time></trkpt><trkpt lat="45.39673213205891" lon="8.00354804442936"><ele>289.0</ele><time>2026-03-23T15:28:34.96Z</time></trkpt><trkpt lat="45.39676805353756" lon="8.003433847346313"><ele>287.16666666666663</ele><time>2026-03-23T15:28:38.96Z</time></trkpt><trkpt lat="45.3967633894012" lon="8.003323255374669"><ele>285.3333333333333</ele><time>2026-03-23T15:28:40.96Z</time></trkpt><trkpt lat="45.39675360713875" lon="8.003183980935658"><ele>283.5</ele><time>2026-03-23T15:28:42.96Z</time></trkpt><trkpt lat="45.39675292029694" lon="8.003062931042424"><ele>281.6666666666667</ele><time>2026-03-23T15:28:45.96Z</time></trkpt><trkpt lat="45.39676462433279" lon="8.002946258552335"><ele>279.83333333333337</ele><time>2026-03-23T15:28:49.96Z</time></trkpt><trkpt lat="45.396828265747956" lon="8.00295624270959"><ele>278.0</ele><time>2026-03-23T15:28:52.958Z</time></trkpt><trkpt lat="45.396905928093005" lon="8.002894547468062"><ele>278.0</ele><time>2026-03-23T15:28:56.958Z</time></trkpt><trkpt lat="45.39692761932729" lon="8.00279213892376"><ele>278.0</ele><time>2026-03-23T15:28:58.957Z</time></trkpt><trkpt lat="45.39696023653045" lon="8.002683392464851"><ele>278.0</ele><time>2026-03-23T15:29:00.958Z</time></trkpt><trkpt lat="45.39701074118935" lon="8.002556469412761"><ele>278.0</ele><time>2026-03-23T15:29:02.958Z</time></trkpt><trkpt lat="45.39706472404037" lon="8.002440241361475"><ele>278.0</ele><time>2026-03-23T15:29:04.957Z</time></trkpt><trkpt lat="45.397100193427654" lon="8.002327405064767"><ele>278.0</ele><time>2026-03-23T15:29:06.957Z</time></trkpt><trkpt lat="45.397150883453705" lon="8.002209309672843"><ele>274.33333333333337</ele><time>2026-03-23T15:29:08.957Z</time></trkpt><trkpt lat="45.39719924387984" lon="8.002126634774713"><ele>270.6666666666667</ele><time>2026-03-23T15:29:10.958Z</time></trkpt><trkpt lat="45.39726212999022" lon="8.002057444914422"><ele>267.0</ele><time>2026-03-23T15:29:13.958Z</time></trkpt><trkpt lat="45.39732797671971" lon="8.002080797247892"><ele>263.3333333333333</ele><time>2026-03-23T15:29:15.958Z</time></trkpt><trkpt lat="45.3973247948494" lon="8.002171348537294"><ele>259.66666666666663</ele><time>2026-03-23T15:29:17.958Z</time></trkpt><trkpt lat="45.39723479378304" lon="8.002189042176164"><ele>256.0</ele><time>2026-03-23T15:29:19.958Z</time></trkpt><trkpt lat="45.39717656002059" lon="8.002250053221836"><ele>257.8333333333333</ele><time>2026-03-23T15:29:32.958Z</time></trkpt><trkpt lat="45.39715670710045" lon="8.002345035009002"><ele>259.66666666666663</ele><time>2026-03-23T15:29:34.958Z</time></trkpt><trkpt lat="45.39710179183446" lon="8.00246037411392"><ele>261.5</ele><time>2026-03-23T15:29:37.958Z</time></trkpt><trkpt lat="45.39706800571239" lon="8.002565963409946"><ele>263.3333333333333</ele><time>2026-03-23T15:29:39.958Z</time></trkpt><trkpt lat="45.397045857469095" lon="8.002654429104284"><ele>265.1666666666667</ele><time>2026-03-23T15:29:41.958Z</time></trkpt><trkpt lat="45.39698459840913" lon="8.002765863059414"><ele>267.0</ele><time>2026-03-23T15:29:44.958Z</time></trkpt><trkpt lat="45.396927874297795" lon="8.002804880715265"><ele>268.5714285714286</ele><time>2026-03-23T15:29:46.958Z</time></trkpt><trkpt lat="45.39687722231717" lon="8.002749826410893"><ele>270.14285714285717</ele><time>2026-03-23T15:29:48.958Z</time></trkpt><trkpt lat="45.39681914669571" lon="8.002714501202316"><ele>271.7142857142857</ele><time>2026-03-23T15:29:50.958Z</time></trkpt><trkpt lat="45.39681275938948" lon="8.002831592947837"><ele>273.28571428571433</ele><time>2026-03-23T15:29:53.958Z</time></trkpt><trkpt lat="45.396823837060374" lon="8.002940817941942"><ele>274.8571428571429</ele><time>2026-03-23T15:29:55.958Z</time></trkpt><trkpt lat="45.39680467266466" lon="8.003030226709003"><ele>276.42857142857144</ele><time>2026-03-23T15:29:57.958Z</time></trkpt><trkpt lat="45.39679965386868" lon="8.00315610889661"><ele>278.0</ele><time>2026-03-23T15:29:59.958Z</time></trkpt><trkpt lat="45.39677288931142" lon="8.003268241173696"><ele>280.2</ele><time>2026-03-23T15:30:02.958Z</time></trkpt><trkpt lat="45.39670952876265" lon="8.003350668001271"><ele>282.4</ele><time>2026-03-23T15:30:05.959Z</time></trkpt><trkpt lat="45.39668040065214" lon="8.00345728653695"><ele>284.59999999999997</ele><time>2026-03-23T15:30:08.959Z</time></trkpt><trkpt lat="45.39674183924703" lon="8.003541304710492"><ele>286.8</ele><time>2026-03-23T15:30:11.959Z</time></trkpt><trkpt lat="45.396849336460676" lon="8.003543079012978"><ele>289.0</ele><time>2026-03-23T15:30:13.959Z</time></trkpt><trkpt lat="45.39697927000074" lon="8.003525189354223"><ele>289.0</ele><time>2026-03-23T15:30:14.959Z</time></trkpt><trkpt lat="45.39707867691994" lon="8.003531056926565"><ele>289.0</ele><time>2026-03-23T15:30:15.959Z</time></trkpt><trkpt lat="45.397163228327344" lon="8.003766995550892"><ele>289.0</ele><time>2026-03-23T15:30:16.959Z</time></trkpt><trkpt lat="45.39725484553817" lon="8.003532033261513"><ele>286.59999999999997</ele><time>2026-03-23T15:30:17.959Z</time></trkpt><trkpt lat="45.3973503154371" lon="8.003538483822052"><ele>284.2</ele><time>2026-03-23T15:30:18.959Z</time></trkpt><trkpt lat="45.39745060900529" lon="8.003542362174516"><ele>281.79999999999995</ele><time>2026-03-23T15:30:19.959Z</time></trkpt><trkpt lat="45.39754366410041" lon="8.003540671222035"><ele>279.4</ele><time>2026-03-23T15:30:20.959Z</time></trkpt><trkpt lat="45.397635413720714" lon="8.003563100043445"><ele>277.0</ele><time>2026-03-23T15:30:21.959Z</time></trkpt><trkpt lat="45.39772294744412" lon="8.003586541369145"><ele>277.0</ele><time>2026-03-23T15:30:22.959Z</time></trkpt><trkpt lat="45.397812292861914" lon="8.003616830985317"><ele>277.0</ele><time>2026-03-23T15:30:23.959Z</time></trkpt><trkpt lat="45.397889635679036" lon="8.003643743569265"><ele>277.0</ele><time>2026-03-23T15:30:24.959Z</time></trkpt><trkpt lat="45.39796121928362" lon="8.00368376980675"><ele>277.0</ele><time>2026-03-23T15:30:25.959Z</time></trkpt><trkpt lat="45.39804214506092" lon="8.003710841760322"><ele>277.0</ele><time>2026-03-23T15:30:26.959Z</time></trkpt><trkpt lat="45.398125575153514" lon="8.003740192365111"><ele>277.0</ele><time>2026-03-23T15:30:27.959Z</time></trkpt><trkpt lat="45.39821981308401" lon="8.003780128006882"><ele>274.75</ele><time>2026-03-23T15:30:28.959Z</time></trkpt><trkpt lat="45.39832307760166" lon="8.003808392594584"><ele>272.5</ele><time>2026-03-23T15:30:29.959Z</time></trkpt><trkpt lat="45.39842865617268" lon="8.003835418907942"><ele>270.25</ele><time>2026-03-23T15:30:30.959Z</time></trkpt><trkpt lat="45.39853904580506" lon="8.003848969501762"><ele>268.0</ele><time>2026-03-23T15:30:31.959Z</time></trkpt><trkpt lat="45.39864435506121" lon="8.003958695176983"><ele>268.0</ele><time>2026-03-23T15:30:32.959Z</time></trkpt><trkpt lat="45.39875395925826" lon="8.003941758043982"><ele>268.0</ele><time>2026-03-23T15:30:33.959Z</time></trkpt><trkpt lat="45.39885677949874" lon="8.003915445277068"><ele>268.0</ele><time>2026-03-23T15:30:34.959Z</time></trkpt><trkpt lat="45.398953977353436" lon="8.003887076695086"><ele>268.0</ele><time>2026-03-23T15:30:35.959Z</time></trkpt><trkpt lat="45.39904466432866" lon="8.003864214843583"><ele>268.0</ele><time>2026-03-23T15:30:36.959Z</time></trkpt><trkpt lat="45.39913225897213" lon="8.00384505441599"><ele>266.8</ele><time>2026-03-23T15:30:37.959Z</time></trkpt><trkpt lat="45.39921677920226" lon="8.003829011544664"><ele>265.6</ele><time>2026-03-23T15:30:38.959Z</time></trkpt><trkpt lat="45.39928909211547" lon="8.003819429363466"><ele>264.4</ele><time>2026-03-23T15:30:39.959Z</time></trkpt><trkpt lat="45.399354427486195" lon="8.003809827324254"><ele>263.2</ele><time>2026-03-23T15:30:40.959Z</time></trkpt><trkpt lat="45.39944564191115" lon="8.003781747919872"><ele>262.0</ele><time>2026-03-23T15:30:42.959Z</time></trkpt><trkpt lat="45.39949617037215" lon="8.003960203658679"><ele>262.0</ele><time>2026-03-23T15:30:45.959Z</time></trkpt><trkpt lat="45.399544478519076" lon="8.004066158293627"><ele>262.0</ele><time>2026-03-23T15:30:48.959Z</time></trkpt><trkpt lat="45.39961200944879" lon="8.004176960258775"><ele>262.0</ele><time>2026-03-23T15:30:50.959Z</time></trkpt><trkpt lat="45.39964696642478" lon="8.004307647951297"><ele>262.0</ele><time>2026-03-23T15:30:52.959Z</time></trkpt><trkpt lat="45.39972492184443" lon="8.004443693032753"><ele>262.0</ele><time>2026-03-23T15:30:55.959Z</time></trkpt><trkpt lat="45.399769416314186" lon="8.004517182839713"><ele>262.8333333333333</ele><time>2026-03-23T15:30:56.959Z</time></trkpt><trkpt lat="45.39980465772795" lon="8.004593553718717"><ele>263.66666666666663</ele><time>2026-03-23T15:30:57.957Z</time></trkpt><trkpt lat="45.39986222536612" lon="8.004716730105232"><ele>264.5</ele><time>2026-03-23T15:30:59.957Z</time></trkpt><trkpt lat="45.39988637082514" lon="8.004808943391488"><ele>265.3333333333333</ele><time>2026-03-23T15:31:01.957Z</time></trkpt><trkpt lat="45.39991682609201" lon="8.004893878971217"><ele>266.1666666666667</ele><time>2026-03-23T15:31:03.957Z</time></trkpt><trkpt lat="45.399961122907605" lon="8.004958967189435"><ele>267.0</ele><time>2026-03-23T15:31:06.957Z</time></trkpt><trkpt lat="45.400028136467945" lon="8.005043695641106"><ele>268.5</ele><time>2026-03-23T15:31:35.957Z</time></trkpt><trkpt lat="45.40005796084502" lon="8.005160351771059"><ele>270.0</ele><time>2026-03-23T15:31:38.958Z</time></trkpt><trkpt lat="45.400095196781116" lon="8.005235724261377"><ele>271.5</ele><time>2026-03-23T15:31:40.958Z</time></trkpt><trkpt lat="45.4001630884633" lon="8.005308946342257"><ele>273.0</ele><time>2026-03-23T15:31:42.958Z</time></trkpt><trkpt lat="45.400184963491924" lon="8.005402131461997"><ele>274.5</ele><time>2026-03-23T15:31:44.958Z</time></trkpt><trkpt lat="45.40019689469535" lon="8.005491863905362"><ele>276.0</ele><time>2026-03-23T15:31:45.958Z</time></trkpt><trkpt lat="45.40017241808665" lon="8.005651510733898"><ele>276.0</ele><time>2026-03-23T15:31:47.958Z</time></trkpt><trkpt lat="45.40015437752988" lon="8.005770857478456"><ele>276.0</ele><time>2026-03-23T15:31:50.958Z</time></trkpt><trkpt lat="45.40012139150173" lon="8.005894906108717"><ele>276.0</ele><time>2026-03-23T15:31:53.958Z</time></trkpt><trkpt lat="45.40009633164462" lon="8.006015692513316"><ele>276.0</ele><time>2026-03-23T15:31:55.958Z</time></trkpt><trkpt lat="45.40004441334546" lon="8.006157460797462"><ele>276.0</ele><time>2026-03-23T15:31:57.958Z</time></trkpt><trkpt lat="45.40002378894264" lon="8.006293082796917"><ele>277.6</ele><time>2026-03-23T15:31:59.958Z</time></trkpt><trkpt lat="45.39999266387707" lon="8.006399148236076"><ele>279.20000000000005</ele><time>2026-03-23T15:32:01.958Z</time></trkpt><trkpt lat="45.39993282000198" lon="8.00651468606169"><ele>280.79999999999995</ele><time>2026-03-23T15:32:03.958Z</time></trkpt><trkpt lat="45.39991262181093" lon="8.006647801762657"><ele>282.4</ele><time>2026-03-23T15:32:05.958Z</time></trkpt><trkpt lat="45.39988012198666" lon="8.006758378472268"><ele>284.0</ele><time>2026-03-23T15:32:07.958Z</time></trkpt><trkpt lat="45.39987598175559" lon="8.006890569254043"><ele>286.2</ele><time>2026-03-23T15:32:09.958Z</time></trkpt><trkpt lat="45.39988464184176" lon="8.007026493367462"><ele>288.4</ele><time>2026-03-23T15:32:11.958Z</time></trkpt><trkpt lat="45.39982269616148" lon="8.007146685849957"><ele>290.6</ele><time>2026-03-23T15:32:13.958Z</time></trkpt><trkpt lat="45.39974972741033" lon="8.007289066184285"><ele>292.8</ele><time>2026-03-23T15:32:15.958Z</time></trkpt><trkpt lat="45.39974258210294" lon="8.007433025544819"><ele>295.0</ele><time>2026-03-23T15:32:17.958Z</time></trkpt><trkpt lat="45.399734384866754" lon="8.007524815648296"><ele>296.66666666666663</ele><time>2026-03-23T15:32:18.958Z</time></trkpt><trkpt lat="45.39968801810393" lon="8.007648403230645"><ele>298.3333333333333</ele><time>2026-03-23T15:32:20.958Z</time></trkpt><trkpt lat="45.39962117431747" lon="8.007732271726347"><ele>300.0</ele><time>2026-03-23T15:32:22.958Z</time></trkpt><trkpt lat="45.3995675235186" lon="8.007829118715769"><ele>301.6666666666667</ele><time>2026-03-23T15:32:24.958Z</time></trkpt><trkpt lat="45.39960291817884" lon="8.00791186256214"><ele>303.33333333333337</ele><time>2026-03-23T15:32:27.958Z</time></trkpt><trkpt lat="45.399695132364954" lon="8.00791140399992"><ele>305.0</ele><time>2026-03-23T15:32:29.958Z</time></trkpt><trkpt lat="45.399760170960256" lon="8.007923958862676"><ele>305.0</ele><time>2026-03-23T15:32:31.958Z</time></trkpt><trkpt lat="45.399873537992335" lon="8.007979626127039"><ele>305.0</ele><time>2026-03-23T15:32:33.959Z</time></trkpt><trkpt lat="45.399959124958855" lon="8.008045207940643"><ele>305.0</ele><time>2026-03-23T15:32:35.959Z</time></trkpt><trkpt lat="45.40003535026587" lon="8.008061972324471"><ele>305.0</ele><time>2026-03-23T15:32:37.959Z</time></trkpt><trkpt lat="45.40010717438939" lon="8.008062656653541"><ele>305.0</ele><time>2026-03-23T15:32:39.959Z</time></trkpt><trkpt lat="45.400198377747444" lon="8.008058627910058"><ele>305.0</ele><time>2026-03-23T15:32:41.959Z</time></trkpt><trkpt lat="45.40030673990956" lon="8.0080804830681"><ele>305.0</ele><time>2026-03-23T15:32:43.959Z</time></trkpt><trkpt lat="45.40036978760378" lon="8.008105529015879"><ele>305.0</ele><time>2026-03-23T15:32:44.959Z</time></trkpt><trkpt lat="45.40047843295296" lon="8.008132419675228"><ele>305.0</ele><time>2026-03-23T15:32:46.959Z</time></trkpt><trkpt lat="45.40057707168648" lon="8.00817721458414"><ele>305.0</ele><time>2026-03-23T15:32:48.959Z</time></trkpt><trkpt lat="45.40064050887883" lon="8.008200422104412"><ele>305.2</ele><time>2026-03-23T15:32:49.959Z</time></trkpt><trkpt lat="45.400740145165194" lon="8.008223544542481"><ele>305.4</ele><time>2026-03-23T15:32:51.959Z</time></trkpt><trkpt lat="45.40084223010983" lon="8.00822561325104"><ele>305.6</ele><time>2026-03-23T15:32:53.959Z</time></trkpt><trkpt lat="45.40097038616582" lon="8.00827677253923"><ele>305.8</ele><time>2026-03-23T15:32:55.959Z</time></trkpt><trkpt lat="45.4010382668788" lon="8.008320194424792"><ele>306.0</ele><time>2026-03-23T15:32:56.959Z</time></trkpt><trkpt lat="45.4011144869009" lon="8.008384234946506"><ele>306.0</ele><time>2026-03-23T15:32:57.959Z</time></trkpt><trkpt lat="45.40117127661716" lon="8.008438469487771"><ele>306.0</ele><time>2026-03-23T15:32:58.959Z</time></trkpt><trkpt lat="45.401233946472324" lon="8.008466769033863"><ele>306.0</ele><time>2026-03-23T15:32:59.959Z</time></trkpt><trkpt lat="45.40130062750077" lon="8.00848573301296"><ele>306.0</ele><time>2026-03-23T15:33:00.959Z</time></trkpt><trkpt lat="45.40141991926753" lon="8.00852340086245"><ele>306.0</ele><time>2026-03-23T15:33:02.959Z</time></trkpt><trkpt lat="45.40149464645962" lon="8.00856292003737"><ele>306.0</ele><time>2026-03-23T15:33:03.957Z</time></trkpt><trkpt lat="45.401555254874445" lon="8.008615092769556"><ele>303.6666666666667</ele><time>2026-03-23T15:33:04.956Z</time></trkpt><trkpt lat="45.40165227297576" lon="8.008719978795144"><ele>301.3333333333333</ele><time>2026-03-23T15:33:06.957Z</time></trkpt><trkpt lat="45.40171760421917" lon="8.008759016614027"><ele>299.0</ele><time>2026-03-23T15:33:07.957Z</time></trkpt><trkpt lat="45.4017788926978" lon="8.008791722069493"><ele>296.66666666666663</ele><time>2026-03-23T15:33:08.957Z</time></trkpt><trkpt lat="45.40183734313212" lon="8.008839172905235"><ele>294.3333333333333</ele><time>2026-03-23T15:33:09.957Z</time></trkpt><trkpt lat="45.401912883240605" lon="8.008896691591804"><ele>292.0</ele><time>2026-03-23T15:33:11.957Z</time></trkpt><trkpt lat="45.401982348678864" lon="8.008923684930695"><ele>292.0</ele><time>2026-03-23T15:33:16.956Z</time></trkpt><trkpt lat="45.40205451867672" lon="8.008948953978596"><ele>292.0</ele><time>2026-03-23T15:33:20.957Z</time></trkpt><trkpt lat="45.40213304715897" lon="8.009005344431534"><ele>292.0</ele><time>2026-03-23T15:33:23.957Z</time></trkpt><trkpt lat="45.402194729625435" lon="8.009068856687751"><ele>292.0</ele><time>2026-03-23T15:33:25.957Z</time></trkpt><trkpt lat="45.40228499706028" lon="8.009129281353186"><ele>292.0</ele><time>2026-03-23T15:33:28.957Z</time></trkpt><trkpt lat="45.40236020154937" lon="8.009164291840694"><ele>292.0</ele><time>2026-03-23T15:33:30.957Z</time></trkpt><trkpt lat="45.40244037846175" lon="8.009237953097706"><ele>291.3333333333333</ele><time>2026-03-23T15:33:32.957Z</time></trkpt><trkpt lat="45.40249309332414" lon="8.009298305667519"><ele>290.66666666666663</ele><time>2026-03-23T15:33:34.957Z</time></trkpt><trkpt lat="45.40257129929968" lon="8.009352763040349"><ele>290.0</ele><time>2026-03-23T15:33:36.957Z</time></trkpt><trkpt lat="45.40264879327771" lon="8.009415158321195"><ele>289.3333333333333</ele><time>2026-03-23T15:33:38.957Z</time></trkpt><trkpt lat="45.402712709831754" lon="8.009479807470283"><ele>288.6666666666667</ele><time>2026-03-23T15:33:40.957Z</time></trkpt><trkpt lat="45.40280631799781" lon="8.009489207159833"><ele>288.0</ele><time>2026-03-23T15:33:42.957Z</time></trkpt><trkpt lat="45.402873529836704" lon="8.00944088554932"><ele>288.0</ele><time>2026-03-23T15:33:44.957Z</time></trkpt><trkpt lat="45.402945633551354" lon="8.009440788855473"><ele>288.0</ele><time>2026-03-23T15:33:45.957Z</time></trkpt><trkpt lat="45.403012926404244" lon="8.009436447414759"><ele>288.0</ele><time>2026-03-23T15:33:46.957Z</time></trkpt><trkpt lat="45.40310393170452" lon="8.009412573337832"><ele>288.0</ele><time>2026-03-23T15:33:47.957Z</time></trkpt><trkpt lat="45.403173546269706" lon="8.009392783212993"><ele>288.0</ele><time>2026-03-23T15:33:48.957Z</time></trkpt><trkpt lat="45.4032567666532" lon="8.009361714546358"><ele>288.0</ele><time>2026-03-23T15:33:50.957Z</time></trkpt><trkpt lat="45.403355692967885" lon="8.009339043208783"><ele>285.6666666666667</ele><time>2026-03-23T15:33:52.957Z</time></trkpt><trkpt lat="45.40343478044333" lon="8.009308261000081"><ele>283.3333333333333</ele><time>2026-03-23T15:33:54.957Z</time></trkpt><trkpt lat="45.40351475544781" lon="8.009265876720946"><ele>281.0</ele><time>2026-03-23T15:33:56.957Z</time></trkpt><trkpt lat="45.40357861062137" lon="8.009233337939111"><ele>278.66666666666663</ele><time>2026-03-23T15:33:57.957Z</time></trkpt><trkpt lat="45.40368313991325" lon="8.009148996963859"><ele>276.3333333333333</ele><time>2026-03-23T15:33:59.957Z</time></trkpt><trkpt lat="45.40373937717869" lon="8.00908912004356"><ele>274.0</ele><time>2026-03-23T15:34:00.957Z</time></trkpt><trkpt lat="45.40378892157605" lon="8.00903123449373"><ele>272.28571428571433</ele><time>2026-03-23T15:34:01.957Z</time></trkpt><trkpt lat="45.40385552000084" lon="8.008984255144634"><ele>270.57142857142856</ele><time>2026-03-23T15:34:02.957Z</time></trkpt><trkpt lat="45.40391392202717" lon="8.008946046913055"><ele>268.8571428571429</ele><time>2026-03-23T15:34:03.957Z</time></trkpt><trkpt lat="45.40397552224077" lon="8.008911803879991"><ele>267.14285714285717</ele><time>2026-03-23T15:34:04.957Z</time></trkpt><trkpt lat="45.404055015080694" lon="8.008878709035185"><ele>265.42857142857144</ele><time>2026-03-23T15:34:05.957Z</time></trkpt><trkpt lat="45.40412939543478" lon="8.008863280307938"><ele>263.7142857142857</ele><time>2026-03-23T15:34:06.957Z</time></trkpt><trkpt lat="45.404198590124246" lon="8.008847370390974"><ele>262.0</ele><time>2026-03-23T15:34:07.957Z</time></trkpt><trkpt lat="45.404267342494414" lon="8.008825424748204"><ele>262.0</ele><time>2026-03-23T15:34:08.957Z</time></trkpt><trkpt lat="45.40433600425475" lon="8.008805276402384"><ele>262.0</ele><time>2026-03-23T15:34:09.957Z</time></trkpt><trkpt lat="45.4044026957723" lon="8.008789094392451"><ele>262.0</ele><time>2026-03-23T15:34:10.957Z</time></trkpt><trkpt lat="45.404465761696265" lon="8.008773860301538"><ele>262.0</ele><time>2026-03-23T15:34:11.957Z</time></trkpt><trkpt lat="45.40453093447821" lon="8.008756511389095"><ele>262.0</ele><time>2026-03-23T15:34:12.957Z</time></trkpt><trkpt lat="45.40459378266967" lon="8.008739119198387"><ele>262.0</ele><time>2026-03-23T15:34:13.957Z</time></trkpt><trkpt lat="45.40466570436592" lon="8.008713735086232"><ele>262.0</ele><time>2026-03-23T15:34:14.958Z</time></trkpt><trkpt lat="45.4047392668347" lon="8.008684588845384"><ele>262.3333333333333</ele><time>2026-03-23T15:34:15.958Z</time></trkpt><trkpt lat="45.40482161880031" lon="8.008649463056514"><ele>262.66666666666663</ele><time>2026-03-23T15:34:16.958Z</time></trkpt><trkpt lat="45.40489555209341" lon="8.008627585502538"><ele>263.0</ele><time>2026-03-23T15:34:17.958Z</time></trkpt><trkpt lat="45.40496923202094" lon="8.008611930373913"><ele>263.3333333333333</ele><time>2026-03-23T15:34:18.958Z</time></trkpt><trkpt lat="45.40504686540614" lon="8.008593460347548"><ele>263.6666666666667</ele><time>2026-03-23T15:34:19.958Z</time></trkpt><trkpt lat="45.40511779627389" lon="8.008570805295658"><ele>264.0</ele><time>2026-03-23T15:34:20.958Z</time></trkpt><trkpt lat="45.40517914907242" lon="8.008544630887002"><ele>264.0</ele><time>2026-03-23T15:34:21.958Z</time></trkpt><trkpt lat="45.405260380069606" lon="8.008552940198822"><ele>264.0</ele><time>2026-03-23T15:34:23.958Z</time></trkpt><trkpt lat="45.405268175939185" lon="8.008647155433883"><ele>264.0</ele><time>2026-03-23T15:34:25.958Z</time></trkpt><trkpt lat="45.40521246487167" lon="8.008707208204365"><ele>264.0</ele><time>2026-03-23T15:34:27.958Z</time></trkpt><trkpt lat="45.405155323160194" lon="8.008642711573332"><ele>264.0</ele><time>2026-03-23T15:34:30.958Z</time></trkpt><trkpt lat="45.405221261039074" lon="8.008589420051711"><ele>264.0</ele><time>2026-03-23T15:34:32.958Z</time></trkpt><trkpt lat="45.40531519489732" lon="8.008552208606057"><ele>264.0</ele><time>2026-03-23T15:34:34.958Z</time></trkpt><trkpt lat="45.40540883629998" lon="8.00842506972914"><ele>264.0</ele><time>2026-03-23T15:34:36.958Z</time></trkpt><trkpt lat="45.4054487114808" lon="8.008348502204658"><ele>264.0</ele><time>2026-03-23T15:34:37.958Z</time></trkpt><trkpt lat="45.405483479045934" lon="8.008265187759953"><ele>264.0</ele><time>2026-03-23T15:34:38.958Z</time></trkpt><trkpt lat="45.40553022316493" lon="8.008197750796972"><ele>264.0</ele><time>2026-03-23T15:34:39.958Z</time></trkpt><trkpt lat="45.40563277900974" lon="8.008155938968354"><ele>264.0</ele><time>2026-03-23T15:34:41.958Z</time></trkpt><trkpt lat="45.405734340314915" lon="8.008122953471021"><ele>265.6666666666667</ele><time>2026-03-23T15:34:43.958Z</time></trkpt><trkpt lat="45.405824692439836" lon="8.008051204719285"><ele>267.3333333333333</ele><time>2026-03-23T15:34:45.958Z</time></trkpt><trkpt lat="45.40588275302291" lon="8.008000630004883"><ele>269.0</ele><time>2026-03-23T15:34:46.958Z</time></trkpt><trkpt lat="45.40594792685215" lon="8.007937576464098"><ele>270.66666666666663</ele><time>2026-03-23T15:34:47.958Z</time></trkpt><trkpt lat="45.40601829281498" lon="8.007875791423965"><ele>272.3333333333333</ele><time>2026-03-23T15:34:48.958Z</time></trkpt><trkpt lat="45.406098114144605" lon="8.007810937324571"><ele>274.0</ele><time>2026-03-23T15:34:49.958Z</time></trkpt><trkpt lat="45.40617689180479" lon="8.007757144543731"><ele>274.0</ele><time>2026-03-23T15:34:50.958Z</time></trkpt><trkpt lat="45.40625605710711" lon="8.007695061368077"><ele>274.0</ele><time>2026-03-23T15:34:51.958Z</time></trkpt><trkpt lat="45.40634692369077" lon="8.007634394229582"><ele>274.0</ele><time>2026-03-23T15:34:52.958Z</time></trkpt><trkpt lat="45.406421455734176" lon="8.007587590712825"><ele>274.0</ele><time>2026-03-23T15:34:53.958Z</time></trkpt><trkpt lat="45.40648518356527" lon="8.00753094444106"><ele>274.0</ele><time>2026-03-23T15:34:54.958Z</time></trkpt><trkpt lat="45.40654024047229" lon="8.007486161747284"><ele>274.0</ele><time>2026-03-23T15:34:55.958Z</time></trkpt><trkpt lat="45.40663958883803" lon="8.007533295354802"><ele>273.8333333333333</ele><time>2026-03-23T15:35:08.956Z</time></trkpt><trkpt lat="45.406697536527034" lon="8.007630891384476"><ele>273.66666666666663</ele><time>2026-03-23T15:35:10.956Z</time></trkpt><trkpt lat="45.406785713846844" lon="8.007708292747871"><ele>273.5</ele><time>2026-03-23T15:35:12.956Z</time></trkpt><trkpt lat="45.406837243245576" lon="8.007767539511946"><ele>273.3333333333333</ele><time>2026-03-23T15:35:13.956Z</time></trkpt><trkpt lat="45.40688600898327" lon="8.007827667165914"><ele>273.1666666666667</ele><time>2026-03-23T15:35:14.956Z</time></trkpt><trkpt lat="45.40695637998164" lon="8.007971278178585"><ele>273.0</ele><time>2026-03-23T15:35:16.956Z</time></trkpt><trkpt lat="45.40702928364204" lon="8.008097707525913"><ele>273.0</ele><time>2026-03-23T15:35:18.956Z</time></trkpt><trkpt lat="45.407121114574686" lon="8.00821300194166"><ele>273.0</ele><time>2026-03-23T15:35:20.956Z</time></trkpt><trkpt lat="45.40718679240136" lon="8.008355684613683"><ele>273.0</ele><time>2026-03-23T15:35:22.957Z</time></trkpt><trkpt lat="45.40726423125119" lon="8.008473266065453"><ele>273.0</ele><time>2026-03-23T15:35:24.957Z</time></trkpt><trkpt lat="45.40737207703751" lon="8.008541826105827"><ele>272.2</ele><time>2026-03-23T15:35:26.957Z</time></trkpt><trkpt lat="45.407458593550494" lon="8.008579044023298"><ele>271.4</ele><time>2026-03-23T15:35:28.957Z</time></trkpt><trkpt lat="45.407531673226735" lon="8.008596627819678"><ele>270.59999999999997</ele><time>2026-03-23T15:35:30.957Z</time></trkpt><trkpt lat="45.40766679854259" lon="8.00859829655725"><ele>269.8</ele><time>2026-03-23T15:35:32.957Z</time></trkpt><trkpt lat="45.407787768846404" lon="8.00860316212527"><ele>269.0</ele><time>2026-03-23T15:35:34.957Z</time></trkpt><trkpt lat="45.407908508076275" lon="8.008610689968322"><ele>269.59999999999997</ele><time>2026-03-23T15:35:36.957Z</time></trkpt><trkpt lat="45.40801652835652" lon="8.008628977378345"><ele>270.2</ele><time>2026-03-23T15:35:38.957Z</time></trkpt><trkpt lat="45.40812423127949" lon="8.00868032803759"><ele>270.79999999999995</ele><time>2026-03-23T15:35:40.957Z</time></trkpt><trkpt lat="45.40820457902261" lon="8.008755113516468"><ele>271.4</ele><time>2026-03-23T15:35:42.957Z</time></trkpt><trkpt lat="45.40825428190965" lon="8.008865208080204"><ele>272.0</ele><time>2026-03-23T15:35:44.957Z</time></trkpt><trkpt lat="45.40825510783157" lon="8.009025123230925"><ele>272.0</ele><time>2026-03-23T15:35:46.957Z</time></trkpt><trkpt lat="45.40824768935348" lon="8.009132847293625"><ele>272.0</ele><time>2026-03-23T15:35:48.957Z</time></trkpt><trkpt lat="45.408321720436014" lon="8.009233209045824"><ele>272.0</ele><time>2026-03-23T15:35:50.957Z</time></trkpt><trkpt lat="45.40841500949494" lon="8.009218715143387"><ele>272.0</ele><time>2026-03-23T15:35:52.957Z</time></trkpt><trkpt lat="45.40853261675621" lon="8.009253272244111"><ele>272.0</ele><time>2026-03-23T15:35:54.957Z</time></trkpt><trkpt lat="45.40863441891922" lon="8.009289362767477"><ele>271.8</ele><time>2026-03-23T15:35:56.957Z</time></trkpt><trkpt lat="45.408752469672734" lon="8.009338300213564"><ele>271.6</ele><time>2026-03-23T15:35:58.957Z</time></trkpt><trkpt lat="45.408813522754706" lon="8.009375244443337"><ele>271.40000000000003</ele><time>2026-03-23T15:35:59.957Z</time></trkpt><trkpt lat="45.40888827023332" lon="8.009475281231323"><ele>271.2</ele><time>2026-03-23T15:36:01.957Z</time></trkpt><trkpt lat="45.40888451678065" lon="8.009625905527278"><ele>271.0</ele><time>2026-03-23T15:36:03.957Z</time></trkpt><trkpt lat="45.408830755036334" lon="8.009786486921387"><ele>271.0</ele><time>2026-03-23T15:36:05.957Z</time></trkpt><trkpt lat="45.408802515998126" lon="8.009881899731191"><ele>271.0</ele><time>2026-03-23T15:36:06.957Z</time></trkpt><trkpt lat="45.40877005053756" lon="8.009972405229782"><ele>271.0</ele><time>2026-03-23T15:36:07.957Z</time></trkpt><trkpt lat="45.40873400443637" lon="8.010075775855752"><ele>271.0</ele><time>2026-03-23T15:36:08.957Z</time></trkpt><trkpt lat="45.408701937729475" lon="8.010171828422001"><ele>271.0</ele><time>2026-03-23T15:36:09.957Z</time></trkpt><trkpt lat="45.40868375661129" lon="8.010260032876044"><ele>271.0</ele><time>2026-03-23T15:36:10.957Z</time></trkpt><trkpt lat="45.40865484410672" lon="8.010340887393529"><ele>271.0</ele><time>2026-03-23T15:36:11.957Z</time></trkpt><trkpt lat="45.408606285871876" lon="8.010503152477536"><ele>271.2</ele><time>2026-03-23T15:36:13.957Z</time></trkpt><trkpt lat="45.408612670589804" lon="8.010597677797566"><ele>271.40000000000003</ele><time>2026-03-23T15:36:14.957Z</time></trkpt><trkpt lat="45.40868038058527" lon="8.010715819710972"><ele>271.6</ele><time>2026-03-23T15:36:16.957Z</time></trkpt><trkpt lat="45.40877689888006" lon="8.010797606164"><ele>271.8</ele><time>2026-03-23T15:36:18.958Z</time></trkpt><trkpt lat="45.4088664268303" lon="8.010894146126528"><ele>272.0</ele><time>2026-03-23T15:36:20.958Z</time></trkpt><trkpt lat="45.408962793927415" lon="8.010922585329164"><ele>274.4</ele><time>2026-03-23T15:36:22.958Z</time></trkpt><trkpt lat="45.40906718660646" lon="8.011014625969151"><ele>276.79999999999995</ele><time>2026-03-23T15:36:24.958Z</time></trkpt><trkpt lat="45.40910320568155" lon="8.011181035553003"><ele>279.2</ele><time>2026-03-23T15:36:26.958Z</time></trkpt><trkpt lat="45.409156623953116" lon="8.011298220101825"><ele>281.59999999999997</ele><time>2026-03-23T15:36:28.958Z</time></trkpt><trkpt lat="45.40922930192499" lon="8.011352034804826"><ele>284.0</ele><time>2026-03-23T15:36:30.958Z</time></trkpt><trkpt lat="45.40931128045077" lon="8.011400173454854"><ele>284.0</ele><time>2026-03-23T15:36:32.958Z</time></trkpt><trkpt lat="45.409385544603765" lon="8.011396191647146"><ele>284.0</ele><time>2026-03-23T15:36:34.958Z</time></trkpt><trkpt lat="45.409447143200246" lon="8.0113597710185"><ele>284.0</ele><time>2026-03-23T15:36:37.958Z</time></trkpt><trkpt lat="45.409509118570455" lon="8.011261876454244"><ele>284.0</ele><time>2026-03-23T15:36:40.958Z</time></trkpt><trkpt lat="45.40953720236979" lon="8.011162071296885"><ele>284.0</ele><time>2026-03-23T15:36:42.958Z</time></trkpt><trkpt lat="45.409579028876344" lon="8.011073318051714"><ele>284.0</ele><time>2026-03-23T15:36:46.958Z</time></trkpt><trkpt lat="45.40963894981417" lon="8.010960114276498"><ele>285.6666666666667</ele><time>2026-03-23T15:36:49.958Z</time></trkpt><trkpt lat="45.40969202841588" lon="8.010848198589061"><ele>287.33333333333337</ele><time>2026-03-23T15:36:51.958Z</time></trkpt><trkpt lat="45.40972968702879" lon="8.010745695451336"><ele>289.0</ele><time>2026-03-23T15:36:53.958Z</time></trkpt><trkpt lat="45.409766817012965" lon="8.010632622578985"><ele>290.6666666666667</ele><time>2026-03-23T15:36:55.958Z</time></trkpt><trkpt lat="45.409795069946234" lon="8.010528050092129"><ele>292.3333333333333</ele><time>2026-03-23T15:36:57.958Z</time></trkpt><trkpt lat="45.40981556856672" lon="8.010406600007693"><ele>294.0</ele><time>2026-03-23T15:36:59.958Z</time></trkpt><trkpt lat="45.4098599188595" lon="8.010289805885874"><ele>294.0</ele><time>2026-03-23T15:37:01.958Z</time></trkpt><trkpt lat="45.40991138403265" lon="8.010146205116206"><ele>294.0</ele><time>2026-03-23T15:37:03.958Z</time></trkpt><trkpt lat="45.40995959089482" lon="8.01003101155736"><ele>294.0</ele><time>2026-03-23T15:37:05.958Z</time></trkpt><trkpt lat="45.41001054768666" lon="8.009916410360882"><ele>294.0</ele><time>2026-03-23T15:37:07.958Z</time></trkpt><trkpt lat="45.41003974927815" lon="8.009810460374833"><ele>294.0</ele><time>2026-03-23T15:37:09.958Z</time></trkpt><trkpt lat="45.410046181183574" lon="8.009705165424897"><ele>294.1666666666667</ele><time>2026-03-23T15:37:11.958Z</time></trkpt><trkpt lat="45.41004318715924" lon="8.009614307209755"><ele>294.3333333333333</ele><time>2026-03-23T15:37:13.958Z</time></trkpt><trkpt lat="45.41002876726909" lon="8.009497091113753"><ele>294.5</ele><time>2026-03-23T15:37:16.955Z</time></trkpt><trkpt lat="45.410055262186496" lon="8.009354074540918"><ele>294.66666666666663</ele><time>2026-03-23T15:37:18.955Z</time></trkpt><trkpt lat="45.410098170946" lon="8.009287636555168"><ele>294.8333333333333</ele><time>2026-03-23T15:37:19.955Z</time></trkpt><trkpt lat="45.410169132172186" lon="8.009175894958078"><ele>295.0</ele><time>2026-03-23T15:37:21.955Z</time></trkpt><trkpt lat="45.41022981080983" lon="8.009144036494714"><ele>295.0</ele><time>2026-03-23T15:37:23.955Z</time></trkpt><trkpt lat="45.41028904830844" lon="8.009210504280942"><ele>295.0</ele><time>2026-03-23T15:37:25.956Z</time></trkpt><trkpt lat="45.41037610798506" lon="8.009325811349246"><ele>295.0</ele><time>2026-03-23T15:37:27.956Z</time></trkpt><trkpt lat="45.41043592977623" lon="8.009367868547784"><ele>295.0</ele><time>2026-03-23T15:37:29.956Z</time></trkpt><trkpt lat="45.410531640145685" lon="8.009411884524097"><ele>295.0</ele><time>2026-03-23T15:37:31.956Z</time></trkpt><trkpt lat="45.41063729998632" lon="8.009460294492678"><ele>296.2</ele><time>2026-03-23T15:37:33.956Z</time></trkpt><trkpt lat="45.41074184230639" lon="8.009545505524606"><ele>297.4</ele><time>2026-03-23T15:37:35.956Z</time></trkpt><trkpt lat="45.41080074220348" lon="8.009595008875603"><ele>298.6</ele><time>2026-03-23T15:37:36.956Z</time></trkpt><trkpt lat="45.41088767703133" lon="8.009692075818089"><ele>299.8</ele><time>2026-03-23T15:37:38.956Z</time></trkpt><trkpt lat="45.410966167798534" lon="8.00975391628356"><ele>301.0</ele><time>2026-03-23T15:37:40.956Z</time></trkpt><trkpt lat="45.41104196971501" lon="8.009833296684265"><ele>301.0</ele><time>2026-03-23T15:37:42.956Z</time></trkpt><trkpt lat="45.411136811263425" lon="8.009923114850368"><ele>301.0</ele><time>2026-03-23T15:37:44.956Z</time></trkpt><trkpt lat="45.41120189205366" lon="8.010024393616181"><ele>301.0</ele><time>2026-03-23T15:37:46.956Z</time></trkpt><trkpt lat="45.411255799873366" lon="8.010115595671508"><ele>301.0</ele><time>2026-03-23T15:37:48.956Z</time></trkpt><trkpt lat="45.41131646100297" lon="8.01029100200785"><ele>301.0</ele><time>2026-03-23T15:37:50.956Z</time></trkpt><trkpt lat="45.41129682484348" lon="8.010440710047698"><ele>302.66666666666663</ele><time>2026-03-23T15:37:52.956Z</time></trkpt><trkpt lat="45.41127647314356" lon="8.010561808269223"><ele>304.3333333333333</ele><time>2026-03-23T15:37:54.956Z</time></trkpt><trkpt lat="45.411246674813874" lon="8.010688887184408"><ele>306.0</ele><time>2026-03-23T15:37:56.956Z</time></trkpt><trkpt lat="45.41123627555928" lon="8.010808127072028"><ele>307.6666666666667</ele><time>2026-03-23T15:37:58.956Z</time></trkpt><trkpt lat="45.411248233542715" lon="8.010938183471264"><ele>309.33333333333337</ele><time>2026-03-23T15:38:00.956Z</time></trkpt><trkpt lat="45.411228813695665" lon="8.011045857017368"><ele>311.0</ele><time>2026-03-23T15:38:02.956Z</time></trkpt><trkpt lat="45.41117130603775" lon="8.011107177545933"><ele>311.6666666666667</ele><time>2026-03-23T15:38:06.956Z</time></trkpt><trkpt lat="45.41117208934535" lon="8.011215370432367"><ele>312.33333333333337</ele><time>2026-03-23T15:38:10.956Z</time></trkpt><trkpt lat="45.411205825445144" lon="8.011291232352255"><ele>313.0</ele><time>2026-03-23T15:38:12.956Z</time></trkpt><trkpt lat="45.41125126992928" lon="8.011378305610084"><ele>313.6666666666667</ele><time>2026-03-23T15:38:14.957Z</time></trkpt><trkpt lat="45.41129166713317" lon="8.011486554115928"><ele>314.3333333333333</ele><time>2026-03-23T15:38:16.957Z</time></trkpt><trkpt lat="45.41131046534279" lon="8.011637385093154"><ele>315.0</ele><time>2026-03-23T15:38:18.957Z</time></trkpt><trkpt lat="45.41132412766957" lon="8.0117539624402"><ele>316.0</ele><time>2026-03-23T15:38:20.957Z</time></trkpt><trkpt lat="45.411375993526065" lon="8.011836210574307"><ele>317.0</ele><time>2026-03-23T15:38:21.957Z</time></trkpt><trkpt lat="45.411420881058675" lon="8.011908170273788"><ele>318.0</ele><time>2026-03-23T15:38:22.957Z</time></trkpt><trkpt lat="45.41146269235618" lon="8.012011761691191"><ele>319.0</ele><time>2026-03-23T15:38:24.957Z</time></trkpt><trkpt lat="45.41152345310758" lon="8.011963708761392"><ele>320.0</ele><time>2026-03-23T15:38:28.957Z</time></trkpt><trkpt lat="45.41155851006055" lon="8.011885059569758"><ele>321.0</ele><time>2026-03-23T15:38:31.957Z</time></trkpt><trkpt lat="45.41160420619042" lon="8.011772421963485"><ele>321.0</ele><time>2026-03-23T15:38:34.957Z</time></trkpt><trkpt lat="45.41166164310055" lon="8.011710953579644"><ele>321.0</ele><time>2026-03-23T15:38:36.957Z</time></trkpt><trkpt lat="45.41173925068672" lon="8.01165703487609"><ele>321.0</ele><time>2026-03-23T15:38:38.957Z</time></trkpt><trkpt lat="45.411804382160774" lon="8.011617065888242"><ele>321.0</ele><time>2026-03-23T15:38:40.957Z</time></trkpt><trkpt lat="45.41187953436232" lon="8.011550174718588"><ele>321.0</ele><time>2026-03-23T15:38:42.957Z</time></trkpt><trkpt lat="45.41195023212316" lon="8.011464492002512"><ele>321.0</ele><time>2026-03-23T15:38:44.957Z</time></trkpt><trkpt lat="45.41201683457146" lon="8.011394725635746"><ele>320.1666666666667</ele><time>2026-03-23T15:38:46.957Z</time></trkpt><trkpt lat="45.41209724807563" lon="8.011340133477038"><ele>319.3333333333333</ele><time>2026-03-23T15:38:48.957Z</time></trkpt><trkpt lat="45.41217062918156" lon="8.011287181769008"><ele>318.5</ele><time>2026-03-23T15:38:50.957Z</time></trkpt><trkpt lat="45.41222556418305" lon="8.011238387338173"><ele>317.66666666666663</ele><time>2026-03-23T15:38:52.957Z</time></trkpt><trkpt lat="45.41229141988353" lon="8.011165692744575"><ele>316.8333333333333</ele><time>2026-03-23T15:38:55.957Z</time></trkpt><trkpt lat="45.412374202034385" lon="8.011118296076697"><ele>316.0</ele><time>2026-03-23T15:38:58.957Z</time></trkpt><trkpt lat="45.41243711760924" lon="8.011056020583139"><ele>314.0</ele><time>2026-03-23T15:39:00.957Z</time></trkpt><trkpt lat="45.41250429968561" lon="8.011001209470331"><ele>312.0</ele><time>2026-03-23T15:39:02.957Z</time></trkpt><trkpt lat="45.41258600954692" lon="8.010926769603282"><ele>310.0</ele><time>2026-03-23T15:39:05.957Z</time></trkpt><trkpt lat="45.41266654034318" lon="8.010856093093018"><ele>308.0</ele><time>2026-03-23T15:39:07.957Z</time></trkpt><trkpt lat="45.4127298434139" lon="8.010791391342334"><ele>306.0</ele><time>2026-03-23T15:39:10.958Z</time></trkpt><trkpt lat="45.412805004381504" lon="8.010710648587022"><ele>304.0</ele><time>2026-03-23T15:39:13.958Z</time></trkpt><trkpt lat="45.41280581119591" lon="8.010587698612454"><ele>302.0</ele><time>2026-03-23T15:39:16.958Z</time></trkpt><trkpt lat="45.412785435226795" lon="8.010488931452224"><ele>300.0</ele><time>2026-03-23T15:39:18.958Z</time></trkpt><trkpt lat="45.41278179508581" lon="8.010382738174927"><ele>298.0</ele><time>2026-03-23T15:39:20.955Z</time></trkpt><trkpt lat="45.412757145560015" lon="8.010274230683722"><ele>296.0</ele><time>2026-03-23T15:39:22.955Z</time></trkpt><trkpt lat="45.41272774796867" lon="8.010153720726965"><ele>294.0</ele><time>2026-03-23T15:39:24.955Z</time></trkpt><trkpt lat="45.412654888455954" lon="8.009987021677322"><ele>290.8</ele><time>2026-03-23T15:39:26.955Z</time></trkpt><trkpt lat="45.412610055432665" lon="8.009879897368219"><ele>287.59999999999997</ele><time>2026-03-23T15:39:27.954Z</time></trkpt><trkpt lat="45.41257722277575" lon="8.009789429493328"><ele>284.4</ele><time>2026-03-23T15:39:28.955Z</time></trkpt><trkpt lat="45.41253913228432" lon="8.009715641527373"><ele>281.2</ele><time>2026-03-23T15:39:29.955Z</time></trkpt><trkpt lat="45.412455467460184" lon="8.009517415362346"><ele>278.0</ele><time>2026-03-23T15:39:31.955Z</time></trkpt><trkpt lat="45.41239445471182" lon="8.009394766847311"><ele>278.0</ele><time>2026-03-23T15:39:32.956Z</time></trkpt><trkpt lat="45.41235851073126" lon="8.009319260024427"><ele>278.0</ele><time>2026-03-23T15:39:33.954Z</time></trkpt><trkpt lat="45.41231925305212" lon="8.009239235180361"><ele>278.0</ele><time>2026-03-23T15:39:34.955Z</time></trkpt><trkpt lat="45.41227718883955" lon="8.009080118835172"><ele>278.0</ele><time>2026-03-23T15:39:36.955Z</time></trkpt><trkpt lat="45.41224732838579" lon="8.008991311377544"><ele>278.0</ele><time>2026-03-23T15:39:37.955Z</time></trkpt><trkpt lat="45.412219702416984" lon="8.00888941662326"><ele>278.0</ele><time>2026-03-23T15:39:38.955Z</time></trkpt><trkpt lat="45.41217751295721" lon="8.008802127419333"><ele>278.0</ele><time>2026-03-23T15:39:39.955Z</time></trkpt><trkpt lat="45.412131351172604" lon="8.008732595600506"><ele>278.0</ele><time>2026-03-23T15:39:40.955Z</time></trkpt><trkpt lat="45.412083423540764" lon="8.008602281331564"><ele>278.0</ele><time>2026-03-23T15:39:42.955Z</time></trkpt><trkpt lat="45.41205065646367" lon="8.008508180901368"><ele>278.0</ele><time>2026-03-23T15:39:44.955Z</time></trkpt><trkpt lat="45.41203821213543" lon="8.008411961582459"><ele>278.0</ele><time>2026-03-23T15:39:45.955Z</time></trkpt><trkpt lat="45.412035166861536" lon="8.008308338237493"><ele>278.0</ele><time>2026-03-23T15:39:46.955Z</time></trkpt><trkpt lat="45.412041667091735" lon="8.008217774206761"><ele>278.0</ele><time>2026-03-23T15:39:47.955Z</time></trkpt><trkpt lat="45.41206126310507" lon="8.00812819283139"><ele>278.0</ele><time>2026-03-23T15:39:48.955Z</time></trkpt><trkpt lat="45.41210221222588" lon="8.008055656230209"><ele>278.0</ele><time>2026-03-23T15:39:49.955Z</time></trkpt><trkpt lat="45.412158433998634" lon="8.007995480578474"><ele>278.0</ele><time>2026-03-23T15:39:50.955Z</time></trkpt><trkpt lat="45.41221606659664" lon="8.007950335308358"><ele>278.0</ele><time>2026-03-23T15:39:51.955Z</time></trkpt><trkpt lat="45.41229079384218" lon="8.007898077510333"><ele>278.0</ele><time>2026-03-23T15:39:52.955Z</time></trkpt><trkpt lat="45.41235776818209" lon="8.007853192830346"><ele>278.0</ele><time>2026-03-23T15:39:53.955Z</time></trkpt><trkpt lat="45.41243384871566" lon="8.007790601881466"><ele>276.5</ele><time>2026-03-23T15:39:54.955Z</time></trkpt><trkpt lat="45.412500900172994" lon="8.007743421482662"><ele>275.0</ele><time>2026-03-23T15:39:55.955Z</time></trkpt><trkpt lat="45.41257143743771" lon="8.007684398230092"><ele>273.5</ele><time>2026-03-23T15:39:56.955Z</time></trkpt><trkpt lat="45.412638683760456" lon="8.00764065016393"><ele>272.0</ele><time>2026-03-23T15:39:57.955Z</time></trkpt><trkpt lat="45.41272099841561" lon="8.007584915956475"><ele>270.5</ele><time>2026-03-23T15:39:58.955Z</time></trkpt><trkpt lat="45.41279664648627" lon="8.007529458053174"><ele>269.0</ele><time>2026-03-23T15:39:59.955Z</time></trkpt><trkpt lat="45.41286566992313" lon="8.007478441128622"><ele>268.5</ele><time>2026-03-23T15:40:00.955Z</time></trkpt><trkpt lat="45.41293221001818" lon="8.007423974253834"><ele>268.0</ele><time>2026-03-23T15:40:01.955Z</time></trkpt><trkpt lat="45.41300329006503" lon="8.007368286355367"><ele>267.5</ele><time>2026-03-23T15:40:02.955Z</time></trkpt><trkpt lat="45.41307090793411" lon="8.007299938638521"><ele>267.0</ele><time>2026-03-23T15:40:03.955Z</time></trkpt><trkpt lat="45.413136332171646" lon="8.007242708879438"><ele>266.5</ele><time>2026-03-23T15:40:04.955Z</time></trkpt><trkpt lat="45.41319767426137" lon="8.007179391083444"><ele>266.0</ele><time>2026-03-23T15:40:05.955Z</time></trkpt><trkpt lat="45.41325991347493" lon="8.007104566917205"><ele>266.0</ele><time>2026-03-23T15:40:06.955Z</time></trkpt><trkpt lat="45.41331439004152" lon="8.007035348124019"><ele>266.0</ele><time>2026-03-23T15:40:07.955Z</time></trkpt><trkpt lat="45.41337763083144" lon="8.006960972497968"><ele>266.0</ele><time>2026-03-23T15:40:08.955Z</time></trkpt><trkpt lat="45.413446713690554" lon="8.006900558995412"><ele>266.0</ele><time>2026-03-23T15:40:09.955Z</time></trkpt><trkpt lat="45.41351326725599" lon="8.006825446265609"><ele>266.0</ele><time>2026-03-23T15:40:10.955Z</time></trkpt><trkpt lat="45.41358213913971" lon="8.006753934785133"><ele>266.0</ele><time>2026-03-23T15:40:11.955Z</time></trkpt><trkpt lat="45.41365503829526" lon="8.006686767430084"><ele>265.83333333333337</ele><time>2026-03-23T15:40:12.955Z</time></trkpt><trkpt lat="45.41372571439252" lon="8.00661741800438"><ele>265.6666666666667</ele><time>2026-03-23T15:40:13.955Z</time></trkpt><trkpt lat="45.41379132979495" lon="8.006542898079072"><ele>265.5</ele><time>2026-03-23T15:40:14.955Z</time></trkpt><trkpt lat="45.413855202512835" lon="8.00647114665585"><ele>265.3333333333333</ele><time>2026-03-23T15:40:15.955Z</time></trkpt><trkpt lat="45.41391285472564" lon="8.006403555112357"><ele>265.16666666666663</ele><time>2026-03-23T15:40:16.955Z</time></trkpt><trkpt lat="45.413967937825234" lon="8.0063359579779"><ele>265.0</ele><time>2026-03-23T15:40:17.955Z</time></trkpt><trkpt lat="45.41402105054046" lon="8.006270698055266"><ele>265.0</ele><time>2026-03-23T15:40:18.955Z</time></trkpt><trkpt lat="45.41412134397333" lon="8.006166707625077"><ele>265.0</ele><time>2026-03-23T15:40:20.955Z</time></trkpt><trkpt lat="45.41417760263492" lon="8.006119311189213"><ele>265.0</ele><time>2026-03-23T15:40:21.955Z</time></trkpt><trkpt lat="45.41423193354347" lon="8.006073261244664"><ele>265.0</ele><time>2026-03-23T15:40:22.955Z</time></trkpt><trkpt lat="45.414287612135084" lon="8.006012113368255"><ele>265.0</ele><time>2026-03-23T15:40:23.955Z</time></trkpt><trkpt lat="45.414347784884" lon="8.005955967475138"><ele>265.0</ele><time>2026-03-23T15:40:24.955Z</time></trkpt><trkpt lat="45.414412251895286" lon="8.005897259336649"><ele>264.85714285714283</ele><time>2026-03-23T15:40:25.955Z</time></trkpt><trkpt lat="45.41447259956003" lon="8.00582339474966"><ele>264.7142857142857</ele><time>2026-03-23T15:40:26.955Z</time></trkpt><trkpt lat="45.41452169579045" lon="8.005753458250638"><ele>264.57142857142856</ele><time>2026-03-23T15:40:27.955Z</time></trkpt><trkpt lat="45.41458513992975" lon="8.005678283070447"><ele>264.42857142857144</ele><time>2026-03-23T15:40:28.955Z</time></trkpt><trkpt lat="45.4146397350071" lon="8.005632590394608"><ele>264.2857142857143</ele><time>2026-03-23T15:40:29.955Z</time></trkpt><trkpt lat="45.41469340851745" lon="8.005583216825203"><ele>264.1428571428571</ele><time>2026-03-23T15:40:30.956Z</time></trkpt><trkpt lat="45.41475698763868" lon="8.005531469188405"><ele>264.0</ele><time>2026-03-23T15:40:31.956Z</time></trkpt><trkpt lat="45.41481066898866" lon="8.005470018565706"><ele>264.0</ele><time>2026-03-23T15:40:32.956Z</time></trkpt><trkpt lat="45.414856425136676" lon="8.005408162281277"><ele>264.0</ele><time>2026-03-23T15:40:33.956Z</time></trkpt><trkpt lat="45.41492719249701" lon="8.005325641555636"><ele>264.0</ele><time>2026-03-23T15:40:35.956Z</time></trkpt><trkpt lat="45.415013606836844" lon="8.005302472113986"><ele>264.0</ele><time>2026-03-23T15:40:38.956Z</time></trkpt><trkpt lat="45.41508519255369" lon="8.005203015284112"><ele>264.0</ele><time>2026-03-23T15:40:41.956Z</time></trkpt><trkpt lat="45.415109198334996" lon="8.005117318262291"><ele>264.0</ele><time>2026-03-23T15:40:44.956Z</time></trkpt><trkpt lat="45.41507692333376" lon="8.00502351171512"><ele>265.0</ele><time>2026-03-23T15:40:46.956Z</time></trkpt><trkpt lat="45.415092847807124" lon="8.004900339026628"><ele>266.0</ele><time>2026-03-23T15:40:48.956Z</time></trkpt><trkpt lat="45.41511887494756" lon="8.004777573602341"><ele>267.0</ele><time>2026-03-23T15:40:50.956Z</time></trkpt><trkpt lat="45.415130663179276" lon="8.00464993333843"><ele>268.0</ele><time>2026-03-23T15:40:52.956Z</time></trkpt><trkpt lat="45.41514828183174" lon="8.004503118000002"><ele>269.0</ele><time>2026-03-23T15:40:54.956Z</time></trkpt><trkpt lat="45.41517112200233" lon="8.004363043478419"><ele>269.0</ele><time>2026-03-23T15:40:56.956Z</time></trkpt><trkpt lat="45.41518492744573" lon="8.004238057644345"><ele>269.0</ele><time>2026-03-23T15:40:58.956Z</time></trkpt><trkpt lat="45.41519877070309" lon="8.004145367008332"><ele>269.0</ele><time>2026-03-23T15:40:59.956Z</time></trkpt><trkpt lat="45.4152155162785" lon="8.004045854226872"><ele>269.0</ele><time>2026-03-23T15:41:00.956Z</time></trkpt><trkpt lat="45.415236043277694" lon="8.003880957738739"><ele>269.0</ele><time>2026-03-23T15:41:02.956Z</time></trkpt><trkpt lat="45.41524155042953" lon="8.003787655053523"><ele>269.0</ele><time>2026-03-23T15:41:03.956Z</time></trkpt><trkpt lat="45.41525384306013" lon="8.003622301435787"><ele>269.2</ele><time>2026-03-23T15:41:05.956Z</time></trkpt><trkpt lat="45.41528711738724" lon="8.003490853765163"><ele>269.4</ele><time>2026-03-23T15:41:07.956Z</time></trkpt><trkpt lat="45.415296372888555" lon="8.003359621162579"><ele>269.6</ele><time>2026-03-23T15:41:09.956Z</time></trkpt><trkpt lat="45.415324537746365" lon="8.003182080921137"><ele>269.8</ele><time>2026-03-23T15:41:11.956Z</time></trkpt><trkpt lat="45.415348182733105" lon="8.003049090982886"><ele>270.0</ele><time>2026-03-23T15:41:13.956Z</time></trkpt><trkpt lat="45.41536641306581" lon="8.002916612546757"><ele>269.2857142857143</ele><time>2026-03-23T15:41:15.956Z</time></trkpt><trkpt lat="45.415379638951855" lon="8.002802725539786"><ele>268.57142857142856</ele><time>2026-03-23T15:41:17.956Z</time></trkpt><trkpt lat="45.415389136787994" lon="8.002698036025107"><ele>267.85714285714283</ele><time>2026-03-23T15:41:19.956Z</time></trkpt><trkpt lat="45.415417947801075" lon="8.002593551361928"><ele>267.1428571428571</ele><time>2026-03-23T15:41:22.956Z</time></trkpt><trkpt lat="45.415399479332336" lon="8.002684196848524"><ele>266.42857142857144</ele><time>2026-03-23T15:52:26.973Z</time></trkpt><trkpt lat="45.41539265105425" lon="8.002589172802107"><ele>265.71428571428567</ele><time>2026-03-23T16:15:59.992Z</time></trkpt><trkpt lat="45.415407014983096" lon="8.002500522031209"><ele>265.0</ele><time>2026-03-23T16:35:23.002Z</time></trkpt><trkpt lat="45.4154157834158" lon="8.002404799314553"><ele>264.3333333333333</ele><time>2026-03-23T16:35:27.002Z</time></trkpt><trkpt lat="45.41543175817057" lon="8.002313119984125"><ele>263.66666666666663</ele><time>2026-03-23T16:35:29.002Z</time></trkpt><trkpt lat="45.41545695569267" lon="8.002196392345855"><ele>263.0</ele><time>2026-03-23T16:35:31.002Z</time></trkpt><trkpt lat="45.415475700156726" lon="8.002048502927524"><ele>262.3333333333333</ele><time>2026-03-23T16:35:33.002Z</time></trkpt><trkpt lat="45.415484078478585" lon="8.001957618310286"><ele>261.6666666666667</ele><time>2026-03-23T16:35:34.002Z</time></trkpt><trkpt lat="45.41550055239333" lon="8.001799341821943"><ele>261.0</ele><time>2026-03-23T16:35:36.002Z</time></trkpt><trkpt lat="45.41551138183184" lon="8.00170181181686"><ele>259.6</ele><time>2026-03-23T16:35:37.002Z</time></trkpt><trkpt lat="45.41552475545968" lon="8.001542715348998"><ele>258.20000000000005</ele><time>2026-03-23T16:35:39.002Z</time></trkpt><trkpt lat="45.415547837273444" lon="8.001394010366015"><ele>256.79999999999995</ele><time>2026-03-23T16:35:41.002Z</time></trkpt><trkpt lat="45.4155770107857" lon="8.00125850567203"><ele>255.39999999999998</ele><time>2026-03-23T16:35:43.002Z</time></trkpt><trkpt lat="45.41559444754026" lon="8.001135485537711"><ele>254.0</ele><time>2026-03-23T16:35:45.002Z</time></trkpt><trkpt lat="45.41553224980668" lon="8.00105730323881"><ele>254.2</ele><time>2026-03-23T16:35:49.002Z</time></trkpt><trkpt lat="45.41545780863088" lon="8.001100357482418"><ele>254.39999999999998</ele><time>2026-03-23T16:35:51.002Z</time></trkpt><trkpt lat="45.41537549588931" lon="8.001160386335494"><ele>254.6</ele><time>2026-03-23T16:35:53.002Z</time></trkpt><trkpt lat="45.41528036311771" lon="8.001202355796787"><ele>254.8</ele><time>2026-03-23T16:35:55.002Z</time></trkpt><trkpt lat="45.41517701929206" lon="8.001246422178175"><ele>255.0</ele><time>2026-03-23T16:35:57.002Z</time></trkpt><trkpt lat="45.41508879307606" lon="8.001283547133633"><ele>255.0</ele><time>2026-03-23T16:35:59.002Z</time></trkpt><trkpt lat="45.41497531543472" lon="8.001338383762695"><ele>255.0</ele><time>2026-03-23T16:36:01.002Z</time></trkpt><trkpt lat="45.4148522650652" lon="8.001400259748108"><ele>255.0</ele><time>2026-03-23T16:36:03.001Z</time></trkpt><trkpt lat="45.414783287659006" lon="8.001427256534724"><ele>255.0</ele><time>2026-03-23T16:36:04.001Z</time></trkpt><trkpt lat="45.41471484327979" lon="8.00145435006565"><ele>255.0</ele><time>2026-03-23T16:36:05.001Z</time></trkpt><trkpt lat="45.41459533235112" lon="8.00140966167207"><ele>255.16666666666666</ele><time>2026-03-23T16:36:07.001Z</time></trkpt><trkpt lat="45.41455789156693" lon="8.001322554625125"><ele>255.33333333333331</ele><time>2026-03-23T16:36:08.001Z</time></trkpt><trkpt lat="45.41454312752081" lon="8.001215287696287"><ele>255.5</ele><time>2026-03-23T16:36:09.001Z</time></trkpt><trkpt lat="45.41454626980692" lon="8.001081140047992"><ele>255.66666666666666</ele><time>2026-03-23T16:36:10.001Z</time></trkpt><trkpt lat="45.41454244069944" lon="8.00096341801015"><ele>255.83333333333331</ele><time>2026-03-23T16:36:11.001Z</time></trkpt><trkpt lat="45.414531215892055" lon="8.00084557203822"><ele>256.0</ele><time>2026-03-23T16:36:12.001Z</time></trkpt><trkpt lat="45.414520649172474" lon="8.000737676060735"><ele>255.99999999999997</ele><time>2026-03-23T16:36:13.001Z</time></trkpt><trkpt lat="45.414514819803244" lon="8.00063698256144"><ele>256.0</ele><time>2026-03-23T16:36:14.001Z</time></trkpt><trkpt lat="45.41449708409964" lon="8.000457106671467"><ele>256.0</ele><time>2026-03-23T16:36:16.001Z</time></trkpt><trkpt lat="45.41448778748364" lon="8.000360022089097"><ele>256.0</ele><time>2026-03-23T16:36:17.001Z</time></trkpt><trkpt lat="45.41447973707587" lon="8.00025712645193"><ele>255.99999999999997</ele><time>2026-03-23T16:36:18.001Z</time></trkpt><trkpt lat="45.41447399255301" lon="8.000159714268165"><ele>256.0</ele><time>2026-03-23T16:36:19.001Z</time></trkpt><trkpt lat="45.41450553267014" lon="7.999979598086037"><ele>256.0</ele><time>2026-03-23T16:36:21.001Z</time></trkpt><trkpt lat="45.414561502726805" lon="7.999920122791522"><ele>256.0</ele><time>2026-03-23T16:36:22.001Z</time></trkpt><trkpt lat="45.414635980289525" lon="7.999801414267189"><ele>256.0</ele><time>2026-03-23T16:36:24.001Z</time></trkpt><trkpt lat="45.414710661341" lon="7.999690316211626"><ele>256.0</ele><time>2026-03-23T16:36:26.001Z</time></trkpt><trkpt lat="45.414788718507126" lon="7.999587330747494"><ele>256.0</ele><time>2026-03-23T16:36:28.001Z</time></trkpt><trkpt lat="45.414854571988485" lon="7.999504634891824"><ele>255.20000000000002</ele><time>2026-03-23T16:36:30.001Z</time></trkpt><trkpt lat="45.414930964620105" lon="7.999390440243816"><ele>254.40000000000003</ele><time>2026-03-23T16:36:32.001Z</time></trkpt><trkpt lat="45.41501126189938" lon="7.999273489327272"><ele>253.6</ele><time>2026-03-23T16:36:34.001Z</time></trkpt><trkpt lat="45.41506985350982" lon="7.999217609344554"><ele>252.8</ele><time>2026-03-23T16:36:35.001Z</time></trkpt><trkpt lat="45.415166482025384" lon="7.999101306660855"><ele>252.0</ele><time>2026-03-23T16:36:37.001Z</time></trkpt><trkpt lat="45.415217650457635" lon="7.99903106036084"><ele>252.0</ele><time>2026-03-23T16:36:38.001Z</time></trkpt><trkpt lat="45.41526901153379" lon="7.998956554073628"><ele>252.0</ele><time>2026-03-23T16:36:39.001Z</time></trkpt><trkpt lat="45.41532456372605" lon="7.998885429102052"><ele>252.0</ele><time>2026-03-23T16:36:40.001Z</time></trkpt><trkpt lat="45.41538956809367" lon="7.998813562360011"><ele>252.0</ele><time>2026-03-23T16:36:41.001Z</time></trkpt><trkpt lat="45.41544373475566" lon="7.998729278522026"><ele>252.0</ele><time>2026-03-23T16:36:42.001Z</time></trkpt><trkpt lat="45.41550515844004" lon="7.998659022859825"><ele>252.0</ele><time>2026-03-23T16:36:43.001Z</time></trkpt><trkpt lat="45.415573161879195" lon="7.998580215918009"><ele>251.39999999999998</ele><time>2026-03-23T16:36:44.001Z</time></trkpt><trkpt lat="45.41563509450159" lon="7.998487050142134"><ele>250.79999999999998</ele><time>2026-03-23T16:36:45.001Z</time></trkpt><trkpt lat="45.41570272137717" lon="7.99837230955529"><ele>250.2</ele><time>2026-03-23T16:36:46.001Z</time></trkpt><trkpt lat="45.41577100215695" lon="7.998259741060113"><ele>249.6</ele><time>2026-03-23T16:36:47.001Z</time></trkpt><trkpt lat="45.415847138738044" lon="7.998139848618961"><ele>249.0</ele><time>2026-03-23T16:36:48.001Z</time></trkpt><trkpt lat="45.415912352365694" lon="7.99800188938232"><ele>249.0</ele><time>2026-03-23T16:36:49.001Z</time></trkpt><trkpt lat="45.415948397794466" lon="7.997858823450444"><ele>249.0</ele><time>2026-03-23T16:36:50.001Z</time></trkpt><trkpt lat="45.4159718144083" lon="7.997716973210014"><ele>249.0</ele><time>2026-03-23T16:36:51.001Z</time></trkpt><trkpt lat="45.41599195511563" lon="7.997594898903301"><ele>249.0</ele><time>2026-03-23T16:36:52.001Z</time></trkpt><trkpt lat="45.41601410827124" lon="7.997488560303723"><ele>249.0</ele><time>2026-03-23T16:36:53.001Z</time></trkpt><trkpt lat="45.416030962436864" lon="7.997397164860557"><ele>249.0</ele><time>2026-03-23T16:36:54.001Z</time></trkpt><trkpt lat="45.416053326537174" lon="7.9972994968620705"><ele>248.66666666666666</ele><time>2026-03-23T16:36:55.001Z</time></trkpt><trkpt lat="45.41608463725176" lon="7.997187109876354"><ele>248.33333333333331</ele><time>2026-03-23T16:36:56.001Z</time></trkpt><trkpt lat="45.41611303157842" lon="7.997090886972015"><ele>248.0</ele><time>2026-03-23T16:36:57.001Z</time></trkpt><trkpt lat="45.41615454411112" lon="7.996991834260453"><ele>247.66666666666666</ele><time>2026-03-23T16:36:58.001Z</time></trkpt><trkpt lat="45.4162158541915" lon="7.996912878479028"><ele>247.33333333333331</ele><time>2026-03-23T16:36:59.001Z</time></trkpt><trkpt lat="45.41628465979549" lon="7.99682424064587"><ele>247.0</ele><time>2026-03-23T16:37:00.001Z</time></trkpt><trkpt lat="45.416344612553594" lon="7.996731200460955"><ele>246.33333333333331</ele><time>2026-03-23T16:37:01.001Z</time></trkpt><trkpt lat="45.41639598183283" lon="7.9966235503920595"><ele>245.66666666666666</ele><time>2026-03-23T16:37:02.001Z</time></trkpt><trkpt lat="45.41644292828125" lon="7.996528510836822"><ele>245.0</ele><time>2026-03-23T16:37:03.001Z</time></trkpt><trkpt lat="45.41648984562476" lon="7.996420287813911"><ele>244.33333333333331</ele><time>2026-03-23T16:37:04.001Z</time></trkpt><trkpt lat="45.41654548597478" lon="7.996322191860192"><ele>243.66666666666666</ele><time>2026-03-23T16:37:05.001Z</time></trkpt><trkpt lat="45.41657727120472" lon="7.996226006988109"><ele>243.0</ele><time>2026-03-23T16:37:06.001Z</time></trkpt><trkpt lat="45.41662100528595" lon="7.996124131524277"><ele>243.0</ele><time>2026-03-23T16:37:07.001Z</time></trkpt><trkpt lat="45.41665099547649" lon="7.996013155556459"><ele>243.0</ele><time>2026-03-23T16:37:08.001Z</time></trkpt><trkpt lat="45.41670011415027" lon="7.995902824310872"><ele>243.0</ele><time>2026-03-23T16:37:09.001Z</time></trkpt><trkpt lat="45.41671302663369" lon="7.9958067143855995"><ele>243.0</ele><time>2026-03-23T16:37:10.001Z</time></trkpt><trkpt lat="45.41670967834077" lon="7.99567476171168"><ele>243.0</ele><time>2026-03-23T16:37:11.001Z</time></trkpt><trkpt lat="45.416719308875656" lon="7.995537028127982"><ele>243.0</ele><time>2026-03-23T16:37:12.001Z</time></trkpt><trkpt lat="45.41674128898353" lon="7.995390924923477"><ele>243.0</ele><time>2026-03-23T16:37:13.001Z</time></trkpt><trkpt lat="45.41676486921937" lon="7.995216179673451"><ele>243.0</ele><time>2026-03-23T16:37:14.001Z</time></trkpt><trkpt lat="45.41679045960787" lon="7.995039237555038"><ele>243.0</ele><time>2026-03-23T16:37:15.001Z</time></trkpt><trkpt lat="45.41683275574607" lon="7.994872953152251"><ele>243.0</ele><time>2026-03-23T16:37:16.001Z</time></trkpt><trkpt lat="45.416885581918535" lon="7.994728552430301"><ele>242.8</ele><time>2026-03-23T16:37:17.001Z</time></trkpt><trkpt lat="45.41693314423864" lon="7.994589143358813"><ele>242.60000000000002</ele><time>2026-03-23T16:37:18.001Z</time></trkpt><trkpt lat="45.41698438514463" lon="7.994465705803941"><ele>242.39999999999998</ele><time>2026-03-23T16:37:19.001Z</time></trkpt><trkpt lat="45.417037775722804" lon="7.994369165793208"><ele>242.2</ele><time>2026-03-23T16:37:20.001Z</time></trkpt><trkpt lat="45.417081438155094" lon="7.994267480938686"><ele>242.0</ele><time>2026-03-23T16:37:21.001Z</time></trkpt><trkpt lat="45.417119001785345" lon="7.994164787302667"><ele>241.39999999999998</ele><time>2026-03-23T16:37:22.001Z</time></trkpt><trkpt lat="45.4171595553031" lon="7.994042977530951"><ele>240.79999999999998</ele><time>2026-03-23T16:37:23.001Z</time></trkpt><trkpt lat="45.41720647900985" lon="7.993915816498174"><ele>240.2</ele><time>2026-03-23T16:37:24.001Z</time></trkpt><trkpt lat="45.41723947083894" lon="7.993779252250006"><ele>239.6</ele><time>2026-03-23T16:37:25.001Z</time></trkpt><trkpt lat="45.41726251879053" lon="7.993646442433524"><ele>239.0</ele><time>2026-03-23T16:37:26.001Z</time></trkpt><trkpt lat="45.4172750487598" lon="7.993532516119846"><ele>239.0</ele><time>2026-03-23T16:37:27.001Z</time></trkpt><trkpt lat="45.41728976747908" lon="7.993379725618414"><ele>238.99999999999997</ele><time>2026-03-23T16:37:29.001Z</time></trkpt><trkpt lat="45.417302396345214" lon="7.99327544264655"><ele>238.99999999999997</ele><time>2026-03-23T16:37:31.001Z</time></trkpt><trkpt lat="45.41726941607196" lon="7.993146654637024"><ele>239.0</ele><time>2026-03-23T16:37:35.001Z</time></trkpt><trkpt lat="45.41714991208106" lon="7.993088350768746"><ele>239.0</ele><time>2026-03-23T16:37:37.001Z</time></trkpt><trkpt lat="45.41705986435907" lon="7.993062016831387"><ele>239.39999999999998</ele><time>2026-03-23T16:37:38.001Z</time></trkpt><trkpt lat="45.41697528653756" lon="7.992974166328782"><ele>239.79999999999998</ele><time>2026-03-23T16:37:39.001Z</time></trkpt><trkpt lat="45.416883879409475" lon="7.992934223380283"><ele>240.20000000000002</ele><time>2026-03-23T16:37:40.001Z</time></trkpt><trkpt lat="45.4167851565926" lon="7.992890610609773"><ele>240.60000000000002</ele><time>2026-03-23T16:37:41.001Z</time></trkpt><trkpt lat="45.416685167725284" lon="7.992846438523574"><ele>241.0</ele><time>2026-03-23T16:37:42.001Z</time></trkpt><trkpt lat="45.416610132390936" lon="7.992785814578482"><ele>241.0</ele><time>2026-03-23T16:37:43.002Z</time></trkpt><trkpt lat="45.416517583705236" lon="7.992596363879243"><ele>241.00000000000003</ele><time>2026-03-23T16:37:45.002Z</time></trkpt><trkpt lat="45.416445600225316" lon="7.992532720952521"><ele>241.00000000000003</ele><time>2026-03-23T16:37:46.002Z</time></trkpt><trkpt lat="45.41636907944486" lon="7.992517364010528"><ele>241.0</ele><time>2026-03-23T16:37:47.002Z</time></trkpt><trkpt lat="45.416294217098496" lon="7.992510866468942"><ele>241.0</ele><time>2026-03-23T16:37:48.002Z</time></trkpt><trkpt lat="45.41622549287936" lon="7.99250169626862"><ele>241.20000000000002</ele><time>2026-03-23T16:37:49.002Z</time></trkpt><trkpt lat="45.416160539195815" lon="7.992480293784369"><ele>241.40000000000003</ele><time>2026-03-23T16:37:50.001Z</time></trkpt><trkpt lat="45.416067870942406" lon="7.992394123886275"><ele>241.6</ele><time>2026-03-23T16:37:52.001Z</time></trkpt><trkpt lat="45.41604007964181" lon="7.992247468386218"><ele>241.8</ele><time>2026-03-23T16:37:54.001Z</time></trkpt><trkpt lat="45.416138464776736" lon="7.992169668211696"><ele>242.0</ele><time>2026-03-23T16:37:56.001Z</time></trkpt><trkpt lat="45.41621097507884" lon="7.992158700103609"><ele>242.0</ele><time>2026-03-23T16:37:57.001Z</time></trkpt><trkpt lat="45.416290520443084" lon="7.99213119088397"><ele>242.0</ele><time>2026-03-23T16:37:58.001Z</time></trkpt><trkpt lat="45.416370327695866" lon="7.9920806708091945"><ele>242.0</ele><time>2026-03-23T16:37:59.001Z</time></trkpt><trkpt lat="45.41646225481065" lon="7.992041261590215"><ele>242.0</ele><time>2026-03-23T16:38:00.001Z</time></trkpt><trkpt lat="45.416554747842525" lon="7.992016696991473"><ele>242.0</ele><time>2026-03-23T16:38:01.001Z</time></trkpt><trkpt lat="45.416648011134725" lon="7.9920210758174175"><ele>241.2</ele><time>2026-03-23T16:38:02.001Z</time></trkpt><trkpt lat="45.41674413147705" lon="7.992059326320159"><ele>240.39999999999998</ele><time>2026-03-23T16:38:03.001Z</time></trkpt><trkpt lat="45.41683647647887" lon="7.99210227534458"><ele>239.60000000000002</ele><time>2026-03-23T16:38:04.001Z</time></trkpt><trkpt lat="45.41693910068068" lon="7.992142337537783"><ele>238.8</ele><time>2026-03-23T16:38:05.001Z</time></trkpt><trkpt lat="45.41704053528657" lon="7.992179058960359"><ele>238.0</ele><time>2026-03-23T16:38:06.001Z</time></trkpt><trkpt lat="45.4171342084403" lon="7.992221252375541"><ele>237.66666666666666</ele><time>2026-03-23T16:38:07.001Z</time></trkpt><trkpt lat="45.41723220131379" lon="7.992240788016187"><ele>237.33333333333331</ele><time>2026-03-23T16:38:08.001Z</time></trkpt><trkpt lat="45.417316724883335" lon="7.992269585428288"><ele>237.0</ele><time>2026-03-23T16:38:09Z</time></trkpt><trkpt lat="45.417393699596715" lon="7.992310071563876"><ele>236.66666666666669</ele><time>2026-03-23T16:38:10Z</time></trkpt><trkpt lat="45.41746464879519" lon="7.992370236601546"><ele>236.33333333333334</ele><time>2026-03-23T16:38:11Z</time></trkpt><trkpt lat="45.41752790628908" lon="7.992466798890898"><ele>236.0</ele><time>2026-03-23T16:38:12Z</time></trkpt><trkpt lat="45.41757934358395" lon="7.99256435560026"><ele>236.00000000000003</ele><time>2026-03-23T16:38:13Z</time></trkpt><trkpt lat="45.41763658006562" lon="7.992658096761137"><ele>236.0</ele><time>2026-03-23T16:38:14Z</time></trkpt><trkpt lat="45.41770349713332" lon="7.9927236170772105"><ele>236.0</ele><time>2026-03-23T16:38:15Z</time></trkpt><trkpt lat="45.417779748541534" lon="7.992742559323783"><ele>236.0</ele><time>2026-03-23T16:38:16Z</time></trkpt><trkpt lat="45.417860483382185" lon="7.992723014146557"><ele>236.00000000000003</ele><time>2026-03-23T16:38:17Z</time></trkpt><trkpt lat="45.41793567974676" lon="7.992675116204527"><ele>236.0</ele><time>2026-03-23T16:38:18Z</time></trkpt><trkpt lat="45.4180152052741" lon="7.992636810904127"><ele>235.60000000000002</ele><time>2026-03-23T16:38:19Z</time></trkpt><trkpt lat="45.418097247599356" lon="7.992628875669082"><ele>235.20000000000002</ele><time>2026-03-23T16:38:20Z</time></trkpt><trkpt lat="45.418214763744835" lon="7.9925945761317445"><ele>234.79999999999998</ele><time>2026-03-23T16:38:22Z</time></trkpt><trkpt lat="45.418225043063245" lon="7.992409934999055"><ele>234.39999999999998</ele><time>2026-03-23T16:38:23Z</time></trkpt><trkpt lat="45.41825520140263" lon="7.99230118210367"><ele>234.0</ele><time>2026-03-23T16:38:24Z</time></trkpt><trkpt lat="45.41828067290908" lon="7.992209329799553"><ele>233.5</ele><time>2026-03-23T16:38:25Z</time></trkpt><trkpt lat="45.418419873230576" lon="7.992159430819333"><ele>233.0</ele><time>2026-03-23T16:38:26Z</time></trkpt><trkpt lat="45.418529357456606" lon="7.992107908916331"><ele>232.5</ele><time>2026-03-23T16:38:27Z</time></trkpt><trkpt lat="45.41861968180113" lon="7.992061937972308"><ele>232.0</ele><time>2026-03-23T16:38:28Z</time></trkpt><trkpt lat="45.41872106022245" lon="7.9920100206471325"><ele>233.2</ele><time>2026-03-23T16:38:29Z</time></trkpt><trkpt lat="45.41882613612151" lon="7.991956209783308"><ele>234.39999999999998</ele><time>2026-03-23T16:38:30Z</time></trkpt><trkpt lat="45.41891867802496" lon="7.991889727662799"><ele>235.60000000000002</ele><time>2026-03-23T16:38:31Z</time></trkpt><trkpt lat="45.41902143462511" lon="7.991860559637323"><ele>236.8</ele><time>2026-03-23T16:38:32Z</time></trkpt><trkpt lat="45.41911161206417" lon="7.991881984038208"><ele>238.0</ele><time>2026-03-23T16:38:33Z</time></trkpt><trkpt lat="45.41918480670297" lon="7.991936065610904"><ele>238.0</ele><time>2026-03-23T16:38:34Z</time></trkpt><trkpt lat="45.41927062074992" lon="7.991977563434639"><ele>238.0</ele><time>2026-03-23T16:38:35Z</time></trkpt><trkpt lat="45.41933840791879" lon="7.9920820454063906"><ele>238.0</ele><time>2026-03-23T16:38:36Z</time></trkpt><trkpt lat="45.419447842701985" lon="7.992139594431496"><ele>238.0</ele><time>2026-03-23T16:38:37Z</time></trkpt><trkpt lat="45.41953584104695" lon="7.9922245292699134"><ele>238.0</ele><time>2026-03-23T16:38:38Z</time></trkpt><trkpt lat="45.41962705480228" lon="7.992296108806114"><ele>239.0</ele><time>2026-03-23T16:38:39Z</time></trkpt><trkpt lat="45.41970635316089" lon="7.992356213851824"><ele>240.0</ele><time>2026-03-23T16:38:40Z</time></trkpt><trkpt lat="45.4197752631161" lon="7.992412396152602"><ele>241.0</ele><time>2026-03-23T16:38:41Z</time></trkpt><trkpt lat="45.41985867979021" lon="7.992470057647223"><ele>242.0</ele><time>2026-03-23T16:38:43Z</time></trkpt><trkpt lat="45.41993644793481" lon="7.9922761945474505"><ele>243.0</ele><time>2026-03-23T16:38:45Z</time></trkpt><trkpt lat="45.41995673248209" lon="7.992178188617051"><ele>243.0</ele><time>2026-03-23T16:38:46Z</time></trkpt><trkpt lat="45.41999884684487" lon="7.992078479738073"><ele>243.0</ele><time>2026-03-23T16:38:47Z</time></trkpt><trkpt lat="45.420030333804775" lon="7.991949245879247"><ele>243.0</ele><time>2026-03-23T16:38:48Z</time></trkpt><trkpt lat="45.42004612288211" lon="7.991805968780175"><ele>243.0</ele><time>2026-03-23T16:38:49Z</time></trkpt><trkpt lat="45.420095858532065" lon="7.991676700746552"><ele>243.0</ele><time>2026-03-23T16:38:50Z</time></trkpt><trkpt lat="45.42013282594393" lon="7.991514261061469"><ele>242.25</ele><time>2026-03-23T16:38:51Z</time></trkpt><trkpt lat="45.420151654303254" lon="7.99136127006871"><ele>241.5</ele><time>2026-03-23T16:38:52Z</time></trkpt><trkpt lat="45.420144101205075" lon="7.991199030116408"><ele>240.75</ele><time>2026-03-23T16:38:53Z</time></trkpt><trkpt lat="45.420153707226724" lon="7.99102244083268"><ele>240.0</ele><time>2026-03-23T16:38:54Z</time></trkpt><trkpt lat="45.42015972555736" lon="7.990838974939803"><ele>239.5</ele><time>2026-03-23T16:38:55Z</time></trkpt><trkpt lat="45.4201839354299" lon="7.990653211970524"><ele>239.0</ele><time>2026-03-23T16:38:56Z</time></trkpt><trkpt lat="45.42019114727314" lon="7.990472943655114"><ele>238.5</ele><time>2026-03-23T16:38:57Z</time></trkpt><trkpt lat="45.42020690340434" lon="7.990289600908567"><ele>238.0</ele><time>2026-03-23T16:38:58Z</time></trkpt><trkpt lat="45.42021405569351" lon="7.990123841054426"><ele>238.0</ele><time>2026-03-23T16:38:59Z</time></trkpt><trkpt lat="45.42022593502029" lon="7.989956520055866"><ele>238.0</ele><time>2026-03-23T16:39:00Z</time></trkpt><trkpt lat="45.42024983100631" lon="7.9897829388456065"><ele>238.0</ele><time>2026-03-23T16:39:01Z</time></trkpt><trkpt lat="45.42030696779826" lon="7.9896240770232225"><ele>238.0</ele><time>2026-03-23T16:39:02Z</time></trkpt><trkpt lat="45.42033795464873" lon="7.989457000382704"><ele>238.0</ele><time>2026-03-23T16:39:03Z</time></trkpt><trkpt lat="45.420388894807026" lon="7.989300459959434"><ele>238.0</ele><time>2026-03-23T16:39:04Z</time></trkpt><trkpt lat="45.42043926252366" lon="7.989143677242694"><ele>238.0</ele><time>2026-03-23T16:39:05Z</time></trkpt><trkpt lat="45.42048065042208" lon="7.989002103416534"><ele>238.0</ele><time>2026-03-23T16:39:06Z</time></trkpt><trkpt lat="45.420527424626975" lon="7.988875860095001"><ele>237.8</ele><time>2026-03-23T16:39:07Z</time></trkpt><trkpt lat="45.42056907285655" lon="7.988739292891071"><ele>237.60000000000002</ele><time>2026-03-23T16:39:08Z</time></trkpt><trkpt lat="45.42061051067816" lon="7.98861195439399"><ele>237.39999999999998</ele><time>2026-03-23T16:39:09Z</time></trkpt><trkpt lat="45.42069255641547" lon="7.988563149587217"><ele>237.2</ele><time>2026-03-23T16:39:10Z</time></trkpt><trkpt lat="45.42079734219115" lon="7.988585008764892"><ele>237.0</ele><time>2026-03-23T16:39:11Z</time></trkpt><trkpt lat="45.42090427438593" lon="7.988559032345065"><ele>237.0</ele><time>2026-03-23T16:39:12Z</time></trkpt><trkpt lat="45.42101406867491" lon="7.988526821237151"><ele>237.0</ele><time>2026-03-23T16:39:13.001Z</time></trkpt><trkpt lat="45.42112063151976" lon="7.988486313640798"><ele>237.0</ele><time>2026-03-23T16:39:14.001Z</time></trkpt><trkpt lat="45.42122965847952" lon="7.988453149971811"><ele>237.0</ele><time>2026-03-23T16:39:15.001Z</time></trkpt><trkpt lat="45.421345626040676" lon="7.988418031356614"><ele>237.0</ele><time>2026-03-23T16:39:16.001Z</time></trkpt><trkpt lat="45.42145672005265" lon="7.988373379949581"><ele>237.0</ele><time>2026-03-23T16:39:17.001Z</time></trkpt><trkpt lat="45.42157885495344" lon="7.98835115483716"><ele>237.0</ele><time>2026-03-23T16:39:18.001Z</time></trkpt><trkpt lat="45.42167506880748" lon="7.988308624425586"><ele>237.0</ele><time>2026-03-23T16:39:19.001Z</time></trkpt><trkpt lat="45.4217547210059" lon="7.988285920261179"><ele>237.0</ele><time>2026-03-23T16:39:20.001Z</time></trkpt><trkpt lat="45.42184613141552" lon="7.9882429679617015"><ele>237.8</ele><time>2026-03-23T16:39:22.001Z</time></trkpt><trkpt lat="45.421823096049" lon="7.98808006002163"><ele>238.6</ele><time>2026-03-23T16:39:25.001Z</time></trkpt><trkpt lat="45.42178602771761" lon="7.987997159307448"><ele>239.40000000000003</ele><time>2026-03-23T16:39:26.001Z</time></trkpt><trkpt lat="45.42175051852556" lon="7.9878584084919"><ele>240.20000000000002</ele><time>2026-03-23T16:39:27.001Z</time></trkpt><trkpt lat="45.42171094616403" lon="7.987719186086802"><ele>241.0</ele><time>2026-03-23T16:39:28.001Z</time></trkpt><trkpt lat="45.42167765377285" lon="7.987596547607664"><ele>241.16666666666666</ele><time>2026-03-23T16:39:29.001Z</time></trkpt><trkpt lat="45.42163443767234" lon="7.987496823635256"><ele>241.33333333333331</ele><time>2026-03-23T16:39:30.001Z</time></trkpt><trkpt lat="45.42158767712576" lon="7.987427186019155"><ele>241.5</ele><time>2026-03-23T16:39:31.001Z</time></trkpt><trkpt lat="45.421516140808905" lon="7.987372848674082"><ele>241.66666666666669</ele><time>2026-03-23T16:39:32.001Z</time></trkpt><trkpt lat="45.42143122421588" lon="7.987318810633205"><ele>241.83333333333334</ele><time>2026-03-23T16:39:33.001Z</time></trkpt><trkpt lat="45.42138439240958" lon="7.987246919850121"><ele>242.0</ele><time>2026-03-23T16:39:34.001Z</time></trkpt><trkpt lat="45.42132680988816" lon="7.987135118330968"><ele>242.00000000000003</ele><time>2026-03-23T16:39:36.001Z</time></trkpt><trkpt lat="45.42138109321273" lon="7.986967441663548"><ele>242.0</ele><time>2026-03-23T16:39:38.001Z</time></trkpt><trkpt lat="45.42139241428907" lon="7.986873736071333"><ele>242.0</ele><time>2026-03-23T16:39:39.001Z</time></trkpt><trkpt lat="45.42140429700787" lon="7.986770653465906"><ele>242.0</ele><time>2026-03-23T16:39:40.001Z</time></trkpt><trkpt lat="45.42140993618732" lon="7.986628605026557"><ele>242.00000000000003</ele><time>2026-03-23T16:39:42.001Z</time></trkpt><trkpt lat="45.42144388201327" lon="7.986548447058584"><ele>242.0</ele><time>2026-03-23T16:39:44.001Z</time></trkpt><trkpt lat="45.42153984072126" lon="7.986587384560106"><ele>241.8</ele><time>2026-03-23T16:39:46.001Z</time></trkpt><trkpt lat="45.42164268476422" lon="7.986573269079688"><ele>241.6</ele><time>2026-03-23T16:39:48.001Z</time></trkpt><trkpt lat="45.42169054760016" lon="7.9864747937950495"><ele>241.40000000000003</ele><time>2026-03-23T16:39:50.001Z</time></trkpt><trkpt lat="45.42170685699058" lon="7.986309000626692"><ele>241.20000000000002</ele><time>2026-03-23T16:39:52.001Z</time></trkpt><trkpt lat="45.42172644956222" lon="7.986129876888486"><ele>241.0</ele><time>2026-03-23T16:39:54.001Z</time></trkpt><trkpt lat="45.421736997085716" lon="7.986021122059659"><ele>240.99999999999997</ele><time>2026-03-23T16:39:55.001Z</time></trkpt><trkpt lat="45.42175945291849" lon="7.985913287780671"><ele>241.0</ele><time>2026-03-23T16:39:56.001Z</time></trkpt><trkpt lat="45.42177104381995" lon="7.985804166903237"><ele>241.0</ele><time>2026-03-23T16:39:57.001Z</time></trkpt><trkpt lat="45.42179170647199" lon="7.985719054426346"><ele>241.0</ele><time>2026-03-23T16:39:58.001Z</time></trkpt><trkpt lat="45.42183400027069" lon="7.985611797029129"><ele>240.99999999999997</ele><time>2026-03-23T16:40:00.001Z</time></trkpt><trkpt lat="45.42190859873332" lon="7.9855385547393665"><ele>241.0</ele><time>2026-03-23T16:40:04.001Z</time></trkpt><trkpt lat="45.42202854418387" lon="7.9855595247756685"><ele>240.5</ele><time>2026-03-23T16:40:06.001Z</time></trkpt><trkpt lat="45.42214215755587" lon="7.985574817598844"><ele>240.0</ele><time>2026-03-23T16:40:07.001Z</time></trkpt><trkpt lat="45.42226978226513" lon="7.985606780706902"><ele>239.5</ele><time>2026-03-23T16:40:08.001Z</time></trkpt><trkpt lat="45.422392318417714" lon="7.985647111592287"><ele>239.0</ele><time>2026-03-23T16:40:09.001Z</time></trkpt><trkpt lat="45.42251503794046" lon="7.9857026930164094"><ele>240.0</ele><time>2026-03-23T16:40:10.001Z</time></trkpt><trkpt lat="45.422633524883004" lon="7.985744870773204"><ele>240.99999999999997</ele><time>2026-03-23T16:40:11.001Z</time></trkpt><trkpt lat="45.42272872639742" lon="7.9857841226168995"><ele>241.99999999999997</ele><time>2026-03-23T16:40:12.001Z</time></trkpt><trkpt lat="45.42279765130784" lon="7.985835846227103"><ele>243.0</ele><time>2026-03-23T16:40:13.001Z</time></trkpt><trkpt lat="45.42287927435689" lon="7.985900287803129"><ele>244.0</ele><time>2026-03-23T16:40:15Z</time></trkpt><trkpt lat="45.423033221079685" lon="7.985656507087597"><ele>244.6</ele><time>2026-03-23T16:40:18Z</time></trkpt><trkpt lat="45.42308135059037" lon="7.985516469772669"><ele>245.2</ele><time>2026-03-23T16:40:19Z</time></trkpt><trkpt lat="45.423112075656924" lon="7.985358584437881"><ele>245.79999999999998</ele><time>2026-03-23T16:40:20Z</time></trkpt><trkpt lat="45.423163226842576" lon="7.9852065620915775"><ele>246.39999999999998</ele><time>2026-03-23T16:40:21Z</time></trkpt><trkpt lat="45.423186236564156" lon="7.985073069988912"><ele>247.0</ele><time>2026-03-23T16:40:22Z</time></trkpt><trkpt lat="45.423221865781464" lon="7.98495972454395"><ele>247.16666666666666</ele><time>2026-03-23T16:40:23Z</time></trkpt><trkpt lat="45.42326725808744" lon="7.984869848929992"><ele>247.33333333333331</ele><time>2026-03-23T16:40:24Z</time></trkpt><trkpt lat="45.423300462433104" lon="7.984766992280053"><ele>247.5</ele><time>2026-03-23T16:40:25Z</time></trkpt><trkpt lat="45.42334932985602" lon="7.984685259971255"><ele>247.66666666666669</ele><time>2026-03-23T16:40:26Z</time></trkpt><trkpt lat="45.42344683303896" lon="7.984717718999491"><ele>247.83333333333334</ele><time>2026-03-23T16:40:30Z</time></trkpt><trkpt lat="45.42349253262059" lon="7.984644527923854"><ele>248.0</ele><time>2026-03-23T16:40:31Z</time></trkpt><trkpt lat="45.42355222602511" lon="7.984522686865692"><ele>248.0</ele><time>2026-03-23T16:40:32Z</time></trkpt><trkpt lat="45.4236384757954" lon="7.9844080610723065"><ele>248.0</ele><time>2026-03-23T16:40:33Z</time></trkpt><trkpt lat="45.42371316695538" lon="7.984291114241621"><ele>248.0</ele><time>2026-03-23T16:40:34Z</time></trkpt><trkpt lat="45.423791714969994" lon="7.984177187276119"><ele>248.0</ele><time>2026-03-23T16:40:35Z</time></trkpt><trkpt lat="45.42386923099671" lon="7.984066781126602"><ele>248.2</ele><time>2026-03-23T16:40:36Z</time></trkpt><trkpt lat="45.42394304646528" lon="7.9839806157511415"><ele>248.4</ele><time>2026-03-23T16:40:37Z</time></trkpt><trkpt lat="45.42401546767731" lon="7.983889491891115"><ele>248.59999999999997</ele><time>2026-03-23T16:40:38Z</time></trkpt><trkpt lat="45.42408897582017" lon="7.983770443267515"><ele>248.79999999999998</ele><time>2026-03-23T16:40:39Z</time></trkpt><trkpt lat="45.42411659536097" lon="7.98359122729561"><ele>249.0</ele><time>2026-03-23T16:40:40Z</time></trkpt><trkpt lat="45.42416318737638" lon="7.983431502999274"><ele>248.25</ele><time>2026-03-23T16:40:41Z</time></trkpt><trkpt lat="45.424218122842" lon="7.98329683548591"><ele>247.5</ele><time>2026-03-23T16:40:42Z</time></trkpt><trkpt lat="45.42430848751284" lon="7.983176942499328"><ele>246.75</ele><time>2026-03-23T16:40:43Z</time></trkpt><trkpt lat="45.42440321004667" lon="7.983056260682066"><ele>246.0</ele><time>2026-03-23T16:40:44Z</time></trkpt><trkpt lat="45.42450583322096" lon="7.982939579203581"><ele>246.0</ele><time>2026-03-23T16:40:45Z</time></trkpt><trkpt lat="45.42462034179284" lon="7.982827177186334"><ele>246.0</ele><time>2026-03-23T16:40:46Z</time></trkpt><trkpt lat="45.4247435729339" lon="7.982723633656952"><ele>246.0</ele><time>2026-03-23T16:40:47Z</time></trkpt><trkpt lat="45.424865263707375" lon="7.982627180857651"><ele>246.0</ele><time>2026-03-23T16:40:48Z</time></trkpt><trkpt lat="45.42498593168962" lon="7.9825376970730995"><ele>246.5</ele><time>2026-03-23T16:40:49Z</time></trkpt><trkpt lat="45.42510089431483" lon="7.982455663065708"><ele>247.0</ele><time>2026-03-23T16:40:50Z</time></trkpt><trkpt lat="45.42520540647414" lon="7.98238169295944"><ele>247.5</ele><time>2026-03-23T16:40:51Z</time></trkpt><trkpt lat="45.42530429092931" lon="7.9823185611503895"><ele>248.0</ele><time>2026-03-23T16:40:52Z</time></trkpt><trkpt lat="45.425411886980484" lon="7.982273670860495"><ele>249.4</ele><time>2026-03-23T16:40:53Z</time></trkpt><trkpt lat="45.425513578028074" lon="7.982253345942458"><ele>250.8</ele><time>2026-03-23T16:40:54Z</time></trkpt><trkpt lat="45.42561901668396" lon="7.98221447860633"><ele>252.2</ele><time>2026-03-23T16:40:55Z</time></trkpt><trkpt lat="45.42571757589239" lon="7.982173609387173"><ele>253.6</ele><time>2026-03-23T16:40:56Z</time></trkpt><trkpt lat="45.42581196312409" lon="7.982134253578679"><ele>255.0</ele><time>2026-03-23T16:40:57Z</time></trkpt><trkpt lat="45.42589936412265" lon="7.982125323953537"><ele>255.0</ele><time>2026-03-23T16:40:58Z</time></trkpt><trkpt lat="45.4259739309104" lon="7.982169986561073"><ele>255.0</ele><time>2026-03-23T16:40:59Z</time></trkpt><trkpt lat="45.426032485774094" lon="7.982238783888891"><ele>255.0</ele><time>2026-03-23T16:41:00Z</time></trkpt><trkpt lat="45.426056413038864" lon="7.982380943306859"><ele>255.0</ele><time>2026-03-23T16:41:01Z</time></trkpt><trkpt lat="45.426074468597186" lon="7.982508303819058"><ele>255.0</ele><time>2026-03-23T16:41:02Z</time></trkpt><trkpt lat="45.42609369876141" lon="7.982657218436076"><ele>255.6</ele><time>2026-03-23T16:41:03Z</time></trkpt><trkpt lat="45.42611287995973" lon="7.982769452450114"><ele>256.2</ele><time>2026-03-23T16:41:04Z</time></trkpt><trkpt lat="45.426140810291635" lon="7.982891310035247"><ele>256.8</ele><time>2026-03-23T16:41:06Z</time></trkpt><trkpt lat="45.42628329137629" lon="7.98286686181473"><ele>257.4</ele><time>2026-03-23T16:41:09Z</time></trkpt><trkpt lat="45.42632243492615" lon="7.9827347528880015"><ele>258.0</ele><time>2026-03-23T16:41:11Z</time></trkpt><trkpt lat="45.4263184526976" lon="7.982642906215255"><ele>259.2</ele><time>2026-03-23T16:41:12Z</time></trkpt><trkpt lat="45.42633208732966" lon="7.982463664067248"><ele>260.4</ele><time>2026-03-23T16:41:14Z</time></trkpt><trkpt lat="45.426336670049054" lon="7.9823685545859355"><ele>261.59999999999997</ele><time>2026-03-23T16:41:15Z</time></trkpt><trkpt lat="45.42634704656208" lon="7.982270446785314"><ele>262.8</ele><time>2026-03-23T16:41:16Z</time></trkpt><trkpt lat="45.42637699390894" lon="7.982122386617777"><ele>264.0</ele><time>2026-03-23T16:41:18Z</time></trkpt><trkpt lat="45.42646575713454" lon="7.982112636316963"><ele>264.0</ele><time>2026-03-23T16:41:20Z</time></trkpt><trkpt lat="45.426515900558776" lon="7.982169625470565"><ele>264.0</ele><time>2026-03-23T16:41:21Z</time></trkpt><trkpt lat="45.42657111450674" lon="7.982215287370482"><ele>264.0</ele><time>2026-03-23T16:41:22Z</time></trkpt><trkpt lat="45.4266297879854" lon="7.982251669030636"><ele>264.0</ele><time>2026-03-23T16:41:23Z</time></trkpt><trkpt lat="45.42669986579828" lon="7.982288949396728"><ele>264.0</ele><time>2026-03-23T16:41:24Z</time></trkpt><trkpt lat="45.42676164127852" lon="7.982339071502165"><ele>264.0</ele><time>2026-03-23T16:41:25Z</time></trkpt><trkpt lat="45.426877141339105" lon="7.982440143039847"><ele>264.0</ele><time>2026-03-23T16:41:27Z</time></trkpt><trkpt lat="45.426938653815945" lon="7.982482921225147"><ele>264.0</ele><time>2026-03-23T16:41:28Z</time></trkpt><trkpt lat="45.4270091537016" lon="7.982511482415124"><ele>264.0</ele><time>2026-03-23T16:41:29Z</time></trkpt><trkpt lat="45.4270845449108" lon="7.982546255648955"><ele>264.0</ele><time>2026-03-23T16:41:30Z</time></trkpt><trkpt lat="45.42716191584644" lon="7.982587131379767"><ele>264.0</ele><time>2026-03-23T16:41:31Z</time></trkpt><trkpt lat="45.42722283771767" lon="7.982620999014531"><ele>264.0</ele><time>2026-03-23T16:41:32Z</time></trkpt><trkpt lat="45.42733518974348" lon="7.982617456061163"><ele>265.8333333333333</ele><time>2026-03-23T16:41:34Z</time></trkpt><trkpt lat="45.42740234854183" lon="7.982650611680019"><ele>267.6666666666667</ele><time>2026-03-23T16:41:36Z</time></trkpt><trkpt lat="45.42743545990894" lon="7.982756789160166"><ele>269.5</ele><time>2026-03-23T16:41:39Z</time></trkpt><trkpt lat="45.42755307349063" lon="7.982755601903224"><ele>271.33333333333337</ele><time>2026-03-23T16:41:41Z</time></trkpt><trkpt lat="45.427628636794914" lon="7.982754563077518"><ele>273.1666666666667</ele><time>2026-03-23T16:41:42Z</time></trkpt><trkpt lat="45.42770391036519" lon="7.982740625805927"><ele>275.0</ele><time>2026-03-23T16:41:43Z</time></trkpt><trkpt lat="45.427785067830236" lon="7.98274951260884"><ele>275.0</ele><time>2026-03-23T16:41:44Z</time></trkpt><trkpt lat="45.427864522318416" lon="7.982748469644585"><ele>275.0</ele><time>2026-03-23T16:41:45Z</time></trkpt><trkpt lat="45.42793542309836" lon="7.982754315687959"><ele>275.0</ele><time>2026-03-23T16:41:46Z</time></trkpt><trkpt lat="45.42805198550809" lon="7.982748231255143"><ele>275.0</ele><time>2026-03-23T16:41:48Z</time></trkpt><trkpt lat="45.42817443323759" lon="7.982734692084503"><ele>275.0</ele><time>2026-03-23T16:41:50Z</time></trkpt><trkpt lat="45.428275066597045" lon="7.982738918214694"><ele>274.0</ele><time>2026-03-23T16:41:51Z</time></trkpt><trkpt lat="45.42836362467093" lon="7.982726844518351"><ele>273.0</ele><time>2026-03-23T16:41:52Z</time></trkpt><trkpt lat="45.42842410869415" lon="7.982687330719104"><ele>272.0</ele><time>2026-03-23T16:41:53Z</time></trkpt><trkpt lat="45.42847610753586" lon="7.982605089662941"><ele>271.0</ele><time>2026-03-23T16:41:54Z</time></trkpt><trkpt lat="45.428520230612115" lon="7.982491364954298"><ele>270.0</ele><time>2026-03-23T16:41:55Z</time></trkpt><trkpt lat="45.428553819051" lon="7.982358451309513"><ele>269.0</ele><time>2026-03-23T16:41:56Z</time></trkpt><trkpt lat="45.42858579374627" lon="7.982224552804138"><ele>268.75</ele><time>2026-03-23T16:41:57Z</time></trkpt><trkpt lat="45.42863348014926" lon="7.982072224835652"><ele>268.5</ele><time>2026-03-23T16:41:58Z</time></trkpt><trkpt lat="45.428703362906134" lon="7.981938736719781"><ele>268.25</ele><time>2026-03-23T16:41:59Z</time></trkpt><trkpt lat="45.42879668623303" lon="7.981783978301334"><ele>268.0</ele><time>2026-03-23T16:42:00Z</time></trkpt><trkpt lat="45.428871009068466" lon="7.981648137009945"><ele>268.0</ele><time>2026-03-23T16:42:01Z</time></trkpt><trkpt lat="45.42891061198177" lon="7.981509366870697"><ele>268.0</ele><time>2026-03-23T16:42:02Z</time></trkpt><trkpt lat="45.42894894269235" lon="7.98135752170954"><ele>268.0</ele><time>2026-03-23T16:42:03Z</time></trkpt><trkpt lat="45.4289826171452" lon="7.981182848231118"><ele>268.0</ele><time>2026-03-23T16:42:04Z</time></trkpt><trkpt lat="45.429014377433596" lon="7.981018355753842"><ele>267.25</ele><time>2026-03-23T16:42:05Z</time></trkpt><trkpt lat="45.42905075051214" lon="7.980842798251587"><ele>266.5</ele><time>2026-03-23T16:42:06.001Z</time></trkpt><trkpt lat="45.4290888881159" lon="7.980662051478863"><ele>265.75</ele><time>2026-03-23T16:42:07.001Z</time></trkpt><trkpt lat="45.42913374258389" lon="7.980486906647614"><ele>265.0</ele><time>2026-03-23T16:42:08.001Z</time></trkpt><trkpt lat="45.42918660802962" lon="7.980324016966965"><ele>265.0</ele><time>2026-03-23T16:42:09.001Z</time></trkpt><trkpt lat="45.42923440281701" lon="7.980151446191674"><ele>265.0</ele><time>2026-03-23T16:42:10.001Z</time></trkpt><trkpt lat="45.42929899930625" lon="7.980000752628303"><ele>265.0</ele><time>2026-03-23T16:42:11.001Z</time></trkpt><trkpt lat="45.42935498360669" lon="7.9798391014603824"><ele>265.0</ele><time>2026-03-23T16:42:12.001Z</time></trkpt><trkpt lat="45.42940475494529" lon="7.979683351016332"><ele>265.25</ele><time>2026-03-23T16:42:13.001Z</time></trkpt><trkpt lat="45.429469761259874" lon="7.979543883879257"><ele>265.5</ele><time>2026-03-23T16:42:14.001Z</time></trkpt><trkpt lat="45.42953159017252" lon="7.97939599642575"><ele>265.75</ele><time>2026-03-23T16:42:15.001Z</time></trkpt><trkpt lat="45.42958981041413" lon="7.97923504400055"><ele>266.0</ele><time>2026-03-23T16:42:16.001Z</time></trkpt><trkpt lat="45.42963346908434" lon="7.979084342649906"><ele>268.75</ele><time>2026-03-23T16:42:17.001Z</time></trkpt><trkpt lat="45.42966564952428" lon="7.978913411872064"><ele>271.5</ele><time>2026-03-23T16:42:18.001Z</time></trkpt><trkpt lat="45.42968083480799" lon="7.978746482015354"><ele>274.25</ele><time>2026-03-23T16:42:19.001Z</time></trkpt><trkpt lat="45.429682738370836" lon="7.978569361465846"><ele>277.0</ele><time>2026-03-23T16:42:20Z</time></trkpt><trkpt lat="45.4297046404049" lon="7.978391175803314"><ele>275.75</ele><time>2026-03-23T16:42:21Z</time></trkpt><trkpt lat="45.42973613114862" lon="7.978220014444562"><ele>274.5</ele><time>2026-03-23T16:42:22Z</time></trkpt><trkpt lat="45.42975572991662" lon="7.978056218881016"><ele>273.25</ele><time>2026-03-23T16:42:23Z</time></trkpt><trkpt lat="45.429783150008426" lon="7.977904000303111"><ele>272.0</ele><time>2026-03-23T16:42:24Z</time></trkpt><trkpt lat="45.429815663544375" lon="7.977736704373804"><ele>272.0</ele><time>2026-03-23T16:42:25Z</time></trkpt><trkpt lat="45.429844176390915" lon="7.977571501332326"><ele>272.0</ele><time>2026-03-23T16:42:26Z</time></trkpt><trkpt lat="45.42987221544381" lon="7.977399385145537"><ele>272.0</ele><time>2026-03-23T16:42:27Z</time></trkpt><trkpt lat="45.42989414603311" lon="7.977229013708099"><ele>272.0</ele><time>2026-03-23T16:42:28Z</time></trkpt><trkpt lat="45.42991823561163" lon="7.977060662037288"><ele>270.75</ele><time>2026-03-23T16:42:29Z</time></trkpt><trkpt lat="45.42993164438879" lon="7.976868985943526"><ele>269.5</ele><time>2026-03-23T16:42:30Z</time></trkpt><trkpt lat="45.42995288750105" lon="7.976692534607284"><ele>268.25</ele><time>2026-03-23T16:42:31Z</time></trkpt><trkpt lat="45.429975727663326" lon="7.976517765911405"><ele>267.0</ele><time>2026-03-23T16:42:32Z</time></trkpt><trkpt lat="45.42999868692192" lon="7.976348162401725"><ele>266.8</ele><time>2026-03-23T16:42:33Z</time></trkpt><trkpt lat="45.430011362115636" lon="7.97618000757912"><ele>266.6</ele><time>2026-03-23T16:42:34Z</time></trkpt><trkpt lat="45.43001763258861" lon="7.976028914678053"><ele>266.40000000000003</ele><time>2026-03-23T16:42:35Z</time></trkpt><trkpt lat="45.43002501858789" lon="7.975874478175973"><ele>266.2</ele><time>2026-03-23T16:42:36Z</time></trkpt><trkpt lat="45.43003704954234" lon="7.975741423423709"><ele>266.0</ele><time>2026-03-23T16:42:37Z</time></trkpt><trkpt lat="45.430043690368116" lon="7.975608210801854"><ele>266.0</ele><time>2026-03-23T16:42:38Z</time></trkpt><trkpt lat="45.43007313751858" lon="7.975482457022875"><ele>266.0</ele><time>2026-03-23T16:42:39Z</time></trkpt><trkpt lat="45.43011308592804" lon="7.975312580351907"><ele>266.0</ele><time>2026-03-23T16:42:40Z</time></trkpt><trkpt lat="45.430144243022085" lon="7.9751329751948825"><ele>266.0</ele><time>2026-03-23T16:42:41Z</time></trkpt><trkpt lat="45.43018379897521" lon="7.974987078607741"><ele>266.33333333333337</ele><time>2026-03-23T16:42:42Z</time></trkpt><trkpt lat="45.430209188281616" lon="7.974875871825621"><ele>266.6666666666667</ele><time>2026-03-23T16:42:43Z</time></trkpt><trkpt lat="45.4302266781935" lon="7.974769021820627"><ele>267.0</ele><time>2026-03-23T16:42:44Z</time></trkpt><trkpt lat="45.4301859300056" lon="7.974664848339865"><ele>267.3333333333333</ele><time>2026-03-23T16:42:46Z</time></trkpt><trkpt lat="45.43005942234538" lon="7.974687734102635"><ele>267.66666666666663</ele><time>2026-03-23T16:42:48Z</time></trkpt><trkpt lat="45.429983094918214" lon="7.9747173032269805"><ele>268.0</ele><time>2026-03-23T16:42:49Z</time></trkpt><trkpt lat="45.429891763745275" lon="7.97475156156634"><ele>268.0</ele><time>2026-03-23T16:42:50Z</time></trkpt><trkpt lat="45.4298069372011" lon="7.974772610532239"><ele>268.0</ele><time>2026-03-23T16:42:51Z</time></trkpt><trkpt lat="45.42974329901687" lon="7.974781907300639"><ele>268.0</ele><time>2026-03-23T16:42:52Z</time></trkpt><trkpt lat="45.42967146819249" lon="7.974727060136632"><ele>268.0</ele><time>2026-03-23T16:42:54Z</time></trkpt><trkpt lat="45.429652086954604" lon="7.974640796284881"><ele>268.0</ele><time>2026-03-23T16:42:55Z</time></trkpt><trkpt lat="45.42961734146916" lon="7.9745506269876145"><ele>268.0</ele><time>2026-03-23T16:42:56Z</time></trkpt><trkpt lat="45.429569074986425" lon="7.974443239853901"><ele>268.5</ele><time>2026-03-23T16:42:57Z</time></trkpt><trkpt lat="45.42950276500544" lon="7.974322405633953"><ele>269.0</ele><time>2026-03-23T16:42:58Z</time></trkpt><trkpt lat="45.42944054067588" lon="7.9741958482634505"><ele>269.5</ele><time>2026-03-23T16:42:59Z</time></trkpt><trkpt lat="45.429386507188276" lon="7.974044739846847"><ele>270.0</ele><time>2026-03-23T16:43:00Z</time></trkpt><trkpt lat="45.429338943056635" lon="7.973876072538701"><ele>270.0</ele><time>2026-03-23T16:43:01Z</time></trkpt><trkpt lat="45.42926529659956" lon="7.973686026694744"><ele>270.0</ele><time>2026-03-23T16:43:02Z</time></trkpt><trkpt lat="45.42920294897467" lon="7.973507917427004"><ele>270.0</ele><time>2026-03-23T16:43:03Z</time></trkpt><trkpt lat="45.429147488450496" lon="7.97335812135187"><ele>270.0</ele><time>2026-03-23T16:43:04Z</time></trkpt><trkpt lat="45.42910057793789" lon="7.973240538330486"><ele>269.0</ele><time>2026-03-23T16:43:05Z</time></trkpt><trkpt lat="45.42905904942417" lon="7.973126038246922"><ele>268.0</ele><time>2026-03-23T16:43:06Z</time></trkpt><trkpt lat="45.429027802201915" lon="7.972990080533227"><ele>267.0</ele><time>2026-03-23T16:43:07Z</time></trkpt><trkpt lat="45.4290161742545" lon="7.972869168194735"><ele>266.0</ele><time>2026-03-23T16:43:08Z</time></trkpt><trkpt lat="45.42901742361147" lon="7.972744715662828"><ele>265.0</ele><time>2026-03-23T16:43:09Z</time></trkpt><trkpt lat="45.42903666191989" lon="7.972598400556822"><ele>264.6</ele><time>2026-03-23T16:43:10Z</time></trkpt><trkpt lat="45.42904544188547" lon="7.972447634751698"><ele>264.2</ele><time>2026-03-23T16:43:11Z</time></trkpt><trkpt lat="45.429047010111454" lon="7.972314559405758"><ele>263.8</ele><time>2026-03-23T16:43:12Z</time></trkpt><trkpt lat="45.429028400829125" lon="7.972146382204899"><ele>263.4</ele><time>2026-03-23T16:43:13Z</time></trkpt><trkpt lat="45.42901321076775" lon="7.9719685216670575"><ele>263.0</ele><time>2026-03-23T16:43:14Z</time></trkpt><trkpt lat="45.42900175905381" lon="7.971789573164768"><ele>263.25</ele><time>2026-03-23T16:43:15Z</time></trkpt><trkpt lat="45.42897259512194" lon="7.971607521294615"><ele>263.5</ele><time>2026-03-23T16:43:16Z</time></trkpt><trkpt lat="45.428950708058075" lon="7.971437483879272"><ele>263.75</ele><time>2026-03-23T16:43:17Z</time></trkpt><trkpt lat="45.42892158822955" lon="7.971280423964349"><ele>264.0</ele><time>2026-03-23T16:43:18Z</time></trkpt><trkpt lat="45.428894632566035" lon="7.97112954071674"><ele>264.0</ele><time>2026-03-23T16:43:19Z</time></trkpt><trkpt lat="45.42886863705341" lon="7.9709860384377995"><ele>264.0</ele><time>2026-03-23T16:43:20Z</time></trkpt><trkpt lat="45.42884916275313" lon="7.970847088253664"><ele>264.0</ele><time>2026-03-23T16:43:21Z</time></trkpt><trkpt lat="45.42883055675181" lon="7.970724509689176"><ele>264.0</ele><time>2026-03-23T16:43:22Z</time></trkpt><trkpt lat="45.42881032108259" lon="7.970599674436605"><ele>264.0</ele><time>2026-03-23T16:43:23Z</time></trkpt><trkpt lat="45.42878570820726" lon="7.970474717865931"><ele>262.6666666666667</ele><time>2026-03-23T16:43:24Z</time></trkpt><trkpt lat="45.42875561979309" lon="7.970369903577177"><ele>261.3333333333333</ele><time>2026-03-23T16:43:25Z</time></trkpt><trkpt lat="45.42872453484463" lon="7.970242091817854"><ele>260.0</ele><time>2026-03-23T16:43:26Z</time></trkpt><trkpt lat="45.42871794920413" lon="7.9701205947726255"><ele>258.66666666666663</ele><time>2026-03-23T16:43:27Z</time></trkpt><trkpt lat="45.42872854470246" lon="7.969997043153875"><ele>257.3333333333333</ele><time>2026-03-23T16:43:28Z</time></trkpt><trkpt lat="45.428759079378466" lon="7.9698681074719815"><ele>256.0</ele><time>2026-03-23T16:43:29Z</time></trkpt><trkpt lat="45.428784558415586" lon="7.96978069637733"><ele>255.83333333333331</ele><time>2026-03-23T16:43:30Z</time></trkpt><trkpt lat="45.42878415969014" lon="7.969677354202292"><ele>255.66666666666666</ele><time>2026-03-23T16:43:31Z</time></trkpt><trkpt lat="45.42875404988577" lon="7.96958869760174"><ele>255.5</ele><time>2026-03-23T16:43:33Z</time></trkpt><trkpt lat="45.42863214308404" lon="7.969587500287256"><ele>255.33333333333331</ele><time>2026-03-23T16:43:35Z</time></trkpt><trkpt lat="45.42856148972856" lon="7.969598618236586"><ele>255.16666666666666</ele><time>2026-03-23T16:43:36Z</time></trkpt><trkpt lat="45.42847130292377" lon="7.969618656082298"><ele>255.0</ele><time>2026-03-23T16:43:37Z</time></trkpt><trkpt lat="45.42837934010927" lon="7.969622962671809"><ele>255.0</ele><time>2026-03-23T16:43:38Z</time></trkpt><trkpt lat="45.428300298457756" lon="7.969591274740452"><ele>255.0</ele><time>2026-03-23T16:43:39Z</time></trkpt><trkpt lat="45.42822951359907" lon="7.969549491542271"><ele>255.0</ele><time>2026-03-23T16:43:40Z</time></trkpt><trkpt lat="45.42815517147386" lon="7.969498115943363"><ele>255.0</ele><time>2026-03-23T16:43:41Z</time></trkpt><trkpt lat="45.42809189375207" lon="7.969441485418719"><ele>255.0</ele><time>2026-03-23T16:43:42Z</time></trkpt><trkpt lat="45.42803948363089" lon="7.969370330111022"><ele>255.0</ele><time>2026-03-23T16:43:43Z</time></trkpt><trkpt lat="45.42799949801192" lon="7.9691739998416296"><ele>255.16666666666666</ele><time>2026-03-23T16:43:45Z</time></trkpt><trkpt lat="45.42798576268102" lon="7.969056900828947"><ele>255.33333333333331</ele><time>2026-03-23T16:43:46Z</time></trkpt><trkpt lat="45.42797637720289" lon="7.9689466584535325"><ele>255.5</ele><time>2026-03-23T16:43:47Z</time></trkpt><trkpt lat="45.42798048102332" lon="7.968843162838143"><ele>255.66666666666666</ele><time>2026-03-23T16:43:48Z</time></trkpt><trkpt lat="45.428004878114024" lon="7.968733487916512"><ele>255.83333333333331</ele><time>2026-03-23T16:43:49Z</time></trkpt><trkpt lat="45.42804166111082" lon="7.968608758076441"><ele>256.0</ele><time>2026-03-23T16:43:50Z</time></trkpt><trkpt lat="45.42808287661988" lon="7.968490047176857"><ele>255.99999999999997</ele><time>2026-03-23T16:43:51Z</time></trkpt><trkpt lat="45.42811029842691" lon="7.968379313600411"><ele>256.0</ele><time>2026-03-23T16:43:52Z</time></trkpt><trkpt lat="45.42812949501014" lon="7.968267639824314"><ele>256.0</ele><time>2026-03-23T16:43:53Z</time></trkpt><trkpt lat="45.42813739148679" lon="7.968140313775596"><ele>256.0</ele><time>2026-03-23T16:43:54Z</time></trkpt><trkpt lat="45.428123619013064" lon="7.968010480081884"><ele>255.99999999999997</ele><time>2026-03-23T16:43:55Z</time></trkpt><trkpt lat="45.42811275738956" lon="7.967895427260797"><ele>256.0</ele><time>2026-03-23T16:43:56Z</time></trkpt><trkpt lat="45.42808896424027" lon="7.9677883436307795"><ele>256.0</ele><time>2026-03-23T16:43:57Z</time></trkpt><trkpt lat="45.4280527113477" lon="7.967660670735856"><ele>256.0</ele><time>2026-03-23T16:43:58Z</time></trkpt><trkpt lat="45.428013026947156" lon="7.967545487782784"><ele>256.0</ele><time>2026-03-23T16:43:59Z</time></trkpt><trkpt lat="45.42798026003682" lon="7.967451625631773"><ele>256.0</ele><time>2026-03-23T16:44:00Z</time></trkpt><trkpt lat="45.42790175636063" lon="7.967318059426937"><ele>256.0</ele><time>2026-03-23T16:44:02Z</time></trkpt><trkpt lat="45.42781575926021" lon="7.967236839032063"><ele>254.20000000000002</ele><time>2026-03-23T16:44:04Z</time></trkpt><trkpt lat="45.427676734274606" lon="7.967202601999836"><ele>252.40000000000003</ele><time>2026-03-23T16:44:06Z</time></trkpt><trkpt lat="45.427586729155216" lon="7.967198609410159"><ele>250.6</ele><time>2026-03-23T16:44:07Z</time></trkpt><trkpt lat="45.427485772706" lon="7.967212649808348"><ele>248.8</ele><time>2026-03-23T16:44:08Z</time></trkpt><trkpt lat="45.4273853466037" lon="7.967241986321641"><ele>247.0</ele><time>2026-03-23T16:44:09Z</time></trkpt><trkpt lat="45.42729526353493" lon="7.967231399444092"><ele>246.99999999999997</ele><time>2026-03-23T16:44:10Z</time></trkpt><trkpt lat="45.427218145296244" lon="7.9672093231027485"><ele>247.0</ele><time>2026-03-23T16:44:11Z</time></trkpt><trkpt lat="45.42714035741824" lon="7.9671690055380315"><ele>247.0</ele><time>2026-03-23T16:44:12Z</time></trkpt><trkpt lat="45.42706175901883" lon="7.967108446034604"><ele>247.0</ele><time>2026-03-23T16:44:13Z</time></trkpt><trkpt lat="45.42699438670496" lon="7.967038433617072"><ele>246.99999999999997</ele><time>2026-03-23T16:44:14Z</time></trkpt><trkpt lat="45.42693435388433" lon="7.966971610143328"><ele>247.0</ele><time>2026-03-23T16:44:15Z</time></trkpt><trkpt lat="45.42686013515193" lon="7.9668928200505915"><ele>247.8</ele><time>2026-03-23T16:44:17Z</time></trkpt><trkpt lat="45.42691865241962" lon="7.966786190440071"><ele>248.6</ele><time>2026-03-23T16:44:20Z</time></trkpt><trkpt lat="45.4270243433696" lon="7.966719650174816"><ele>249.40000000000003</ele><time>2026-03-23T16:44:22Z</time></trkpt><trkpt lat="45.42710117537146" lon="7.966656184004883"><ele>250.20000000000002</ele><time>2026-03-23T16:44:23Z</time></trkpt><trkpt lat="45.42716672392158" lon="7.966592440219922"><ele>251.0</ele><time>2026-03-23T16:44:24Z</time></trkpt><trkpt lat="45.427226847845944" lon="7.966501100696709"><ele>251.00000000000003</ele><time>2026-03-23T16:44:25Z</time></trkpt><trkpt lat="45.42728327565869" lon="7.966397877634645"><ele>251.0</ele><time>2026-03-23T16:44:26Z</time></trkpt><trkpt lat="45.42733497514111" lon="7.966288838296016"><ele>251.0</ele><time>2026-03-23T16:44:27Z</time></trkpt><trkpt lat="45.427388793258515" lon="7.966173528340928"><ele>251.0</ele><time>2026-03-23T16:44:28Z</time></trkpt><trkpt lat="45.42743837276183" lon="7.966070223125422"><ele>251.00000000000003</ele><time>2026-03-23T16:44:29Z</time></trkpt><trkpt lat="45.42749241770801" lon="7.9659898834330525"><ele>251.0</ele><time>2026-03-23T16:44:30Z</time></trkpt><trkpt lat="45.4275572803134" lon="7.965920367898109"><ele>251.00000000000003</ele><time>2026-03-23T16:44:31Z</time></trkpt><trkpt lat="45.42762849771935" lon="7.9658709745461564"><ele>251.0</ele><time>2026-03-23T16:44:32Z</time></trkpt><trkpt lat="45.427705375334575" lon="7.965824410199337"><ele>251.0</ele><time>2026-03-23T16:44:33Z</time></trkpt><trkpt lat="45.427776141336565" lon="7.965801561770782"><ele>251.0</ele><time>2026-03-23T16:44:34Z</time></trkpt><trkpt lat="45.42784648999464" lon="7.965760170855629"><ele>251.00000000000003</ele><time>2026-03-23T16:44:35Z</time></trkpt><trkpt lat="45.427940412781" lon="7.965688724571576"><ele>251.0</ele><time>2026-03-23T16:44:36Z</time></trkpt><trkpt lat="45.42801275986917" lon="7.9656201651805585"><ele>252.20000000000002</ele><time>2026-03-23T16:44:37Z</time></trkpt><trkpt lat="45.428094483901226" lon="7.965535287328625"><ele>253.40000000000003</ele><time>2026-03-23T16:44:38Z</time></trkpt><trkpt lat="45.42818252795552" lon="7.965448207857"><ele>254.6</ele><time>2026-03-23T16:44:39Z</time></trkpt><trkpt lat="45.42825879092465" lon="7.965369177683694"><ele>255.8</ele><time>2026-03-23T16:44:40Z</time></trkpt><trkpt lat="45.428337920979956" lon="7.965278546418303"><ele>257.0</ele><time>2026-03-23T16:44:41Z</time></trkpt><trkpt lat="45.428407583121725" lon="7.965193151286527"><ele>257.0</ele><time>2026-03-23T16:44:42Z</time></trkpt><trkpt lat="45.42846957771631" lon="7.965111569114623"><ele>257.0</ele><time>2026-03-23T16:44:43Z</time></trkpt><trkpt lat="45.42853136954606" lon="7.965058404059042"><ele>257.0</ele><time>2026-03-23T16:44:44Z</time></trkpt><trkpt lat="45.42858567199806" lon="7.964976381225148"><ele>257.0</ele><time>2026-03-23T16:44:45Z</time></trkpt><trkpt lat="45.42865051201036" lon="7.964882760230194"><ele>257.0</ele><time>2026-03-23T16:44:46Z</time></trkpt><trkpt lat="45.42871350462686" lon="7.964734958903897"><ele>257.0</ele><time>2026-03-23T16:44:47Z</time></trkpt><trkpt lat="45.428775556966826" lon="7.964612456149432"><ele>257.5</ele><time>2026-03-23T16:44:48Z</time></trkpt><trkpt lat="45.42883220342729" lon="7.964509054999579"><ele>258.0</ele><time>2026-03-23T16:44:49Z</time></trkpt><trkpt lat="45.42888380910401" lon="7.964419495701813"><ele>258.5</ele><time>2026-03-23T16:44:50Z</time></trkpt><trkpt lat="45.42891839163903" lon="7.964339379601967"><ele>259.0</ele><time>2026-03-23T16:44:51Z</time></trkpt><trkpt lat="45.42896245359917" lon="7.964237877375953"><ele>259.5</ele><time>2026-03-23T16:44:52Z</time></trkpt><trkpt lat="45.42902526860876" lon="7.9641349265735295"><ele>260.0</ele><time>2026-03-23T16:44:53Z</time></trkpt><trkpt lat="45.42909131644041" lon="7.964063406157901"><ele>260.0</ele><time>2026-03-23T16:44:54Z</time></trkpt><trkpt lat="45.429158485434435" lon="7.964015543071066"><ele>260.0</ele><time>2026-03-23T16:44:55Z</time></trkpt><trkpt lat="45.429224995922276" lon="7.96396649621876"><ele>260.0</ele><time>2026-03-23T16:44:56Z</time></trkpt><trkpt lat="45.42927924184564" lon="7.9638983458106525"><ele>260.0</ele><time>2026-03-23T16:44:57Z</time></trkpt><trkpt lat="45.42932003653315" lon="7.963757217735339"><ele>260.0</ele><time>2026-03-23T16:44:59Z</time></trkpt><trkpt lat="45.42928345331079" lon="7.963683495421027"><ele>260.0</ele><time>2026-03-23T16:45:00Z</time></trkpt><trkpt lat="45.42922115909928" lon="7.963633623188794"><ele>260.0</ele><time>2026-03-23T16:45:01Z</time></trkpt><trkpt lat="45.42914000742626" lon="7.963580608718989"><ele>260.0</ele><time>2026-03-23T16:45:02Z</time></trkpt><trkpt lat="45.42906156528438" lon="7.963532000225063"><ele>260.0</ele><time>2026-03-23T16:45:03Z</time></trkpt><trkpt lat="45.428987356860105" lon="7.9634970245909935"><ele>260.0</ele><time>2026-03-23T16:45:04Z</time></trkpt><trkpt lat="45.428924912448515" lon="7.96346768294848"><ele>260.0</ele><time>2026-03-23T16:45:05Z</time></trkpt><trkpt lat="45.42886137789663" lon="7.963424154468118"><ele>260.0</ele><time>2026-03-23T16:45:06Z</time></trkpt><trkpt lat="45.42880237256879" lon="7.9633863054059875"><ele>257.6</ele><time>2026-03-23T16:45:07Z</time></trkpt><trkpt lat="45.42868820575203" lon="7.963319285260926"><ele>255.2</ele><time>2026-03-23T16:45:09Z</time></trkpt><trkpt lat="45.428603858479214" lon="7.9631994161226185"><ele>252.8</ele><time>2026-03-23T16:45:11Z</time></trkpt><trkpt lat="45.42854227870375" lon="7.963140039852482"><ele>250.4</ele><time>2026-03-23T16:45:12Z</time></trkpt><trkpt lat="45.42847351951365" lon="7.963090268575125"><ele>248.0</ele><time>2026-03-23T16:45:13Z</time></trkpt><trkpt lat="45.428412161881596" lon="7.9630398303067595"><ele>248.0</ele><time>2026-03-23T16:45:14Z</time></trkpt><trkpt lat="45.42834837257284" lon="7.963000172172651"><ele>248.0</ele><time>2026-03-23T16:45:15Z</time></trkpt><trkpt lat="45.42828641846535" lon="7.962954184391015"><ele>248.0</ele><time>2026-03-23T16:45:16Z</time></trkpt><trkpt lat="45.42822541271162" lon="7.9629076973460196"><ele>248.0</ele><time>2026-03-23T16:45:17Z</time></trkpt><trkpt lat="45.4281134539855" lon="7.962835928855443"><ele>248.0</ele><time>2026-03-23T16:45:19Z</time></trkpt><trkpt lat="45.428006418432034" lon="7.962764194853078"><ele>245.83333333333334</ele><time>2026-03-23T16:45:21Z</time></trkpt><trkpt lat="45.42791639760067" lon="7.962691026863002"><ele>243.66666666666669</ele><time>2026-03-23T16:45:23Z</time></trkpt><trkpt lat="45.42788853025968" lon="7.962576222049771"><ele>241.5</ele><time>2026-03-23T16:45:25Z</time></trkpt><trkpt lat="45.427906914875415" lon="7.962458149898741"><ele>239.33333333333331</ele><time>2026-03-23T16:45:27Z</time></trkpt><trkpt lat="45.42782021733257" lon="7.962419463541434"><ele>237.16666666666666</ele><time>2026-03-23T16:45:29Z</time></trkpt><trkpt lat="45.42775352580573" lon="7.962417984505843"><ele>235.0</ele><time>2026-03-23T16:45:30Z</time></trkpt><trkpt lat="45.42767825619745" lon="7.962399500120258"><ele>234.6</ele><time>2026-03-23T16:45:31Z</time></trkpt><trkpt lat="45.42759432224996" lon="7.962383923248298"><ele>234.2</ele><time>2026-03-23T16:45:32Z</time></trkpt><trkpt lat="45.42749983691567" lon="7.9623569878096285"><ele>233.8</ele><time>2026-03-23T16:45:33Z</time></trkpt><trkpt lat="45.42739666206269" lon="7.962328279663319"><ele>233.4</ele><time>2026-03-23T16:45:34Z</time></trkpt><trkpt lat="45.427293618092705" lon="7.962304006678453"><ele>233.0</ele><time>2026-03-23T16:45:35Z</time></trkpt><trkpt lat="45.42720376351416" lon="7.962277416162974"><ele>232.60000000000002</ele><time>2026-03-23T16:45:36Z</time></trkpt><trkpt lat="45.42710767375733" lon="7.962262656875881"><ele>232.20000000000002</ele><time>2026-03-23T16:45:37Z</time></trkpt><trkpt lat="45.427031463597466" lon="7.962242014419498"><ele>231.8</ele><time>2026-03-23T16:45:38Z</time></trkpt><trkpt lat="45.42696380400208" lon="7.962219646840281"><ele>231.4</ele><time>2026-03-23T16:45:39Z</time></trkpt><trkpt lat="45.4268583107521" lon="7.962197096749457"><ele>231.0</ele><time>2026-03-23T16:45:41Z</time></trkpt><trkpt lat="45.426819223931666" lon="7.962066141563429"><ele>231.0</ele><time>2026-03-23T16:45:43Z</time></trkpt><trkpt lat="45.42683661687628" lon="7.961974656359099"><ele>231.0</ele><time>2026-03-23T16:45:44Z</time></trkpt><trkpt lat="45.42686154715786" lon="7.961890622855797"><ele>231.0</ele><time>2026-03-23T16:45:45Z</time></trkpt><trkpt lat="45.42686730537349" lon="7.961785100137354"><ele>231.0</ele><time>2026-03-23T16:45:46Z</time></trkpt><trkpt lat="45.42687326829277" lon="7.961688280693342"><ele>231.0</ele><time>2026-03-23T16:45:47Z</time></trkpt><trkpt lat="45.42688843563285" lon="7.96154955925507"><ele>231.0</ele><time>2026-03-23T16:45:49Z</time></trkpt><trkpt lat="45.42686540009929" lon="7.9614257533461705"><ele>231.0</ele><time>2026-03-23T16:45:56Z</time></trkpt><trkpt lat="45.42696301933186" lon="7.961236242979079"><ele>231.0</ele><time>2026-03-23T16:45:58Z</time></trkpt><trkpt lat="45.427073377824414" lon="7.96111678767567"><ele>231.0</ele><time>2026-03-23T16:45:59Z</time></trkpt><trkpt lat="45.42715259272354" lon="7.960952437879109"><ele>231.0</ele><time>2026-03-23T16:46:00Z</time></trkpt><trkpt lat="45.427239236874165" lon="7.960803390716827"><ele>231.0</ele><time>2026-03-23T16:46:01Z</time></trkpt><trkpt lat="45.42734548338011" lon="7.960629302059809"><ele>231.0</ele><time>2026-03-23T16:46:02Z</time></trkpt><trkpt lat="45.42744962244375" lon="7.960475148249088"><ele>231.0</ele><time>2026-03-23T16:46:03Z</time></trkpt><trkpt lat="45.42754028632163" lon="7.960286581463773"><ele>231.0</ele><time>2026-03-23T16:46:04Z</time></trkpt><trkpt lat="45.42764171367492" lon="7.960114937245742"><ele>231.0</ele><time>2026-03-23T16:46:05Z</time></trkpt><trkpt lat="45.42774999097017" lon="7.959963705244737"><ele>231.0</ele><time>2026-03-23T16:46:06Z</time></trkpt><trkpt lat="45.427827177557106" lon="7.959797928612743"><ele>231.0</ele><time>2026-03-23T16:46:07Z</time></trkpt><trkpt lat="45.42792115746337" lon="7.959648127944194"><ele>231.0</ele><time>2026-03-23T16:46:08Z</time></trkpt><trkpt lat="45.42800649545395" lon="7.959508979767165"><ele>231.00000000000003</ele><time>2026-03-23T16:46:09Z</time></trkpt><trkpt lat="45.42807855925767" lon="7.959372027339061"><ele>231.00000000000003</ele><time>2026-03-23T16:46:10Z</time></trkpt><trkpt lat="45.4281569989353" lon="7.95927473266869"><ele>231.0</ele><time>2026-03-23T16:46:11Z</time></trkpt><trkpt lat="45.42821154928677" lon="7.9591823912552"><ele>231.0</ele><time>2026-03-23T16:46:12Z</time></trkpt><trkpt lat="45.42828125312138" lon="7.95906439819766"><ele>231.0</ele><time>2026-03-23T16:46:14Z</time></trkpt><trkpt lat="45.42832483080478" lon="7.958990630913824"><ele>231.0</ele><time>2026-03-23T16:46:15Z</time></trkpt><trkpt lat="45.42837391710449" lon="7.9589075390436985"><ele>231.0</ele><time>2026-03-23T16:46:16Z</time></trkpt><trkpt lat="45.42842303603239" lon="7.958809669534296"><ele>231.0</ele><time>2026-03-23T16:46:17Z</time></trkpt><trkpt lat="45.42848863847467" lon="7.958713410459034"><ele>231.0</ele><time>2026-03-23T16:46:18Z</time></trkpt><trkpt lat="45.42855357982845" lon="7.9586025645916205"><ele>231.0</ele><time>2026-03-23T16:46:19Z</time></trkpt><trkpt lat="45.428624696340535" lon="7.958481180127832"><ele>231.0</ele><time>2026-03-23T16:46:20Z</time></trkpt><trkpt lat="45.428696792695895" lon="7.9583581225959"><ele>231.0</ele><time>2026-03-23T16:46:21Z</time></trkpt><trkpt lat="45.42877282831195" lon="7.958228341282277"><ele>231.0</ele><time>2026-03-23T16:46:22Z</time></trkpt><trkpt lat="45.42884195859059" lon="7.958110346625627"><ele>231.0</ele><time>2026-03-23T16:46:23Z</time></trkpt><trkpt lat="45.42891519682604" lon="7.957985340366942"><ele>231.75</ele><time>2026-03-23T16:46:24Z</time></trkpt><trkpt lat="45.42898942017845" lon="7.957858652531924"><ele>232.5</ele><time>2026-03-23T16:46:25Z</time></trkpt><trkpt lat="45.42906760823032" lon="7.957725197322905"><ele>233.25</ele><time>2026-03-23T16:46:26Z</time></trkpt><trkpt lat="45.42914620109933" lon="7.957591051606329"><ele>234.0</ele><time>2026-03-23T16:46:27Z</time></trkpt><trkpt lat="45.42922022862203" lon="7.957464697630967"><ele>234.0</ele><time>2026-03-23T16:46:28Z</time></trkpt><trkpt lat="45.42928696501568" lon="7.9573507893072115"><ele>233.99999999999997</ele><time>2026-03-23T16:46:29Z</time></trkpt><trkpt lat="45.429351459196354" lon="7.957240606011587"><ele>233.99999999999997</ele><time>2026-03-23T16:46:30Z</time></trkpt><trkpt lat="45.429418010256455" lon="7.957126844206535"><ele>234.0</ele><time>2026-03-23T16:46:31Z</time></trkpt><trkpt lat="45.42948556552566" lon="7.957011365672165"><ele>234.0</ele><time>2026-03-23T16:46:32Z</time></trkpt><trkpt lat="45.42955037423908" lon="7.956900581914807"><ele>234.0</ele><time>2026-03-23T16:46:33Z</time></trkpt><trkpt lat="45.42960570439653" lon="7.956806001545852"><ele>234.0</ele><time>2026-03-23T16:46:34Z</time></trkpt><trkpt lat="45.42966409784928" lon="7.956706184440608"><ele>234.0</ele><time>2026-03-23T16:46:35Z</time></trkpt><trkpt lat="45.429723289935055" lon="7.956605001846648"><ele>234.0</ele><time>2026-03-23T16:46:36Z</time></trkpt><trkpt lat="45.429779291712" lon="7.9565092726530295"><ele>234.0</ele><time>2026-03-23T16:46:37Z</time></trkpt><trkpt lat="45.42983643587555" lon="7.956411591418708"><ele>234.0</ele><time>2026-03-23T16:46:38Z</time></trkpt><trkpt lat="45.429884365794635" lon="7.956329657366971"><ele>233.66666666666669</ele><time>2026-03-23T16:46:39Z</time></trkpt><trkpt lat="45.42992540683361" lon="7.95625996114644"><ele>233.33333333333334</ele><time>2026-03-23T16:46:40Z</time></trkpt><trkpt lat="45.429958651670525" lon="7.956173921094687"><ele>233.0</ele><time>2026-03-23T16:46:42Z</time></trkpt><trkpt lat="45.42949184720247" lon="7.955614257338662"><ele>233.0</ele><time>2026-03-23T16:46:43Z</time></trkpt><trkpt lat="45.42940595074074" lon="7.9555192150809715"><ele>233.0</ele><time>2026-03-23T16:46:44Z</time></trkpt><trkpt lat="45.42934243847985" lon="7.955390487120614"><ele>233.0</ele><time>2026-03-23T16:46:45Z</time></trkpt><trkpt lat="45.42928570413724" lon="7.9552638148949315"><ele>233.0</ele><time>2026-03-23T16:46:46Z</time></trkpt><trkpt lat="45.429233144595806" lon="7.955157571960211"><ele>233.0</ele><time>2026-03-23T16:46:47Z</time></trkpt><trkpt lat="45.4291818489186" lon="7.9550618007168215"><ele>233.00000000000003</ele><time>2026-03-23T16:46:48Z</time></trkpt><trkpt lat="45.429134011738455" lon="7.954959650424326"><ele>233.0</ele><time>2026-03-23T16:46:49Z</time></trkpt><trkpt lat="45.42909290786209" lon="7.954865562364701"><ele>233.0</ele><time>2026-03-23T16:46:50Z</time></trkpt><trkpt lat="45.42905044845157" lon="7.954772917963073"><ele>233.0</ele><time>2026-03-23T16:46:51Z</time></trkpt><trkpt lat="45.42903124776229" lon="7.954678949656695"><ele>233.00000000000003</ele><time>2026-03-23T16:46:52Z</time></trkpt><trkpt lat="45.42910591135749" lon="7.954584690080405"><ele>233.0</ele><time>2026-03-23T16:46:54Z</time></trkpt><trkpt lat="45.4291717881332" lon="7.954584548586428"><ele>233.0</ele><time>2026-03-23T16:46:55Z</time></trkpt><trkpt lat="45.42924488453195" lon="7.95457770923578"><ele>233.0</ele><time>2026-03-23T16:46:56Z</time></trkpt><trkpt lat="45.429338996942306" lon="7.954543269039013"><ele>233.0</ele><time>2026-03-23T16:46:57Z</time></trkpt><trkpt lat="45.42942380435244" lon="7.954492195397387"><ele>233.0</ele><time>2026-03-23T16:46:58Z</time></trkpt><trkpt lat="45.429518716757364" lon="7.954435303036865"><ele>233.0</ele><time>2026-03-23T16:46:59Z</time></trkpt><trkpt lat="45.42960775619765" lon="7.954371457839024"><ele>233.16666666666669</ele><time>2026-03-23T16:47:00Z</time></trkpt><trkpt lat="45.42968670207971" lon="7.954303482695129"><ele>233.33333333333334</ele><time>2026-03-23T16:47:01Z</time></trkpt><trkpt lat="45.42977430491144" lon="7.954248034299235"><ele>233.5</ele><time>2026-03-23T16:47:02Z</time></trkpt><trkpt lat="45.429858911934275" lon="7.95419300748115"><ele>233.66666666666669</ele><time>2026-03-23T16:47:03Z</time></trkpt><trkpt lat="45.42992682029172" lon="7.9541469457084215"><ele>233.83333333333334</ele><time>2026-03-23T16:47:04Z</time></trkpt><trkpt lat="45.42999618985914" lon="7.954100737280981"><ele>234.0</ele><time>2026-03-23T16:47:05Z</time></trkpt><trkpt lat="45.4300813240663" lon="7.95402720283562"><ele>234.0</ele><time>2026-03-23T16:47:07Z</time></trkpt><trkpt lat="45.43008734252521" lon="7.9539109776264185"><ele>234.0</ele><time>2026-03-23T16:47:09Z</time></trkpt><trkpt lat="45.43010728999866" lon="7.953815649274456"><ele>234.0</ele><time>2026-03-23T16:47:10Z</time></trkpt><trkpt lat="45.430093061853896" lon="7.95370552965216"><ele>234.0</ele><time>2026-03-23T16:47:12Z</time></trkpt><trkpt lat="45.43007783781128" lon="7.953576302966743"><ele>234.0</ele><time>2026-03-23T16:49:35Z</time></trkpt><trkpt lat="45.43006716712716" lon="7.953460448798097"><ele>234.0</ele><time>2026-03-23T16:49:37Z</time></trkpt><trkpt lat="45.43006576463327" lon="7.953312678265492"><ele>234.16666666666666</ele><time>2026-03-23T16:49:39Z</time></trkpt><trkpt lat="45.43006654651002" lon="7.953221467050967"><ele>234.33333333333331</ele><time>2026-03-23T16:49:40Z</time></trkpt><trkpt lat="45.43004041848972" lon="7.953046619239112"><ele>234.5</ele><time>2026-03-23T16:49:42Z</time></trkpt><trkpt lat="45.430033450852314" lon="7.952956187256384"><ele>234.66666666666666</ele><time>2026-03-23T16:49:43Z</time></trkpt><trkpt lat="45.430040313807844" lon="7.9528542173513435"><ele>234.83333333333331</ele><time>2026-03-23T16:49:44Z</time></trkpt><trkpt lat="45.43003115943208" lon="7.952733590188452"><ele>235.0</ele><time>2026-03-23T16:49:45Z</time></trkpt><trkpt lat="45.4300188058392" lon="7.952624625642213"><ele>235.16666666666666</ele><time>2026-03-23T16:49:46Z</time></trkpt><trkpt lat="45.430005729778514" lon="7.9525119949536895"><ele>235.33333333333331</ele><time>2026-03-23T16:49:47Z</time></trkpt><trkpt lat="45.429992124550246" lon="7.952405774891041"><ele>235.5</ele><time>2026-03-23T16:49:48Z</time></trkpt><trkpt lat="45.42996540322779" lon="7.952313051299898"><ele>235.66666666666669</ele><time>2026-03-23T16:49:49Z</time></trkpt><trkpt lat="45.429948314024614" lon="7.952121072241042"><ele>235.83333333333334</ele><time>2026-03-23T16:49:51Z</time></trkpt><trkpt lat="45.42994733035316" lon="7.95201832443534"><ele>236.0</ele><time>2026-03-23T16:49:52Z</time></trkpt><trkpt lat="45.42993582799518" lon="7.951912802638503"><ele>236.00000000000003</ele><time>2026-03-23T16:49:53Z</time></trkpt><trkpt lat="45.42991954889963" lon="7.951797984927407"><ele>236.0</ele><time>2026-03-23T16:49:54Z</time></trkpt><trkpt lat="45.42990325489246" lon="7.951700322732481"><ele>236.0</ele><time>2026-03-23T16:49:55Z</time></trkpt><trkpt lat="45.42988814337328" lon="7.9516097483615304"><ele>236.0</ele><time>2026-03-23T16:49:56Z</time></trkpt><trkpt lat="45.42986578316157" lon="7.951452896254377"><ele>236.00000000000003</ele><time>2026-03-23T16:49:58Z</time></trkpt><trkpt lat="45.42993120666954" lon="7.951342204174205"><ele>236.0</ele><time>2026-03-23T16:50:00Z</time></trkpt><trkpt lat="45.43002436523798" lon="7.951357261620127"><ele>235.71428571428572</ele><time>2026-03-23T16:50:01Z</time></trkpt><trkpt lat="45.430096320030145" lon="7.951351041267484"><ele>235.42857142857144</ele><time>2026-03-23T16:50:02Z</time></trkpt><trkpt lat="45.43016610269908" lon="7.951346620518564"><ele>235.14285714285717</ele><time>2026-03-23T16:50:03Z</time></trkpt><trkpt lat="45.430239924654735" lon="7.951359443839952"><ele>234.85714285714286</ele><time>2026-03-23T16:50:04Z</time></trkpt><trkpt lat="45.43030771856567" lon="7.951371073174263"><ele>234.5714285714286</ele><time>2026-03-23T16:50:05Z</time></trkpt><trkpt lat="45.430381483697886" lon="7.951394600771861"><ele>234.2857142857143</ele><time>2026-03-23T16:50:06Z</time></trkpt><trkpt lat="45.430459400274344" lon="7.951414124208328"><ele>234.0</ele><time>2026-03-23T16:50:07Z</time></trkpt><trkpt lat="45.43054195738056" lon="7.951419882800049"><ele>233.66666666666666</ele><time>2026-03-23T16:50:08Z</time></trkpt><trkpt lat="45.43063017578715" lon="7.95142220856781"><ele>233.33333333333331</ele><time>2026-03-23T16:50:09Z</time></trkpt><trkpt lat="45.43071743727829" lon="7.9514156170686965"><ele>233.0</ele><time>2026-03-23T16:50:10Z</time></trkpt><trkpt lat="45.43080831126468" lon="7.951436764256205"><ele>232.66666666666666</ele><time>2026-03-23T16:50:11Z</time></trkpt><trkpt lat="45.43089623557706" lon="7.951439967429863"><ele>232.33333333333331</ele><time>2026-03-23T16:50:12Z</time></trkpt><trkpt lat="45.430980132352424" lon="7.951449403501013"><ele>232.0</ele><time>2026-03-23T16:50:13Z</time></trkpt><trkpt lat="45.43105956667042" lon="7.951463709664908"><ele>232.0</ele><time>2026-03-23T16:50:14Z</time></trkpt><trkpt lat="45.43113052996665" lon="7.951487963900061"><ele>232.0</ele><time>2026-03-23T16:50:15Z</time></trkpt><trkpt lat="45.431216696588805" lon="7.951483323380937"><ele>232.0</ele><time>2026-03-23T16:50:17Z</time></trkpt><trkpt lat="45.43130639126894" lon="7.951473191346181"><ele>232.0</ele><time>2026-03-23T16:50:20Z</time></trkpt><trkpt lat="45.431321592646746" lon="7.951249550430525"><ele>232.0</ele><time>2026-03-23T16:50:23Z</time></trkpt><trkpt lat="45.43130354313549" lon="7.951151073016928"><ele>231.99999999999997</ele><time>2026-03-23T16:50:24Z</time></trkpt><trkpt lat="45.431284490328586" lon="7.951047122158675"><ele>232.0</ele><time>2026-03-23T16:50:25Z</time></trkpt><trkpt lat="45.43126669657568" lon="7.95091875603087"><ele>232.0</ele><time>2026-03-23T16:50:26Z</time></trkpt><trkpt lat="45.43124969499839" lon="7.950802886219837"><ele>232.0</ele><time>2026-03-23T16:50:27Z</time></trkpt><trkpt lat="45.43120827429249" lon="7.950678414412834"><ele>231.99999999999997</ele><time>2026-03-23T16:50:28Z</time></trkpt><trkpt lat="45.431198960094264" lon="7.950540936998419"><ele>232.0</ele><time>2026-03-23T16:50:29Z</time></trkpt><trkpt lat="45.43119055413474" lon="7.950410570851888"><ele>231.66666666666666</ele><time>2026-03-23T16:50:30Z</time></trkpt><trkpt lat="45.43118212996956" lon="7.95026617441179"><ele>231.33333333333331</ele><time>2026-03-23T16:50:31Z</time></trkpt><trkpt lat="45.43121314262171" lon="7.950134466715766"><ele>231.0</ele><time>2026-03-23T16:50:32Z</time></trkpt><trkpt lat="45.431195829989775" lon="7.9500215622486525"><ele>230.66666666666669</ele><time>2026-03-23T16:50:33Z</time></trkpt><trkpt lat="45.43118457046267" lon="7.949924075983733"><ele>230.33333333333334</ele><time>2026-03-23T16:50:34Z</time></trkpt><trkpt lat="45.431171679987614" lon="7.949815669183307"><ele>230.0</ele><time>2026-03-23T16:50:35Z</time></trkpt><trkpt lat="45.43115919420431" lon="7.949724296126129"><ele>230.0</ele><time>2026-03-23T16:50:36Z</time></trkpt><trkpt lat="45.43114417094131" lon="7.949585587162306"><ele>230.0</ele><time>2026-03-23T16:50:38Z</time></trkpt><trkpt lat="45.43128606285041" lon="7.949434246715247"><ele>230.0</ele><time>2026-03-23T16:50:40Z</time></trkpt><trkpt lat="45.43136142267819" lon="7.949352999521217"><ele>230.0</ele><time>2026-03-23T16:50:41Z</time></trkpt><trkpt lat="45.43144023726902" lon="7.9492598847319815"><ele>230.4</ele><time>2026-03-23T16:50:42Z</time></trkpt><trkpt lat="45.43152161967073" lon="7.949167250363906"><ele>230.8</ele><time>2026-03-23T16:50:43Z</time></trkpt><trkpt lat="45.43159971025627" lon="7.949080378156409"><ele>231.2</ele><time>2026-03-23T16:50:44Z</time></trkpt><trkpt lat="45.43167532075343" lon="7.948991516670215"><ele>231.6</ele><time>2026-03-23T16:50:45Z</time></trkpt><trkpt lat="45.43176374053925" lon="7.9489179804901875"><ele>232.0</ele><time>2026-03-23T16:50:46Z</time></trkpt><trkpt lat="45.43184567226516" lon="7.948820781628203"><ele>232.0</ele><time>2026-03-23T16:50:47Z</time></trkpt><trkpt lat="45.43191381657097" lon="7.948716308790131"><ele>232.0</ele><time>2026-03-23T16:50:48Z</time></trkpt><trkpt lat="45.431996505073606" lon="7.948632936518488"><ele>232.0</ele><time>2026-03-23T16:50:49Z</time></trkpt><trkpt lat="45.43207450531874" lon="7.948566191782052"><ele>232.0</ele><time>2026-03-23T16:50:50Z</time></trkpt><trkpt lat="45.43214039068606" lon="7.948474715724803"><ele>232.0</ele><time>2026-03-23T16:50:51Z</time></trkpt><trkpt lat="45.4322195275305" lon="7.948404032371435"><ele>232.33333333333331</ele><time>2026-03-23T16:50:52Z</time></trkpt><trkpt lat="45.4322928470742" lon="7.948324651748235"><ele>232.66666666666666</ele><time>2026-03-23T16:50:53Z</time></trkpt><trkpt lat="45.43236561573788" lon="7.94824851791037"><ele>233.0</ele><time>2026-03-23T16:50:54Z</time></trkpt><trkpt lat="45.43241618693561" lon="7.948159419155405"><ele>233.33333333333331</ele><time>2026-03-23T16:50:55Z</time></trkpt><trkpt lat="45.43246706697279" lon="7.948093494172232"><ele>233.66666666666666</ele><time>2026-03-23T16:50:56Z</time></trkpt><trkpt lat="45.43254282000784" lon="7.947988652926579"><ele>234.0</ele><time>2026-03-23T16:50:58Z</time></trkpt><trkpt lat="45.432554082082675" lon="7.947820635974854"><ele>234.0</ele><time>2026-03-23T16:51:03Z</time></trkpt><trkpt lat="45.43245753159529" lon="7.947738032900676"><ele>233.99999999999997</ele><time>2026-03-23T16:51:04Z</time></trkpt><trkpt lat="45.43238362636557" lon="7.947700903696377"><ele>233.99999999999997</ele><time>2026-03-23T16:51:05Z</time></trkpt><trkpt lat="45.4323139493012" lon="7.9476466884711625"><ele>234.0</ele><time>2026-03-23T16:51:06Z</time></trkpt><trkpt lat="45.43222922979521" lon="7.94755438343321"><ele>234.0</ele><time>2026-03-23T16:51:07Z</time></trkpt><trkpt lat="45.432138266300925" lon="7.94745130388888"><ele>233.75</ele><time>2026-03-23T16:51:08Z</time></trkpt><trkpt lat="45.43204155777056" lon="7.947335597250099"><ele>233.5</ele><time>2026-03-23T16:51:09Z</time></trkpt><trkpt lat="45.43192330097002" lon="7.947200736463153"><ele>233.25</ele><time>2026-03-23T16:51:10Z</time></trkpt><trkpt lat="45.43179241942234" lon="7.947093938376759"><ele>233.0</ele><time>2026-03-23T16:51:11Z</time></trkpt><trkpt lat="45.43165918388113" lon="7.947042507832925"><ele>233.0</ele><time>2026-03-23T16:51:12Z</time></trkpt><trkpt lat="45.431529457361776" lon="7.947068943250041"><ele>233.0</ele><time>2026-03-23T16:51:13Z</time></trkpt><trkpt lat="45.43140045773103" lon="7.947108455186474"><ele>233.0</ele><time>2026-03-23T16:51:14Z</time></trkpt><trkpt lat="45.431263440862885" lon="7.9471435444316905"><ele>233.0</ele><time>2026-03-23T16:51:15Z</time></trkpt><trkpt lat="45.43114354284988" lon="7.9471829698329515"><ele>233.0</ele><time>2026-03-23T16:51:16Z</time></trkpt><trkpt lat="45.43103400076945" lon="7.9472141391159035"><ele>233.0</ele><time>2026-03-23T16:51:17Z</time></trkpt><trkpt lat="45.43095544157035" lon="7.9472266144463255"><ele>233.0</ele><time>2026-03-23T16:51:18Z</time></trkpt><trkpt lat="45.43086287209302" lon="7.9471417787270235"><ele>233.0</ele><time>2026-03-23T16:51:20Z</time></trkpt><trkpt lat="45.43087474115905" lon="7.947029673203477"><ele>233.0</ele><time>2026-03-23T16:51:21Z</time></trkpt><trkpt lat="45.430942502569096" lon="7.946909376283765"><ele>233.00000000000003</ele><time>2026-03-23T16:51:22Z</time></trkpt><trkpt lat="45.43103761254995" lon="7.9468308319846495"><ele>233.0</ele><time>2026-03-23T16:51:23Z</time></trkpt><trkpt lat="45.431127310652705" lon="7.946786699717866"><ele>233.0</ele><time>2026-03-23T16:51:24Z</time></trkpt><trkpt lat="45.431185982460505" lon="7.946721897016857"><ele>233.0</ele><time>2026-03-23T16:51:25Z</time></trkpt><trkpt lat="45.43122242656473" lon="7.946629554283999"><ele>233.00000000000003</ele><time>2026-03-23T16:51:26Z</time></trkpt><trkpt lat="45.43123141382668" lon="7.946512244048871"><ele>233.0</ele><time>2026-03-23T16:51:27Z</time></trkpt><trkpt lat="45.4312052499458" lon="7.946352474400846"><ele>232.60000000000002</ele><time>2026-03-23T16:51:28Z</time></trkpt><trkpt lat="45.4311922376438" lon="7.946217929675286"><ele>232.20000000000002</ele><time>2026-03-23T16:51:29Z</time></trkpt><trkpt lat="45.431192944564714" lon="7.946105756052202"><ele>231.8</ele><time>2026-03-23T16:51:30Z</time></trkpt><trkpt lat="45.431231845606" lon="7.945983935907909"><ele>231.4</ele><time>2026-03-23T16:51:32Z</time></trkpt><trkpt lat="45.431333713884236" lon="7.945979912201907"><ele>231.0</ele><time>2026-03-23T16:51:34Z</time></trkpt><trkpt lat="45.43142042673511" lon="7.94600663948246"><ele>231.0</ele><time>2026-03-23T16:51:35Z</time></trkpt><trkpt lat="45.431512565964596" lon="7.945994216674807"><ele>231.00000000000003</ele><time>2026-03-23T16:51:36Z</time></trkpt><trkpt lat="45.43158011135194" lon="7.945907449442586"><ele>231.00000000000003</ele><time>2026-03-23T16:51:37Z</time></trkpt><trkpt lat="45.43163990428288" lon="7.945785884698208"><ele>231.0</ele><time>2026-03-23T16:51:38Z</time></trkpt><trkpt lat="45.431693947889556" lon="7.945649539962913"><ele>231.0</ele><time>2026-03-23T16:51:39Z</time></trkpt><trkpt lat="45.431746092593734" lon="7.945522026870691"><ele>230.60000000000002</ele><time>2026-03-23T16:51:40Z</time></trkpt><trkpt lat="45.43180543589816" lon="7.945395448395563"><ele>230.20000000000002</ele><time>2026-03-23T16:51:41Z</time></trkpt><trkpt lat="45.43185300260773" lon="7.945266263309208"><ele>229.79999999999998</ele><time>2026-03-23T16:51:42Z</time></trkpt><trkpt lat="45.43189560098225" lon="7.94513863768365"><ele>229.39999999999998</ele><time>2026-03-23T16:51:43Z</time></trkpt><trkpt lat="45.43194367907231" lon="7.945031812082052"><ele>229.0</ele><time>2026-03-23T16:51:44Z</time></trkpt><trkpt lat="45.43200308283559" lon="7.944925800602458"><ele>228.79999999999998</ele><time>2026-03-23T16:51:45Z</time></trkpt><trkpt lat="45.43206562993058" lon="7.944819129399343"><ele>228.59999999999997</ele><time>2026-03-23T16:51:46Z</time></trkpt><trkpt lat="45.432124214656184" lon="7.944701776791346"><ele>228.4</ele><time>2026-03-23T16:51:47Z</time></trkpt><trkpt lat="45.432178458707504" lon="7.9445685664413475"><ele>228.2</ele><time>2026-03-23T16:51:48Z</time></trkpt><trkpt lat="45.43223904639458" lon="7.94445255277357"><ele>228.0</ele><time>2026-03-23T16:51:49Z</time></trkpt><trkpt lat="45.43230424735192" lon="7.944322459254884"><ele>228.0</ele><time>2026-03-23T16:51:50Z</time></trkpt><trkpt lat="45.43236336799978" lon="7.94418543048139"><ele>228.0</ele><time>2026-03-23T16:51:51Z</time></trkpt><trkpt lat="45.43242989758984" lon="7.944048895212598"><ele>228.0</ele><time>2026-03-23T16:51:52Z</time></trkpt><trkpt lat="45.43249563005872" lon="7.943915321070743"><ele>228.0</ele><time>2026-03-23T16:51:53Z</time></trkpt><trkpt lat="45.43255723725712" lon="7.943786440760379"><ele>228.0</ele><time>2026-03-23T16:51:54Z</time></trkpt><trkpt lat="45.43261721681435" lon="7.943652260452278"><ele>228.0</ele><time>2026-03-23T16:51:55Z</time></trkpt><trkpt lat="45.4326752847676" lon="7.9435223378993705"><ele>228.0</ele><time>2026-03-23T16:51:56Z</time></trkpt><trkpt lat="45.432745601943665" lon="7.943384161640923"><ele>228.0</ele><time>2026-03-23T16:51:57Z</time></trkpt><trkpt lat="45.432805079428924" lon="7.943254053568033"><ele>228.0</ele><time>2026-03-23T16:51:58Z</time></trkpt><trkpt lat="45.43287372042939" lon="7.943116588594023"><ele>228.25</ele><time>2026-03-23T16:51:59Z</time></trkpt><trkpt lat="45.43292884640061" lon="7.942980187518896"><ele>228.5</ele><time>2026-03-23T16:52:00Z</time></trkpt><trkpt lat="45.43298907690543" lon="7.942842420308831"><ele>228.75</ele><time>2026-03-23T16:52:01Z</time></trkpt><trkpt lat="45.43305507603971" lon="7.942701505165636"><ele>229.0</ele><time>2026-03-23T16:52:02Z</time></trkpt><trkpt lat="45.43312423699888" lon="7.942559702217937"><ele>229.25</ele><time>2026-03-23T16:52:03Z</time></trkpt><trkpt lat="45.433190749476026" lon="7.942420160353039"><ele>229.5</ele><time>2026-03-23T16:52:04Z</time></trkpt><trkpt lat="45.433256155980224" lon="7.942291800234198"><ele>229.75</ele><time>2026-03-23T16:52:05Z</time></trkpt><trkpt lat="45.43331978695762" lon="7.942151313664255"><ele>230.0</ele><time>2026-03-23T16:52:06Z</time></trkpt><trkpt lat="45.43338517256128" lon="7.942014920033148"><ele>230.0</ele><time>2026-03-23T16:52:07Z</time></trkpt><trkpt lat="45.43345235528419" lon="7.941865605732666"><ele>230.0</ele><time>2026-03-23T16:52:08Z</time></trkpt><trkpt lat="45.433527320568274" lon="7.941703511341255"><ele>230.0</ele><time>2026-03-23T16:52:09Z</time></trkpt><trkpt lat="45.43361265316983" lon="7.941510745446878"><ele>230.0</ele><time>2026-03-23T16:52:10Z</time></trkpt><trkpt lat="45.433692593867306" lon="7.9413562583882324"><ele>230.0</ele><time>2026-03-23T16:52:11Z</time></trkpt><trkpt lat="45.43376166571354" lon="7.941212777061671"><ele>230.0</ele><time>2026-03-23T16:52:12Z</time></trkpt><trkpt lat="45.43383151980823" lon="7.941064319979423"><ele>230.0</ele><time>2026-03-23T16:52:13Z</time></trkpt><trkpt lat="45.433908800332226" lon="7.940921830741038"><ele>230.0</ele><time>2026-03-23T16:52:14Z</time></trkpt><trkpt lat="45.433969375595076" lon="7.940772865720932"><ele>230.25</ele><time>2026-03-23T16:52:15Z</time></trkpt><trkpt lat="45.43403620409583" lon="7.940632953966432"><ele>230.5</ele><time>2026-03-23T16:52:16Z</time></trkpt><trkpt lat="45.434096589885684" lon="7.940487154474399"><ele>230.75</ele><time>2026-03-23T16:52:17Z</time></trkpt><trkpt lat="45.434161021222195" lon="7.940349812086544"><ele>231.0</ele><time>2026-03-23T16:52:18Z</time></trkpt><trkpt lat="45.43422610327344" lon="7.9402066803150335"><ele>231.0</ele><time>2026-03-23T16:52:19Z</time></trkpt><trkpt lat="45.434290216289156" lon="7.940070624830489"><ele>231.0</ele><time>2026-03-23T16:52:20Z</time></trkpt><trkpt lat="45.43435456121398" lon="7.9399299679471165"><ele>231.0</ele><time>2026-03-23T16:52:21Z</time></trkpt><trkpt lat="45.43441996672468" lon="7.939789018896177"><ele>231.0</ele><time>2026-03-23T16:52:22Z</time></trkpt><trkpt lat="45.43448448012269" lon="7.939651371677503"><ele>230.75</ele><time>2026-03-23T16:52:23Z</time></trkpt><trkpt lat="45.43454371800619" lon="7.939505826740119"><ele>230.5</ele><time>2026-03-23T16:52:24Z</time></trkpt><trkpt lat="45.43461433003075" lon="7.939364511829812"><ele>230.25</ele><time>2026-03-23T16:52:25Z</time></trkpt><trkpt lat="45.434672340230485" lon="7.9392191038067415"><ele>230.0</ele><time>2026-03-23T16:52:26Z</time></trkpt><trkpt lat="45.43473471429491" lon="7.939091164105833"><ele>230.5</ele><time>2026-03-23T16:52:27Z</time></trkpt><trkpt lat="45.4347948289123" lon="7.938959969884265"><ele>231.0</ele><time>2026-03-23T16:52:28Z</time></trkpt><trkpt lat="45.4348529463796" lon="7.9388292069535105"><ele>231.5</ele><time>2026-03-23T16:52:29Z</time></trkpt><trkpt lat="45.43491558704088" lon="7.938684011345421"><ele>232.0</ele><time>2026-03-23T16:52:30Z</time></trkpt><trkpt lat="45.43498975330183" lon="7.938538687896302"><ele>232.0</ele><time>2026-03-23T16:52:31Z</time></trkpt><trkpt lat="45.43506419013145" lon="7.938396050067209"><ele>232.0</ele><time>2026-03-23T16:52:32Z</time></trkpt><trkpt lat="45.43513392500458" lon="7.938244434415628"><ele>232.0</ele><time>2026-03-23T16:52:33Z</time></trkpt><trkpt lat="45.43520839665281" lon="7.9380797571516535"><ele>232.0</ele><time>2026-03-23T16:52:34Z</time></trkpt><trkpt lat="45.43527996253711" lon="7.937937198367623"><ele>232.5</ele><time>2026-03-23T16:52:35Z</time></trkpt><trkpt lat="45.43535345687425" lon="7.937784116539621"><ele>233.0</ele><time>2026-03-23T16:52:36Z</time></trkpt><trkpt lat="45.43542344167331" lon="7.937627197400313"><ele>233.5</ele><time>2026-03-23T16:52:37Z</time></trkpt><trkpt lat="45.435500808155815" lon="7.937472215174474"><ele>234.0</ele><time>2026-03-23T16:52:38Z</time></trkpt><trkpt lat="45.435575498620125" lon="7.937316269368949"><ele>234.0</ele><time>2026-03-23T16:52:39Z</time></trkpt><trkpt lat="45.43564605650769" lon="7.937153331192019"><ele>234.0</ele><time>2026-03-23T16:52:40Z</time></trkpt><trkpt lat="45.435714299054716" lon="7.9370003530552085"><ele>234.0</ele><time>2026-03-23T16:52:41Z</time></trkpt><trkpt lat="45.435786495122784" lon="7.93684019184344"><ele>234.0</ele><time>2026-03-23T16:52:42Z</time></trkpt><trkpt lat="45.435858937954976" lon="7.936674832326443"><ele>233.75</ele><time>2026-03-23T16:52:43Z</time></trkpt><trkpt lat="45.43593151376874" lon="7.936522359565539"><ele>233.5</ele><time>2026-03-23T16:52:44Z</time></trkpt><trkpt lat="45.43600192529286" lon="7.936362583308434"><ele>233.25</ele><time>2026-03-23T16:52:45Z</time></trkpt><trkpt lat="45.436078015187" lon="7.936213527693814"><ele>233.0</ele><time>2026-03-23T16:52:46Z</time></trkpt><trkpt lat="45.436158716596886" lon="7.936063223757552"><ele>233.0</ele><time>2026-03-23T16:52:47Z</time></trkpt><trkpt lat="45.436233764631524" lon="7.935900712152592"><ele>233.0</ele><time>2026-03-23T16:52:48Z</time></trkpt><trkpt lat="45.43630474719938" lon="7.935741689329466"><ele>233.0</ele><time>2026-03-23T16:52:49Z</time></trkpt><trkpt lat="45.436376149672455" lon="7.935585596721738"><ele>233.0</ele><time>2026-03-23T16:52:50Z</time></trkpt><trkpt lat="45.43644714344693" lon="7.935439888365909"><ele>232.75</ele><time>2026-03-23T16:52:51Z</time></trkpt><trkpt lat="45.436517360527944" lon="7.93528662964264"><ele>232.5</ele><time>2026-03-23T16:52:52Z</time></trkpt><trkpt lat="45.43657448488373" lon="7.935133477889548"><ele>232.25</ele><time>2026-03-23T16:52:53Z</time></trkpt><trkpt lat="45.436626880652994" lon="7.934985606878222"><ele>232.0</ele><time>2026-03-23T16:52:54Z</time></trkpt><trkpt lat="45.4366827112874" lon="7.934831648918771"><ele>232.0</ele><time>2026-03-23T16:52:55Z</time></trkpt><trkpt lat="45.43673788669862" lon="7.934682447765848"><ele>232.0</ele><time>2026-03-23T16:52:56Z</time></trkpt><trkpt lat="45.43680597342129" lon="7.934535121683626"><ele>232.0</ele><time>2026-03-23T16:52:57Z</time></trkpt><trkpt lat="45.436877418213236" lon="7.934393012293288"><ele>232.0</ele><time>2026-03-23T16:52:58Z</time></trkpt><trkpt lat="45.43694143232686" lon="7.934249544560501"><ele>231.75</ele><time>2026-03-23T16:52:59Z</time></trkpt><trkpt lat="45.43700901525323" lon="7.934102739572874"><ele>231.5</ele><time>2026-03-23T16:53:00Z</time></trkpt><trkpt lat="45.43707392481112" lon="7.9339509407799556"><ele>231.25</ele><time>2026-03-23T16:53:01Z</time></trkpt><trkpt lat="45.43714502118266" lon="7.933790990905003"><ele>231.0</ele><time>2026-03-23T16:53:02Z</time></trkpt><trkpt lat="45.437213784694265" lon="7.933636109029574"><ele>231.0</ele><time>2026-03-23T16:53:03Z</time></trkpt><trkpt lat="45.43728094080201" lon="7.93347973387388"><ele>231.0</ele><time>2026-03-23T16:53:04Z</time></trkpt><trkpt lat="45.43734790076581" lon="7.933332719551898"><ele>231.0</ele><time>2026-03-23T16:53:05Z</time></trkpt><trkpt lat="45.437409137287105" lon="7.933196504009054"><ele>231.0</ele><time>2026-03-23T16:53:06Z</time></trkpt><trkpt lat="45.4374620206851" lon="7.93305029541716"><ele>231.0</ele><time>2026-03-23T16:53:07Z</time></trkpt><trkpt lat="45.437498096434204" lon="7.932884374190648"><ele>231.0</ele><time>2026-03-23T16:53:08Z</time></trkpt><trkpt lat="45.43752512436667" lon="7.932704503247863"><ele>231.0</ele><time>2026-03-23T16:53:09Z</time></trkpt><trkpt lat="45.437550449298676" lon="7.932520381565914"><ele>231.0</ele><time>2026-03-23T16:53:10Z</time></trkpt><trkpt lat="45.43757070745006" lon="7.93233305881013"><ele>231.0</ele><time>2026-03-23T16:53:11Z</time></trkpt><trkpt lat="45.437592288754544" lon="7.932144589562834"><ele>231.0</ele><time>2026-03-23T16:53:12Z</time></trkpt><trkpt lat="45.43761556139231" lon="7.931958697139749"><ele>231.0</ele><time>2026-03-23T16:53:13Z</time></trkpt><trkpt lat="45.43765687198107" lon="7.931777225306137"><ele>231.0</ele><time>2026-03-23T16:53:14Z</time></trkpt><trkpt lat="45.437687886683065" lon="7.9315898199105295"><ele>231.0</ele><time>2026-03-23T16:53:15Z</time></trkpt><trkpt lat="45.437719209286314" lon="7.931397657691842"><ele>231.0</ele><time>2026-03-23T16:53:16Z</time></trkpt><trkpt lat="45.4377463350107" lon="7.931217819979605"><ele>231.0</ele><time>2026-03-23T16:53:17Z</time></trkpt><trkpt lat="45.43775197567524" lon="7.931033946451935"><ele>231.0</ele><time>2026-03-23T16:53:18Z</time></trkpt><trkpt lat="45.43773689595241" lon="7.930854263552583"><ele>230.75</ele><time>2026-03-23T16:53:19Z</time></trkpt><trkpt lat="45.43770323227425" lon="7.930675612190025"><ele>230.5</ele><time>2026-03-23T16:53:20Z</time></trkpt><trkpt lat="45.437666371286255" lon="7.930498178954431"><ele>230.25</ele><time>2026-03-23T16:53:21Z</time></trkpt><trkpt lat="45.43763360131432" lon="7.93032174263346"><ele>230.0</ele><time>2026-03-23T16:53:22Z</time></trkpt><trkpt lat="45.43760840711148" lon="7.930163003068325"><ele>230.2</ele><time>2026-03-23T16:53:23Z</time></trkpt><trkpt lat="45.43757921339139" lon="7.930012811120145"><ele>230.4</ele><time>2026-03-23T16:53:24Z</time></trkpt><trkpt lat="45.43755733665957" lon="7.929873936221957"><ele>230.60000000000002</ele><time>2026-03-23T16:53:25Z</time></trkpt><trkpt lat="45.43752600388563" lon="7.929761333419911"><ele>230.8</ele><time>2026-03-23T16:53:26Z</time></trkpt><trkpt lat="45.4374774866263" lon="7.929624522227491"><ele>231.0</ele><time>2026-03-23T16:53:27Z</time></trkpt><trkpt lat="45.43745154556641" lon="7.929487213637191"><ele>231.0</ele><time>2026-03-23T16:53:28Z</time></trkpt><trkpt lat="45.437417070208376" lon="7.92933474985039"><ele>231.0</ele><time>2026-03-23T16:53:29Z</time></trkpt><trkpt lat="45.43738104362502" lon="7.929174350560945"><ele>231.0</ele><time>2026-03-23T16:53:30Z</time></trkpt><trkpt lat="45.43734599468233" lon="7.929016409654627"><ele>231.0</ele><time>2026-03-23T16:53:31Z</time></trkpt><trkpt lat="45.43731354038797" lon="7.928847986905101"><ele>230.75</ele><time>2026-03-23T16:53:32Z</time></trkpt><trkpt lat="45.437279302411355" lon="7.928675289646057"><ele>230.5</ele><time>2026-03-23T16:53:33Z</time></trkpt><trkpt lat="45.437239133415154" lon="7.928497553292363"><ele>230.25</ele><time>2026-03-23T16:53:34Z</time></trkpt><trkpt lat="45.437207561712455" lon="7.92832291468054"><ele>230.0</ele><time>2026-03-23T16:53:35Z</time></trkpt><trkpt lat="45.43718032280061" lon="7.928150123697677"><ele>230.0</ele><time>2026-03-23T16:53:36Z</time></trkpt><trkpt lat="45.43715360985078" lon="7.927990927514042"><ele>230.0</ele><time>2026-03-23T16:53:37Z</time></trkpt><trkpt lat="45.437127635070844" lon="7.927828679273633"><ele>230.0</ele><time>2026-03-23T16:53:38Z</time></trkpt><trkpt lat="45.43710375416843" lon="7.927666537653553"><ele>230.0</ele><time>2026-03-23T16:53:39Z</time></trkpt><trkpt lat="45.437076590572865" lon="7.927501204081354"><ele>229.5</ele><time>2026-03-23T16:53:40Z</time></trkpt><trkpt lat="45.437056299159444" lon="7.9273442864042565"><ele>229.0</ele><time>2026-03-23T16:53:41Z</time></trkpt><trkpt lat="45.43705066177831" lon="7.927183238240065"><ele>228.5</ele><time>2026-03-23T16:53:42Z</time></trkpt><trkpt lat="45.43704075521005" lon="7.927005593132677"><ele>228.0</ele><time>2026-03-23T16:53:43Z</time></trkpt><trkpt lat="45.43705083053816" lon="7.926847669629034"><ele>228.0</ele><time>2026-03-23T16:53:44Z</time></trkpt><trkpt lat="45.43706315047086" lon="7.926691610535203"><ele>228.0</ele><time>2026-03-23T16:53:45Z</time></trkpt><trkpt lat="45.4370905573309" lon="7.9265450683881395"><ele>228.0</ele><time>2026-03-23T16:53:46Z</time></trkpt><trkpt lat="45.43712110395333" lon="7.926409422343155"><ele>228.0</ele><time>2026-03-23T16:53:47Z</time></trkpt><trkpt lat="45.43715002432772" lon="7.926267080465491"><ele>228.0</ele><time>2026-03-23T16:53:48Z</time></trkpt><trkpt lat="45.437176213132034" lon="7.926135328749277"><ele>228.2</ele><time>2026-03-23T16:53:49Z</time></trkpt><trkpt lat="45.4371969108059" lon="7.926003273217231"><ele>228.4</ele><time>2026-03-23T16:53:50Z</time></trkpt><trkpt lat="45.437221483995245" lon="7.925879965200778"><ele>228.59999999999997</ele><time>2026-03-23T16:53:51Z</time></trkpt><trkpt lat="45.43723604159591" lon="7.925785953304629"><ele>228.79999999999998</ele><time>2026-03-23T16:53:52Z</time></trkpt><trkpt lat="45.437309294754904" lon="7.92570719730234"><ele>229.0</ele><time>2026-03-23T16:53:53Z</time></trkpt><trkpt lat="45.43731605400187" lon="7.925540352854898"><ele>229.0</ele><time>2026-03-23T16:53:55Z</time></trkpt><trkpt lat="45.4373235306782" lon="7.925423923867657"><ele>228.99999999999997</ele><time>2026-03-23T16:53:56Z</time></trkpt><trkpt lat="45.43734558657119" lon="7.925284834872107"><ele>228.99999999999997</ele><time>2026-03-23T16:53:57Z</time></trkpt><trkpt lat="45.4373691269307" lon="7.925119907079198"><ele>229.0</ele><time>2026-03-23T16:53:58Z</time></trkpt><trkpt lat="45.43737658004073" lon="7.924946278821587"><ele>229.0</ele><time>2026-03-23T16:53:59Z</time></trkpt><trkpt lat="45.4373955253545" lon="7.9247658296321735"><ele>229.0</ele><time>2026-03-23T16:54:00Z</time></trkpt><trkpt lat="45.43742528238741" lon="7.924576306792748"><ele>229.0</ele><time>2026-03-23T16:54:01Z</time></trkpt><trkpt lat="45.437436106604416" lon="7.92437923345476"><ele>229.0</ele><time>2026-03-23T16:54:02Z</time></trkpt><trkpt lat="45.437427427126735" lon="7.9241943697020005"><ele>229.0</ele><time>2026-03-23T16:54:03Z</time></trkpt><trkpt lat="45.43743159912843" lon="7.924011656878424"><ele>229.0</ele><time>2026-03-23T16:54:04Z</time></trkpt><trkpt lat="45.43744988647618" lon="7.923837548002609"><ele>229.0</ele><time>2026-03-23T16:54:05Z</time></trkpt><trkpt lat="45.4374502645275" lon="7.923657260788062"><ele>229.0</ele><time>2026-03-23T16:54:06Z</time></trkpt><trkpt lat="45.43743343559197" lon="7.923470837657451"><ele>229.0</ele><time>2026-03-23T16:54:07Z</time></trkpt><trkpt lat="45.437430076544544" lon="7.923285532278949"><ele>229.0</ele><time>2026-03-23T16:54:08Z</time></trkpt><trkpt lat="45.43741253628444" lon="7.923086112853862"><ele>229.0</ele><time>2026-03-23T16:54:09Z</time></trkpt><trkpt lat="45.43738555038679" lon="7.922895387526618"><ele>229.0</ele><time>2026-03-23T16:54:10Z</time></trkpt><trkpt lat="45.437356509847945" lon="7.922703384138062"><ele>229.0</ele><time>2026-03-23T16:54:11Z</time></trkpt><trkpt lat="45.43735017278125" lon="7.9225220221346655"><ele>229.25</ele><time>2026-03-23T16:54:12Z</time></trkpt><trkpt lat="45.43731708545447" lon="7.922392708835671"><ele>229.5</ele><time>2026-03-23T16:54:13Z</time></trkpt><trkpt lat="45.4373081233971" lon="7.9222691291342535"><ele>229.75</ele><time>2026-03-23T16:54:15Z</time></trkpt><trkpt lat="45.43749638005025" lon="7.922218592958311"><ele>230.0</ele><time>2026-03-23T16:54:18Z</time></trkpt><trkpt lat="45.43757075441243" lon="7.922193663889576"><ele>230.0</ele><time>2026-03-23T16:54:19Z</time></trkpt><trkpt lat="45.437657044278744" lon="7.922142417338289"><ele>230.0</ele><time>2026-03-23T16:54:20Z</time></trkpt><trkpt lat="45.437762888781265" lon="7.9220784349788795"><ele>230.0</ele><time>2026-03-23T16:54:21Z</time></trkpt><trkpt lat="45.43787500445177" lon="7.922019354215471"><ele>230.0</ele><time>2026-03-23T16:54:22Z</time></trkpt><trkpt lat="45.43799415883721" lon="7.921949697484309"><ele>230.0</ele><time>2026-03-23T16:54:23Z</time></trkpt><trkpt lat="45.43810816290086" lon="7.921880498252232"><ele>230.0</ele><time>2026-03-23T16:54:24Z</time></trkpt><trkpt lat="45.43822673013207" lon="7.921810144496336"><ele>230.0</ele><time>2026-03-23T16:54:25Z</time></trkpt><trkpt lat="45.43835231697341" lon="7.9217317708804735"><ele>230.0</ele><time>2026-03-23T16:54:26Z</time></trkpt><trkpt lat="45.43847136171821" lon="7.921653736893656"><ele>230.0</ele><time>2026-03-23T16:54:27Z</time></trkpt><trkpt lat="45.43858661925643" lon="7.921588664604902"><ele>230.0</ele><time>2026-03-23T16:54:28Z</time></trkpt><trkpt lat="45.43870093874787" lon="7.921520327379286"><ele>230.0</ele><time>2026-03-23T16:54:29Z</time></trkpt><trkpt lat="45.43882058410198" lon="7.921462713927097"><ele>230.0</ele><time>2026-03-23T16:54:30Z</time></trkpt><trkpt lat="45.43893625878285" lon="7.921424782676527"><ele>230.0</ele><time>2026-03-23T16:54:31Z</time></trkpt><trkpt lat="45.43905075686678" lon="7.921397967140371"><ele>230.0</ele><time>2026-03-23T16:54:32Z</time></trkpt><trkpt lat="45.43915012810464" lon="7.921369758097603"><ele>230.0</ele><time>2026-03-23T16:54:33Z</time></trkpt><trkpt lat="45.43922604961286" lon="7.921349947242158"><ele>230.0</ele><time>2026-03-23T16:54:34Z</time></trkpt><trkpt lat="45.43931133318628" lon="7.921342851206468"><ele>230.0</ele><time>2026-03-23T16:54:36Z</time></trkpt><trkpt lat="45.4391585908499" lon="7.921392244962109"><ele>230.00000000000003</ele><time>2026-03-23T16:54:47Z</time></trkpt><trkpt lat="45.43908684279201" lon="7.921414590745085"><ele>230.0</ele><time>2026-03-23T16:54:48Z</time></trkpt><trkpt lat="45.439007164425256" lon="7.921430081902196"><ele>230.0</ele><time>2026-03-23T16:54:49Z</time></trkpt><trkpt lat="45.43892645131597" lon="7.921454605436105"><ele>230.0</ele><time>2026-03-23T16:54:50Z</time></trkpt><trkpt lat="45.438831549713605" lon="7.921474240430197"><ele>230.00000000000003</ele><time>2026-03-23T16:54:51Z</time></trkpt><trkpt lat="45.43875089368471" lon="7.9214986255226965"><ele>230.0</ele><time>2026-03-23T16:54:52Z</time></trkpt><trkpt lat="45.43867426621543" lon="7.921530239456207"><ele>230.0</ele><time>2026-03-23T16:54:53Z</time></trkpt><trkpt lat="45.4385972898574" lon="7.921568130242052"><ele>230.0</ele><time>2026-03-23T16:54:54Z</time></trkpt><trkpt lat="45.43851501775876" lon="7.921620258231352"><ele>230.0</ele><time>2026-03-23T16:54:55Z</time></trkpt><trkpt lat="45.438418320409745" lon="7.921679079308179"><ele>230.0</ele><time>2026-03-23T16:54:56Z</time></trkpt><trkpt lat="45.438321928938464" lon="7.921734494802102"><ele>230.0</ele><time>2026-03-23T16:54:56.999Z</time></trkpt><trkpt lat="45.43821648357341" lon="7.921800328638794"><ele>230.0</ele><time>2026-03-23T16:54:57.999Z</time></trkpt><trkpt lat="45.4381213724471" lon="7.921858937568215"><ele>230.0</ele><time>2026-03-23T16:54:59Z</time></trkpt><trkpt lat="45.43802614751059" lon="7.921913729669611"><ele>230.0</ele><time>2026-03-23T16:55:00Z</time></trkpt><trkpt lat="45.43794049614862" lon="7.921969658932235"><ele>230.0</ele><time>2026-03-23T16:55:01Z</time></trkpt><trkpt lat="45.437847839785874" lon="7.922018177733435"><ele>230.0</ele><time>2026-03-23T16:55:02Z</time></trkpt><trkpt lat="45.43775380913492" lon="7.922070383489964"><ele>230.00000000000003</ele><time>2026-03-23T16:55:03Z</time></trkpt><trkpt lat="45.437659164893695" lon="7.92211601171958"><ele>230.0</ele><time>2026-03-23T16:55:04Z</time></trkpt><trkpt lat="45.437568054508915" lon="7.922160860868186"><ele>230.0</ele><time>2026-03-23T16:55:05Z</time></trkpt><trkpt lat="45.43748508418692" lon="7.922210222558169"><ele>230.0</ele><time>2026-03-23T16:55:05.999Z</time></trkpt><trkpt lat="45.437420334073465" lon="7.92225698440213"><ele>230.00000000000003</ele><time>2026-03-23T16:55:06.999Z</time></trkpt><trkpt lat="45.43735850113704" lon="7.922278428336353"><ele>230.0</ele><time>2026-03-23T16:55:08Z</time></trkpt><trkpt lat="45.43725151515998" lon="7.922208547095291"><ele>230.00000000000003</ele><time>2026-03-23T16:55:10Z</time></trkpt><trkpt lat="45.43720886103505" lon="7.9221292536975625"><ele>230.0</ele><time>2026-03-23T16:55:11Z</time></trkpt><trkpt lat="45.437183107555235" lon="7.922030318427047"><ele>230.0</ele><time>2026-03-23T16:55:12Z</time></trkpt><trkpt lat="45.437164480148894" lon="7.921921960350969"><ele>230.0</ele><time>2026-03-23T16:55:13Z</time></trkpt><trkpt lat="45.43713562060577" lon="7.921790620565535"><ele>230.00000000000003</ele><time>2026-03-23T16:55:14Z</time></trkpt><trkpt lat="45.4371071810672" lon="7.921659222998146"><ele>230.0</ele><time>2026-03-23T16:55:15Z</time></trkpt><trkpt lat="45.43712437729814" lon="7.92150768600128"><ele>230.0</ele><time>2026-03-23T16:55:16Z</time></trkpt><trkpt lat="45.43709092224533" lon="7.921374639828298"><ele>230.0</ele><time>2026-03-23T16:55:17Z</time></trkpt><trkpt lat="45.437054960763014" lon="7.921231625969109"><ele>230.0</ele><time>2026-03-23T16:55:18Z</time></trkpt><trkpt lat="45.43701986364329" lon="7.921086063654574"><ele>230.0</ele><time>2026-03-23T16:55:19Z</time></trkpt><trkpt lat="45.436990682156434" lon="7.920933396007545"><ele>230.0</ele><time>2026-03-23T16:55:20Z</time></trkpt><trkpt lat="45.43694711274903" lon="7.920787952508271"><ele>229.8</ele><time>2026-03-23T16:55:21Z</time></trkpt><trkpt lat="45.436924029104496" lon="7.920641314572853"><ele>229.6</ele><time>2026-03-23T16:55:22Z</time></trkpt><trkpt lat="45.43691499747109" lon="7.920507974783839"><ele>229.39999999999998</ele><time>2026-03-23T16:55:23Z</time></trkpt><trkpt lat="45.43689527880662" lon="7.920379520007099"><ele>229.2</ele><time>2026-03-23T16:55:24Z</time></trkpt><trkpt lat="45.43687479763864" lon="7.9202482624203725"><ele>229.0</ele><time>2026-03-23T16:55:25Z</time></trkpt><trkpt lat="45.43688366049549" lon="7.920121637533658"><ele>228.99999999999997</ele><time>2026-03-23T16:55:26Z</time></trkpt><trkpt lat="45.43689924146368" lon="7.919987653584367"><ele>229.0</ele><time>2026-03-23T16:55:27Z</time></trkpt><trkpt lat="45.43694232173393" lon="7.919876926059853"><ele>229.0</ele><time>2026-03-23T16:55:28Z</time></trkpt><trkpt lat="45.43698725998889" lon="7.919780586346702"><ele>229.0</ele><time>2026-03-23T16:55:29Z</time></trkpt><trkpt lat="45.437038483223624" lon="7.919684575488116"><ele>228.99999999999997</ele><time>2026-03-23T16:55:30Z</time></trkpt><trkpt lat="45.4370805769356" lon="7.919575315976406"><ele>229.0</ele><time>2026-03-23T16:55:31Z</time></trkpt><trkpt lat="45.43713970969551" lon="7.919457241755596"><ele>229.0</ele><time>2026-03-23T16:55:32Z</time></trkpt><trkpt lat="45.43721865572194" lon="7.919322490775081"><ele>229.0</ele><time>2026-03-23T16:55:33Z</time></trkpt><trkpt lat="45.4372726021281" lon="7.919170706535253"><ele>229.0</ele><time>2026-03-23T16:55:34Z</time></trkpt><trkpt lat="45.437312590241184" lon="7.918997216552108"><ele>229.0</ele><time>2026-03-23T16:55:35Z</time></trkpt><trkpt lat="45.437342132886265" lon="7.91883652167211"><ele>229.2</ele><time>2026-03-23T16:55:36Z</time></trkpt><trkpt lat="45.437359276840276" lon="7.918684648646051"><ele>229.39999999999998</ele><time>2026-03-23T16:55:37Z</time></trkpt><trkpt lat="45.43737329701918" lon="7.918552324736007"><ele>229.6</ele><time>2026-03-23T16:55:38Z</time></trkpt><trkpt lat="45.43738322358696" lon="7.9184214337545855"><ele>229.8</ele><time>2026-03-23T16:55:39Z</time></trkpt><trkpt lat="45.437399161627454" lon="7.918315360579468"><ele>230.0</ele><time>2026-03-23T16:55:40Z</time></trkpt><trkpt lat="45.43750222865844" lon="7.9182196693204965"><ele>229.4</ele><time>2026-03-23T16:55:42Z</time></trkpt><trkpt lat="45.437570408179816" lon="7.918233346812393"><ele>228.8</ele><time>2026-03-23T16:55:43Z</time></trkpt><trkpt lat="45.43764804805542" lon="7.91820830424099"><ele>228.2</ele><time>2026-03-23T16:55:44Z</time></trkpt><trkpt lat="45.43774586029128" lon="7.918173420188938"><ele>227.6</ele><time>2026-03-23T16:55:45Z</time></trkpt><trkpt lat="45.437845567619426" lon="7.9181487855465935"><ele>227.0</ele><time>2026-03-23T16:55:46Z</time></trkpt><trkpt lat="45.43794891956689" lon="7.9181321017491415"><ele>227.5</ele><time>2026-03-23T16:55:47Z</time></trkpt><trkpt lat="45.438061933309484" lon="7.91810721568189"><ele>228.0</ele><time>2026-03-23T16:55:48Z</time></trkpt><trkpt lat="45.438189295786806" lon="7.9181062531133835"><ele>228.5</ele><time>2026-03-23T16:55:49Z</time></trkpt><trkpt lat="45.43831540723971" lon="7.918058065584751"><ele>229.0</ele><time>2026-03-23T16:55:50Z</time></trkpt><trkpt lat="45.43843243420396" lon="7.918004060037064"><ele>229.0</ele><time>2026-03-23T16:55:51Z</time></trkpt><trkpt lat="45.438532396699046" lon="7.9179112440696375"><ele>229.0</ele><time>2026-03-23T16:55:52Z</time></trkpt><trkpt lat="45.43863932539818" lon="7.917811185899115"><ele>229.0</ele><time>2026-03-23T16:55:53Z</time></trkpt><trkpt lat="45.43876089664132" lon="7.917759951199446"><ele>229.0</ele><time>2026-03-23T16:55:54Z</time></trkpt><trkpt lat="45.438881104265356" lon="7.917701163270072"><ele>229.0</ele><time>2026-03-23T16:55:55Z</time></trkpt><trkpt lat="45.438979707301954" lon="7.9176533913184635"><ele>228.99999999999997</ele><time>2026-03-23T16:55:56Z</time></trkpt><trkpt lat="45.43906745977811" lon="7.917602022105926"><ele>228.99999999999997</ele><time>2026-03-23T16:55:57Z</time></trkpt><trkpt lat="45.43914431179314" lon="7.917560877269079"><ele>229.0</ele><time>2026-03-23T16:55:58Z</time></trkpt><trkpt lat="45.439211687690914" lon="7.917473606186583"><ele>229.0</ele><time>2026-03-23T16:55:59Z</time></trkpt><trkpt lat="45.43922936852943" lon="7.917351127284962"><ele>229.0</ele><time>2026-03-23T16:56:00Z</time></trkpt><trkpt lat="45.43916667275645" lon="7.91722966413595"><ele>228.99999999999997</ele><time>2026-03-23T16:56:01Z</time></trkpt><trkpt lat="45.439145030719146" lon="7.9171029743972685"><ele>228.99999999999997</ele><time>2026-03-23T16:56:02Z</time></trkpt><trkpt lat="45.43910995818817" lon="7.9169605573217945"><ele>229.0</ele><time>2026-03-23T16:56:03Z</time></trkpt><trkpt lat="45.43907215790732" lon="7.916808425784629"><ele>229.0</ele><time>2026-03-23T16:56:04Z</time></trkpt><trkpt lat="45.43902108793847" lon="7.9166755509997335"><ele>228.99999999999997</ele><time>2026-03-23T16:56:05Z</time></trkpt><trkpt lat="45.438988770959554" lon="7.91654397600717"><ele>229.0</ele><time>2026-03-23T16:56:06Z</time></trkpt><trkpt lat="45.43896978672819" lon="7.91643031687807"><ele>229.0</ele><time>2026-03-23T16:56:07Z</time></trkpt><trkpt lat="45.43897608902311" lon="7.916325165207884"><ele>229.0</ele><time>2026-03-23T16:56:08Z</time></trkpt><trkpt lat="45.43898872915517" lon="7.916226870363144"><ele>228.99999999999997</ele><time>2026-03-23T16:56:09Z</time></trkpt><trkpt lat="45.43899331932466" lon="7.9160958648184305"><ele>229.0</ele><time>2026-03-23T16:56:11Z</time></trkpt><trkpt lat="45.439146090045774" lon="7.91617938625113"><ele>229.0</ele><time>2026-03-23T16:56:13Z</time></trkpt><trkpt lat="45.43922049536262" lon="7.916193437307375"><ele>228.99999999999997</ele><time>2026-03-23T16:56:14Z</time></trkpt><trkpt lat="45.43930364948828" lon="7.9162092185496595"><ele>228.99999999999997</ele><time>2026-03-23T16:56:15Z</time></trkpt><trkpt lat="45.43939642895705" lon="7.916229840592769"><ele>229.0</ele><time>2026-03-23T16:56:16Z</time></trkpt><trkpt lat="45.43949628761247" lon="7.916249928728794"><ele>229.0</ele><time>2026-03-23T16:56:17Z</time></trkpt><trkpt lat="45.43960146878575" lon="7.916267268832502"><ele>229.2</ele><time>2026-03-23T16:56:18Z</time></trkpt><trkpt lat="45.439701621230995" lon="7.916285482373386"><ele>229.39999999999998</ele><time>2026-03-23T16:56:19Z</time></trkpt><trkpt lat="45.43980432916072" lon="7.916306229138515"><ele>229.6</ele><time>2026-03-23T16:56:20Z</time></trkpt><trkpt lat="45.43990718103464" lon="7.916324241956511"><ele>229.8</ele><time>2026-03-23T16:56:21Z</time></trkpt><trkpt lat="45.44000860544795" lon="7.916345198185357"><ele>230.0</ele><time>2026-03-23T16:56:22Z</time></trkpt><trkpt lat="45.44010857907903" lon="7.916376497744523"><ele>230.0</ele><time>2026-03-23T16:56:23Z</time></trkpt><trkpt lat="45.44022131081663" lon="7.916404864026224"><ele>230.0</ele><time>2026-03-23T16:56:24Z</time></trkpt><trkpt lat="45.44032223462586" lon="7.916421881691613"><ele>230.0</ele><time>2026-03-23T16:56:25Z</time></trkpt><trkpt lat="45.44043040003592" lon="7.9164328463342475"><ele>230.0</ele><time>2026-03-23T16:56:26Z</time></trkpt><trkpt lat="45.44053348777142" lon="7.916440754441429"><ele>230.0</ele><time>2026-03-23T16:56:27Z</time></trkpt><trkpt lat="45.44063501490056" lon="7.916462592496915"><ele>230.4</ele><time>2026-03-23T16:56:28Z</time></trkpt><trkpt lat="45.44074209122465" lon="7.916467137282615"><ele>230.8</ele><time>2026-03-23T16:56:29Z</time></trkpt><trkpt lat="45.44084213773496" lon="7.916464555285025"><ele>231.2</ele><time>2026-03-23T16:56:30Z</time></trkpt><trkpt lat="45.44095063299587" lon="7.916477447062549"><ele>231.6</ele><time>2026-03-23T16:56:31Z</time></trkpt><trkpt lat="45.44105844521084" lon="7.916473233938708"><ele>232.0</ele><time>2026-03-23T16:56:32Z</time></trkpt><trkpt lat="45.441168630407866" lon="7.916475175752032"><ele>232.0</ele><time>2026-03-23T16:56:33Z</time></trkpt><trkpt lat="45.441280713288904" lon="7.916472199816009"><ele>232.0</ele><time>2026-03-23T16:56:34Z</time></trkpt><trkpt lat="45.4413879702369" lon="7.916454463859778"><ele>232.0</ele><time>2026-03-23T16:56:35Z</time></trkpt><trkpt lat="45.44148689879585" lon="7.916439506146601"><ele>232.0</ele><time>2026-03-23T16:56:36Z</time></trkpt><trkpt lat="45.441592423729084" lon="7.916426378259066"><ele>232.0</ele><time>2026-03-23T16:56:37Z</time></trkpt><trkpt lat="45.44170589464656" lon="7.916417333739134"><ele>231.25</ele><time>2026-03-23T16:56:38Z</time></trkpt><trkpt lat="45.441808581142375" lon="7.916427273734357"><ele>230.5</ele><time>2026-03-23T16:56:39Z</time></trkpt><trkpt lat="45.44192031172083" lon="7.916413952213815"><ele>229.75</ele><time>2026-03-23T16:56:40Z</time></trkpt><trkpt lat="45.442042754757594" lon="7.916406601270004"><ele>229.0</ele><time>2026-03-23T16:56:41Z</time></trkpt><trkpt lat="45.44216713902606" lon="7.916388950379343"><ele>229.0</ele><time>2026-03-23T16:56:42Z</time></trkpt><trkpt lat="45.442297023624626" lon="7.916378903632533"><ele>229.0</ele><time>2026-03-23T16:56:43Z</time></trkpt><trkpt lat="45.44242047035741" lon="7.916376848102548"><ele>229.0</ele><time>2026-03-23T16:56:44Z</time></trkpt><trkpt lat="45.442547146911835" lon="7.9163780474423096"><ele>229.0</ele><time>2026-03-23T16:56:45Z</time></trkpt><trkpt lat="45.4426702861714" lon="7.916368249866368"><ele>229.0</ele><time>2026-03-23T16:56:46Z</time></trkpt><trkpt lat="45.442790780182776" lon="7.916362045887077"><ele>229.0</ele><time>2026-03-23T16:56:47Z</time></trkpt><trkpt lat="45.44292954085788" lon="7.916348451371966"><ele>229.0</ele><time>2026-03-23T16:56:48Z</time></trkpt><trkpt lat="45.44306539103815" lon="7.916332341229446"><ele>229.0</ele><time>2026-03-23T16:56:49Z</time></trkpt><trkpt lat="45.443192786452116" lon="7.916316594184042"><ele>229.75</ele><time>2026-03-23T16:56:50Z</time></trkpt><trkpt lat="45.44331931011863" lon="7.916309821885912"><ele>230.5</ele><time>2026-03-23T16:56:51Z</time></trkpt><trkpt lat="45.44344661571337" lon="7.916298722967706"><ele>231.25</ele><time>2026-03-23T16:56:52Z</time></trkpt><trkpt lat="45.44357454426222" lon="7.916293135661464"><ele>232.0</ele><time>2026-03-23T16:56:53Z</time></trkpt><trkpt lat="45.443700307238096" lon="7.916301397089279"><ele>232.25</ele><time>2026-03-23T16:56:54Z</time></trkpt><trkpt lat="45.44382952820941" lon="7.916288776809049"><ele>232.5</ele><time>2026-03-23T16:56:55Z</time></trkpt><trkpt lat="45.443952374852444" lon="7.916275534022137"><ele>232.75</ele><time>2026-03-23T16:56:56Z</time></trkpt><trkpt lat="45.4440797030771" lon="7.916268445844744"><ele>233.0</ele><time>2026-03-23T16:56:57Z</time></trkpt><trkpt lat="45.444204931308825" lon="7.916250732557518"><ele>233.0</ele><time>2026-03-23T16:56:58Z</time></trkpt><trkpt lat="45.44433403820819" lon="7.916241179828713"><ele>233.0</ele><time>2026-03-23T16:56:59Z</time></trkpt><trkpt lat="45.44446064070422" lon="7.916233753459236"><ele>233.0</ele><time>2026-03-23T16:57:00Z</time></trkpt><trkpt lat="45.444587771784704" lon="7.916220444775911"><ele>233.0</ele><time>2026-03-23T16:57:01Z</time></trkpt><trkpt lat="45.44471749449447" lon="7.9162137367132495"><ele>232.5</ele><time>2026-03-23T16:57:02Z</time></trkpt><trkpt lat="45.44484237468783" lon="7.916204447419346"><ele>232.0</ele><time>2026-03-23T16:57:02.999Z</time></trkpt><trkpt lat="45.44496932299646" lon="7.916194994314149"><ele>231.5</ele><time>2026-03-23T16:57:03.999Z</time></trkpt><trkpt lat="45.44509418054725" lon="7.916188685686559"><ele>231.0</ele><time>2026-03-23T16:57:05Z</time></trkpt><trkpt lat="45.445216256506185" lon="7.916182280758651"><ele>231.0</ele><time>2026-03-23T16:57:05.999Z</time></trkpt><trkpt lat="45.445339827108654" lon="7.916169319195759"><ele>231.0</ele><time>2026-03-23T16:57:06.999Z</time></trkpt><trkpt lat="45.44546531550122" lon="7.916157851633976"><ele>231.0</ele><time>2026-03-23T16:57:08Z</time></trkpt><trkpt lat="45.445590351877975" lon="7.916150691353413"><ele>231.0</ele><time>2026-03-23T16:57:09Z</time></trkpt><trkpt lat="45.44571355311127" lon="7.916159967902632"><ele>231.0</ele><time>2026-03-23T16:57:10Z</time></trkpt><trkpt lat="45.445844961751185" lon="7.9161511907238005"><ele>231.0</ele><time>2026-03-23T16:57:10.999Z</time></trkpt><trkpt lat="45.44598137286739" lon="7.916139523227802"><ele>231.0</ele><time>2026-03-23T16:57:11.999Z</time></trkpt><trkpt lat="45.44610568574356" lon="7.916136845994213"><ele>231.0</ele><time>2026-03-23T16:57:12.999Z</time></trkpt><trkpt lat="45.446218271318884" lon="7.916127009242802"><ele>231.0</ele><time>2026-03-23T16:57:14Z</time></trkpt><trkpt lat="45.44632989408001" lon="7.916120041007205"><ele>231.0</ele><time>2026-03-23T16:57:14.999Z</time></trkpt><trkpt lat="45.44644499311558" lon="7.916107612676006"><ele>231.0</ele><time>2026-03-23T16:57:15.999Z</time></trkpt><trkpt lat="45.446558581153425" lon="7.916095299633803"><ele>231.0</ele><time>2026-03-23T16:57:16.999Z</time></trkpt><trkpt lat="45.44667065791687" lon="7.916079017381323"><ele>231.0</ele><time>2026-03-23T16:57:17.999Z</time></trkpt><trkpt lat="45.446779408173825" lon="7.916066782494934"><ele>231.00000000000003</ele><time>2026-03-23T16:57:18.999Z</time></trkpt><trkpt lat="45.44688818500088" lon="7.916055858535338"><ele>231.00000000000003</ele><time>2026-03-23T16:57:19.999Z</time></trkpt><trkpt lat="45.44699398850504" lon="7.916047750846727"><ele>231.0</ele><time>2026-03-23T16:57:20.999Z</time></trkpt><trkpt lat="45.44710197592614" lon="7.916035462373031"><ele>231.0</ele><time>2026-03-23T16:57:21.999Z</time></trkpt><trkpt lat="45.44720652270848" lon="7.916024238129561"><ele>231.20000000000002</ele><time>2026-03-23T16:57:22.999Z</time></trkpt><trkpt lat="45.44731092556601" lon="7.916022485796834"><ele>231.40000000000003</ele><time>2026-03-23T16:57:23.999Z</time></trkpt><trkpt lat="45.447412371273956" lon="7.916020137882929"><ele>231.6</ele><time>2026-03-23T16:57:24.999Z</time></trkpt><trkpt lat="45.44751543123349" lon="7.916017411175128"><ele>231.8</ele><time>2026-03-23T16:57:25.999Z</time></trkpt><trkpt lat="45.44761158323976" lon="7.916008010178097"><ele>232.0</ele><time>2026-03-23T16:57:26.999Z</time></trkpt><trkpt lat="45.44770837525906" lon="7.916021680286335"><ele>232.0</ele><time>2026-03-23T16:57:27.999Z</time></trkpt><trkpt lat="45.44780075287683" lon="7.916012335854425"><ele>232.0</ele><time>2026-03-23T16:57:28.999Z</time></trkpt><trkpt lat="45.447894858967935" lon="7.915998187769465"><ele>232.0</ele><time>2026-03-23T16:57:29.999Z</time></trkpt><trkpt lat="45.447997676527486" lon="7.915975202988503"><ele>232.0</ele><time>2026-03-23T16:57:30.999Z</time></trkpt><trkpt lat="45.44810199765262" lon="7.915966043535261"><ele>232.0</ele><time>2026-03-23T16:57:31.999Z</time></trkpt><trkpt lat="45.44819973700056" lon="7.91596065881229"><ele>231.99999999999997</ele><time>2026-03-23T16:57:32.999Z</time></trkpt><trkpt lat="45.448287077367745" lon="7.915960515980844"><ele>232.0</ele><time>2026-03-23T16:57:33.999Z</time></trkpt><trkpt lat="45.44837709828129" lon="7.9159495538931175"><ele>232.0</ele><time>2026-03-23T16:57:34.999Z</time></trkpt><trkpt lat="45.44846124729239" lon="7.915944803189695"><ele>232.0</ele><time>2026-03-23T16:57:35.999Z</time></trkpt><trkpt lat="45.44854613357683" lon="7.915942342647389"><ele>231.99999999999997</ele><time>2026-03-23T16:57:37Z</time></trkpt><trkpt lat="45.44863207826902" lon="7.915936082038324"><ele>232.0</ele><time>2026-03-23T16:57:38Z</time></trkpt><trkpt lat="45.44871130166838" lon="7.91593528957006"><ele>231.99999999999997</ele><time>2026-03-23T16:57:39Z</time></trkpt><trkpt lat="45.4487849638108" lon="7.915930959057762"><ele>232.0</ele><time>2026-03-23T16:57:40Z</time></trkpt><trkpt lat="45.44885377179298" lon="7.915927499769924"><ele>232.0</ele><time>2026-03-23T16:57:41Z</time></trkpt><trkpt lat="45.44895396410031" lon="7.915917171336431"><ele>232.0</ele><time>2026-03-23T16:57:43Z</time></trkpt><trkpt lat="45.449054015093296" lon="7.9159096458356215"><ele>231.99999999999997</ele><time>2026-03-23T16:57:45Z</time></trkpt><trkpt lat="45.44913921938703" lon="7.915902282333046"><ele>232.0</ele><time>2026-03-23T16:57:47Z</time></trkpt><trkpt lat="45.4492179269436" lon="7.915892284057804"><ele>232.2</ele><time>2026-03-23T16:57:50Z</time></trkpt><trkpt lat="45.44930934738035" lon="7.9158993511129285"><ele>232.39999999999998</ele><time>2026-03-23T16:58:03Z</time></trkpt><trkpt lat="45.44943295719293" lon="7.915907946768767"><ele>232.60000000000002</ele><time>2026-03-23T16:58:05Z</time></trkpt><trkpt lat="45.44950647294985" lon="7.915919523382829"><ele>232.8</ele><time>2026-03-23T16:58:06Z</time></trkpt><trkpt lat="45.449563077974226" lon="7.916023145795597"><ele>233.0</ele><time>2026-03-23T16:58:08Z</time></trkpt><trkpt lat="45.44971461266872" lon="7.916029827643406"><ele>233.2</ele><time>2026-03-23T16:58:10Z</time></trkpt><trkpt lat="45.44976161700856" lon="7.916135377526724"><ele>233.4</ele><time>2026-03-23T16:58:11Z</time></trkpt><trkpt lat="45.44980288755038" lon="7.9162406596715575"><ele>233.59999999999997</ele><time>2026-03-23T16:58:12Z</time></trkpt><trkpt lat="45.449850628220375" lon="7.916371222734143"><ele>233.79999999999998</ele><time>2026-03-23T16:58:13Z</time></trkpt><trkpt lat="45.449936569845626" lon="7.916479843219708"><ele>234.0</ele><time>2026-03-23T16:58:14Z</time></trkpt><trkpt lat="45.44999386835717" lon="7.916630259042559"><ele>234.0</ele><time>2026-03-23T16:58:15Z</time></trkpt><trkpt lat="45.45004593449097" lon="7.916768345485132"><ele>233.99999999999997</ele><time>2026-03-23T16:58:16Z</time></trkpt><trkpt lat="45.45009315733174" lon="7.916897752815895"><ele>233.99999999999997</ele><time>2026-03-23T16:58:17Z</time></trkpt><trkpt lat="45.450142633403104" lon="7.9170289076693185"><ele>234.0</ele><time>2026-03-23T16:58:18Z</time></trkpt><trkpt lat="45.450196421241664" lon="7.91715276428972"><ele>234.0</ele><time>2026-03-23T16:58:19Z</time></trkpt><trkpt lat="45.4502388560043" lon="7.917291835362619"><ele>234.0</ele><time>2026-03-23T16:58:20Z</time></trkpt><trkpt lat="45.45028911113294" lon="7.917422463137781"><ele>233.99999999999997</ele><time>2026-03-23T16:58:21Z</time></trkpt><trkpt lat="45.45033353242209" lon="7.917569220701288"><ele>233.99999999999997</ele><time>2026-03-23T16:58:22Z</time></trkpt><trkpt lat="45.45038179414582" lon="7.917724802675698"><ele>234.0</ele><time>2026-03-23T16:58:23Z</time></trkpt><trkpt lat="45.45044602186386" lon="7.917857514332465"><ele>234.0</ele><time>2026-03-23T16:58:24Z</time></trkpt><trkpt lat="45.450511279533266" lon="7.917991205628685"><ele>234.0</ele><time>2026-03-23T16:58:25Z</time></trkpt><trkpt lat="45.4505819246923" lon="7.918124895009062"><ele>234.0</ele><time>2026-03-23T16:58:26Z</time></trkpt><trkpt lat="45.45066341560482" lon="7.91825142310795"><ele>234.0</ele><time>2026-03-23T16:58:27Z</time></trkpt><trkpt lat="45.45074778166977" lon="7.918360259624617"><ele>234.0</ele><time>2026-03-23T16:58:28Z</time></trkpt><trkpt lat="45.45082165426438" lon="7.918469346080345"><ele>234.16666666666666</ele><time>2026-03-23T16:58:29Z</time></trkpt><trkpt lat="45.45088618156175" lon="7.918583326370709"><ele>234.33333333333331</ele><time>2026-03-23T16:58:30Z</time></trkpt><trkpt lat="45.45093385447092" lon="7.918691920489938"><ele>234.5</ele><time>2026-03-23T16:58:31Z</time></trkpt><trkpt lat="45.45097876948092" lon="7.9187997930693825"><ele>234.66666666666666</ele><time>2026-03-23T16:58:32Z</time></trkpt><trkpt lat="45.451043155165145" lon="7.918875841740719"><ele>234.83333333333331</ele><time>2026-03-23T16:58:33Z</time></trkpt><trkpt lat="45.45108822967132" lon="7.918956675228241"><ele>235.0</ele><time>2026-03-23T16:58:34Z</time></trkpt><trkpt lat="45.4511138571217" lon="7.919046891151186"><ele>234.99999999999997</ele><time>2026-03-23T16:58:35Z</time></trkpt><trkpt lat="45.45119401403976" lon="7.919149521501425"><ele>235.0</ele><time>2026-03-23T16:58:37Z</time></trkpt><trkpt lat="45.45124131558991" lon="7.919210236258303"><ele>235.0</ele><time>2026-03-23T16:58:39Z</time></trkpt><trkpt lat="45.45129747044513" lon="7.919134096875483"><ele>235.0</ele><time>2026-03-23T16:58:41Z</time></trkpt><trkpt lat="45.451389634398595" lon="7.919098242947937"><ele>234.99999999999997</ele><time>2026-03-23T16:58:43Z</time></trkpt><trkpt lat="45.4514851883975" lon="7.919154168614603"><ele>235.0</ele><time>2026-03-23T16:58:45Z</time></trkpt><trkpt lat="45.45157213155148" lon="7.9192626789207425"><ele>234.33333333333331</ele><time>2026-03-23T16:58:47Z</time></trkpt><trkpt lat="45.45167898577684" lon="7.9192607055794"><ele>233.66666666666666</ele><time>2026-03-23T16:58:50Z</time></trkpt><trkpt lat="45.451731085007694" lon="7.919176102060997"><ele>233.0</ele><time>2026-03-23T16:58:51Z</time></trkpt><trkpt lat="45.4517993418145" lon="7.919039593796553"><ele>232.33333333333331</ele><time>2026-03-23T16:58:53Z</time></trkpt><trkpt lat="45.451841599681885" lon="7.918957837729517"><ele>231.66666666666666</ele><time>2026-03-23T16:58:54Z</time></trkpt><trkpt lat="45.45186986156581" lon="7.918868734809086"><ele>231.0</ele><time>2026-03-23T16:58:55Z</time></trkpt><trkpt lat="45.45192406912609" lon="7.918794455279256"><ele>231.0</ele><time>2026-03-23T16:58:56Z</time></trkpt><trkpt lat="45.45196110443058" lon="7.918707611794065"><ele>231.0</ele><time>2026-03-23T16:58:57Z</time></trkpt><trkpt lat="45.45201260827318" lon="7.918618715824679"><ele>231.0</ele><time>2026-03-23T16:58:58Z</time></trkpt><trkpt lat="45.45206481127429" lon="7.918524915538772"><ele>231.0</ele><time>2026-03-23T16:58:59Z</time></trkpt><trkpt lat="45.45211964951439" lon="7.918437727263067"><ele>231.0</ele><time>2026-03-23T16:59:00Z</time></trkpt><trkpt lat="45.45216291665495" lon="7.918350855764905"><ele>231.0</ele><time>2026-03-23T16:59:01Z</time></trkpt><trkpt lat="45.45222254039052" lon="7.9182411927007985"><ele>230.8</ele><time>2026-03-23T16:59:02Z</time></trkpt><trkpt lat="45.452286700725764" lon="7.918128245212453"><ele>230.60000000000002</ele><time>2026-03-23T16:59:03Z</time></trkpt><trkpt lat="45.45234768159803" lon="7.9180062871911865"><ele>230.4</ele><time>2026-03-23T16:59:04Z</time></trkpt><trkpt lat="45.45241325298457" lon="7.917892385549437"><ele>230.2</ele><time>2026-03-23T16:59:05Z</time></trkpt><trkpt lat="45.45247821693373" lon="7.917772883039376"><ele>230.0</ele><time>2026-03-23T16:59:06Z</time></trkpt><trkpt lat="45.452539956601655" lon="7.917658405822531"><ele>230.2</ele><time>2026-03-23T16:59:07Z</time></trkpt><trkpt lat="45.4526049557569" lon="7.917542164100953"><ele>230.4</ele><time>2026-03-23T16:59:08Z</time></trkpt><trkpt lat="45.452676789025126" lon="7.91742054793165"><ele>230.60000000000002</ele><time>2026-03-23T16:59:08.999Z</time></trkpt><trkpt lat="45.452747468695186" lon="7.917304325823848"><ele>230.8</ele><time>2026-03-23T16:59:09.999Z</time></trkpt><trkpt lat="45.45281690704399" lon="7.9171826566234955"><ele>231.0</ele><time>2026-03-23T16:59:11Z</time></trkpt><trkpt lat="45.45287972670247" lon="7.917064935684596"><ele>231.25</ele><time>2026-03-23T16:59:12Z</time></trkpt><trkpt lat="45.452959973209445" lon="7.916959124603848"><ele>231.5</ele><time>2026-03-23T16:59:13Z</time></trkpt><trkpt lat="45.45303013872537" lon="7.916835549894478"><ele>231.75</ele><time>2026-03-23T16:59:14Z</time></trkpt><trkpt lat="45.453104339317655" lon="7.916707247962706"><ele>232.0</ele><time>2026-03-23T16:59:14.999Z</time></trkpt><trkpt lat="45.45318601137185" lon="7.916577962731152"><ele>232.0</ele><time>2026-03-23T16:59:15.999Z</time></trkpt><trkpt lat="45.45326722997118" lon="7.9164509939227266"><ele>232.0</ele><time>2026-03-23T16:59:16.999Z</time></trkpt><trkpt lat="45.453342637264385" lon="7.91633489333817"><ele>232.0</ele><time>2026-03-23T16:59:17.999Z</time></trkpt><trkpt lat="45.453415250234585" lon="7.916208682116193"><ele>232.0</ele><time>2026-03-23T16:59:18.999Z</time></trkpt><trkpt lat="45.45349159691767" lon="7.916079269941122"><ele>232.0</ele><time>2026-03-23T16:59:20Z</time></trkpt><trkpt lat="45.453563494993276" lon="7.915959453618103"><ele>232.0</ele><time>2026-03-23T16:59:20.999Z</time></trkpt><trkpt lat="45.4536340030648" lon="7.91583209065202"><ele>232.0</ele><time>2026-03-23T16:59:21.999Z</time></trkpt><trkpt lat="45.453705895139336" lon="7.91570957104829"><ele>232.0</ele><time>2026-03-23T16:59:22.999Z</time></trkpt><trkpt lat="45.453770703783526" lon="7.915592142204415"><ele>232.0</ele><time>2026-03-23T16:59:23.999Z</time></trkpt><trkpt lat="45.45384025193093" lon="7.915474460567532"><ele>232.2</ele><time>2026-03-23T16:59:24.999Z</time></trkpt><trkpt lat="45.453908036636435" lon="7.915359577066881"><ele>232.39999999999998</ele><time>2026-03-23T16:59:25.999Z</time></trkpt><trkpt lat="45.45398270740825" lon="7.915243951836794"><ele>232.60000000000002</ele><time>2026-03-23T16:59:26.999Z</time></trkpt><trkpt lat="45.45405593957461" lon="7.915121535542098"><ele>232.8</ele><time>2026-03-23T16:59:27.999Z</time></trkpt><trkpt lat="45.45413064268851" lon="7.914993915078155"><ele>233.0</ele><time>2026-03-23T16:59:28.999Z</time></trkpt><trkpt lat="45.454201467062745" lon="7.91486810493466"><ele>233.00000000000003</ele><time>2026-03-23T16:59:29.999Z</time></trkpt><trkpt lat="45.4542689088654" lon="7.9147495855803145"><ele>233.0</ele><time>2026-03-23T16:59:30.999Z</time></trkpt><trkpt lat="45.45433274327115" lon="7.914652328946548"><ele>233.0</ele><time>2026-03-23T16:59:31.999Z</time></trkpt><trkpt lat="45.454388592396185" lon="7.914566919192714"><ele>233.0</ele><time>2026-03-23T16:59:32.999Z</time></trkpt><trkpt lat="45.45443646025275" lon="7.9144842101358215"><ele>233.00000000000003</ele><time>2026-03-23T16:59:33.999Z</time></trkpt><trkpt lat="45.45447351857789" lon="7.914399177234234"><ele>233.0</ele><time>2026-03-23T16:59:34.999Z</time></trkpt><trkpt lat="45.45453332132575" lon="7.914314358069217"><ele>233.2</ele><time>2026-03-23T16:59:36.999Z</time></trkpt><trkpt lat="45.45464052063447" lon="7.91445726050474"><ele>233.4</ele><time>2026-03-23T16:59:39.999Z</time></trkpt><trkpt lat="45.45471906303407" lon="7.914364335049905"><ele>233.59999999999997</ele><time>2026-03-23T16:59:41.999Z</time></trkpt><trkpt lat="45.454743242990915" lon="7.9142724751444495"><ele>233.79999999999998</ele><time>2026-03-23T16:59:42.999Z</time></trkpt><trkpt lat="45.45477675031158" lon="7.914187931487149"><ele>234.0</ele><time>2026-03-23T16:59:43.999Z</time></trkpt><trkpt lat="45.45482072625044" lon="7.91410584411465"><ele>233.66666666666666</ele><time>2026-03-23T16:59:44.999Z</time></trkpt><trkpt lat="45.454869267054335" lon="7.914019650643308"><ele>233.33333333333331</ele><time>2026-03-23T16:59:45.999Z</time></trkpt><trkpt lat="45.45492149180381" lon="7.913920879098474"><ele>233.0</ele><time>2026-03-23T16:59:46.999Z</time></trkpt><trkpt lat="45.45497236232912" lon="7.913836912250277"><ele>232.66666666666666</ele><time>2026-03-23T16:59:47.999Z</time></trkpt><trkpt lat="45.455029670380995" lon="7.9137543034418885"><ele>232.33333333333331</ele><time>2026-03-23T16:59:48.999Z</time></trkpt><trkpt lat="45.45508592604869" lon="7.913656371063984"><ele>232.0</ele><time>2026-03-23T16:59:49.999Z</time></trkpt><trkpt lat="45.455139202062206" lon="7.913561362562456"><ele>231.99999999999997</ele><time>2026-03-23T16:59:50.999Z</time></trkpt><trkpt lat="45.4551962257017" lon="7.913471344568961"><ele>232.0</ele><time>2026-03-23T16:59:51.999Z</time></trkpt><trkpt lat="45.455253797466206" lon="7.913387360555406"><ele>232.0</ele><time>2026-03-23T16:59:53Z</time></trkpt><trkpt lat="45.455308154111464" lon="7.9133076505684565"><ele>232.0</ele><time>2026-03-23T16:59:54Z</time></trkpt><trkpt lat="45.45536287060586" lon="7.913227271164926"><ele>231.99999999999997</ele><time>2026-03-23T16:59:55Z</time></trkpt><trkpt lat="45.45541594782733" lon="7.913147692349215"><ele>232.0</ele><time>2026-03-23T16:59:56Z</time></trkpt><trkpt lat="45.45546845978929" lon="7.913066800666712"><ele>231.71428571428575</ele><time>2026-03-23T16:59:57Z</time></trkpt><trkpt lat="45.455516661167586" lon="7.912988960823661"><ele>231.42857142857144</ele><time>2026-03-23T16:59:58Z</time></trkpt><trkpt lat="45.45556635168401" lon="7.912912121153684"><ele>231.14285714285714</ele><time>2026-03-23T16:59:59Z</time></trkpt><trkpt lat="45.45562015233638" lon="7.912843494537503"><ele>230.85714285714286</ele><time>2026-03-23T17:00:00Z</time></trkpt><trkpt lat="45.45566577991906" lon="7.912764772410681"><ele>230.57142857142856</ele><time>2026-03-23T17:00:01Z</time></trkpt><trkpt lat="45.45570734240795" lon="7.912688083430769"><ele>230.28571428571425</ele><time>2026-03-23T17:00:02Z</time></trkpt><trkpt lat="45.455756073848626" lon="7.912616181201946"><ele>229.99999999999997</ele><time>2026-03-23T17:00:03Z</time></trkpt><trkpt lat="45.45580863381689" lon="7.912544025982557"><ele>229.99999999999997</ele><time>2026-03-23T17:00:04Z</time></trkpt><trkpt lat="45.455854915206665" lon="7.912472936571385"><ele>230.0</ele><time>2026-03-23T17:00:05Z</time></trkpt><trkpt lat="45.45590066984235" lon="7.912396126937701"><ele>229.99999999999997</ele><time>2026-03-23T17:00:06Z</time></trkpt><trkpt lat="45.45594673083688" lon="7.912319408143281"><ele>229.99999999999997</ele><time>2026-03-23T17:00:07Z</time></trkpt><trkpt lat="45.455994421279954" lon="7.91224442867283"><ele>230.0</ele><time>2026-03-23T17:00:08Z</time></trkpt><trkpt lat="45.456039414483314" lon="7.912175475600331"><ele>229.99999999999997</ele><time>2026-03-23T17:00:09Z</time></trkpt><trkpt lat="45.456092752092836" lon="7.912109875465421"><ele>229.99999999999997</ele><time>2026-03-23T17:00:10Z</time></trkpt><trkpt lat="45.4561334329904" lon="7.912038295911756"><ele>230.00000000000003</ele><time>2026-03-23T17:00:11Z</time></trkpt><trkpt lat="45.45617480502526" lon="7.911964761938519"><ele>230.0</ele><time>2026-03-23T17:00:12Z</time></trkpt><trkpt lat="45.45621571518277" lon="7.911889016438811"><ele>230.0</ele><time>2026-03-23T17:00:13Z</time></trkpt><trkpt lat="45.45625848686989" lon="7.911818198173016"><ele>230.0</ele><time>2026-03-23T17:00:14Z</time></trkpt><trkpt lat="45.4563347754281" lon="7.911673423936789"><ele>230.00000000000003</ele><time>2026-03-23T17:00:16Z</time></trkpt><trkpt lat="45.456390433092245" lon="7.911594838600987"><ele>230.0</ele><time>2026-03-23T17:00:17Z</time></trkpt><trkpt lat="45.456452907692544" lon="7.911520539250497"><ele>230.33333333333334</ele><time>2026-03-23T17:00:18Z</time></trkpt><trkpt lat="45.45650443690546" lon="7.9114276288812935"><ele>230.66666666666669</ele><time>2026-03-23T17:00:19Z</time></trkpt><trkpt lat="45.45655559091167" lon="7.911344100484939"><ele>231.0</ele><time>2026-03-23T17:00:20Z</time></trkpt><trkpt lat="45.456612632886944" lon="7.911256715108595"><ele>231.33333333333331</ele><time>2026-03-23T17:00:21Z</time></trkpt><trkpt lat="45.45666768207839" lon="7.911164723664914"><ele>231.66666666666666</ele><time>2026-03-23T17:00:22Z</time></trkpt><trkpt lat="45.45672017923661" lon="7.91106142038363"><ele>232.0</ele><time>2026-03-23T17:00:23Z</time></trkpt><trkpt lat="45.4567739972837" lon="7.910963069646361"><ele>232.0</ele><time>2026-03-23T17:00:24Z</time></trkpt><trkpt lat="45.45683273906966" lon="7.9108630136955425"><ele>232.0</ele><time>2026-03-23T17:00:25Z</time></trkpt><trkpt lat="45.456893063319825" lon="7.910764253604559"><ele>232.0</ele><time>2026-03-23T17:00:26Z</time></trkpt><trkpt lat="45.45695158270055" lon="7.910668334163623"><ele>232.0</ele><time>2026-03-23T17:00:27Z</time></trkpt><trkpt lat="45.45701349085188" lon="7.910561760035465"><ele>232.0</ele><time>2026-03-23T17:00:28Z</time></trkpt><trkpt lat="45.457080266468914" lon="7.910458645464598"><ele>232.0</ele><time>2026-03-23T17:00:29Z</time></trkpt><trkpt lat="45.45715302473292" lon="7.910348565368398"><ele>232.0</ele><time>2026-03-23T17:00:30Z</time></trkpt><trkpt lat="45.45722052701585" lon="7.910244893486132"><ele>232.0</ele><time>2026-03-23T17:00:31Z</time></trkpt><trkpt lat="45.45728900745329" lon="7.910137807545142"><ele>232.0</ele><time>2026-03-23T17:00:32Z</time></trkpt><trkpt lat="45.45735912298488" lon="7.91002584003666"><ele>232.0</ele><time>2026-03-23T17:00:33Z</time></trkpt><trkpt lat="45.45741835453406" lon="7.909902257571016"><ele>232.0</ele><time>2026-03-23T17:00:34Z</time></trkpt><trkpt lat="45.45748620816849" lon="7.909799235276592"><ele>232.0</ele><time>2026-03-23T17:00:35Z</time></trkpt><trkpt lat="45.457579850594016" lon="7.90971194537689"><ele>232.0</ele><time>2026-03-23T17:00:36Z</time></trkpt><trkpt lat="45.45764904477485" lon="7.909603602212047"><ele>232.0</ele><time>2026-03-23T17:00:37Z</time></trkpt><trkpt lat="45.457706426412784" lon="7.9094814008392476"><ele>232.0</ele><time>2026-03-23T17:00:38Z</time></trkpt><trkpt lat="45.45777401224209" lon="7.90937405812121"><ele>232.0</ele><time>2026-03-23T17:00:39Z</time></trkpt><trkpt lat="45.45784685040932" lon="7.909270042713925"><ele>232.0</ele><time>2026-03-23T17:00:40Z</time></trkpt><trkpt lat="45.45791714743519" lon="7.909161971624053"><ele>232.0</ele><time>2026-03-23T17:00:41Z</time></trkpt><trkpt lat="45.4579826797386" lon="7.909053795412179"><ele>232.0</ele><time>2026-03-23T17:00:42Z</time></trkpt><trkpt lat="45.458051530482614" lon="7.908941329024311"><ele>232.0</ele><time>2026-03-23T17:00:43Z</time></trkpt><trkpt lat="45.45811758979704" lon="7.908842215411088"><ele>231.8</ele><time>2026-03-23T17:00:44Z</time></trkpt><trkpt lat="45.458191413978184" lon="7.908718660198763"><ele>231.6</ele><time>2026-03-23T17:00:45Z</time></trkpt><trkpt lat="45.45826227164025" lon="7.908605136273784"><ele>231.40000000000003</ele><time>2026-03-23T17:00:46Z</time></trkpt><trkpt lat="45.45834078144604" lon="7.9085025728813045"><ele>231.20000000000002</ele><time>2026-03-23T17:00:47Z</time></trkpt><trkpt lat="45.45840801964824" lon="7.908404416783103"><ele>231.0</ele><time>2026-03-23T17:00:48Z</time></trkpt><trkpt lat="45.458473403649876" lon="7.908285073052258"><ele>231.20000000000002</ele><time>2026-03-23T17:00:49Z</time></trkpt><trkpt lat="45.458537920043646" lon="7.908190112826912"><ele>231.40000000000003</ele><time>2026-03-23T17:00:50Z</time></trkpt><trkpt lat="45.45861082291735" lon="7.908084154129396"><ele>231.6</ele><time>2026-03-23T17:00:51Z</time></trkpt><trkpt lat="45.45869084706979" lon="7.907997433515132"><ele>231.8</ele><time>2026-03-23T17:00:52Z</time></trkpt><trkpt lat="45.4587510312462" lon="7.907878220474903"><ele>232.0</ele><time>2026-03-23T17:00:53Z</time></trkpt><trkpt lat="45.45882600259901" lon="7.907774230894926"><ele>232.0</ele><time>2026-03-23T17:00:54Z</time></trkpt><trkpt lat="45.458896625886545" lon="7.907673835359101"><ele>232.0</ele><time>2026-03-23T17:00:55Z</time></trkpt><trkpt lat="45.458960930663224" lon="7.907565866240604"><ele>232.0</ele><time>2026-03-23T17:00:56Z</time></trkpt><trkpt lat="45.45902278573961" lon="7.907462460493089"><ele>232.0</ele><time>2026-03-23T17:00:57Z</time></trkpt><trkpt lat="45.459085206717965" lon="7.907352602452913"><ele>232.0</ele><time>2026-03-23T17:00:58Z</time></trkpt><trkpt lat="45.459152436597826" lon="7.9072470398162755"><ele>231.99999999999997</ele><time>2026-03-23T17:00:59Z</time></trkpt><trkpt lat="45.45922290940529" lon="7.907169461326943"><ele>232.0</ele><time>2026-03-23T17:01:00Z</time></trkpt><trkpt lat="45.4592828645454" lon="7.907078330367313"><ele>232.0</ele><time>2026-03-23T17:01:01Z</time></trkpt><trkpt lat="45.45933027127101" lon="7.906972936298611"><ele>232.0</ele><time>2026-03-23T17:01:02Z</time></trkpt><trkpt lat="45.45938870780653" lon="7.906889322302656"><ele>231.99999999999997</ele><time>2026-03-23T17:01:03Z</time></trkpt><trkpt lat="45.45945196705805" lon="7.9068062991325405"><ele>232.0</ele><time>2026-03-23T17:01:04Z</time></trkpt><trkpt lat="45.459530702525505" lon="7.9067456374749545"><ele>232.2</ele><time>2026-03-23T17:01:05Z</time></trkpt><trkpt lat="45.459584498887445" lon="7.906654631542431"><ele>232.39999999999998</ele><time>2026-03-23T17:01:06Z</time></trkpt><trkpt lat="45.45967412713685" lon="7.906556148732243"><ele>232.60000000000002</ele><time>2026-03-23T17:01:08Z</time></trkpt><trkpt lat="45.459740222282235" lon="7.906508193023058"><ele>232.8</ele><time>2026-03-23T17:01:10Z</time></trkpt><trkpt lat="45.45981226552089" lon="7.906708827473992"><ele>233.0</ele><time>2026-03-23T17:01:11Z</time></trkpt><trkpt lat="45.45987935943018" lon="7.906793399179823"><ele>233.0</ele><time>2026-03-23T17:01:12Z</time></trkpt><trkpt lat="45.459925034191315" lon="7.906900246940264"><ele>233.0</ele><time>2026-03-23T17:01:13Z</time></trkpt><trkpt lat="45.459960240245536" lon="7.907005461222444"><ele>233.0</ele><time>2026-03-23T17:01:14Z</time></trkpt><trkpt lat="45.46013685047204" lon="7.907013049138103"><ele>233.0</ele><time>2026-03-23T17:01:16Z</time></trkpt><trkpt lat="45.460223733897195" lon="7.906979418024865"><ele>233.0</ele><time>2026-03-23T17:01:17Z</time></trkpt><trkpt lat="45.460308042576706" lon="7.906949969713897"><ele>233.00000000000003</ele><time>2026-03-23T17:01:18Z</time></trkpt><trkpt lat="45.46039679159737" lon="7.906912628326232"><ele>233.0</ele><time>2026-03-23T17:01:19Z</time></trkpt><trkpt lat="45.460482431549394" lon="7.906876352043528"><ele>233.0</ele><time>2026-03-23T17:01:20Z</time></trkpt><trkpt lat="45.46056414114416" lon="7.906856924357213"><ele>233.0</ele><time>2026-03-23T17:01:20.999Z</time></trkpt><trkpt lat="45.46064703640401" lon="7.906821672882901"><ele>233.00000000000003</ele><time>2026-03-23T17:01:21.999Z</time></trkpt><trkpt lat="45.460727397066464" lon="7.906793121738056"><ele>233.0</ele><time>2026-03-23T17:01:22.999Z</time></trkpt><trkpt lat="45.46079955263551" lon="7.906756647566919"><ele>233.4</ele><time>2026-03-23T17:01:24Z</time></trkpt><trkpt lat="45.46086730620322" lon="7.906713665240585"><ele>233.8</ele><time>2026-03-23T17:01:25Z</time></trkpt><trkpt lat="45.46093150029229" lon="7.906682989238477"><ele>234.2</ele><time>2026-03-23T17:01:26Z</time></trkpt><trkpt lat="45.46098643684558" lon="7.906638261318004"><ele>234.6</ele><time>2026-03-23T17:01:26.999Z</time></trkpt><trkpt lat="45.461065290879155" lon="7.906562858824554"><ele>235.0</ele><time>2026-03-23T17:01:28.999Z</time></trkpt><trkpt lat="45.461128235169944" lon="7.906763989776092"><ele>234.99999999999997</ele><time>2026-03-23T17:01:31.999Z</time></trkpt><trkpt lat="45.46115400144679" lon="7.906864524532837"><ele>235.0</ele><time>2026-03-23T17:01:32.999Z</time></trkpt><trkpt lat="45.461183353901795" lon="7.906963549582441"><ele>235.0</ele><time>2026-03-23T17:01:33.999Z</time></trkpt><trkpt lat="45.46120162703214" lon="7.907051770236907"><ele>235.0</ele><time>2026-03-23T17:01:34.999Z</time></trkpt><trkpt lat="45.461261574309354" lon="7.907157380075308"><ele>234.99999999999997</ele><time>2026-03-23T17:01:36.999Z</time></trkpt><trkpt lat="45.46135891082848" lon="7.907104130835335"><ele>235.0</ele><time>2026-03-23T17:01:38.999Z</time></trkpt><trkpt lat="45.4614204898661" lon="7.9070833177468955"><ele>238.0</ele><time>2026-03-23T17:01:39.999Z</time></trkpt><trkpt lat="45.46149657205074" lon="7.907079695744001"><ele>238.0</ele><time>2026-03-23T17:01:41.999Z</time></trkpt><trkpt lat="45.46154178611269" lon="7.907210451072818"><ele>238.0</ele><time>2026-03-23T17:01:44.999Z</time></trkpt><trkpt lat="45.461549889048655" lon="7.90730849473806"><ele>238.0</ele><time>2026-03-23T17:01:47.999Z</time></trkpt><trkpt lat="45.461549889048655" lon="7.90730849473806"><ele>238.0</ele><time>2026-03-23T17:01:47.999Z</time></trkpt><trkpt lat="45.461549889048655" lon="7.90730849473806"><ele>238.0</ele><time>2026-03-23T17:01:47.999Z</time></trkpt><trkpt lat="45.461549889048655" lon="7.90730849473806"><ele>238.0</ele><time>2026-03-23T17:01:47.999Z</time></trkpt></trkseg></trk></gpx>